# Wetter Temperatur Luftdruck Luftfeuchtigkeit Sichtweite Windgeschwindigkeit Windrichtung Zeit
1 Rain 22 1011 84 0 4.42 354 09:59 29.01.2020
2 Rain 22 1011 84 0 4.42 354 09:40 29.01.2020
3 Rain 22 1011 84 0 4.42 354 09:21 29.01.2020
4 Rain 22 1011 83 0 4.42 354 08:56 29.01.2020
5 Rain 24 1013 85 0 4.42 354 08:38 29.01.2020
6 Clouds 24 1013 87 0 3.62 35 08:18 29.01.2020
7 Rain 24 1014 88 0 3.28 34 07:43 29.01.2020
8 Rain 22 1011 82 0 3.28 34 07:24 29.01.2020
9 Clouds 22 1013 100 8047 3.28 34 06:39 29.01.2020
10 Clouds 22 1013 100 8047 3.28 34 06:21 29.01.2020
11 Clear 23 1012 94 8047 3.28 34 05:55 29.01.2020
12 Clear 23 1012 94 8047 3.28 34 05:36 29.01.2020
13 Clear 23 1012 88 8047 3.11 58 04:49 29.01.2020
14 Clear 23 1012 88 8047 3.11 58 04:49 29.01.2020
15 Clear 23 1012 88 8047 3.11 58 04:25 29.01.2020
16 Clear 24 1010 88 6437 3.11 58 02:41 29.01.2020
17 Clear 25 1009 88 8047 2.6 100 01:44 29.01.2020
18 Clouds 26 1008 83 6437 1.5 120 00:41 29.01.2020
19 Clouds 26 1008 83 6437 1.5 120 00:23 29.01.2020
20 Clouds 27 1008 74 8047 2.6 100 23:44 28.01.2020
21 Clouds 27 1008 74 8047 2.6 100 23:21 28.01.2020
22 Clouds 28 1008 62 8047 2.6 160 22:57 28.01.2020
23 Clouds 28 1008 62 8047 2.6 160 22:39 28.01.2020
24 Clouds 29 1008 62 8047 2.6 160 22:20 28.01.2020
25 Clouds 29 1008 62 8047 2.6 160 22:20 28.01.2020
26 Clouds 28 1008 69 8047 3.6 140 21:42 28.01.2020
27 Clouds 28 1008 69 8047 3.6 140 21:20 28.01.2020
28 Clouds 28 1008 69 8047 3.6 140 21:20 28.01.2020
29 Clouds 28 1010 65 8047 4.6 170 20:46 28.01.2020
30 Clouds 28 1010 65 8047 4.6 170 20:28 28.01.2020
31 Clouds 27 1011 78 6437 3.1 100 19:59 28.01.2020
32 Clouds 27 1011 78 6437 3.1 100 19:38 28.01.2020
33 Clouds 27 1011 78 6437 3.1 100 19:19 28.01.2020
34 Clouds 27 1013 83 6437 2.6 128 18:57 28.01.2020
35 Clouds 27 1013 83 6437 2.6 128 18:38 28.01.2020
36 Clouds 26 1013 83 6437 2.6 128 18:20 28.01.2020
37 Mist 26 1013 83 4828 2.6 128 17:55 28.01.2020
38 Mist 25 1013 83 4828 2.6 128 17:36 28.01.2020
39 Mist 25 1013 83 4828 2.33 211 17:18 28.01.2020
40 Mist 24 1013 94 4828 2.33 211 16:45 28.01.2020
41 Mist 24 1013 94 4828 2.33 211 16:27 28.01.2020
42 Mist 23 1012 94 4828 2.33 211 15:59 28.01.2020
43 Mist 23 1012 94 4828 2.33 211 15:40 28.01.2020
44 Mist 22 1012 94 4828 2.33 211 15:18 28.01.2020
45 Mist 22 1012 94 6437 2.33 211 14:44 28.01.2020
46 Mist 22 1012 94 6437 2.28 209 14:20 28.01.2020
47 Mist 21 1012 100 6437 2.28 209 13:43 28.01.2020
48 Mist 21 1012 100 6437 2.28 209 13:25 28.01.2020
49 Clouds 22 1010 83 0 2.07 217 12:56 28.01.2020
50 Clouds 21 1010 83 0 2.07 217 12:38 28.01.2020
51 Clouds 21 1009 83 0 2.07 217 12:20 28.01.2020
52 Clouds 21 1010 83 0 2.07 217 11:41 28.01.2020
53 Clouds 21 1010 83 0 2.07 217 11:41 28.01.2020
54 Clouds 21 1010 83 0 2.07 217 11:22 28.01.2020
55 Clouds 21 1010 83 0 1.03 204 10:55 28.01.2020
56 Clouds 21 1010 82 0 1.03 204 10:36 28.01.2020
57 Clouds 21 1010 82 0 1.03 204 10:18 28.01.2020
58 Clouds 22 1010 83 0 1.03 204 09:42 28.01.2020
59 Clouds 22 1011 83 0 0.45 27 09:20 28.01.2020
60 Clouds 22 1011 83 0 0.45 27 08:46 28.01.2020
61 Clouds 22 1011 83 0 0.45 27 08:26 28.01.2020
62 Clear 21 1011 82 0 0.34 258 07:56 28.01.2020
63 Clear 21 1011 82 0 0.89 27 07:34 28.01.2020
64 Clouds 22 1014 94 8047 0.34 258 06:48 28.01.2020
65 Clouds 22 1014 94 8047 0.34 258 06:25 28.01.2020
66 Clouds 22 1014 94 8047 0.34 258 05:40 28.01.2020
67 Clouds 22 1014 94 8047 2.12 44 05:21 28.01.2020
68 Clear 23 1013 88 8047 2.6 350 03:49 28.01.2020
69 Smoke 24 1013 83 8047 2.1 50 02:46 28.01.2020
70 Smoke 24 1013 83 8047 2.1 50 02:25 28.01.2020
71 Clouds 25 1012 78 8047 3.1 60 01:55 28.01.2020
72 Clouds 25 1012 78 8047 3.1 60 01:20 28.01.2020
73 Clear 25 1012 69 9656 4.1 60 00:43 28.01.2020
74 Clear 26 1012 69 9656 4.1 60 00:19 28.01.2020
75 Clouds 27 1012 69 9656 3.6 50 23:43 27.01.2020
76 Clouds 27 1012 69 9656 3.6 50 23:19 27.01.2020
77 Clouds 26 1013 78 9656 5.1 60 22:45 27.01.2020
78 Clouds 26 1013 78 9656 5.1 60 22:20 27.01.2020
79 Clouds 26 1013 78 9656 5.1 60 22:20 27.01.2020
80 Clouds 26 1013 78 9656 5.1 60 22:20 27.01.2020
81 Clouds 27 1014 69 9656 2.1 80 21:57 27.01.2020
82 Clouds 27 1014 69 9656 2.1 80 21:39 27.01.2020
83 Clouds 27 1014 69 9656 2.1 80 21:19 27.01.2020
84 Clouds 28 1014 61 9656 1 140 20:57 27.01.2020
85 Clouds 28 1014 61 9656 1 140 20:37 27.01.2020
86 Clouds 28 1014 61 9656 1 140 20:19 27.01.2020
87 Clouds 28 1016 65 8047 1.5 140 19:55 27.01.2020
88 Clouds 28 1016 65 8047 1.5 140 19:37 27.01.2020
89 Clouds 28 1016 65 8047 1.5 140 19:19 27.01.2020
90 Clouds 27 1017 74 6437 2.6 210 18:39 27.01.2020
91 Clouds 27 1017 74 6437 2.6 210 18:39 27.01.2020
92 Clouds 26 1017 74 6437 2.6 210 18:21 27.01.2020
93 Mist 26 1017 83 6437 2.6 210 17:57 27.01.2020
94 Clear 26 1015 69 0 1.34 184 17:37 27.01.2020
95 Clouds 26 1015 71 0 2.68 159 17:18 27.01.2020
96 Mist 24 1017 94 6437 2.37 235 16:42 27.01.2020
97 Mist 24 1017 94 6437 2.37 235 16:24 27.01.2020
98 Mist 22 1016 100 6437 2.37 235 15:59 27.01.2020
99 Mist 21 1016 100 6437 2.37 235 15:40 27.01.2020
100 Mist 21 1016 100 6437 2.37 235 15:19 27.01.2020
101 Haze 21 1015 94 6437 2.37 235 14:55 27.01.2020
102 Haze 21 1015 94 6437 2.37 235 14:37 27.01.2020
103 Haze 21 1015 94 6437 1.27 278 14:18 27.01.2020
104 Clouds 21 1015 94 8047 1.27 278 13:42 27.01.2020
105 Clouds 22 1015 94 8047 1.27 278 13:21 27.01.2020
106 Clouds 22 1015 94 8047 1.48 304 12:56 27.01.2020
107 Rain 21 1013 83 0 1.48 304 12:37 27.01.2020
108 Rain 21 1013 83 0 1.48 304 12:19 27.01.2020
109 Rain 21 1013 83 0 1.48 304 12:19 27.01.2020
110 Rain 21 1013 83 0 1.48 304 11:42 27.01.2020
111 Clear 21 1013 83 0 0.89 360 11:21 27.01.2020
112 Clear 21 1013 83 0 0.89 360 11:21 27.01.2020
113 Clear 21 1013 83 0 0.89 360 11:21 27.01.2020
114 Clear 21 1012 84 0 1.79 15 10:44 27.01.2020
115 Clear 21 1012 83 0 1.6 315 10:25 27.01.2020
116 Clear 21 1012 83 0 0.45 55 09:58 27.01.2020
117 Clear 21 1012 83 0 0.45 55 09:39 27.01.2020
118 Clear 21 1012 83 0 1.6 315 09:18 27.01.2020
119 Clear 21 1013 83 0 1.6 315 08:46 27.01.2020
120 Clear 21 1013 83 0 1.6 315 08:22 27.01.2020
121 Clear 21 1013 83 0 2.51 324 07:55 27.01.2020
122 Clear 21 1013 83 0 2.51 324 07:35 27.01.2020
123 Mist 22 1015 94 8047 2.51 324 06:55 27.01.2020
124 Mist 22 1015 94 8047 2.51 324 06:27 27.01.2020
125 Mist 22 1015 94 8047 2.51 324 06:27 27.01.2020
126 Clear 22 1015 94 8047 2.51 324 05:28 27.01.2020
127 Clear 23 1015 94 8047 2.25 15 04:20 27.01.2020
128 Clear 24 1014 88 9656 1.5 40 03:23 27.01.2020
129 Clear 25 1013 78 9656 1.5 70 01:31 27.01.2020
130 Clear 26 1013 65 8047 3.6 40 00:59 27.01.2020
131 Clear 27 1013 65 8047 3.6 40 00:37 27.01.2020
132 Clear 27 1013 65 8047 3.6 40 00:19 27.01.2020
133 Haze 27 1013 69 6437 3.1 30 23:41 26.01.2020
134 Haze 27 1013 69 6437 3.1 30 23:19 26.01.2020
135 Haze 28 1013 69 6437 4.1 60 22:55 26.01.2020
136 Haze 28 1013 69 6437 4.1 60 22:37 26.01.2020
137 Haze 28 1013 69 6437 4.1 60 22:18 26.01.2020
138 Haze 28 1013 65 6437 4.1 50 21:55 26.01.2020
139 Haze 28 1013 65 6437 4.1 50 21:37 26.01.2020
140 Haze 28 1013 65 6437 4.1 50 21:19 26.01.2020
141 Haze 28 1014 61 6437 1 360 20:55 26.01.2020
142 Haze 28 1014 61 6437 1 360 20:36 26.01.2020
143 Haze 28 1014 61 6437 1 360 20:18 26.01.2020
144 Clouds 28 1015 65 8047 1.73 108 19:56 26.01.2020
145 Clouds 27 1015 65 8047 1.73 108 19:36 26.01.2020
146 Clouds 27 1015 65 8047 1.73 108 19:18 26.01.2020
147 Haze 27 1016 69 6437 1.5 80 18:41 26.01.2020
148 Haze 27 1016 69 6437 1.5 80 18:22 26.01.2020
149 Haze 26 1017 78 6437 1.73 108 17:58 26.01.2020
150 Haze 26 1017 78 6437 1.73 108 17:39 26.01.2020
151 Haze 26 1017 78 6437 1.44 245 17:19 26.01.2020
152 Haze 25 1016 88 6437 1.44 245 16:58 26.01.2020
153 Haze 25 1016 88 6437 1.44 245 16:39 26.01.2020
154 Haze 25 1016 88 6437 1.44 245 16:39 26.01.2020
155 Haze 24 1016 88 6437 1.44 245 16:20 26.01.2020
156 Clouds 24 1015 78 0 0.45 109 15:57 26.01.2020
157 Clouds 23 1015 80 0 0.89 109 15:39 26.01.2020
158 Clouds 23 1014 82 0 0.89 109 15:18 26.01.2020
159 Clouds 22 1014 82 0 1.44 245 14:40 26.01.2020
160 Clouds 22 1014 82 0 1.96 231 14:20 26.01.2020
161 Clouds 22 1013 82 0 0.45 109 13:43 26.01.2020
162 Clouds 22 1013 82 0 1.96 231 13:21 26.01.2020
163 Clear 22 1013 82 0 0.45 109 12:58 26.01.2020
164 Clear 22 1013 82 0 2.16 241 12:40 26.01.2020
165 Clear 22 1013 82 0 2.16 241 12:21 26.01.2020
166 Clear 22 1013 82 0 2.16 241 11:57 26.01.2020
167 Clear 22 1013 82 0 2.16 241 11:39 26.01.2020
168 Rain 22 1013 82 0 1.7 226 11:18 26.01.2020
169 Rain 22 1013 82 0 1.7 226 10:58 26.01.2020
170 Rain 22 1013 82 0 1.7 226 10:38 26.01.2020
171 Rain 22 1013 82 0 0.45 109 10:20 26.01.2020
172 Rain 22 1013 82 0 1.7 226 09:57 26.01.2020
173 Rain 22 1013 82 0 1.7 226 09:39 26.01.2020
174 Rain 21 1015 95 0 1.7 226 09:20 26.01.2020
175 Rain 21 1015 95 0 1.7 226 08:43 26.01.2020
176 Clear 21 1015 95 0 1.32 251 08:22 26.01.2020
177 Clear 22 1016 93 0 1.19 166 07:56 26.01.2020
178 Clear 22 1016 93 0 1.19 166 07:38 26.01.2020
179 Clear 21 1017 94 9656 1.19 166 07:19 26.01.2020
180 Clear 21 1017 94 9656 1.19 166 06:29 26.01.2020
181 Clear 22 1015 80 0 1.19 166 05:30 26.01.2020
182 Clouds 22 1017 100 11265 2.99 85 04:44 26.01.2020
183 Clear 24 1015 83 11265 1 120 02:38 26.01.2020
184 Clouds 24 1015 83 11265 2.6 90 01:46 26.01.2020
185 Clouds 24 1015 83 11265 2.6 90 01:23 26.01.2020
186 Clear 25 1015 73 11265 2.6 80 00:44 26.01.2020
187 Clear 25 1015 73 11265 2.6 80 00:26 26.01.2020
188 Clear 26 1013 65 0 3.13 80 23:40 25.01.2020
189 Clear 26 1013 65 0 3.13 85 23:21 25.01.2020
190 Clear 26 1013 64 0 4.02 94 22:56 25.01.2020
191 Clear 26 1013 64 0 4.02 94 22:56 25.01.2020
192 Clear 26 1013 62 0 4.47 78 22:37 25.01.2020
193 Clear 26 1013 62 0 4.47 78 22:37 25.01.2020
194 Clear 26 1013 61 0 3.58 88 22:18 25.01.2020
195 Clear 26 1013 58 0 4.47 107 21:55 25.01.2020
196 Clear 27 1014 58 0 4.02 88 21:37 25.01.2020
197 Clear 24 1014 75 0 3.92 88 21:19 25.01.2020
198 Clear 27 1015 53 0 3.58 100 20:43 25.01.2020
199 Clear 24 1014 75 0 3.92 88 20:24 25.01.2020
200 Rain 27 1016 57 0 3.58 121 19:48 25.01.2020
201 Rain 27 1017 59 0 3.13 86 19:20 25.01.2020
202 Clouds 24 1018 72 0 2.66 98 19:20 25.01.2020
203 Clouds 26 1018 65 0 2.24 114 18:59 25.01.2020
204 Clear 26 1017 62 0 2.24 113 18:41 25.01.2020
205 Clouds 26 1018 63 0 1.79 112 18:20 25.01.2020
206 Clouds 26 1018 65 0 2.24 114 17:54 25.01.2020
207 Clouds 26 1018 65 0 2.24 114 17:36 25.01.2020
208 Clear 24 1018 68 0 0.45 132 17:18 25.01.2020
209 Clear 24 1018 71 0 0.89 191 16:42 25.01.2020
210 Clear 24 1018 73 0 0.89 230 16:22 25.01.2020
211 Clear 23 1018 75 0 0.45 284 15:56 25.01.2020
212 Clear 21 1017 82 0 0.46 301 15:37 25.01.2020
213 Clear 19 1017 84 0 1.34 288 15:19 25.01.2020
214 Clear 19 1017 83 0 0.46 301 14:41 25.01.2020
215 Clouds 18 1016 83 0 0.45 288 14:19 25.01.2020
216 Clouds 18 1016 82 0 0.45 288 13:44 25.01.2020
217 Clear 18 1016 82 0 0.45 288 13:25 25.01.2020
218 Clear 18 1016 82 0 0.9 287 12:50 25.01.2020
219 Clear 19 1016 81 0 0.9 287 12:30 25.01.2020
220 Clear 20 1016 81 0 0.9 287 11:55 25.01.2020
221 Clear 20 1016 81 0 0.9 287 11:36 25.01.2020
222 Clear 20 1016 81 0 1.85 302 11:18 25.01.2020
223 Clear 20 1016 81 0 1.85 302 10:41 25.01.2020
224 Clear 20 1016 81 0 1.85 302 10:21 25.01.2020
225 Clear 20 1016 81 0 0.45 288 09:57 25.01.2020
226 Clear 20 1016 82 0 0.89 288 09:37 25.01.2020
227 Clear 20 1016 82 0 0.89 288 09:18 25.01.2020
228 Clear 20 1017 82 0 0.89 288 08:42 25.01.2020
229 Rain 20 1017 81 0 0.98 305 07:53 25.01.2020
230 Rain 20 1017 81 0 0.98 305 07:53 25.01.2020
231 Clouds 21 1019 94 11265 0.98 305 06:58 25.01.2020
232 Clouds 21 1019 94 11265 0.98 305 06:31 25.01.2020
233 Clouds 21 1020 94 11265 0.98 305 05:50 25.01.2020
234 Clouds 21 1020 94 11265 0.98 305 05:30 25.01.2020
235 Rain 22 1019 88 9656 2.1 340 03:55 25.01.2020
236 Rain 23 1019 88 9656 2.1 340 03:34 25.01.2020
237 Clouds 24 1018 83 11265 4.1 50 02:24 25.01.2020
238 Clouds 24 1017 78 8047 2.6 60 01:53 25.01.2020
239 Clouds 24 1017 78 9656 4.1 50 00:52 25.01.2020
240 Clouds 24 1017 78 9656 4.1 50 00:26 25.01.2020
241 Clouds 24 1017 78 9656 4.1 50 00:26 25.01.2020
242 Clouds 25 1017 69 8047 4.1 60 23:59 24.01.2020
243 Clouds 25 1017 69 8047 4.1 60 23:59 24.01.2020
244 Clouds 25 1017 69 8047 4.1 60 23:41 24.01.2020
245 Clouds 25 1017 69 8047 4.1 60 23:41 24.01.2020
246 Clouds 25 1017 69 8047 4.1 60 23:23 24.01.2020
247 Clouds 25 1017 73 8047 4.1 80 22:46 24.01.2020
248 Clouds 25 1017 73 8047 4.1 80 22:46 24.01.2020
249 Clouds 24 1017 73 8047 4.1 80 22:25 24.01.2020
250 Clouds 25 1018 69 8047 3.6 10 21:56 24.01.2020
251 Clouds 25 1018 69 8047 3.6 10 21:38 24.01.2020
252 Clouds 25 1018 69 8047 3.6 10 21:18 24.01.2020
253 Clouds 25 1019 78 8047 4.1 30 20:42 24.01.2020
254 Clouds 24 1019 78 8047 4.1 30 20:21 24.01.2020
255 Clouds 25 1019 73 8047 4.1 10 19:57 24.01.2020
256 Clouds 25 1019 73 8047 4.1 10 19:39 24.01.2020
257 Clouds 25 1019 73 8047 4.1 10 19:21 24.01.2020
258 Clouds 25 1020 78 8047 4.6 340 18:43 24.01.2020
259 Clouds 24 1020 78 8047 4.6 340 18:24 24.01.2020
260 Mist 23 1020 88 6437 2.1 360 17:56 24.01.2020
261 Mist 23 1020 88 6437 2.1 360 17:38 24.01.2020
262 Mist 23 1020 88 6437 2.1 360 17:18 24.01.2020
263 Mist 23 1019 88 6437 1 340 16:39 24.01.2020
264 Mist 22 1019 88 6437 1 340 16:20 24.01.2020
265 Mist 22 1017 88 8047 1.85 310 15:43 24.01.2020
266 Mist 21 1017 88 8047 1.85 310 15:23 24.01.2020
267 Mist 20 1016 94 9656 1.85 310 14:58 24.01.2020
268 Mist 20 1016 94 9656 1.85 310 14:40 24.01.2020
269 Mist 20 1016 94 9656 1.91 318 14:21 24.01.2020
270 Clouds 20 1016 94 9656 1.91 318 13:43 24.01.2020
271 Clouds 20 1016 94 9656 1.91 318 13:23 24.01.2020
272 Rain 20 1014 80 0 0.45 329 12:44 24.01.2020
273 Rain 20 1013 81 0 1.59 325 12:22 24.01.2020
274 Rain 21 1013 81 0 0.89 329 11:57 24.01.2020
275 Rain 21 1013 81 0 0.45 329 11:38 24.01.2020
276 Rain 21 1013 81 0 0.45 329 11:18 24.01.2020
277 Rain 21 1013 81 0 0.45 329 11:18 24.01.2020
278 Rain 21 1013 81 0 0.45 329 10:41 24.01.2020
279 Rain 21 1013 81 0 0.89 329 10:20 24.01.2020
280 Rain 21 1013 81 0 2 296 09:42 24.01.2020
281 Rain 21 1013 81 0 2 296 09:42 24.01.2020
282 Rain 21 1014 81 0 1.34 329 09:24 24.01.2020
283 Rain 21 1014 81 0 1.34 329 08:59 24.01.2020
284 Rain 21 1014 81 0 2 296 08:38 24.01.2020
285 Rain 21 1014 80 0 0.89 329 08:18 24.01.2020
286 Rain 22 1014 80 0 1.19 51 07:43 24.01.2020
287 Rain 22 1014 80 0 1.19 51 07:21 24.01.2020
288 Clouds 22 1016 88 11265 1.19 51 06:43 24.01.2020
289 Clouds 22 1016 88 11265 1.19 51 06:43 24.01.2020
290 Clouds 22 1016 88 11265 1.19 51 06:23 24.01.2020
291 Clouds 22 1017 88 11265 3.27 46 05:21 24.01.2020
292 Clouds 23 1015 83 11265 3.27 46 03:29 24.01.2020
293 Clouds 23 1014 83 11265 1.5 50 02:39 24.01.2020
294 Clouds 23 1014 83 11265 1.5 50 02:19 24.01.2020
295 Clouds 23 1013 83 11265 2.6 60 01:38 24.01.2020
296 Clouds 24 1012 69 11265 2.1 80 00:42 24.01.2020
297 Clouds 25 1012 69 11265 2.1 80 00:19 24.01.2020
298 Clouds 25 1012 69 11265 3.1 100 23:41 23.01.2020
299 Clouds 25 1012 69 11265 3.1 100 23:21 23.01.2020
300 Clouds 25 1012 61 11265 2.6 80 22:58 23.01.2020
301 Clouds 26 1012 61 11265 2.6 80 22:37 23.01.2020
302 Clouds 26 1012 61 11265 2.6 80 22:18 23.01.2020
303 Clouds 26 1012 61 11265 1 130 21:55 23.01.2020
304 Clouds 26 1012 61 11265 1 130 21:37 23.01.2020
305 Clouds 26 1012 61 11265 1 130 21:18 23.01.2020
306 Clouds 25 1013 65 11265 1 100 20:41 23.01.2020
307 Clouds 26 1013 65 11265 1 100 20:22 23.01.2020
308 Clouds 26 1014 57 9656 1 160 19:57 23.01.2020
309 Clouds 26 1014 57 9656 1 160 19:39 23.01.2020
310 Clouds 26 1014 57 9656 1 160 19:39 23.01.2020
311 Clouds 26 1014 57 9656 1 160 19:21 23.01.2020
312 Clouds 25 1014 65 9656 2.07 137 18:56 23.01.2020
313 Clouds 25 1014 65 9656 2.07 137 18:38 23.01.2020
314 Clouds 25 1014 65 9656 2.07 137 18:19 23.01.2020
315 Clouds 24 1015 78 9656 1 230 17:45 23.01.2020
316 Clouds 23 1015 78 9656 1 230 17:21 23.01.2020
317 Clouds 22 1015 94 9656 3.37 221 16:59 23.01.2020
318 Clouds 21 1015 94 9656 3.37 221 16:39 23.01.2020
319 Clouds 21 1015 94 9656 3.37 221 16:19 23.01.2020
320 Clouds 20 1014 88 9656 3.37 221 15:58 23.01.2020
321 Clouds 20 1014 88 9656 3.37 221 15:38 23.01.2020
322 Clouds 20 1014 88 9656 3.37 221 15:19 23.01.2020
323 Clouds 20 1014 93 8047 3.37 221 14:58 23.01.2020
324 Clouds 19 1014 93 8047 3.37 221 14:40 23.01.2020
325 Clouds 19 1014 93 8047 1.36 255 14:21 23.01.2020
326 Clouds 19 1013 93 9656 1.36 255 13:46 23.01.2020
327 Clouds 19 1013 93 9656 1.53 216 13:21 23.01.2020
328 Clear 19 1011 82 0 1.47 229 12:57 23.01.2020
329 Clear 19 1011 82 0 1.53 216 12:57 23.01.2020
330 Clear 19 1011 82 0 1.47 229 12:39 23.01.2020
331 Clear 19 1011 82 0 1.53 216 12:20 23.01.2020
332 Clear 19 1011 82 0 1.53 216 11:45 23.01.2020
333 Clear 19 1011 83 0 1.47 229 11:25 23.01.2020
334 Clear 19 1011 82 0 1.51 185 10:59 23.01.2020
335 Clear 19 1011 82 0 1.51 185 10:40 23.01.2020
336 Clear 19 1011 83 0 0.82 230 10:19 23.01.2020
337 Clear 18 1011 83 0 0.82 230 09:41 23.01.2020
338 Clear 18 1011 83 0 1.51 185 09:22 23.01.2020
339 Clear 17 1012 82 0 0.82 230 08:56 23.01.2020
340 Clear 17 1012 82 0 0.82 230 08:38 23.01.2020
341 Clear 18 1012 82 0 0.89 192 08:19 23.01.2020
342 Clear 18 1013 82 0 3 166 07:39 23.01.2020
343 Clear 18 1013 81 0 0.45 192 07:18 23.01.2020
344 Clear 18 1015 88 11265 1.5 190 06:44 23.01.2020
345 Clear 19 1015 88 11265 1.5 190 06:18 23.01.2020
346 Clear 20 1015 82 11265 1 170 04:25 23.01.2020
347 Clear 20 1015 82 11265 3.6 116 03:47 23.01.2020
348 Clouds 22 1014 78 11265 5.07 94 01:55 23.01.2020
349 Clouds 23 1013 73 11265 2.1 110 00:46 23.01.2020
350 Clouds 23 1013 73 11265 2.1 110 00:24 23.01.2020
351 Clouds 24 1013 64 11265 2.6 180 23:46 22.01.2020
352 Clouds 24 1013 64 11265 2.6 180 23:28 22.01.2020
353 Clouds 24 1014 64 11265 4.6 170 22:55 22.01.2020
354 Clouds 24 1014 64 11265 4.6 170 22:36 22.01.2020
355 Clouds 24 1014 64 11265 4.6 170 22:18 22.01.2020
356 Clouds 25 1015 61 11265 3.6 160 21:38 22.01.2020
357 Clouds 25 1015 61 11265 3.6 160 21:19 22.01.2020
358 Clouds 24 1016 64 11265 5.7 170 20:55 22.01.2020
359 Clouds 24 1016 64 11265 5.7 170 20:36 22.01.2020
360 Clouds 24 1016 64 11265 5.7 170 20:18 22.01.2020
361 Clouds 24 1018 64 11265 3.1 160 19:41 22.01.2020
362 Clouds 24 1018 64 11265 3.1 160 19:21 22.01.2020
363 Clouds 24 1018 64 11265 3.1 160 19:21 22.01.2020
364 Clouds 23 1019 78 11265 4.6 180 18:59 22.01.2020
365 Clouds 22 1019 78 11265 4.6 180 18:40 22.01.2020
366 Clouds 22 1019 78 11265 4.6 180 18:21 22.01.2020
367 Clouds 21 1020 94 11265 3.1 190 17:59 22.01.2020
368 Clouds 21 1020 94 11265 3.1 190 17:39 22.01.2020
369 Clouds 20 1020 94 11265 3.1 190 17:20 22.01.2020
370 Clouds 20 1021 93 9656 2.6 190 16:56 22.01.2020
371 Clouds 19 1021 93 9656 2.6 190 16:37 22.01.2020
372 Clouds 19 1021 93 9656 2.6 190 16:18 22.01.2020
373 Clouds 18 1020 100 9656 2.6 170 15:42 22.01.2020
374 Clouds 18 1020 100 9656 2.6 170 15:24 22.01.2020
375 Clouds 18 1020 100 8047 2.56 190 14:59 22.01.2020
376 Clouds 17 1020 100 8047 2.56 190 14:38 22.01.2020
377 Clouds 17 1020 100 8047 1.66 270 14:20 22.01.2020
378 Clouds 17 1020 100 9656 1.66 270 13:56 22.01.2020
379 Clouds 17 1020 100 9656 1.66 270 13:37 22.01.2020
380 Clouds 17 1020 100 9656 0.8 225 13:19 22.01.2020
381 Rain 18 1018 84 0 0.45 197 12:56 22.01.2020
382 Rain 18 1018 84 0 0.45 197 12:56 22.01.2020
383 Rain 18 1018 84 0 0.45 198 12:38 22.01.2020
384 Rain 18 1019 84 0 0.45 197 12:19 22.01.2020
385 Rain 18 1019 84 0 0.45 197 11:56 22.01.2020
386 Rain 18 1019 84 0 1.34 197 11:38 22.01.2020
387 Rain 18 1019 84 0 0.89 197 11:19 22.01.2020
388 Rain 18 1020 83 0 0.45 197 10:44 22.01.2020
389 Rain 18 1020 83 0 0.72 159 10:21 22.01.2020
390 Rain 18 1020 83 0 0.72 159 09:45 22.01.2020
391 Rain 18 1021 83 0 0.72 159 09:26 22.01.2020
392 Rain 18 1021 83 0 0.89 197 08:59 22.01.2020
393 Rain 19 1022 86 0 0.72 159 08:40 22.01.2020
394 Rain 19 1024 87 0 1.52 34 08:21 22.01.2020
395 Rain 19 1024 87 0 1.52 34 07:59 22.01.2020
396 Rain 19 1024 87 0 1.52 34 07:40 22.01.2020
397 Rain 19 1024 87 0 1.52 34 07:40 22.01.2020
398 Rain 18 1023 82 0 0.45 188 07:21 22.01.2020
399 Rain 18 1025 100 9656 1.52 34 06:31 22.01.2020
400 Rain 18 1025 100 9656 1.52 34 05:42 22.01.2020
401 Rain 19 1023 75 0 3.58 109 04:23 22.01.2020
402 Clouds 20 1024 82 11265 1.5 20 03:26 22.01.2020
403 Clouds 20 1024 82 11265 2.1 360 02:32 22.01.2020
404 Clouds 22 1024 73 11265 4.6 40 00:46 22.01.2020
405 Clouds 22 1024 73 11265 4.6 40 00:27 22.01.2020
406 Clouds 22 1024 68 11265 5.1 30 23:55 21.01.2020
407 Clouds 22 1024 68 11265 5.1 30 23:36 21.01.2020
408 Clouds 22 1024 68 11265 5.1 30 23:18 21.01.2020
409 Clouds 23 1024 64 11265 5.1 40 22:40 21.01.2020
410 Clouds 23 1024 64 11265 5.1 40 22:20 21.01.2020
411 Clouds 23 1024 64 11265 5.1 40 22:20 21.01.2020
412 Clouds 22 1025 68 11265 4.6 40 21:57 21.01.2020
413 Clouds 23 1025 68 11265 4.6 40 21:38 21.01.2020
414 Clouds 22 1025 68 11265 4.6 40 21:20 21.01.2020
415 Clouds 22 1027 68 11265 2.1 40 20:56 21.01.2020
416 Clouds 22 1027 68 11265 2.1 40 20:37 21.01.2020
417 Clouds 22 1027 68 11265 2.1 40 20:18 21.01.2020
418 Clouds 22 1028 68 8047 2.6 360 19:56 21.01.2020
419 Clouds 22 1028 68 8047 2.6 360 19:37 21.01.2020
420 Clouds 22 1028 68 8047 2.6 360 19:19 21.01.2020
421 Rain 22 1028 68 8047 4.1 10 18:55 21.01.2020
422 Clouds 21 1028 68 9656 5.7 360 18:37 21.01.2020
423 Clouds 22 1028 68 9656 5.7 360 18:18 21.01.2020
424 Clouds 22 1029 73 9656 7.6 345 17:44 21.01.2020
425 Clouds 21 1029 73 9656 8.19 345 17:20 21.01.2020
426 Clouds 21 1028 77 8047 8.19 345 16:58 21.01.2020
427 Clouds 20 1028 77 8047 8.19 345 16:37 21.01.2020
428 Clouds 20 1028 77 8047 8.19 345 16:18 21.01.2020
429 Clouds 18 1028 82 8047 8.19 345 15:41 21.01.2020
430 Clouds 18 1028 82 8047 8.19 345 15:21 21.01.2020
431 Clouds 18 1027 88 8047 8.19 345 14:58 21.01.2020
432 Clouds 18 1027 88 8047 8.19 345 14:37 21.01.2020
433 Clouds 18 1027 88 8047 4.43 327 14:19 21.01.2020
434 Clouds 18 1026 82 8047 3.1 330 13:39 21.01.2020
435 Clouds 18 1026 82 8047 3.1 330 13:19 21.01.2020
436 Clouds 18 1026 82 8047 3.1 330 12:43 21.01.2020
437 Clouds 18 1025 73 0 3.13 329 12:25 21.01.2020
438 Clouds 18 1024 75 0 1.34 318 11:57 21.01.2020
439 Clouds 18 1024 76 0 0.45 279 11:38 21.01.2020
440 Clouds 18 1024 76 0 0.89 271 11:20 21.01.2020
441 Clouds 18 1024 74 0 0.89 267 10:44 21.01.2020
442 Clouds 18 1024 76 0 0.45 236 10:23 21.01.2020
443 Clouds 18 1024 76 0 0.45 236 09:59 21.01.2020
444 Clouds 18 1025 77 0 0.45 226 09:40 21.01.2020
445 Clouds 18 1025 76 0 0.89 226 09:21 21.01.2020
446 Clouds 18 1025 75 0 0.89 226 08:47 21.01.2020
447 Clouds 18 1025 74 0 1.34 246 08:27 21.01.2020
448 Clouds 18 1025 71 0 1.79 306 07:56 21.01.2020
449 Clouds 19 1026 69 0 2.24 297 07:37 21.01.2020
450 Clouds 19 1026 69 0 2.24 297 07:19 21.01.2020
451 Clouds 20 1028 72 11265 7.7 360 06:44 21.01.2020
452 Clouds 20 1028 72 11265 7.7 360 06:23 21.01.2020
453 Clouds 20 1028 72 11265 5.1 360 05:41 21.01.2020
454 Clouds 20 1027 72 11265 5.1 360 04:39 21.01.2020
455 Clouds 20 1027 72 11265 5.1 360 04:39 21.01.2020
456 Clouds 20 1026 72 11265 9.3 350 02:54 21.01.2020
457 Clouds 20 1025 68 11265 10.3 340 01:47 21.01.2020
458 Clouds 21 1024 68 11265 10.3 360 00:52 21.01.2020
459 Clouds 21 1024 68 11265 10.3 360 00:29 21.01.2020
460 Clouds 22 1024 64 11265 10.3 360 23:57 20.01.2020
461 Clouds 22 1024 64 11265 10.3 360 23:36 20.01.2020
462 Clouds 22 1024 64 11265 10.3 360 23:36 20.01.2020
463 Clouds 22 1024 64 11265 10.3 360 23:18 20.01.2020
464 Clouds 22 1024 60 11265 8.2 360 22:55 20.01.2020
465 Clouds 23 1024 60 11265 8.2 360 22:36 20.01.2020
466 Clouds 23 1024 60 11265 8.2 360 22:18 20.01.2020
467 Clouds 23 1025 60 11265 7.2 360 21:55 20.01.2020
468 Clouds 23 1025 60 11265 7.2 360 21:36 20.01.2020
469 Clouds 23 1025 60 11265 7.2 360 21:18 20.01.2020
470 Clouds 23 1025 60 8047 6.2 360 20:43 20.01.2020
471 Clouds 23 1025 60 8047 6.2 360 20:20 20.01.2020
472 Clouds 23 1026 68 8047 2.6 350 19:59 20.01.2020
473 Clouds 23 1026 68 8047 2.6 350 19:59 20.01.2020
474 Clouds 23 1026 68 8047 2.6 350 19:41 20.01.2020
475 Clouds 22 1026 68 8047 2.6 350 19:19 20.01.2020
476 Clouds 22 1026 77 8047 3.6 350 18:56 20.01.2020
477 Clouds 22 1026 77 8047 3.6 350 18:38 20.01.2020
478 Clouds 22 1026 77 8047 3.6 350 18:19 20.01.2020
479 Clouds 22 1026 77 8047 3.6 350 18:19 20.01.2020
480 Clouds 22 1026 78 8047 2.6 360 17:39 20.01.2020
481 Clouds 22 1026 78 8047 2.6 360 17:19 20.01.2020
482 Clouds 21 1025 73 8047 4.1 350 16:47 20.01.2020
483 Clouds 21 1025 73 8047 4.1 350 16:47 20.01.2020
484 Clouds 21 1025 73 8047 4.1 350 16:26 20.01.2020
485 Clouds 22 1024 73 8047 6.2 350 15:59 20.01.2020
486 Clouds 22 1024 73 8047 6.2 350 15:40 20.01.2020
487 Clouds 22 1024 73 8047 6.2 350 15:22 20.01.2020
488 Clouds 21 1024 83 8047 4.1 10 14:58 20.01.2020
489 Clouds 21 1024 83 8047 4.1 10 14:39 20.01.2020
490 Clouds 21 1024 83 8047 4.1 10 14:20 20.01.2020
491 Clouds 21 1023 77 8047 4.1 350 13:44 20.01.2020
492 Clouds 21 1023 77 8047 4.1 350 13:24 20.01.2020
493 Clouds 21 1023 77 8047 4.1 350 12:58 20.01.2020
494 Clouds 21 1021 72 0 5.36 355 12:40 20.01.2020
495 Clouds 21 1021 73 0 4.92 355 12:21 20.01.2020
496 Clouds 21 1021 73 0 5.36 350 11:55 20.01.2020
497 Clouds 21 1021 74 0 4.92 14 11:36 20.01.2020
498 Clouds 21 1021 74 0 4.02 360 11:18 20.01.2020
499 Clouds 21 1021 74 0 5.36 360 10:41 20.01.2020
500 Clouds 22 1021 73 0 4.92 348 10:20 20.01.2020
501 Clouds 22 1021 71 0 3.58 351 09:41 20.01.2020
502 Clouds 22 1021 71 0 4.47 355 09:23 20.01.2020
503 Clouds 22 1021 70 0 4.02 9 08:55 20.01.2020
504 Clouds 22 1021 70 0 4.92 355 08:31 20.01.2020
505 Clouds 22 1021 69 0 4.47 9 07:55 20.01.2020
506 Clouds 22 1021 67 0 4.02 5 07:37 20.01.2020
507 Clouds 22 1021 68 0 4.92 355 07:19 20.01.2020
508 Clouds 22 1023 78 11265 3.6 330 06:36 20.01.2020
509 Clouds 22 1024 83 11265 5.1 350 05:56 20.01.2020
510 Clouds 22 1024 83 11265 5.1 350 05:37 20.01.2020
511 Clouds 22 1024 83 11265 5.1 350 05:18 20.01.2020
512 Clouds 21 1022 94 11265 7.7 350 03:47 20.01.2020
513 Clouds 24 1020 83 11265 6.2 360 01:58 20.01.2020
514 Clouds 23 1020 83 11265 6.2 360 01:39 20.01.2020
515 Clouds 24 1020 83 11265 7.2 350 00:55 20.01.2020
516 Clouds 24 1020 83 11265 7.2 350 00:28 20.01.2020
517 Clouds 25 1019 78 11265 6.7 350 23:56 19.01.2020
518 Clouds 25 1019 78 11265 6.7 350 23:37 19.01.2020
519 Clouds 25 1019 78 11265 6.7 350 23:18 19.01.2020
520 Clouds 25 1019 83 11265 6.2 10 22:55 19.01.2020
521 Clouds 26 1019 83 11265 6.2 10 22:36 19.01.2020
522 Clouds 25 1019 83 11265 6.2 10 22:18 19.01.2020
523 Clouds 26 1019 74 11265 7.2 10 21:55 19.01.2020
524 Clouds 26 1019 74 11265 7.2 10 21:55 19.01.2020
525 Clouds 27 1019 74 11265 7.2 10 21:37 19.01.2020
526 Clouds 27 1019 74 11265 7.2 10 21:19 19.01.2020
527 Clouds 27 1021 74 11265 3.1 360 20:55 19.01.2020
528 Clouds 27 1021 74 11265 3.1 360 20:55 19.01.2020
529 Clouds 27 1021 74 11265 3.1 360 20:37 19.01.2020
530 Clouds 27 1021 74 11265 3.1 360 20:37 19.01.2020
531 Clouds 27 1021 74 11265 3.1 360 20:18 19.01.2020
532 Clouds 27 1021 78 11265 5.1 30 19:54 19.01.2020
533 Clouds 26 1021 78 11265 5.1 30 19:36 19.01.2020
534 Clouds 27 1021 78 11265 5.1 30 19:18 19.01.2020
535 Clouds 26 1022 74 9656 6.2 10 18:54 19.01.2020
536 Clouds 26 1022 74 9656 6.2 10 18:36 19.01.2020
537 Clouds 26 1022 74 9656 6.2 10 18:18 19.01.2020
538 Clouds 26 1022 78 9656 5.1 10 17:56 19.01.2020
539 Clouds 26 1022 78 9656 5.1 10 17:38 19.01.2020
540 Clouds 26 1022 78 9656 5.1 10 17:18 19.01.2020
541 Clouds 25 1021 83 9656 4.6 20 16:54 19.01.2020
542 Clouds 25 1021 83 9656 4.6 20 16:54 19.01.2020
543 Clouds 25 1021 83 9656 4.6 20 16:36 19.01.2020
544 Clouds 25 1021 83 9656 4.6 20 16:18 19.01.2020
545 Clouds 24 1020 83 9656 3.6 350 15:41 19.01.2020
546 Clouds 24 1020 83 9656 3.6 350 15:22 19.01.2020
547 Clouds 23 1019 88 8047 4.1 350 14:59 19.01.2020
548 Clouds 23 1019 88 8047 4.1 350 14:40 19.01.2020
549 Clouds 23 1019 88 8047 4.1 350 14:19 19.01.2020
550 Clouds 23 1019 88 9656 2.1 340 13:58 19.01.2020
551 Clouds 23 1019 88 9656 2.1 340 13:39 19.01.2020
552 Clouds 23 1019 88 9656 2.1 340 13:39 19.01.2020
553 Clouds 23 1019 88 9656 2.1 340 13:20 19.01.2020
554 Clouds 23 1019 88 9656 2.1 340 12:56 19.01.2020
555 Rain 23 1017 80 0 3.13 5 12:37 19.01.2020
556 Rain 23 1016 80 0 2.68 15 12:19 19.01.2020
557 Rain 23 1016 81 0 3.13 355 11:56 19.01.2020
558 Rain 23 1016 81 0 4.47 5 11:37 19.01.2020
559 Rain 23 1016 82 0 4.47 355 11:18 19.01.2020
560 Rain 23 1016 82 0 3.58 349 10:39 19.01.2020
561 Rain 23 1017 82 0 2.24 350 10:19 19.01.2020
562 Rain 23 1017 82 0 2.24 347 09:56 19.01.2020
563 Rain 23 1017 82 0 2.68 337 09:37 19.01.2020
564 Rain 23 1017 82 0 2.24 355 09:19 19.01.2020
565 Rain 23 1017 82 0 2.24 355 08:54 19.01.2020
566 Rain 23 1017 83 0 2.24 5 08:30 19.01.2020
567 Rain 23 1017 83 0 1.79 355 07:46 19.01.2020
568 Rain 23 1018 83 0 1.79 355 07:27 19.01.2020
569 Clouds 22 1019 100 11265 2.6 360 06:54 19.01.2020
570 Clouds 22 1019 100 11265 2.6 360 06:21 19.01.2020
571 Clouds 22 1019 100 11265 2.6 340 03:51 19.01.2020
572 Clouds 23 1018 94 11265 4.1 350 02:28 19.01.2020
573 Clouds 24 1018 88 9656 3.6 360 01:38 19.01.2020
574 Clouds 24 1018 88 9656 3.6 360 01:18 19.01.2020
575 Clouds 25 1017 83 11265 2.6 360 00:41 19.01.2020
576 Clouds 25 1017 83 11265 4.6 20 00:19 19.01.2020
577 Clouds 25 1017 83 11265 4.6 20 23:41 18.01.2020
578 Clouds 25 1017 83 11265 4.6 20 23:23 18.01.2020
579 Clouds 25 1017 83 11265 4.6 20 23:23 18.01.2020
580 Clouds 25 1017 88 11265 2.6 360 22:56 18.01.2020
581 Clouds 25 1017 88 11265 2.6 360 22:38 18.01.2020
582 Clouds 25 1017 88 11265 2.6 360 22:20 18.01.2020
583 Clouds 25 1017 83 11265 4.1 350 21:57 18.01.2020
584 Clouds 25 1017 83 11265 4.1 350 21:38 18.01.2020
585 Clouds 25 1017 83 11265 4.1 350 21:20 18.01.2020
586 Clouds 25 1018 83 9656 3.1 360 20:44 18.01.2020
587 Clouds 25 1018 83 9656 3.1 360 20:21 18.01.2020
588 Clouds 25 1019 88 9656 3.16 348 19:59 18.01.2020
589 Clouds 25 1019 88 9656 3.16 348 19:59 18.01.2020
590 Clouds 25 1019 88 9656 3.16 348 19:41 18.01.2020
591 Clouds 24 1019 88 9656 3.16 348 19:22 18.01.2020
592 Rain 23 1019 88 3219 2.1 330 18:42 18.01.2020
593 Rain 23 1019 88 3219 2.1 330 18:22 18.01.2020
594 Rain 23 1020 88 8047 3.16 348 17:56 18.01.2020
595 Rain 23 1020 88 8047 3.16 348 17:37 18.01.2020
596 Rain 23 1020 88 8047 3.71 314 17:19 18.01.2020
597 Rain 23 1019 94 9656 3.71 314 16:55 18.01.2020
598 Rain 23 1019 94 9656 3.71 314 16:36 18.01.2020
599 Clouds 22 1019 94 9656 3.71 314 16:18 18.01.2020
600 Rain 21 1019 94 8047 3.71 314 15:41 18.01.2020
601 Rain 20 1019 94 6437 3.71 314 15:23 18.01.2020
602 Rain 21 1018 88 8047 3.71 314 14:55 18.01.2020
603 Rain 21 1018 88 8047 3.71 314 14:37 18.01.2020
604 Rain 21 1018 88 8047 2.59 320 14:18 18.01.2020
605 Clouds 21 1018 88 9656 2.59 320 13:43 18.01.2020
606 Clouds 21 1018 88 9656 2.59 320 13:24 18.01.2020
607 Clouds 21 1018 88 9656 2.78 308 12:57 18.01.2020
608 Rain 21 1016 79 0 0.45 304 12:38 18.01.2020
609 Rain 21 1016 79 0 0.45 304 12:38 18.01.2020
610 Rain 21 1015 82 0 0.45 304 12:19 18.01.2020
611 Rain 21 1015 81 0 0.45 304 11:44 18.01.2020
612 Rain 22 1019 90 0 3.14 300 11:21 18.01.2020
613 Rain 22 1019 90 0 3.14 300 10:56 18.01.2020
614 Rain 21 1015 81 0 3.14 300 10:38 18.01.2020
615 Rain 21 1015 81 0 3.14 300 10:38 18.01.2020
616 Rain 21 1015 81 0 0.45 281 10:19 18.01.2020
617 Rain 21 1016 81 0 0.45 281 09:42 18.01.2020
618 Rain 21 1016 80 0 3.14 300 09:24 18.01.2020
619 Rain 21 1016 80 0 3.14 300 08:55 18.01.2020
620 Rain 21 1016 80 0 0.45 281 08:37 18.01.2020
621 Clouds 22 1016 80 0 0.89 281 08:18 18.01.2020
622 Clouds 22 1016 80 0 0.89 281 08:18 18.01.2020
623 Clouds 22 1017 80 0 1.34 281 07:44 18.01.2020
624 Clouds 22 1017 80 0 1.79 281 07:25 18.01.2020
625 Clouds 23 1019 94 11265 2.39 341 06:46 18.01.2020
626 Clouds 23 1019 88 11265 2.39 341 05:58 18.01.2020
627 Clouds 23 1019 88 11265 1.5 20 04:35 18.01.2020
628 Clouds 23 1018 88 11265 3.47 337 02:53 18.01.2020
629 Clouds 24 1018 83 11265 3.74 352 01:51 18.01.2020
630 Clouds 24 1018 83 11265 3.88 358 01:20 18.01.2020
631 Clouds 25 1017 73 11265 3.1 360 00:36 18.01.2020
632 Clouds 25 1017 73 11265 3.1 360 00:18 18.01.2020
633 Clouds 25 1017 73 11265 3.6 350 23:40 17.01.2020
634 Clouds 25 1017 73 11265 3.6 350 23:19 17.01.2020
635 Clouds 25 1018 69 11265 3.6 30 22:44 17.01.2020
636 Clouds 25 1018 69 11265 3.6 30 22:21 17.01.2020
637 Clouds 25 1019 69 11265 2.6 10 21:58 17.01.2020
638 Clouds 25 1019 69 11265 2.6 10 21:40 17.01.2020
639 Clouds 25 1019 69 11265 2.6 10 21:22 17.01.2020
640 Clouds 26 1020 69 11265 3.1 20 20:55 17.01.2020
641 Clouds 26 1020 69 11265 3.1 20 20:37 17.01.2020
642 Clouds 26 1020 69 11265 3.1 20 20:18 17.01.2020
643 Clouds 26 1020 69 11265 3.6 350 19:54 17.01.2020
644 Clouds 26 1020 69 11265 3.6 350 19:36 17.01.2020
645 Clouds 26 1020 69 11265 3.6 350 19:18 17.01.2020
646 Clouds 26 1021 65 11265 4.1 360 18:44 17.01.2020
647 Clouds 26 1021 65 11265 4.1 360 18:26 17.01.2020
648 Clouds 26 1021 69 11265 3.1 20 17:56 17.01.2020
649 Clouds 26 1021 69 11265 3.1 20 17:38 17.01.2020
650 Clouds 26 1021 69 11265 3.1 20 17:19 17.01.2020
651 Clouds 24 1021 73 11265 1 320 16:42 17.01.2020
652 Clouds 24 1021 73 11265 1 320 16:20 17.01.2020
653 Mist 21 1020 82 11265 2.6 300 15:48 17.01.2020
654 Mist 21 1020 82 11265 2.6 300 15:27 17.01.2020
655 Mist 20 1020 82 11265 2.6 330 14:56 17.01.2020
656 Mist 19 1020 82 11265 2.6 330 14:38 17.01.2020
657 Mist 19 1020 82 11265 2.6 330 14:19 17.01.2020
658 Clouds 19 1020 82 9656 1.5 330 13:39 17.01.2020
659 Clouds 18 1020 82 9656 1.5 330 13:21 17.01.2020
660 Clouds 18 1020 82 9656 1.5 330 13:21 17.01.2020
661 Clouds 18 1018 81 0 2.48 354 12:45 17.01.2020
662 Clouds 18 1018 81 0 2.48 354 12:23 17.01.2020
663 Clouds 18 1018 82 0 2.48 354 11:41 17.01.2020
664 Clouds 18 1017 82 0 0.45 58 11:19 17.01.2020
665 Clouds 18 1017 82 0 2.38 359 10:54 17.01.2020
666 Clouds 19 1017 82 0 2.38 359 10:36 17.01.2020
667 Clouds 19 1017 82 0 2.38 359 10:18 17.01.2020
668 Clouds 19 1018 82 0 2.38 359 09:41 17.01.2020
669 Clouds 19 1018 82 0 2.38 359 09:20 17.01.2020
670 Clouds 20 1018 82 0 2.38 359 08:55 17.01.2020
671 Clouds 22 1020 88 0 2.38 359 08:36 17.01.2020
672 Clear 22 1021 88 0 2.45 31 08:18 17.01.2020
673 Clear 22 1021 88 0 2.45 31 07:42 17.01.2020
674 Clear 22 1019 82 0 0.89 58 07:24 17.01.2020
675 Clouds 22 1021 94 11265 2.45 31 06:43 17.01.2020
676 Clouds 22 1021 94 11265 2.45 31 06:20 17.01.2020
677 Rain 23 1019 79 0 0.89 58 04:25 17.01.2020
678 Rain 23 1018 79 0 0.45 58 02:55 17.01.2020
679 Rain 24 1017 78 0 0.45 58 02:30 17.01.2020
680 Rain 24 1017 73 0 1.34 60 01:32 17.01.2020
681 Rain 26 1017 68 0 1.34 60 00:58 17.01.2020
682 Rain 26 1017 65 0 1.34 63 00:29 17.01.2020
683 Clouds 27 1018 69 11265 1.5 120 23:54 16.01.2020
684 Clouds 27 1018 69 11265 1.5 120 23:54 16.01.2020
685 Clouds 27 1018 69 11265 1.5 120 23:36 16.01.2020
686 Clouds 27 1018 69 11265 1.5 120 23:18 16.01.2020
687 Clouds 27 1018 74 11265 1.5 110 22:40 16.01.2020
688 Clouds 27 1018 74 11265 1.5 110 22:21 16.01.2020
689 Clouds 27 1019 74 9656 2.1 140 21:56 16.01.2020
690 Clouds 27 1019 74 9656 2.1 140 21:37 16.01.2020
691 Clouds 27 1019 74 9656 2.1 140 21:18 16.01.2020
692 Clouds 26 1019 83 9656 2.6 320 20:56 16.01.2020
693 Clouds 26 1019 83 9656 2.6 320 20:37 16.01.2020
694 Clouds 25 1019 83 9656 2.6 320 20:18 16.01.2020
695 Clouds 25 1020 88 9656 3.67 32 19:54 16.01.2020
696 Clouds 25 1020 88 9656 3.67 32 19:54 16.01.2020
697 Clouds 25 1020 88 9656 3.67 32 19:36 16.01.2020
698 Clouds 25 1020 88 9656 3.67 32 19:18 16.01.2020
699 Clouds 25 1021 88 9656 2.1 320 18:54 16.01.2020
700 Clouds 24 1021 88 9656 2.1 320 18:36 16.01.2020
701 Clouds 24 1021 88 9656 2.1 320 18:18 16.01.2020
702 Clouds 23 1021 100 8047 3.67 32 17:41 16.01.2020
703 Clouds 23 1021 100 8047 2.84 325 17:21 16.01.2020
704 Mist 23 1020 94 4828 2.84 325 16:56 16.01.2020
705 Rain 22 1020 94 4828 2.84 325 16:37 16.01.2020
706 Rain 22 1020 94 4828 2.84 325 16:18 16.01.2020
707 Rain 21 1020 100 1609 1.5 50 15:44 16.01.2020
708 Rain 21 1020 100 1609 1.5 50 15:21 16.01.2020
709 Clouds 21 1019 94 9656 2.84 325 14:55 16.01.2020
710 Clouds 21 1019 94 9656 2.84 325 14:37 16.01.2020
711 Clouds 21 1019 94 9656 3.28 316 14:18 16.01.2020
712 Rain 21 1017 82 0 0.89 323 13:43 16.01.2020
713 Rain 21 1017 82 0 0.89 323 13:24 16.01.2020
714 Rain 22 1017 81 0 2.74 311 12:46 16.01.2020
715 Rain 22 1017 81 0 0.89 323 12:28 16.01.2020
716 Rain 22 1017 81 0 1.34 327 11:56 16.01.2020
717 Rain 22 1016 81 0 0.89 307 11:37 16.01.2020
718 Rain 22 1016 81 0 1.34 307 11:19 16.01.2020
719 Rain 22 1019 94 0 3.02 292 10:39 16.01.2020
720 Rain 23 1016 82 0 2.24 309 10:20 16.01.2020
721 Rain 23 1016 82 0 2.68 301 09:57 16.01.2020
722 Rain 23 1017 82 0 1.34 311 09:38 16.01.2020
723 Rain 23 1017 83 0 0.89 29 09:19 16.01.2020
724 Rain 23 1017 83 0 0.89 29 08:51 16.01.2020
725 Rain 23 1017 83 0 0.89 29 08:30 16.01.2020
726 Rain 23 1017 83 0 0.89 29 07:58 16.01.2020
727 Rain 22 1017 82 0 0.45 29 07:38 16.01.2020
728 Rain 23 1017 82 0 0.89 29 07:19 16.01.2020
729 Mist 23 1019 100 9656 1 320 06:42 16.01.2020
730 Clouds 23 1019 94 11265 1 10 05:59 16.01.2020
731 Clouds 23 1019 94 11265 1 10 05:40 16.01.2020
732 Clear 24 1018 94 11265 1 30 04:37 16.01.2020
733 Clear 24 1018 94 11265 1 30 04:37 16.01.2020
734 Clear 24 1017 88 11265 1.5 90 03:28 16.01.2020
735 Clear 24 1016 88 11265 1.5 80 02:42 16.01.2020
736 Clouds 26 1015 78 11265 2.6 100 00:53 16.01.2020
737 Clouds 26 1015 78 11265 2.6 100 00:24 16.01.2020
738 Clouds 27 1015 69 11265 3.1 110 23:50 15.01.2020
739 Clouds 28 1015 69 11265 3.1 110 23:23 15.01.2020
740 Clouds 28 1015 61 11265 2.1 80 22:58 15.01.2020
741 Clouds 28 1015 61 11265 2.1 80 22:40 15.01.2020
742 Clouds 28 1015 61 11265 2.1 80 22:19 15.01.2020
743 Clouds 28 1015 61 11265 2.1 80 22:19 15.01.2020
744 Clouds 29 1016 66 9656 3.6 80 21:58 15.01.2020
745 Clouds 29 1016 66 9656 3.6 80 21:38 15.01.2020
746 Clouds 29 1016 66 9656 3.6 80 21:20 15.01.2020
747 Clouds 28 1017 74 9656 2.6 50 20:58 15.01.2020
748 Clouds 28 1017 74 9656 2.6 50 20:58 15.01.2020
749 Clouds 28 1017 74 9656 2.6 50 20:40 15.01.2020
750 Clouds 28 1017 74 9656 2.6 50 20:20 15.01.2020
751 Clouds 27 1018 83 9656 2.05 3 19:55 15.01.2020
752 Clouds 27 1018 83 9656 2.05 3 19:37 15.01.2020
753 Clouds 27 1018 83 9656 2.05 3 19:19 15.01.2020
754 Clouds 26 1019 83 9656 2.05 3 18:57 15.01.2020
755 Clouds 26 1019 83 9656 2.05 3 18:38 15.01.2020
756 Clouds 26 1019 83 9656 2.05 3 18:19 15.01.2020
757 Clouds 26 1019 88 9656 1.5 180 17:58 15.01.2020
758 Clouds 26 1019 88 9656 1.5 180 17:38 15.01.2020
759 Clouds 25 1019 88 9656 1.5 180 17:20 15.01.2020
760 Mist 24 1019 94 8047 2.1 298 16:41 15.01.2020
761 Mist 24 1019 94 8047 2.1 298 16:41 15.01.2020
762 Rain 24 1019 94 8047 2.1 298 16:22 15.01.2020
763 Rain 23 1018 100 3219 2.1 298 15:59 15.01.2020
764 Rain 22 1018 100 3219 2.1 298 15:41 15.01.2020
765 Rain 22 1018 100 3219 2.1 298 15:20 15.01.2020
766 Rain 22 1018 100 4828 2.6 200 14:44 15.01.2020
767 Rain 22 1018 100 4828 2.6 200 14:21 15.01.2020
768 Rain 22 1017 100 9656 2.46 303 13:55 15.01.2020
769 Clouds 22 1017 100 9656 2.46 303 13:37 15.01.2020
770 Rain 22 1017 100 9656 3.04 317 13:18 15.01.2020
771 Rain 22 1017 100 9656 3.04 317 12:41 15.01.2020
772 Rain 23 1015 83 0 0.45 180 12:20 15.01.2020
773 Rain 23 1015 82 0 0.45 180 11:59 15.01.2020
774 Rain 23 1015 82 0 1.79 195 11:38 15.01.2020
775 Rain 23 1015 81 0 1.34 355 11:19 15.01.2020
776 Rain 23 1015 81 0 0.45 355 10:46 15.01.2020
777 Rain 23 1015 81 0 0.89 355 10:28 15.01.2020
778 Rain 23 1015 80 0 0.45 355 09:54 15.01.2020
779 Rain 23 1015 81 0 0.89 355 09:36 15.01.2020
780 Rain 23 1016 81 0 0.89 355 09:18 15.01.2020
781 Rain 23 1016 80 0 3.25 297 08:41 15.01.2020
782 Rain 23 1016 80 0 3.25 297 08:41 15.01.2020
783 Rain 23 1016 81 0 0.45 355 08:23 15.01.2020
784 Rain 23 1016 81 0 1.19 308 07:53 15.01.2020
785 Rain 23 1016 81 0 1.19 308 07:32 15.01.2020
786 Clouds 24 1018 94 11265 1.19 308 06:47 15.01.2020
787 Clouds 24 1018 94 11265 1.19 308 06:21 15.01.2020
788 Clouds 24 1018 94 11265 1 50 04:45 15.01.2020
789 Clear 25 1016 78 11265 1.5 90 02:39 15.01.2020
790 Clear 25 1016 74 11265 2.6 90 01:28 15.01.2020
791 Clouds 27 1015 61 11265 2.6 90 00:47 15.01.2020
792 Clouds 27 1015 61 11265 2.6 90 00:27 15.01.2020
793 Clouds 28 1016 58 11265 1 80 23:57 14.01.2020
794 Clouds 28 1016 58 11265 1 80 23:38 14.01.2020
795 Clouds 29 1016 58 11265 1 80 23:19 14.01.2020
796 Clouds 29 1016 66 9656 3.1 50 22:41 14.01.2020
797 Clouds 29 1016 66 9656 3.1 50 22:19 14.01.2020
798 Clouds 29 1017 66 9656 2.1 50 21:59 14.01.2020
799 Clouds 29 1017 66 9656 2.1 50 21:40 14.01.2020
800 Clouds 29 1017 66 9656 2.1 50 21:21 14.01.2020
801 Clouds 29 1017 66 9656 2.1 50 21:21 14.01.2020
802 Clouds 29 1019 66 9656 2.1 60 20:59 14.01.2020
803 Clouds 29 1019 66 9656 2.1 60 20:59 14.01.2020
804 Clear 28 1016 60 0 3.58 104 20:40 14.01.2020
805 Clouds 28 1016 61 0 1.79 59 20:20 14.01.2020
806 Clouds 28 1020 69 9656 2.1 350 19:56 14.01.2020
807 Clouds 28 1020 69 9656 2.1 350 19:38 14.01.2020
808 Clouds 28 1020 69 9656 2.1 350 19:18 14.01.2020
809 Clouds 27 1021 78 9656 1.82 29 18:55 14.01.2020
810 Clouds 27 1018 66 0 0.89 267 18:37 14.01.2020
811 Clouds 27 1019 69 0 2.24 281 18:18 14.01.2020
812 Clouds 25 1021 83 9656 1.82 29 17:38 14.01.2020
813 Clouds 25 1021 83 9656 2.04 281 17:19 14.01.2020
814 Mist 24 1020 94 8047 2.04 281 16:55 14.01.2020
815 Mist 24 1020 94 8047 2.04 281 16:37 14.01.2020
816 Mist 24 1020 94 8047 2.04 281 16:19 14.01.2020
817 Rain 23 1019 100 6437 2.04 281 15:42 14.01.2020
818 Rain 22 1019 100 6437 2.04 281 15:19 14.01.2020
819 Rain 22 1018 94 8047 2.04 281 14:47 14.01.2020
820 Clouds 22 1018 94 8047 2.04 281 14:23 14.01.2020
821 Rain 22 1018 100 6437 1.76 340 13:59 14.01.2020
822 Rain 22 1018 100 6437 1.76 340 13:40 14.01.2020
823 Rain 22 1018 100 6437 2.06 329 13:19 14.01.2020
824 Rain 22 1018 100 6437 2.06 329 12:42 14.01.2020
825 Rain 22 1016 82 0 1.34 241 12:23 14.01.2020
826 Rain 22 1016 82 0 1.34 257 11:57 14.01.2020
827 Rain 22 1016 81 0 0.89 261 11:39 14.01.2020
828 Rain 23 1016 80 0 1.34 252 11:20 14.01.2020
829 Rain 23 1016 79 0 1.79 244 10:56 14.01.2020
830 Rain 23 1017 77 0 2.24 187 10:37 14.01.2020
831 Rain 23 1016 77 0 1.79 315 10:19 14.01.2020
832 Rain 23 1016 78 0 1.34 302 09:42 14.01.2020
833 Rain 23 1017 78 0 1.79 291 09:23 14.01.2020
834 Rain 23 1017 77 0 2.24 281 08:58 14.01.2020
835 Rain 23 1017 77 0 0.89 286 08:39 14.01.2020
836 Rain 23 1017 76 0 1.79 274 08:20 14.01.2020
837 Rain 23 1018 76 0 1.34 295 07:40 14.01.2020
838 Clouds 23 1020 88 9656 2.1 330 06:59 14.01.2020
839 Clouds 23 1020 88 9656 2.1 330 06:59 14.01.2020
840 Clouds 23 1020 88 9656 2.1 330 06:40 14.01.2020
841 Clouds 23 1020 88 9656 2.1 340 05:35 14.01.2020
842 Clouds 23 1020 94 11265 2.6 330 04:23 14.01.2020
843 Clouds 23 1019 94 11265 1 340 03:43 14.01.2020
844 Clouds 24 1018 83 11265 1.5 40 02:26 14.01.2020
845 Clouds 24 1017 83 11265 2.6 60 01:18 14.01.2020
846 Clouds 26 1017 74 11265 4.1 50 00:39 14.01.2020
847 Clouds 26 1017 74 11265 4.1 50 00:21 14.01.2020
848 Clouds 27 1017 69 11265 4.1 50 23:38 13.01.2020
849 Clouds 27 1017 69 11265 4.1 50 23:18 13.01.2020
850 Clouds 27 1017 65 11265 3.6 50 22:54 13.01.2020
851 Clouds 27 1017 65 11265 3.6 50 22:36 13.01.2020
852 Clouds 27 1017 65 11265 3.6 50 22:18 13.01.2020
853 Clouds 27 1018 65 11265 3.6 10 21:54 13.01.2020
854 Clouds 27 1018 65 11265 3.6 10 21:36 13.01.2020
855 Clouds 27 1018 65 11265 3.6 10 21:18 13.01.2020
856 Clouds 27 1019 61 9656 2.1 90 20:41 13.01.2020
857 Clouds 28 1019 61 9656 2.1 90 20:22 13.01.2020
858 Clouds 28 1019 61 9656 2.1 90 20:22 13.01.2020
859 Clouds 27 1020 65 9656 1.5 40 19:59 13.01.2020
860 Clouds 27 1020 65 9656 1.5 40 19:40 13.01.2020
861 Clouds 27 1020 65 9656 1.5 40 19:20 13.01.2020
862 Clouds 27 1021 69 8047 2.1 350 18:57 13.01.2020
863 Clouds 26 1021 69 8047 2.1 350 18:37 13.01.2020
864 Clouds 26 1021 69 8047 2.1 350 18:19 13.01.2020
865 Clouds 25 1021 64 6437 2.1 360 17:55 13.01.2020
866 Clouds 25 1021 64 6437 2.1 360 17:36 13.01.2020
867 Clouds 25 1021 64 6437 2.1 360 17:18 13.01.2020
868 Clear 24 1019 60 0 0.89 286 16:40 13.01.2020
869 Clear 24 1019 60 0 0.89 286 16:40 13.01.2020
870 Clear 23 1019 61 0 1.34 284 16:21 13.01.2020
871 Clear 23 1019 61 0 1.34 284 16:21 13.01.2020
872 Clear 23 1019 62 0 1.34 279 15:55 13.01.2020
873 Clear 22 1018 68 0 2.43 322 15:36 13.01.2020
874 Clear 21 1018 74 0 2.43 322 15:18 13.01.2020
875 Clear 20 1018 75 0 2.43 322 14:40 13.01.2020
876 Clear 19 1017 76 0 2.43 322 14:22 13.01.2020
877 Clouds 19 1017 75 0 1.57 306 13:56 13.01.2020
878 Clouds 19 1017 75 0 1.57 306 13:38 13.01.2020
879 Clouds 19 1017 72 0 1.76 299 13:20 13.01.2020
880 Clouds 19 1017 72 0 1.76 299 13:20 13.01.2020
881 Clouds 20 1016 70 0 0.89 284 12:43 13.01.2020
882 Clouds 20 1016 71 0 0.89 267 12:23 13.01.2020
883 Clouds 19 1016 72 0 0.89 267 11:59 13.01.2020
884 Clouds 19 1016 73 0 1.76 299 11:38 13.01.2020
885 Clouds 19 1016 73 0 1.76 299 11:38 13.01.2020
886 Clouds 19 1016 73 0 3.15 295 11:19 13.01.2020
887 Clouds 19 1016 73 0 0.45 267 10:56 13.01.2020
888 Clouds 19 1016 74 0 1.34 289 10:38 13.01.2020
889 Clouds 19 1016 74 0 0.89 291 10:19 13.01.2020
890 Clouds 19 1016 75 0 1.34 296 09:44 13.01.2020
891 Clouds 19 1016 76 0 2.24 287 09:26 13.01.2020
892 Clouds 19 1017 78 0 2.68 274 08:59 13.01.2020
893 Clouds 19 1017 80 0 2.68 294 08:37 13.01.2020
894 Clouds 19 1020 88 11265 2.61 343 08:18 13.01.2020
895 Clouds 19 1020 88 11265 3.22 344 07:44 13.01.2020
896 Clouds 19 1020 88 11265 3.22 344 07:26 13.01.2020
897 Clear 19 1020 88 11265 3.22 344 06:39 13.01.2020
898 Clear 20 1020 83 11265 3.22 344 05:42 13.01.2020
899 Clear 20 1020 83 11265 4.39 354 05:19 13.01.2020
900 Clouds 22 1018 78 11265 2.6 10 03:44 13.01.2020
901 Clouds 23 1018 73 11265 5.7 360 02:51 13.01.2020
902 Clouds 23 1018 73 11265 5.7 360 02:30 13.01.2020
903 Clouds 23 1018 69 11265 3.6 360 01:33 13.01.2020
904 Clouds 24 1017 64 11265 3.6 10 00:48 13.01.2020
905 Clouds 24 1017 64 11265 3.6 10 00:26 13.01.2020
906 Clouds 24 1017 64 11265 4.6 20 23:59 12.01.2020
907 Clouds 24 1017 64 11265 4.6 20 23:40 12.01.2020
908 Clouds 25 1017 64 11265 4.6 20 23:22 12.01.2020
909 Clouds 25 1017 57 11265 3.1 10 22:56 12.01.2020
910 Clouds 25 1017 57 11265 3.1 10 22:37 12.01.2020
911 Clouds 25 1017 57 11265 3.1 10 22:19 12.01.2020
912 Clouds 24 1018 60 11265 4.1 360 21:54 12.01.2020
913 Clouds 24 1018 60 11265 4.1 360 21:36 12.01.2020
914 Clouds 24 1018 60 11265 4.1 360 21:18 12.01.2020
915 Clouds 23 1019 64 11265 5.1 10 20:54 12.01.2020
916 Clouds 23 1019 64 11265 5.1 10 20:36 12.01.2020
917 Clouds 23 1019 64 11265 5.1 10 20:18 12.01.2020
918 Clouds 23 1020 64 9656 4.1 350 19:54 12.01.2020
919 Clouds 23 1020 64 9656 4.1 350 19:36 12.01.2020
920 Clouds 23 1020 64 9656 4.1 350 19:18 12.01.2020
921 Clouds 24 1021 57 9656 6.2 360 18:54 12.01.2020
922 Clouds 24 1021 57 9656 6.2 360 18:36 12.01.2020
923 Clouds 24 1021 57 9656 6.2 360 18:18 12.01.2020
924 Clouds 23 1020 60 9656 2.6 10 17:41 12.01.2020
925 Clouds 23 1020 60 9656 2.6 10 17:19 12.01.2020
926 Clouds 23 1020 60 9656 2.6 350 16:56 12.01.2020
927 Clouds 23 1020 60 9656 2.6 350 16:37 12.01.2020
928 Clouds 22 1020 60 9656 2.6 350 16:19 12.01.2020
929 Clouds 22 1020 60 9656 4.6 350 15:43 12.01.2020
930 Clouds 22 1020 60 9656 4.6 350 15:25 12.01.2020
931 Clouds 22 1019 64 9656 4.6 340 14:57 12.01.2020
932 Clouds 22 1019 64 9656 4.6 340 14:38 12.01.2020
933 Clouds 22 1019 64 9656 4.6 340 14:20 12.01.2020
934 Clouds 22 1018 64 9656 4.6 350 13:54 12.01.2020
935 Clouds 22 1018 64 9656 4.6 350 13:36 12.01.2020
936 Clouds 22 1018 64 9656 4.6 350 13:18 12.01.2020
937 Clouds 22 1018 64 9656 4.6 350 13:18 12.01.2020
938 Clouds 22 1018 64 9656 4.6 350 13:18 12.01.2020
939 Clouds 22 1018 64 9656 4.6 350 12:43 12.01.2020
940 Clouds 22 1017 57 0 5.81 360 12:21 12.01.2020
941 Clouds 22 1016 57 0 5.81 360 11:59 12.01.2020
942 Clouds 22 1017 57 0 5.36 348 11:39 12.01.2020
943 Clouds 22 1016 58 0 4.92 348 11:21 12.01.2020
944 Clouds 22 1016 58 0 5.36 339 10:42 12.01.2020
945 Clouds 22 1019 70 0 9.22 339 10:22 12.01.2020
946 Clouds 22 1016 58 0 6.26 5 09:59 12.01.2020
947 Clouds 22 1017 59 0 6.71 355 09:41 12.01.2020
948 Clouds 22 1017 57 0 6.71 9 09:20 12.01.2020
949 Clouds 23 1017 57 0 6.71 347 08:45 12.01.2020
950 Clouds 22 1018 58 0 5.36 336 08:21 12.01.2020
951 Clouds 22 1018 57 0 7.15 333 07:44 12.01.2020
952 Clouds 22 1018 56 0 7.6 346 07:25 12.01.2020
953 Sand 22 1020 64 9656 7.7 360 06:49 12.01.2020
954 Sand 22 1020 64 9656 7.7 360 06:30 12.01.2020
955 Sand 22 1020 64 8047 10.3 360 05:37 12.01.2020
956 Sand 22 1020 64 8047 10.3 360 04:51 12.01.2020
957 Sand 22 1018 64 8047 10.3 10 03:27 12.01.2020
958 Sand 23 1017 60 8047 10.3 360 02:34 12.01.2020
959 Sand 23 1016 60 6437 10.3 360 01:55 12.01.2020
960 Sand 23 1016 60 6437 10.3 360 01:29 12.01.2020
961 Sand 24 1015 57 8047 10.3 360 00:42 12.01.2020
962 Sand 24 1015 57 8047 10.3 360 00:20 12.01.2020
963 Sand 25 1015 53 8047 12.9 360 23:55 11.01.2020
964 Sand 25 1015 53 8047 12.9 360 23:37 11.01.2020
965 Sand 25 1015 53 8047 12.9 360 23:18 11.01.2020
966 Sand 26 1014 54 6437 11.3 360 22:42 11.01.2020
967 Sand 26 1014 54 6437 11.3 360 22:21 11.01.2020
968 Sand 26 1014 65 6437 7.7 350 21:59 11.01.2020
969 Sand 27 1014 65 6437 7.7 350 21:41 11.01.2020
970 Sand 27 1014 65 6437 7.7 350 21:18 11.01.2020
971 Sand 28 1014 61 8047 8.2 20 20:42 11.01.2020
972 Sand 28 1014 61 8047 8.2 20 20:22 11.01.2020
973 Sand 28 1016 61 8047 13.9 20 19:59 11.01.2020
974 Sand 28 1016 61 8047 13.9 20 19:40 11.01.2020
975 Sand 28 1016 61 8047 13.9 20 19:40 11.01.2020
976 Sand 28 1016 61 8047 13.9 20 19:22 11.01.2020
977 Clouds 27 1016 74 8047 6.7 20 18:59 11.01.2020
978 Clouds 27 1016 74 8047 6.7 20 18:39 11.01.2020
979 Clouds 26 1016 74 8047 6.7 20 18:20 11.01.2020
980 Clouds 25 1015 78 8047 2.6 70 17:58 11.01.2020
981 Clouds 25 1015 78 8047 2.6 70 17:40 11.01.2020
982 Clouds 26 1015 78 8047 2.6 70 17:19 11.01.2020
983 Clouds 23 1014 83 8047 0.41 230 16:46 11.01.2020
984 Clouds 22 1014 83 8047 0.41 230 16:27 11.01.2020
985 Mist 19 1013 100 6437 0.41 230 15:59 11.01.2020
986 Mist 19 1013 100 6437 0.41 230 15:41 11.01.2020
987 Mist 19 1013 100 6437 0.41 230 15:22 11.01.2020
988 Mist 18 1012 93 6437 1 170 14:57 11.01.2020
989 Mist 18 1012 93 6437 1 170 14:38 11.01.2020
990 Mist 18 1012 93 6437 1 170 14:20 11.01.2020
991 Mist 19 1012 93 8047 1.97 215 13:40 11.01.2020
992 Mist 18 1012 93 8047 2.06 216 13:20 11.01.2020
993 Mist 19 1012 93 8047 2.06 216 12:58 11.01.2020
994 Clear 18 1010 84 0 2.06 216 12:39 11.01.2020
995 Rain 18 1010 84 0 2.06 216 12:21 11.01.2020
996 Rain 19 1010 84 0 0.89 184 11:47 11.01.2020
997 Clear 18 1010 83 0 2.06 216 11:26 11.01.2020
998 Clear 19 1010 84 0 3.09 242 10:50 11.01.2020
999 Clear 19 1010 84 0 3.09 242 10:30 11.01.2020
1000 Clear 19 1010 83 0 0.45 184 09:55 11.01.2020
1001 Clear 19 1010 83 0 0.89 184 09:37 11.01.2020
1002 Clear 19 1010 83 0 0.45 184 09:18 11.01.2020
1003 Clear 20 1011 83 0 3.09 242 08:41 11.01.2020
1004 Clear 19 1011 83 0 0.45 178 08:21 11.01.2020
1005 Clear 20 1011 82 0 1.28 239 07:44 11.01.2020
1006 Clear 20 1011 82 0 1.28 239 07:25 11.01.2020
1007 Mist 21 1013 94 4828 1.28 239 06:45 11.01.2020
1008 Clear 22 1013 100 6437 1.28 239 05:33 11.01.2020
1009 Clouds 22 1013 94 9656 1.55 100 04:45 11.01.2020
1010 Clouds 23 1013 94 9656 1.55 100 04:27 11.01.2020
1011 Clear 24 1011 83 11265 1.5 100 02:48 11.01.2020
1012 Clear 24 1010 78 11265 1.5 120 01:48 11.01.2020
1013 Clear 24 1010 78 11265 1.5 120 01:30 11.01.2020
1014 Clear 25 1010 69 11265 2.1 130 00:58 11.01.2020
1015 Clear 25 1010 69 11265 2.1 130 00:58 11.01.2020
1016 Clear 25 1010 69 11265 2.1 130 00:32 11.01.2020
1017 Clear 26 1010 65 11265 2.1 110 23:59 10.01.2020
1018 Clear 26 1010 65 11265 2.1 110 23:59 10.01.2020
1019 Clear 27 1010 65 11265 2.1 110 23:39 10.01.2020
1020 Clear 27 1010 65 11265 2.1 110 23:39 10.01.2020
1021 Clear 27 1010 65 11265 2.1 110 23:20 10.01.2020
1022 Clear 27 1011 61 11265 3.6 90 22:54 10.01.2020
1023 Clear 28 1011 61 11265 3.6 90 22:36 10.01.2020
1024 Clear 28 1011 61 11265 3.6 90 22:18 10.01.2020
1025 Clear 28 1012 58 11265 5.7 90 21:41 10.01.2020
1026 Clear 29 1012 58 11265 5.7 90 21:22 10.01.2020
1027 Clear 29 1013 51 11265 1 130 21:00 10.01.2020
1028 Clear 29 1013 51 11265 1 130 20:41 10.01.2020
1029 Clear 29 1013 51 11265 1 130 20:23 10.01.2020
1030 Clouds 28 1015 58 11265 2.34 85 19:42 10.01.2020
1031 Clouds 28 1015 58 11265 2.34 85 19:21 10.01.2020
1032 Clouds 28 1016 54 11265 1.5 60 18:58 10.01.2020
1033 Clouds 28 1016 54 11265 1.5 60 18:40 10.01.2020
1034 Clouds 28 1016 54 11265 1.5 60 18:18 10.01.2020
1035 Haze 27 1017 51 11265 2.34 85 17:56 10.01.2020
1036 Haze 27 1017 51 11265 2.34 85 17:38 10.01.2020
1037 Haze 27 1017 51 11265 1.37 263 17:19 10.01.2020
1038 Haze 24 1016 69 9656 1.37 263 16:43 10.01.2020
1039 Haze 24 1016 69 9656 1.37 263 16:22 10.01.2020
1040 Mist 21 1016 82 11265 1.37 263 15:58 10.01.2020
1041 Mist 21 1016 82 11265 1.37 263 15:39 10.01.2020
1042 Mist 20 1016 82 11265 1.37 263 15:21 10.01.2020
1043 Mist 19 1015 88 11265 1.37 263 14:59 10.01.2020
1044 Mist 18 1015 88 11265 1.37 263 14:41 10.01.2020
1045 Mist 18 1015 88 11265 1.4 281 14:20 10.01.2020
1046 Clear 17 1015 88 11265 1.4 281 13:58 10.01.2020
1047 Clear 17 1015 88 11265 1.4 281 13:39 10.01.2020
1048 Clear 17 1015 88 11265 1.55 289 13:21 10.01.2020
1049 Clouds 18 1013 77 0 1.55 289 12:57 10.01.2020
1050 Clouds 17 1012 78 0 1.55 289 12:38 10.01.2020
1051 Clouds 17 1013 79 0 1.55 289 12:18 10.01.2020
1052 Clouds 17 1012 79 0 1.55 289 11:54 10.01.2020
1053 Clouds 16 1013 79 0 1.55 289 11:36 10.01.2020
1054 Clouds 16 1013 79 0 1.88 259 11:18 10.01.2020
1055 Clouds 17 1013 78 0 1.88 259 10:39 10.01.2020
1056 Clouds 17 1013 77 0 1.88 259 10:21 10.01.2020
1057 Clouds 18 1013 75 0 1.88 259 09:56 10.01.2020
1058 Clouds 18 1013 76 0 1.88 259 09:37 10.01.2020
1059 Clouds 18 1013 76 0 1.34 249 09:19 10.01.2020
1060 Clouds 18 1013 76 0 1.34 249 09:19 10.01.2020
1061 Clouds 18 1014 74 0 0.89 240 08:40 10.01.2020
1062 Clear 18 1014 74 0 0.89 240 08:22 10.01.2020
1063 Clear 19 1017 82 11265 2.53 247 07:44 10.01.2020
1064 Clear 19 1017 82 11265 2.53 247 07:23 10.01.2020
1065 Clear 19 1017 77 11265 2.53 247 06:45 10.01.2020
1066 Clear 19 1017 77 11265 2.53 247 06:25 10.01.2020
1067 Clear 20 1017 82 11265 2.53 247 05:46 10.01.2020
1068 Clear 22 1016 73 11265 2.5 102 03:35 10.01.2020
1069 Clear 22 1016 73 11265 1.5 100 02:58 10.01.2020
1070 Clear 22 1016 73 11265 1.5 100 02:38 10.01.2020
1071 Clear 23 1015 57 11265 1.5 100 01:38 10.01.2020
1072 Clear 25 1015 47 11265 4.1 100 00:58 10.01.2020
1073 Clear 25 1015 47 11265 4.1 100 00:38 10.01.2020
1074 Clouds 26 1015 51 11265 3.6 100 23:57 09.01.2020
1075 Clouds 27 1015 51 11265 3.6 100 23:38 09.01.2020
1076 Clouds 27 1015 51 11265 3.6 100 23:38 09.01.2020
1077 Clouds 27 1015 51 11265 3.6 100 23:38 09.01.2020
1078 Clouds 27 1015 51 11265 3.6 100 23:19 09.01.2020
1079 Clear 27 1015 61 11265 2.1 130 22:57 09.01.2020
1080 Clear 27 1015 61 11265 2.1 130 22:37 09.01.2020
1081 Clear 27 1015 61 11265 2.1 130 22:18 09.01.2020
1082 Clear 28 1016 48 11265 1 150 21:56 09.01.2020
1083 Clear 28 1016 48 11265 1 150 21:37 09.01.2020
1084 Clear 28 1016 48 11265 1 150 21:37 09.01.2020
1085 Clear 28 1016 48 11265 1 150 21:37 09.01.2020
1086 Clear 28 1016 48 11265 1 150 21:37 09.01.2020
1087 Clear 28 1016 48 11265 1 150 21:37 09.01.2020
1088 Clear 28 1016 48 11265 1 150 21:18 09.01.2020
1089 Clear 27 1018 51 11265 2.6 160 20:56 09.01.2020
1090 Clear 27 1018 51 11265 2.6 160 20:38 09.01.2020
1091 Clear 27 1018 51 11265 2.6 160 20:19 09.01.2020
1092 Clear 27 1019 50 11265 1 140 19:54 09.01.2020
1093 Clear 26 1019 50 11265 1 140 19:36 09.01.2020
1094 Clear 26 1019 50 11265 1 140 19:18 09.01.2020
1095 Clear 25 1020 69 11265 2.6 160 18:41 09.01.2020
1096 Clear 24 1020 69 11265 2.6 160 18:22 09.01.2020
1097 Clear 23 1021 73 9656 1.5 160 17:58 09.01.2020
1098 Clear 23 1021 73 9656 1.5 160 17:40 09.01.2020
1099 Clear 23 1021 73 9656 1.5 160 17:18 09.01.2020
1100 Clear 23 1021 73 9656 1.5 160 17:18 09.01.2020
1101 Clear 23 1021 73 9656 1.5 160 17:18 09.01.2020
1102 Mist 21 1021 94 6437 1.36 211 16:46 09.01.2020
1103 Mist 21 1021 94 6437 1.36 211 16:22 09.01.2020
1104 Mist 19 1020 100 4828 1.36 211 15:44 09.01.2020
1105 Mist 18 1020 100 3219 1.36 211 15:25 09.01.2020
1106 Fog 17 1020 100 805 1.36 211 14:59 09.01.2020
1107 Fog 17 1020 100 805 1.36 211 14:41 09.01.2020
1108 Fog 16 1019 100 402 1.4 211 14:19 09.01.2020
1109 Fog 17 1019 100 402 1.4 211 13:56 09.01.2020
1110 Fog 17 1019 100 402 1.4 211 13:38 09.01.2020
1111 Fog 17 1019 100 402 1.17 179 13:19 09.01.2020
1112 Clear 16 1017 84 0 1.17 179 12:56 09.01.2020
1113 Clear 16 1017 84 0 1.17 179 12:38 09.01.2020
1114 Clear 16 1017 84 0 1.17 179 12:18 09.01.2020
1115 Clear 16 1017 83 0 1.17 179 11:42 09.01.2020
1116 Clear 16 1017 83 0 1.17 179 11:24 09.01.2020
1117 Clear 16 1017 83 0 1.17 179 11:24 09.01.2020
1118 Clear 16 1017 83 0 1.17 179 11:24 09.01.2020
1119 Clear 17 1018 83 0 1 157 10:58 09.01.2020
1120 Clear 17 1018 83 0 1 157 10:40 09.01.2020
1121 Clear 18 1018 83 0 1 157 10:21 09.01.2020
1122 Clear 17 1018 82 0 1 157 09:46 09.01.2020
1123 Clear 18 1018 82 0 1 157 09:25 09.01.2020
1124 Clear 18 1019 81 0 1 157 08:58 09.01.2020
1125 Clear 18 1019 81 0 1 157 08:39 09.01.2020
1126 Clouds 19 1019 80 0 1.34 117 08:21 09.01.2020
1127 Clouds 21 1019 79 0 1.34 117 07:48 09.01.2020
1128 Clouds 21 1020 79 0 0.45 348 07:30 09.01.2020
1129 Clouds 20 1022 94 11265 1.34 117 06:40 09.01.2020
1130 Clouds 20 1022 94 11265 1.34 117 06:22 09.01.2020
1131 Clouds 21 1022 94 11265 1.34 117 05:51 09.01.2020
1132 Clouds 21 1022 94 11265 3.25 108 05:20 09.01.2020
1133 Clouds 21 1022 88 11265 3.25 108 04:39 09.01.2020
1134 Clouds 22 1021 83 11265 3.25 108 03:27 09.01.2020
1135 Clouds 22 1021 83 11265 1.5 80 02:46 09.01.2020
1136 Clouds 22 1021 83 11265 2.1 80 01:42 09.01.2020
1137 Clouds 22 1021 78 9656 2.1 70 00:59 09.01.2020
1138 Clouds 23 1021 78 9656 2.1 70 00:37 09.01.2020
1139 Clouds 23 1021 78 9656 2.1 70 00:19 09.01.2020
1140 Clouds 23 1021 78 9656 2.1 80 23:39 08.01.2020
1141 Clouds 23 1021 78 9656 2.1 80 23:20 08.01.2020
1142 Clouds 23 1021 73 9656 2.6 80 22:40 08.01.2020
1143 Clouds 23 1021 73 9656 2.6 80 22:22 08.01.2020
1144 Clouds 23 1022 69 9656 3.1 70 21:59 08.01.2020
1145 Clouds 23 1022 69 9656 3.1 70 21:40 08.01.2020
1146 Clouds 23 1022 69 9656 3.1 70 21:40 08.01.2020
1147 Clouds 24 1022 69 9656 3.1 70 21:21 08.01.2020
1148 Clouds 25 1023 65 9656 4.1 60 20:59 08.01.2020
1149 Clouds 25 1023 65 9656 4.1 60 20:41 08.01.2020
1150 Clouds 25 1023 65 9656 4.1 60 20:21 08.01.2020
1151 Clouds 23 1024 78 8047 2.09 347 19:58 08.01.2020
1152 Clouds 23 1024 78 8047 2.09 347 19:38 08.01.2020
1153 Rain 23 1024 78 8047 2.09 347 19:19 08.01.2020
1154 Rain 22 1025 88 8047 2.09 347 18:57 08.01.2020
1155 Rain 22 1025 88 8047 2.09 347 18:38 08.01.2020
1156 Mist 21 1026 100 8047 1.5 340 18:19 08.01.2020
1157 Rain 20 1026 94 8047 2.09 347 17:56 08.01.2020
1158 Rain 20 1026 94 8047 2.09 347 17:37 08.01.2020
1159 Rain 20 1026 94 8047 3.92 327 17:18 08.01.2020
1160 Mist 19 1026 100 8047 3.92 327 16:55 08.01.2020
1161 Mist 20 1026 100 8047 3.92 327 16:37 08.01.2020
1162 Mist 20 1026 100 8047 3.92 327 16:18 08.01.2020
1163 Rain 19 1025 93 6437 3.92 327 15:44 08.01.2020
1164 Rain 19 1025 93 6437 3.92 327 15:21 08.01.2020
1165 Rain 19 1025 93 6437 3.92 327 14:58 08.01.2020
1166 Rain 19 1025 93 6437 3.92 327 14:39 08.01.2020
1167 Drizzle 19 1025 93 9656 1 10 14:20 08.01.2020
1168 Drizzle 19 1025 93 9656 1 10 14:20 08.01.2020
1169 Rain 20 1024 88 9656 4.1 40 13:41 08.01.2020
1170 Rain 20 1024 88 9656 4.1 40 13:20 08.01.2020
1171 Rain 21 1023 77 0 2.68 55 12:43 08.01.2020
1172 Rain 21 1023 75 0 3.58 36 12:20 08.01.2020
1173 Rain 21 1023 73 0 1.34 23 11:59 08.01.2020
1174 Rain 21 1023 73 0 1.34 23 11:41 08.01.2020
1175 Rain 21 1022 73 0 0.45 293 11:19 08.01.2020
1176 Rain 21 1022 72 0 0.89 293 10:56 08.01.2020
1177 Rain 21 1022 71 0 1.34 323 10:38 08.01.2020
1178 Rain 21 1022 71 0 1.34 323 10:19 08.01.2020
1179 Rain 21 1022 72 0 2.24 331 09:42 08.01.2020
1180 Rain 22 1023 71 0 4.02 344 09:20 08.01.2020
1181 Rain 22 1023 71 0 3.13 355 08:57 08.01.2020
1182 Rain 22 1023 72 0 4.47 338 08:37 08.01.2020
1183 Rain 22 1023 72 0 4.47 338 08:19 08.01.2020
1184 Rain 22 1024 71 0 4.92 355 07:49 08.01.2020
1185 Rain 22 1024 71 0 5.36 18 07:30 08.01.2020
1186 Clouds 22 1026 78 11265 6.7 360 06:49 08.01.2020
1187 Clouds 22 1026 78 11265 6.7 360 06:25 08.01.2020
1188 Clouds 22 1026 78 11265 5.1 360 05:53 08.01.2020
1189 Clouds 22 1026 78 11265 5.1 360 05:53 08.01.2020
1190 Clouds 22 1025 78 9656 7.2 360 04:59 08.01.2020
1191 Clouds 22 1025 78 9656 7.2 360 04:26 08.01.2020
1192 Sand 23 1024 78 9656 7.7 360 02:45 08.01.2020
1193 Sand 23 1024 78 9656 7.7 360 02:45 08.01.2020
1194 Sand 23 1024 78 9656 7.7 360 02:23 08.01.2020
1195 Sand 23 1024 73 9656 6.2 360 01:50 08.01.2020
1196 Sand 23 1024 73 9656 6.2 360 01:25 08.01.2020
1197 Clouds 24 1023 69 9656 6.2 360 00:40 08.01.2020
1198 Clouds 24 1023 69 9656 6.2 360 00:20 08.01.2020
1199 Clouds 24 1023 60 8047 5.1 30 23:44 07.01.2020
1200 Clouds 24 1023 60 8047 5.1 30 23:20 07.01.2020
1201 Clouds 25 1022 61 8047 7.7 30 22:40 07.01.2020
1202 Clouds 25 1022 61 8047 7.7 30 22:20 07.01.2020
1203 Clouds 25 1023 57 9656 7.2 20 21:57 07.01.2020
1204 Clouds 25 1023 57 9656 7.2 20 21:38 07.01.2020
1205 Clouds 25 1023 57 9656 7.2 20 21:38 07.01.2020
1206 Clouds 25 1023 57 9656 7.2 20 21:20 07.01.2020
1207 Clouds 26 1024 50 9656 4.6 20 20:56 07.01.2020
1208 Clouds 26 1024 50 9656 4.6 20 20:38 07.01.2020
1209 Clouds 26 1024 50 9656 4.6 20 20:19 07.01.2020
1210 Clouds 26 1025 50 9656 3.6 70 19:38 07.01.2020
1211 Clouds 26 1025 50 9656 3.6 70 19:20 07.01.2020
1212 Clouds 25 1026 60 9656 2.1 20 18:58 07.01.2020
1213 Clouds 25 1026 60 9656 2.1 20 18:40 07.01.2020
1214 Clouds 24 1026 60 9656 2.1 20 18:19 07.01.2020
1215 Clouds 24 1025 60 9656 2.6 360 18:00 07.01.2020
1216 Clouds 24 1025 60 9656 2.6 360 17:39 07.01.2020
1217 Clouds 24 1025 60 9656 2.6 360 17:21 07.01.2020
1218 Clouds 23 1025 78 8047 6.43 330 16:57 07.01.2020
1219 Clouds 23 1025 78 8047 6.43 330 16:38 07.01.2020
1220 Clouds 22 1025 78 8047 6.43 330 16:19 07.01.2020
1221 Clouds 21 1024 88 9656 6.43 330 15:58 07.01.2020
1222 Clouds 21 1024 88 9656 6.43 330 15:39 07.01.2020
1223 Clouds 20 1024 88 9656 6.43 330 15:21 07.01.2020
1224 Clouds 19 1023 88 9656 1 320 14:55 07.01.2020
1225 Clouds 19 1023 88 9656 1 320 14:36 07.01.2020
1226 Clouds 19 1023 88 9656 1 320 14:18 07.01.2020
1227 Clear 18 1022 88 9656 3.43 325 13:39 07.01.2020
1228 Clear 18 1022 88 9656 2.87 344 13:19 07.01.2020
1229 Clouds 18 1020 78 0 1.34 290 12:41 07.01.2020
1230 Clouds 18 1020 78 0 1.34 307 12:20 07.01.2020
1231 Clouds 18 1020 78 0 1.34 307 11:55 07.01.2020
1232 Clouds 18 1019 78 0 1.34 309 11:36 07.01.2020
1233 Clouds 18 1019 79 0 0.89 297 11:18 07.01.2020
1234 Clouds 18 1019 79 0 0.89 297 10:41 07.01.2020
1235 Clouds 18 1019 79 0 0.89 297 10:41 07.01.2020
1236 Clouds 18 1018 79 0 0.45 170 10:23 07.01.2020
1237 Clouds 18 1018 79 0 0.45 170 09:57 07.01.2020
1238 Clouds 18 1018 79 0 1.49 323 09:38 07.01.2020
1239 Clouds 18 1018 79 0 0.45 170 09:20 07.01.2020
1240 Clouds 18 1018 78 0 1.49 323 08:42 07.01.2020
1241 Clouds 18 1018 78 0 2.25 309 08:23 07.01.2020
1242 Clear 18 1018 78 0 0.53 41 07:54 07.01.2020
1243 Clear 18 1018 77 0 0.53 41 07:28 07.01.2020
1244 Clear 18 1018 77 0 0.53 41 07:28 07.01.2020
1245 Clear 19 1020 88 9656 0.53 41 06:53 07.01.2020
1246 Clear 19 1020 88 9656 0.53 41 06:34 07.01.2020
1247 Clear 20 1020 77 11265 0.53 41 05:54 07.01.2020
1248 Clear 22 1020 73 11265 3.57 91 04:39 07.01.2020
1249 Clear 22 1019 78 11265 1 110 03:26 07.01.2020
1250 Clear 22 1018 78 11265 4.3 86 02:22 07.01.2020
1251 Clouds 22 1018 73 11265 1 110 01:51 07.01.2020
1252 Clouds 22 1018 73 11265 1 110 01:28 07.01.2020
1253 Clouds 24 1017 64 11265 1.5 100 00:37 07.01.2020
1254 Clouds 24 1017 64 11265 1.5 100 00:18 07.01.2020
1255 Clouds 25 1017 61 11265 2.1 100 23:39 06.01.2020
1256 Clouds 25 1017 61 11265 2.1 100 23:39 06.01.2020
1257 Clouds 25 1017 61 11265 2.1 100 23:21 06.01.2020
1258 Clouds 25 1017 54 11265 2.1 120 22:58 06.01.2020
1259 Clouds 25 1017 54 11265 2.1 120 22:38 06.01.2020
1260 Clouds 25 1017 54 11265 2.1 120 22:20 06.01.2020
1261 Clouds 26 1018 54 11265 1.5 110 21:56 06.01.2020
1262 Clouds 26 1018 54 11265 1.5 110 21:56 06.01.2020
1263 Clouds 26 1018 54 11265 1.5 110 21:37 06.01.2020
1264 Clouds 26 1018 54 11265 1.5 110 21:19 06.01.2020
1265 Clouds 25 1020 57 11265 1.5 110 20:56 06.01.2020
1266 Clouds 25 1020 57 11265 1.5 110 20:37 06.01.2020
1267 Clouds 25 1020 57 11265 1.5 110 20:19 06.01.2020
1268 Clouds 25 1020 57 11265 1.5 110 20:19 06.01.2020
1269 Clouds 25 1021 57 11265 2.6 170 19:55 06.01.2020
1270 Clouds 25 1021 57 11265 2.6 170 19:37 06.01.2020
1271 Clouds 25 1021 57 11265 2.6 170 19:18 06.01.2020
1272 Clouds 25 1023 57 11265 2.1 150 18:44 06.01.2020
1273 Clouds 25 1023 57 11265 2.1 150 18:20 06.01.2020
1274 Clouds 24 1024 60 11265 1 190 17:40 06.01.2020
1275 Clouds 24 1024 60 11265 1 190 17:20 06.01.2020
1276 Clouds 24 1024 60 11265 1 190 17:20 06.01.2020
1277 Clouds 22 1024 77 9656 2.07 244 16:57 06.01.2020
1278 Clouds 22 1024 77 9656 2.07 244 16:39 06.01.2020
1279 Clouds 21 1024 77 9656 2.07 244 16:21 06.01.2020
1280 Clouds 20 1023 88 9656 2.07 244 15:59 06.01.2020
1281 Clouds 20 1023 88 9656 2.07 244 15:36 06.01.2020
1282 Clouds 19 1023 88 9656 2.07 244 15:18 06.01.2020
1283 Clouds 18 1023 93 11265 2.07 244 14:41 06.01.2020
1284 Clouds 18 1023 93 11265 0.84 262 14:22 06.01.2020
1285 Clouds 18 1023 88 9656 0.84 262 13:59 06.01.2020
1286 Clouds 18 1023 88 9656 0.84 262 13:38 06.01.2020
1287 Clouds 19 1023 88 9656 1.98 267 13:20 06.01.2020
1288 Clouds 19 1021 73 0 0.45 98 12:55 06.01.2020
1289 Clouds 18 1021 75 0 0.45 98 12:37 06.01.2020
1290 Clouds 18 1021 75 0 0.45 98 12:18 06.01.2020
1291 Clouds 19 1021 75 0 1.98 267 11:41 06.01.2020
1292 Clouds 19 1021 75 0 1.98 267 11:23 06.01.2020
1293 Clouds 19 1021 73 0 0.6 287 10:58 06.01.2020
1294 Clouds 19 1021 73 0 0.6 287 10:40 06.01.2020
1295 Clouds 19 1021 71 0 0.6 287 10:20 06.01.2020
1296 Clouds 20 1024 82 11265 0.6 287 09:39 06.01.2020
1297 Clouds 20 1024 82 11265 0.6 287 09:20 06.01.2020
1298 Clouds 20 1025 77 11265 0.6 287 08:51 06.01.2020
1299 Clouds 20 1025 77 11265 0.6 287 08:33 06.01.2020
1300 Clouds 20 1025 77 11265 1.83 39 07:56 06.01.2020
1301 Clouds 20 1025 77 11265 1.83 39 07:36 06.01.2020
1302 Clouds 20 1025 77 11265 1.83 39 06:46 06.01.2020
1303 Clouds 20 1025 77 11265 1.83 39 06:23 06.01.2020
1304 Clouds 20 1026 82 11265 1.83 39 05:45 06.01.2020
1305 Clouds 20 1026 77 11265 2.09 23 04:52 06.01.2020
1306 Clouds 20 1026 77 11265 2.09 23 04:19 06.01.2020
1307 Clouds 21 1025 73 11265 1 360 02:56 06.01.2020
1308 Clouds 21 1025 73 11265 1 360 02:24 06.01.2020
1309 Clouds 22 1025 68 11265 3.1 10 01:45 06.01.2020
1310 Clouds 22 1025 68 11265 3.1 10 01:26 06.01.2020
1311 Clouds 22 1025 68 11265 4.1 10 00:42 06.01.2020
1312 Clouds 22 1025 68 11265 4.1 10 00:23 06.01.2020
1313 Clouds 23 1025 64 11265 3.6 60 23:43 05.01.2020
1314 Clouds 23 1025 64 11265 3.6 60 23:23 05.01.2020
1315 Clouds 23 1025 69 11265 5.1 60 22:57 05.01.2020
1316 Clouds 23 1025 69 11265 5.1 60 22:38 05.01.2020
1317 Clouds 23 1025 69 11265 5.1 60 22:20 05.01.2020
1318 Clouds 22 1026 64 11265 5.1 40 21:55 05.01.2020
1319 Clouds 22 1026 64 11265 5.1 40 21:37 05.01.2020
1320 Clouds 22 1026 64 11265 5.1 40 21:19 05.01.2020
1321 Clouds 23 1027 60 11265 5.1 10 20:55 05.01.2020
1322 Clouds 23 1027 60 11265 5.1 10 20:36 05.01.2020
1323 Clouds 23 1027 60 11265 5.1 10 20:18 05.01.2020
1324 Clouds 23 1028 56 11265 6.2 40 19:56 05.01.2020
1325 Clouds 23 1028 56 11265 6.2 40 19:37 05.01.2020
1326 Clouds 23 1028 56 11265 6.2 40 19:18 05.01.2020
1327 Clouds 24 1029 50 11265 3.6 360 18:54 05.01.2020
1328 Clouds 24 1029 50 11265 3.6 360 18:36 05.01.2020
1329 Clouds 24 1029 50 11265 3.6 360 18:18 05.01.2020
1330 Clouds 23 1030 49 9656 1.5 300 17:40 05.01.2020
1331 Clouds 23 1030 49 9656 1.5 300 17:21 05.01.2020
1332 Clouds 21 1029 60 8047 1 310 16:58 05.01.2020
1333 Clouds 21 1029 60 8047 1 310 16:40 05.01.2020
1334 Clouds 21 1029 60 8047 1 310 16:21 05.01.2020
1335 Clouds 17 1029 77 9656 3.74 313 15:41 05.01.2020
1336 Clouds 17 1029 77 9656 3.74 313 15:23 05.01.2020
1337 Clouds 16 1028 82 9656 3.74 313 14:58 05.01.2020
1338 Clouds 15 1028 82 9656 3.74 313 14:40 05.01.2020
1339 Clouds 15 1028 82 9656 3.74 313 14:40 05.01.2020
1340 Clouds 14 1028 82 9656 4.42 311 14:22 05.01.2020
1341 Clear 15 1028 72 9656 4.42 311 13:59 05.01.2020
1342 Clear 15 1028 72 9656 4.42 311 13:39 05.01.2020
1343 Clear 15 1028 72 9656 4.01 303 13:20 05.01.2020
1344 Clouds 14 1027 73 0 0.45 286 12:57 05.01.2020
1345 Clouds 15 1027 69 0 4.01 303 12:38 05.01.2020
1346 Clouds 16 1026 67 0 4.01 303 12:20 05.01.2020
1347 Clouds 16 1026 67 0 0.45 286 11:55 05.01.2020
1348 Clouds 17 1026 66 0 1.34 289 11:37 05.01.2020
1349 Clouds 17 1026 66 0 1.34 289 11:37 05.01.2020
1350 Clouds 17 1026 69 0 0.89 330 11:19 05.01.2020
1351 Clouds 17 1026 69 0 0.89 330 11:18 05.01.2020
1352 Clouds 16 1026 69 0 0.89 330 10:41 05.01.2020
1353 Clouds 17 1027 65 0 4.42 325 10:20 05.01.2020
1354 Clouds 17 1027 66 0 0.89 330 09:57 05.01.2020
1355 Clouds 17 1027 66 0 1.34 330 09:38 05.01.2020
1356 Clouds 17 1027 66 0 1.34 330 09:38 05.01.2020
1357 Clouds 18 1027 66 0 0.89 330 09:20 05.01.2020
1358 Clouds 18 1028 65 0 0.89 330 08:45 05.01.2020
1359 Clouds 18 1028 63 0 0.89 350 08:21 05.01.2020
1360 Clouds 19 1028 61 0 0.45 350 07:47 05.01.2020
1361 Clouds 19 1028 62 0 0.89 301 07:29 05.01.2020
1362 Clouds 18 1031 77 11265 1.5 330 06:55 05.01.2020
1363 Clouds 19 1031 72 11265 5.44 344 05:52 05.01.2020
1364 Clouds 19 1031 72 11265 6.15 0 04:56 05.01.2020
1365 Clouds 19 1031 72 11265 6.15 0 04:19 05.01.2020
1366 Clouds 19 1030 72 11265 2.6 340 03:40 05.01.2020
1367 Clouds 20 1029 64 11265 2.1 330 02:36 05.01.2020
1368 Clouds 20 1029 64 11265 2.1 330 02:18 05.01.2020
1369 Clouds 21 1028 46 11265 4.1 340 01:20 05.01.2020
1370 Clouds 21 1028 46 11265 5.1 350 00:58 05.01.2020
1371 Clouds 21 1028 46 11265 5.1 350 00:39 05.01.2020
1372 Clouds 21 1028 46 11265 5.1 350 00:20 05.01.2020
1373 Clouds 21 1027 43 11265 6.2 360 23:57 04.01.2020
1374 Clouds 21 1027 43 11265 6.2 360 23:38 04.01.2020
1375 Clouds 21 1027 43 11265 6.2 360 23:18 04.01.2020
1376 Clouds 22 1027 43 11265 5.7 350 22:39 04.01.2020
1377 Clouds 22 1027 43 11265 5.7 350 22:20 04.01.2020
1378 Clouds 22 1027 49 11265 9.8 350 21:56 04.01.2020
1379 Clouds 22 1027 49 11265 9.8 350 21:37 04.01.2020
1380 Clouds 22 1027 49 11265 9.8 350 21:19 04.01.2020
1381 Clouds 22 1028 53 11265 6.7 30 20:55 04.01.2020
1382 Clouds 22 1028 53 11265 6.7 30 20:36 04.01.2020
1383 Clouds 22 1028 53 11265 6.7 30 20:36 04.01.2020
1384 Clouds 22 1028 53 11265 6.7 30 20:18 04.01.2020
1385 Clouds 22 1028 56 11265 12.9 360 19:41 04.01.2020
1386 Clouds 22 1028 56 11265 12.9 360 19:41 04.01.2020
1387 Clouds 22 1028 56 11265 12.9 360 19:23 04.01.2020
1388 Clouds 22 1029 60 9656 5.1 360 18:57 04.01.2020
1389 Clouds 22 1029 60 9656 5.1 360 18:38 04.01.2020
1390 Clouds 22 1029 60 9656 5.1 360 18:20 04.01.2020
1391 Clouds 22 1029 64 9656 5.1 360 17:55 04.01.2020
1392 Clouds 22 1029 64 9656 5.1 360 17:37 04.01.2020
1393 Clouds 21 1029 64 9656 5.1 360 17:18 04.01.2020
1394 Clouds 21 1028 64 9656 5.1 360 16:41 04.01.2020
1395 Clouds 21 1028 64 9656 5.1 360 16:23 04.01.2020
1396 Clouds 22 1026 60 9656 5.1 360 15:57 04.01.2020
1397 Clouds 22 1026 60 9656 5.1 360 15:38 04.01.2020
1398 Clouds 22 1026 60 9656 5.1 360 15:38 04.01.2020
1399 Clouds 22 1026 60 9656 5.1 360 15:19 04.01.2020
1400 Clouds 22 1025 60 9656 5.1 360 14:56 04.01.2020
1401 Clouds 22 1025 60 9656 5.1 360 14:37 04.01.2020
1402 Clouds 22 1025 60 9656 5.1 360 14:19 04.01.2020
1403 Clouds 22 1025 68 9656 7.7 360 13:54 04.01.2020
1404 Clouds 22 1025 68 9656 7.7 360 13:36 04.01.2020
1405 Clouds 22 1025 68 9656 7.7 360 13:18 04.01.2020
1406 Clouds 23 1023 58 0 8.49 10 12:41 04.01.2020
1407 Clouds 23 1022 58 0 7.6 355 12:19 04.01.2020
1408 Clouds 23 1022 58 0 7.6 355 11:57 04.01.2020
1409 Clouds 23 1022 60 0 8.49 360 11:38 04.01.2020
1410 Clouds 23 1021 59 0 7.6 360 11:19 04.01.2020
1411 Clouds 23 1020 59 0 8.05 9 10:42 04.01.2020
1412 Clouds 23 1020 59 0 8.05 9 10:23 04.01.2020
1413 Clouds 23 1020 58 0 8.05 344 09:57 04.01.2020
1414 Clouds 23 1020 58 0 8.05 344 09:39 04.01.2020
1415 Clouds 23 1020 58 0 8.05 360 09:20 04.01.2020
1416 Clouds 23 1020 59 0 8.49 355 08:40 04.01.2020
1417 Clear 23 1020 59 0 8.05 9 08:20 04.01.2020
1418 Sand 24 1021 64 9656 7.7 10 07:42 04.01.2020
1419 Sand 24 1021 64 9656 7.7 10 07:20 04.01.2020
1420 Sand 24 1021 64 9656 8.2 360 06:33 04.01.2020
1421 Sand 24 1020 69 9656 6.2 360 05:20 04.01.2020
1422 Sand 24 1019 64 9656 6.2 360 04:34 04.01.2020
1423 Sand 24 1018 69 9656 7.7 360 03:52 04.01.2020
1424 Sand 24 1018 69 9656 7.7 360 03:18 04.01.2020
1425 Clouds 24 1016 69 9656 7.7 10 02:21 04.01.2020
1426 Clouds 24 1015 73 9656 8.2 360 01:55 04.01.2020
1427 Clouds 24 1015 73 9656 8.2 360 01:31 04.01.2020
1428 Clouds 24 1013 69 9656 7.7 10 00:44 04.01.2020
1429 Clouds 25 1013 69 9656 7.7 10 00:23 04.01.2020
1430 Clouds 25 1012 65 9656 7.7 360 23:46 03.01.2020
1431 Clouds 25 1012 65 9656 7.7 360 23:25 03.01.2020
1432 Clouds 26 1012 74 9656 7.7 20 22:41 03.01.2020
1433 Clouds 26 1012 74 9656 7.7 20 22:20 03.01.2020
1434 Clouds 27 1011 65 9656 7.7 360 21:59 03.01.2020
1435 Clouds 28 1011 65 9656 7.7 360 21:39 03.01.2020
1436 Clouds 28 1011 65 9656 7.7 360 21:19 03.01.2020
1437 Clouds 28 1011 65 9656 7.7 360 21:19 03.01.2020
1438 Clouds 29 1011 62 9656 6.2 10 20:59 03.01.2020
1439 Clouds 29 1011 62 9656 6.2 10 20:41 03.01.2020
1440 Clouds 29 1011 62 9656 6.2 10 20:18 03.01.2020
1441 Clouds 29 1011 62 9656 4.6 10 19:57 03.01.2020
1442 Clouds 29 1011 62 9656 4.6 10 19:38 03.01.2020
1443 Clouds 29 1011 62 9656 4.6 10 19:19 03.01.2020
1444 Clouds 28 1012 69 9656 4.1 350 18:44 03.01.2020
1445 Clouds 28 1012 69 9656 4.1 350 18:25 03.01.2020
1446 Mist 27 1011 78 8047 5.7 340 17:56 03.01.2020
1447 Mist 27 1011 78 8047 5.7 340 17:37 03.01.2020
1448 Mist 26 1011 78 8047 5.7 340 17:18 03.01.2020
1449 Mist 25 1011 83 8047 2.1 10 16:42 03.01.2020
1450 Mist 25 1011 83 8047 2.1 10 16:23 03.01.2020
1451 Mist 23 1008 100 8047 1.58 308 15:57 03.01.2020
1452 Mist 22 1008 100 8047 1.58 308 15:38 03.01.2020
1453 Mist 22 1008 100 8047 1.58 308 15:18 03.01.2020
1454 Mist 21 1008 94 8047 2.1 330 14:38 03.01.2020
1455 Mist 21 1008 94 8047 2.1 330 14:38 03.01.2020
1456 Mist 21 1008 94 8047 2.1 330 14:19 03.01.2020
1457 Clear 22 1008 88 9656 2.57 212 13:44 03.01.2020
1458 Clear 22 1008 88 9656 2.57 212 13:44 03.01.2020
1459 Clear 22 1008 88 9656 2.57 212 13:44 03.01.2020
1460 Clear 22 1008 88 9656 2.57 205 13:24 03.01.2020
1461 Clouds 21 1005 80 0 1.34 296 12:59 03.01.2020
1462 Clouds 21 1005 80 0 1.34 296 12:39 03.01.2020
1463 Clouds 21 1004 79 0 2.57 205 12:21 03.01.2020
1464 Clouds 21 1004 78 0 0.89 296 11:45 03.01.2020
1465 Clouds 21 1004 78 0 2.38 197 11:21 03.01.2020
1466 Clouds 22 1004 78 0 0.89 296 10:46 03.01.2020
1467 Clouds 22 1004 78 0 2.38 197 10:27 03.01.2020
1468 Clouds 22 1004 79 0 2.38 197 09:58 03.01.2020
1469 Clouds 22 1004 79 0 0.89 296 09:39 03.01.2020
1470 Clouds 22 1004 76 0 2.38 197 09:21 03.01.2020
1471 Clear 22 1005 83 11265 2.38 197 08:57 03.01.2020
1472 Clear 23 1005 83 11265 2.38 197 08:38 03.01.2020
1473 Clear 22 1005 83 11265 2.34 227 08:19 03.01.2020
1474 Clear 23 1005 83 11265 2.34 227 07:40 03.01.2020
1475 Clear 23 1005 83 11265 2.34 227 07:18 03.01.2020
1476 Clear 24 1005 78 11265 3.6 180 06:49 03.01.2020
1477 Clear 24 1005 78 11265 3.6 180 06:49 03.01.2020
1478 Clear 24 1005 78 11265 3.6 180 06:30 03.01.2020
1479 Clear 25 1005 73 11265 3.1 200 05:45 03.01.2020
1480 Clear 26 1005 74 11265 2.6 180 04:22 03.01.2020
1481 Clouds 25 1004 83 9656 4.68 173 02:56 03.01.2020
1482 Clouds 25 1004 83 9656 4.68 173 02:56 03.01.2020
1483 Clouds 25 1004 83 9656 4.68 173 02:33 03.01.2020
1484 Clouds 25 1003 83 8047 1 50 01:42 03.01.2020
1485 Clouds 26 1002 78 8047 5.1 60 00:50 03.01.2020
1486 Clouds 26 1002 78 8047 5.1 60 00:30 03.01.2020
1487 Clouds 29 1002 55 8047 1 150 23:55 02.01.2020
1488 Clouds 30 1002 55 8047 1 150 23:37 02.01.2020
1489 Clouds 30 1002 55 8047 1 150 23:19 02.01.2020
1490 Clouds 31 1002 58 8047 4.1 170 22:45 02.01.2020
1491 Clouds 31 1002 58 8047 4.1 170 22:22 02.01.2020
1492 Clouds 30 1003 62 8047 3.1 140 22:00 02.01.2020
1493 Clouds 30 1003 62 8047 3.1 140 21:41 02.01.2020
1494 Clouds 29 1003 62 8047 3.1 140 21:23 02.01.2020
1495 Clouds 29 1004 69 6437 2.1 150 20:59 02.01.2020
1496 Clouds 28 1004 69 6437 2.1 150 20:39 02.01.2020
1497 Clouds 28 1004 69 6437 2.1 150 20:21 02.01.2020
1498 Clouds 28 1007 69 6437 3.1 160 19:55 02.01.2020
1499 Clouds 28 1007 69 6437 3.1 160 19:55 02.01.2020
1500 Clouds 28 1007 69 6437 3.1 160 19:55 02.01.2020
1501 Clouds 28 1007 69 6437 3.1 160 19:37 02.01.2020
1502 Clouds 28 1007 69 6437 3.1 160 19:19 02.01.2020
1503 Haze 27 1008 78 6437 3.1 170 18:56 02.01.2020
1504 Haze 27 1008 78 6437 3.1 170 18:38 02.01.2020
1505 Haze 26 1008 78 6437 3.1 170 18:20 02.01.2020
1506 Haze 25 1009 83 6437 2.6 150 17:56 02.01.2020
1507 Haze 25 1009 83 6437 2.6 150 17:36 02.01.2020
1508 Haze 25 1009 83 6437 2.6 150 17:18 02.01.2020
1509 Clouds 24 1009 88 8047 1.5 170 16:56 02.01.2020
1510 Clouds 24 1009 88 8047 1.5 170 16:38 02.01.2020
1511 Clouds 24 1009 88 8047 1.5 170 16:19 02.01.2020
1512 Mist 23 1009 94 8047 4.5 174 15:42 02.01.2020
1513 Mist 22 1009 94 8047 4.5 174 15:24 02.01.2020
1514 Mist 22 1008 100 8047 4.5 174 14:58 02.01.2020
1515 Mist 22 1008 100 8047 4.5 174 14:37 02.01.2020
1516 Mist 22 1008 100 8047 1.64 202 14:19 02.01.2020
1517 Clouds 22 1008 94 8047 1.64 202 13:58 02.01.2020
1518 Clouds 23 1008 94 8047 1.42 227 13:38 02.01.2020
1519 Clouds 23 1008 94 8047 1.42 227 12:59 02.01.2020
1520 Clouds 23 1008 94 8047 1.42 227 12:40 02.01.2020
1521 Clouds 23 1007 80 0 1.42 227 12:20 02.01.2020
1522 Clouds 23 1007 80 0 1.42 227 11:41 02.01.2020
1523 Clouds 23 1007 80 0 1.44 226 11:21 02.01.2020
1524 Clouds 23 1007 80 0 1.44 226 10:46 02.01.2020
1525 Clouds 23 1007 80 0 1.44 226 10:27 02.01.2020
1526 Clouds 23 1007 81 0 0.45 109 09:56 02.01.2020
1527 Clouds 23 1007 80 0 1.44 226 09:35 02.01.2020
1528 Clouds 23 1007 80 0 1.44 226 08:58 02.01.2020
1529 Clouds 23 1008 80 0 1.44 226 08:39 02.01.2020
1530 Clear 23 1008 80 0 2.31 164 08:19 02.01.2020
1531 Clear 23 1008 80 0 2.31 164 07:47 02.01.2020
1532 Clear 23 1009 79 0 2.31 164 07:26 02.01.2020
1533 Clouds 24 1011 88 11265 2.31 164 06:41 02.01.2020
1534 Clouds 24 1011 88 11265 2.31 164 05:38 02.01.2020
1535 Clouds 24 1012 88 11265 3.34 114 04:34 02.01.2020
1536 Clouds 24 1011 83 11265 3.34 114 03:23 02.01.2020
1537 Clouds 24 1010 83 11265 3.45 98 02:21 02.01.2020
1538 Clouds 24 1010 83 9656 3.45 98 01:49 02.01.2020
1539 Clouds 24 1010 83 9656 3.45 98 01:23 02.01.2020
1540 Clouds 25 1009 73 9656 1.5 120 00:38 02.01.2020
1541 Clouds 25 1009 73 9656 1.5 120 00:38 02.01.2020
1542 Clouds 25 1009 73 9656 1.5 120 00:19 02.01.2020
1543 Clouds 25 1009 73 11265 1 110 23:41 01.01.2020
1544 Clouds 25 1009 73 11265 1 110 23:21 01.01.2020
1545 Clouds 26 1010 69 11265 2.6 90 22:39 01.01.2020
1546 Clouds 25 1010 69 11265 2.6 90 22:20 01.01.2020
1547 Clouds 25 1011 73 11265 2.1 90 21:58 01.01.2020
1548 Clouds 25 1011 73 11265 2.1 90 21:39 01.01.2020
1549 Clouds 26 1011 73 11265 2.1 90 21:20 01.01.2020
1550 Clouds 26 1013 69 11265 2.1 170 20:56 01.01.2020
1551 Clouds 26 1013 69 11265 2.1 170 20:38 01.01.2020
1552 Clouds 26 1013 69 11265 2.1 170 20:19 01.01.2020
1553 Clouds 26 1013 69 11265 2.1 170 20:19 01.01.2020
1554 Clouds 26 1014 69 11265 2.1 180 19:55 01.01.2020
1555 Clouds 26 1014 69 11265 2.1 180 19:37 01.01.2020
1556 Clouds 26 1014 69 11265 2.1 180 19:19 01.01.2020
1557 Clouds 25 1016 83 11265 3.1 180 18:56 01.01.2020
1558 Clouds 25 1016 83 11265 3.1 180 18:36 01.01.2020
1559 Clouds 25 1016 83 11265 3.1 180 18:18 01.01.2020
1560 Clouds 24 1016 83 8047 1.5 200 17:56 01.01.2020
1561 Clouds 24 1016 83 8047 1.5 200 17:38 01.01.2020
1562 Clouds 24 1016 83 8047 1.5 200 17:19 01.01.2020
1563 Clouds 23 1016 94 8047 0.62 205 16:42 01.01.2020
1564 Clouds 22 1016 94 8047 0.62 205 16:24 01.01.2020
1565 Clouds 22 1016 94 9656 0.62 205 15:58 01.01.2020
1566 Clouds 22 1016 94 9656 0.62 205 15:40 01.01.2020
1567 Clouds 21 1016 94 9656 0.62 205 15:22 01.01.2020
1568 Clouds 21 1015 94 9656 1 140 14:59 01.01.2020
1569 Clouds 21 1015 94 9656 1 140 14:40 01.01.2020
1570 Clouds 21 1015 94 9656 1 140 14:22 01.01.2020
1571 Clouds 21 1015 94 9656 1.67 121 13:56 01.01.2020
1572 Clouds 21 1015 94 9656 1.67 121 13:37 01.01.2020
1573 Clouds 21 1015 94 9656 2.08 89 13:18 01.01.2020
1574 Clouds 21 1013 83 0 2.08 89 12:57 01.01.2020
1575 Clouds 21 1013 83 0 0.45 227 12:39 01.01.2020
1576 Clouds 21 1013 83 0 0.45 227 12:19 01.01.2020
1577 Clouds 21 1013 83 0 0.89 227 11:43 01.01.2020
1578 Clouds 21 1013 83 0 0.89 227 11:23 01.01.2020
1579 Clouds 21 1013 83 0 0.45 227 10:59 01.01.2020
1580 Clouds 21 1013 83 0 0.45 227 10:41 01.01.2020
1581 Clouds 21 1013 83 0 0.45 227 10:21 01.01.2020
1582 Clouds 21 1013 83 0 0.89 227 09:58 01.01.2020
1583 Clouds 20 1014 83 0 0.89 227 09:37 01.01.2020
1584 Clouds 20 1014 82 0 0.45 227 09:18 01.01.2020
1585 Clouds 20 1014 82 0 0.45 227 09:18 01.01.2020
1586 Clouds 20 1014 82 0 0.45 227 08:55 01.01.2020
1587 Clouds 21 1014 82 0 0.45 227 08:36 01.01.2020
1588 Clear 21 1015 82 0 0.89 227 08:18 01.01.2020
1589 Clear 21 1015 82 0 1.34 217 07:54 01.01.2020
1590 Clear 21 1015 82 0 1.34 217 07:35 01.01.2020
1591 Clouds 20 1018 94 9656 1.59 9 06:44 01.01.2020
1592 Clouds 20 1018 94 9656 1.59 9 06:20 01.01.2020
1593 Clear 21 1018 94 9656 4.01 7 05:21 01.01.2020
1594 Clear 22 1017 88 9656 2.6 10 03:43 01.01.2020
1595 Clear 22 1017 88 9656 2.6 10 03:23 01.01.2020
1596 Clear 22 1016 88 9656 1.5 20 02:57 01.01.2020
1597 Clear 22 1016 88 9656 1.5 20 02:34 01.01.2020
1598 Clear 24 1016 78 9656 2.1 360 01:55 01.01.2020
1599 Clear 24 1016 78 9656 2.1 360 01:36 01.01.2020
1600 Clear 24 1016 78 9656 2.1 360 01:18 01.01.2020
1601 Clear 25 1015 73 9656 2.6 60 00:44 01.01.2020
1602 Clear 25 1015 73 9656 2.6 60 00:24 01.01.2020
1603 Clouds 26 1015 65 9656 3.6 80 23:41 31.12.2019
1604 Clouds 26 1015 65 9656 3.6 80 23:21 31.12.2019
1605 Clouds 25 1016 73 9656 3.6 30 22:57 31.12.2019
1606 Clouds 25 1016 73 9656 3.6 30 22:38 31.12.2019
1607 Clouds 25 1016 73 9656 3.6 30 22:19 31.12.2019
1608 Clouds 26 1016 69 9656 1 60 21:57 31.12.2019
1609 Clouds 26 1016 69 9656 1 60 21:37 31.12.2019
1610 Clouds 26 1016 69 9656 1 60 21:19 31.12.2019
1611 Clouds 26 1016 69 9656 1 60 21:19 31.12.2019
1612 Clouds 25 1018 69 8047 4.12 30 20:54 31.12.2019
1613 Clouds 25 1018 69 8047 4.12 30 20:36 31.12.2019
1614 Clouds 25 1018 69 8047 2.14 101 20:18 31.12.2019
1615 Clouds 24 1019 78 8047 2.14 101 19:41 31.12.2019
1616 Clouds 24 1019 78 8047 2.14 101 19:22 31.12.2019
1617 Clouds 24 1020 73 8047 2.14 101 18:58 31.12.2019
1618 Clouds 24 1020 73 8047 2.14 101 18:40 31.12.2019
1619 Clouds 24 1020 73 8047 2.14 101 18:20 31.12.2019
1620 Clouds 24 1020 73 8047 2.14 101 17:56 31.12.2019
1621 Clouds 24 1020 73 8047 2.14 101 17:38 31.12.2019
1622 Clouds 24 1020 73 8047 2.14 101 17:38 31.12.2019
1623 Clouds 24 1020 73 8047 1.92 197 17:19 31.12.2019
1624 Clear 23 1019 78 8047 1.92 197 16:57 31.12.2019
1625 Clear 23 1019 78 8047 1.92 197 16:38 31.12.2019
1626 Clear 23 1019 78 8047 1.92 197 16:19 31.12.2019
1627 Clear 21 1019 88 8047 1.92 197 15:56 31.12.2019
1628 Clear 21 1019 88 8047 1.92 197 15:38 31.12.2019
1629 Clear 21 1019 88 8047 1.92 197 15:20 31.12.2019
1630 Clear 18 1018 93 8047 1 40 14:57 31.12.2019
1631 Clear 18 1018 93 8047 1 40 14:38 31.12.2019
1632 Clear 18 1018 93 8047 1 40 14:38 31.12.2019
1633 Clear 18 1018 93 8047 1 40 14:19 31.12.2019
1634 Clear 19 1017 93 9656 2.17 211 13:57 31.12.2019
1635 Clear 19 1017 93 9656 2.17 211 13:39 31.12.2019
1636 Clear 19 1017 93 9656 2.28 208 13:20 31.12.2019
1637 Clouds 18 1016 81 0 2.28 208 12:56 31.12.2019
1638 Clouds 18 1016 81 0 2.28 208 12:56 31.12.2019
1639 Clouds 18 1015 81 0 2.28 208 12:38 31.12.2019
1640 Clouds 18 1015 81 0 2.28 208 12:19 31.12.2019
1641 Clouds 19 1017 93 9656 2.28 208 11:56 31.12.2019
1642 Clouds 19 1017 93 9656 2.28 208 11:37 31.12.2019
1643 Clouds 19 1017 93 9656 3.17 233 11:19 31.12.2019
1644 Clouds 20 1017 88 9656 3.17 233 10:56 31.12.2019
1645 Clouds 20 1017 88 9656 3.17 233 10:37 31.12.2019
1646 Clouds 20 1017 88 9656 3.17 233 10:19 31.12.2019
1647 Clouds 20 1017 88 9656 3.17 233 09:58 31.12.2019
1648 Clouds 20 1017 88 9656 3.17 233 09:38 31.12.2019
1649 Clouds 20 1017 88 9656 3.17 233 09:19 31.12.2019
1650 Clouds 20 1017 88 9656 3.17 233 08:43 31.12.2019
1651 Clouds 20 1017 88 9656 3 241 08:24 31.12.2019
1652 Clouds 21 1017 83 9656 3.62 331 07:59 31.12.2019
1653 Clouds 21 1017 83 9656 3.62 331 07:41 31.12.2019
1654 Clouds 21 1017 83 9656 3.62 331 07:19 31.12.2019
1655 Clouds 23 1018 78 9656 3.62 331 06:42 31.12.2019
1656 Clouds 23 1017 73 11265 6.2 360 05:45 31.12.2019
1657 Clouds 23 1017 73 9656 6.7 20 04:27 31.12.2019
1658 Clouds 22 1016 78 9656 7.7 10 03:27 31.12.2019
1659 Clouds 22 1015 78 9656 5.1 360 02:39 31.12.2019
1660 Sand 23 1015 73 8047 6.2 360 01:53 31.12.2019
1661 Sand 23 1015 73 8047 6.2 360 01:34 31.12.2019
1662 Clouds 23 1014 78 9656 7.7 360 00:56 31.12.2019
1663 Clouds 23 1014 78 9656 7.7 360 00:37 31.12.2019
1664 Clouds 23 1014 78 9656 7.7 360 00:18 31.12.2019
1665 Clear 24 1014 73 9656 7.2 360 23:55 30.12.2019
1666 Clear 24 1014 73 9656 7.2 360 23:36 30.12.2019
1667 Clear 24 1014 73 9656 7.2 360 23:18 30.12.2019
1668 Clouds 25 1014 69 9656 10.3 10 22:55 30.12.2019
1669 Clouds 25 1014 69 9656 10.3 10 22:37 30.12.2019
1670 Clouds 25 1014 69 9656 10.3 10 22:18 30.12.2019
1671 Clouds 26 1014 69 9656 5.7 360 21:55 30.12.2019
1672 Clouds 26 1014 69 9656 5.7 360 21:55 30.12.2019
1673 Clouds 26 1014 69 9656 5.7 360 21:55 30.12.2019
1674 Clouds 26 1014 69 9656 5.7 360 21:37 30.12.2019
1675 Clouds 26 1014 69 9656 5.7 360 21:18 30.12.2019
1676 Clouds 26 1015 65 9656 9.3 20 20:54 30.12.2019
1677 Clouds 27 1015 65 9656 9.3 20 20:36 30.12.2019
1678 Clouds 26 1015 65 9656 9.3 20 20:18 30.12.2019
1679 Clear 27 1016 65 8047 5.7 360 19:55 30.12.2019
1680 Clear 27 1016 65 8047 5.7 360 19:36 30.12.2019
1681 Clear 27 1016 65 8047 5.7 360 19:18 30.12.2019
1682 Clear 26 1017 69 8047 5.1 360 18:41 30.12.2019
1683 Clear 26 1017 69 8047 5.1 360 18:21 30.12.2019
1684 Clear 26 1017 69 8047 5.1 360 18:21 30.12.2019
1685 Clear 26 1017 78 8047 5.1 360 17:59 30.12.2019
1686 Clear 26 1017 78 8047 5.1 360 17:41 30.12.2019
1687 Clear 25 1017 78 8047 5.1 360 17:19 30.12.2019
1688 Clear 25 1016 83 6437 4.1 360 16:59 30.12.2019
1689 Clear 24 1016 83 6437 4.1 360 16:40 30.12.2019
1690 Clear 25 1016 83 6437 4.1 360 16:20 30.12.2019
1691 Clear 24 1015 88 6437 5.1 350 15:56 30.12.2019
1692 Clear 23 1015 88 6437 5.1 350 15:38 30.12.2019
1693 Clear 23 1015 88 6437 5.1 350 15:19 30.12.2019
1694 Clear 23 1015 88 6437 5.1 350 15:19 30.12.2019
1695 Clear 23 1014 83 6437 7.7 360 14:54 30.12.2019
1696 Clear 23 1014 83 6437 7.7 360 14:36 30.12.2019
1697 Clear 23 1014 83 6437 7.7 360 14:18 30.12.2019
1698 Clouds 24 1013 83 8047 7.7 40 13:41 30.12.2019
1699 Clouds 24 1013 83 8047 7.7 40 13:23 30.12.2019
1700 Rain 23 1012 74 0 5.81 32 12:58 30.12.2019
1701 Rain 24 1012 78 0 6.26 32 12:39 30.12.2019
1702 Rain 23 1012 80 0 5.81 49 12:19 30.12.2019
1703 Clear 23 1011 83 0 6.26 44 11:56 30.12.2019
1704 Clear 23 1011 84 0 4.47 42 11:37 30.12.2019
1705 Clear 23 1011 84 0 2.24 11 11:18 30.12.2019
1706 Clear 23 1011 84 0 1.34 39 10:42 30.12.2019
1707 Clear 22 1011 83 0 0.45 102 10:20 30.12.2019
1708 Clear 23 1010 83 0 2.29 345 09:44 30.12.2019
1709 Clear 22 1010 83 0 2.29 345 09:21 30.12.2019
1710 Clear 22 1010 83 0 2.29 345 08:57 30.12.2019
1711 Clear 23 1010 83 0 2.29 345 08:39 30.12.2019
1712 Clouds 22 1011 83 0 0.31 346 08:20 30.12.2019
1713 Clouds 23 1011 83 0 0.45 102 07:48 30.12.2019
1714 Clouds 22 1011 83 0 0.44 88 07:23 30.12.2019
1715 Mist 22 1013 94 8047 0.44 88 06:32 30.12.2019
1716 Clouds 23 1012 94 9656 1.55 82 04:31 30.12.2019
1717 Clouds 23 1011 94 9656 1.55 82 03:50 30.12.2019
1718 Clouds 24 1010 94 9656 1 70 02:47 30.12.2019
1719 Clouds 24 1010 94 9656 1 70 02:26 30.12.2019
1720 Clouds 25 1009 83 8047 3.78 103 01:29 30.12.2019
1721 Clouds 26 1008 78 8047 2.1 60 00:59 30.12.2019
1722 Clouds 27 1008 78 8047 2.1 60 00:39 30.12.2019
1723 Clouds 27 1008 74 8047 1 80 23:55 29.12.2019
1724 Clouds 27 1008 74 8047 1 80 23:36 29.12.2019
1725 Clouds 27 1008 74 8047 1 80 23:18 29.12.2019
1726 Clouds 28 1008 69 8047 2.1 100 22:40 29.12.2019
1727 Clouds 28 1008 69 8047 2.1 100 22:21 29.12.2019
1728 Clouds 28 1008 66 8047 2.1 90 21:56 29.12.2019
1729 Clouds 29 1008 66 8047 2.1 90 21:38 29.12.2019
1730 Clouds 29 1008 66 8047 2.1 90 21:19 29.12.2019
1731 Clouds 29 1010 62 8047 1.5 140 20:55 29.12.2019
1732 Clouds 29 1010 62 8047 1.5 140 20:37 29.12.2019
1733 Clouds 29 1010 62 8047 1.5 140 20:18 29.12.2019
1734 Clouds 29 1011 65 8047 2.6 200 19:55 29.12.2019
1735 Clouds 28 1011 65 8047 2.6 200 19:37 29.12.2019
1736 Clouds 28 1011 65 8047 2.6 200 19:19 29.12.2019
1737 Clouds 27 1012 74 6437 4.1 170 18:54 29.12.2019
1738 Clouds 27 1012 74 6437 4.1 170 18:36 29.12.2019
1739 Clouds 26 1012 74 6437 4.1 170 18:18 29.12.2019
1740 Mist 25 1012 78 6437 2.1 200 17:55 29.12.2019
1741 Mist 25 1012 78 6437 2.1 200 17:36 29.12.2019
1742 Mist 25 1012 78 6437 2.1 200 17:18 29.12.2019
1743 Mist 23 1012 94 4828 3.65 198 16:55 29.12.2019
1744 Mist 22 1012 94 4828 3.65 198 16:36 29.12.2019
1745 Mist 22 1012 94 4828 3.65 198 16:18 29.12.2019
1746 Mist 20 1011 100 3219 3.65 198 15:55 29.12.2019
1747 Mist 19 1011 100 3219 3.65 198 15:37 29.12.2019
1748 Mist 19 1011 100 3219 3.65 198 15:18 29.12.2019
1749 Mist 18 1009 100 4828 3.65 198 14:47 29.12.2019
1750 Mist 18 1009 100 4828 2.63 208 14:19 29.12.2019
1751 Clear 18 1009 100 8047 2.63 208 14:00 29.12.2019
1752 Clear 18 1009 100 8047 2.63 208 13:40 29.12.2019
1753 Clear 18 1009 100 8047 2.63 208 13:22 29.12.2019
1754 Clouds 18 1008 83 0 0.89 254 12:58 29.12.2019
1755 Clouds 18 1008 83 0 0.89 254 12:40 29.12.2019
1756 Clouds 19 1008 83 0 2.79 209 12:22 29.12.2019
1757 Clouds 19 1008 83 0 2.79 209 12:22 29.12.2019
1758 Clouds 19 1008 82 0 2.79 209 11:43 29.12.2019
1759 Clouds 19 1008 82 0 2.79 209 11:23 29.12.2019
1760 Clouds 19 1008 82 0 2.06 220 11:00 29.12.2019
1761 Clouds 19 1008 82 0 2.06 220 10:41 29.12.2019
1762 Clouds 20 1008 82 0 2.06 220 10:19 29.12.2019
1763 Clouds 21 1008 82 0 0.45 255 09:47 29.12.2019
1764 Clouds 21 1008 81 0 0.89 255 09:28 29.12.2019
1765 Clouds 21 1008 81 0 0.89 255 09:28 29.12.2019
1766 Clouds 21 1008 80 0 2.06 220 08:59 29.12.2019
1767 Clouds 21 1008 80 0 2.06 220 08:40 29.12.2019
1768 Clouds 21 1008 80 0 2.06 220 08:40 29.12.2019
1769 Clouds 21 1009 80 0 1.14 168 08:21 29.12.2019
1770 Clouds 21 1009 81 0 0.89 192 07:45 29.12.2019
1771 Clouds 20 1009 81 0 1.14 168 07:26 29.12.2019
1772 Mist 20 1011 94 9656 1 300 06:42 29.12.2019
1773 Mist 20 1011 94 9656 1 300 06:19 29.12.2019
1774 Clouds 21 1011 94 9656 1.14 168 05:44 29.12.2019
1775 Clouds 21 1011 94 9656 3.52 88 04:33 29.12.2019
1776 Clouds 22 1010 83 9656 3.52 88 03:36 29.12.2019
1777 Clouds 23 1009 83 9656 1.5 130 02:30 29.12.2019
1778 Clouds 23 1009 83 9656 1.5 130 02:30 29.12.2019
1779 Clouds 23 1009 83 9656 2.6 100 01:52 29.12.2019
1780 Clouds 23 1009 83 9656 2.6 100 01:29 29.12.2019
1781 Clouds 24 1008 78 8047 4.1 90 00:45 29.12.2019
1782 Clouds 24 1008 78 8047 4.1 90 00:25 29.12.2019
1783 Clear 25 1008 69 9656 6.2 90 23:55 28.12.2019
1784 Clear 25 1008 69 9656 6.2 90 23:37 28.12.2019
1785 Clear 25 1008 69 9656 6.2 90 23:18 28.12.2019
1786 Clear 25 1008 69 9656 6.2 90 23:18 28.12.2019
1787 Clear 26 1008 65 9656 5.1 80 22:37 28.12.2019
1788 Clear 26 1008 65 9656 5.1 80 22:18 28.12.2019
1789 Clear 26 1009 69 9656 3.6 70 21:56 28.12.2019
1790 Clear 26 1009 69 9656 3.6 70 21:37 28.12.2019
1791 Rain 26 1009 69 9656 3.6 70 21:19 28.12.2019
1792 Rain 27 1010 57 8047 5.7 180 20:54 28.12.2019
1793 Clear 27 1010 57 8047 5.7 180 20:36 28.12.2019
1794 Clear 27 1010 57 8047 5.7 180 20:18 28.12.2019
1795 Clouds 26 1012 61 8047 4.1 160 19:41 28.12.2019
1796 Clouds 26 1012 61 8047 4.1 160 19:23 28.12.2019
1797 Clouds 25 1013 69 8047 4.1 170 18:59 28.12.2019
1798 Clouds 25 1013 69 8047 4.1 170 18:40 28.12.2019
1799 Clouds 25 1013 69 8047 4.1 170 18:20 28.12.2019
1800 Clouds 23 1014 83 6437 4.6 170 17:58 28.12.2019
1801 Clouds 23 1014 83 6437 4.6 170 17:39 28.12.2019
1802 Clouds 22 1014 83 6437 4.6 170 17:20 28.12.2019
1803 Mist 20 1014 93 4828 2.1 180 16:48 28.12.2019
1804 Mist 20 1014 93 4828 2.1 180 16:26 28.12.2019
1805 Mist 18 1014 100 4828 1 190 15:57 28.12.2019
1806 Mist 18 1014 100 4828 1 190 15:39 28.12.2019
1807 Mist 16 1013 100 1609 3.74 176 15:20 28.12.2019
1808 Mist 16 1013 100 3219 1 200 14:45 28.12.2019
1809 Mist 16 1013 100 3219 1 200 14:24 28.12.2019
1810 Mist 17 1013 93 3219 3.67 167 13:58 28.12.2019
1811 Mist 17 1013 93 3219 3.67 167 13:38 28.12.2019
1812 Mist 18 1012 93 6437 3.67 167 13:19 28.12.2019
1813 Clear 17 1011 83 0 0.89 174 12:44 28.12.2019
1814 Clear 17 1011 83 0 0.89 174 12:44 28.12.2019
1815 Clear 17 1011 83 0 0.89 174 12:25 28.12.2019
1816 Clear 18 1011 83 0 0.45 174 11:58 28.12.2019
1817 Clear 18 1011 83 0 0.45 174 11:39 28.12.2019
1818 Clear 18 1011 83 0 0.89 174 11:20 28.12.2019
1819 Clear 18 1011 83 0 0.89 174 10:46 28.12.2019
1820 Clear 18 1011 83 0 0.89 174 10:46 28.12.2019
1821 Clear 18 1011 83 0 0.89 174 10:22 28.12.2019
1822 Clear 18 1011 83 0 0.89 174 09:58 28.12.2019
1823 Clear 18 1011 82 0 3 193 09:40 28.12.2019
1824 Clear 19 1011 82 0 0.45 174 09:20 28.12.2019
1825 Clear 19 1011 82 0 0.45 174 09:20 28.12.2019
1826 Clear 19 1012 81 0 0.89 174 08:44 28.12.2019
1827 Clear 19 1012 81 0 0.89 174 08:26 28.12.2019
1828 Clouds 21 1012 80 0 0.89 143 07:55 28.12.2019
1829 Clouds 21 1012 80 0 0.89 116 07:32 28.12.2019
1830 Clouds 20 1015 94 9656 2.9 142 06:41 28.12.2019
1831 Clear 21 1015 88 9656 3.1 113 04:59 28.12.2019
1832 Clear 21 1014 94 9656 3.1 113 03:47 28.12.2019
1833 Clear 22 1014 88 8047 3.1 113 02:49 28.12.2019
1834 Clouds 23 1013 83 6437 2.1 90 01:59 28.12.2019
1835 Clouds 23 1013 83 6437 2.1 90 01:31 28.12.2019
1836 Clouds 23 1013 78 8047 1.5 110 00:58 28.12.2019
1837 Clouds 24 1013 78 8047 1.5 110 00:40 28.12.2019
1838 Clouds 24 1013 78 8047 1.5 110 00:20 28.12.2019
1839 Clouds 25 1013 69 9656 2.1 100 23:44 27.12.2019
1840 Clouds 25 1013 69 9656 2.1 100 23:44 27.12.2019
1841 Clouds 25 1013 69 9656 2.1 100 23:20 27.12.2019
1842 Clouds 26 1013 61 9656 2.1 70 22:58 27.12.2019
1843 Clouds 26 1013 61 9656 2.1 70 22:39 27.12.2019
1844 Clouds 26 1013 61 9656 2.1 70 22:20 27.12.2019
1845 Haze 26 1014 61 9656 3.42 86 21:56 27.12.2019
1846 Haze 26 1014 61 9656 3.42 86 21:37 27.12.2019
1847 Haze 26 1014 61 9656 3.42 86 21:19 27.12.2019
1848 Haze 26 1015 61 8047 2.1 50 20:42 27.12.2019
1849 Haze 26 1015 61 8047 2.1 50 20:23 27.12.2019
1850 Haze 26 1016 57 8047 2.44 91 19:43 27.12.2019
1851 Haze 26 1016 57 8047 2.44 91 19:21 27.12.2019
1852 Haze 26 1017 61 8047 2.1 180 18:59 27.12.2019
1853 Haze 26 1017 61 8047 2.1 180 18:40 27.12.2019
1854 Haze 26 1017 61 8047 2.1 180 18:21 27.12.2019
1855 Haze 24 1018 69 6437 1 300 17:58 27.12.2019
1856 Haze 24 1018 69 6437 1 300 17:40 27.12.2019
1857 Haze 24 1018 69 6437 1 300 17:19 27.12.2019
1858 Mist 23 1017 83 4828 0.93 198 16:58 27.12.2019
1859 Mist 23 1017 83 4828 0.93 198 16:38 27.12.2019
1860 Mist 23 1017 83 4828 0.93 198 16:19 27.12.2019
1861 Mist 20 1016 93 6437 0.93 198 15:45 27.12.2019
1862 Mist 19 1016 93 6437 0.93 198 15:22 27.12.2019
1863 Mist 18 1015 93 6437 0.93 198 14:58 27.12.2019
1864 Mist 18 1015 93 6437 0.93 198 14:39 27.12.2019
1865 Mist 18 1015 93 6437 0.47 236 14:20 27.12.2019
1866 Mist 18 1015 93 6437 0.47 236 14:20 27.12.2019
1867 Mist 18 1015 93 8047 0.47 236 13:55 27.12.2019
1868 Mist 18 1015 93 8047 0.47 236 13:37 27.12.2019
1869 Mist 18 1015 93 8047 0.62 205 13:18 27.12.2019
1870 Clouds 18 1013 82 0 0.62 205 12:40 27.12.2019
1871 Clouds 18 1013 81 0 0.45 281 12:22 27.12.2019
1872 Clouds 18 1013 80 0 0.62 205 11:46 27.12.2019
1873 Clouds 18 1013 79 0 0.62 205 11:26 27.12.2019
1874 Clouds 18 1013 79 0 0.62 205 11:26 27.12.2019
1875 Clouds 19 1013 79 0 0.45 281 10:58 27.12.2019
1876 Clouds 20 1013 78 0 1.07 141 10:39 27.12.2019
1877 Clouds 21 1013 75 0 1.07 141 10:21 27.12.2019
1878 Clouds 22 1013 74 0 0.45 281 09:44 27.12.2019
1879 Clouds 21 1013 75 0 1.07 141 09:22 27.12.2019
1880 Clouds 21 1013 75 0 1.07 141 09:22 27.12.2019
1881 Clouds 22 1013 74 0 1.07 141 08:59 27.12.2019
1882 Clouds 22 1014 73 0 1.07 141 08:36 27.12.2019
1883 Clear 22 1014 75 0 0.45 281 07:52 27.12.2019
1884 Clear 22 1014 75 0 0.45 281 07:33 27.12.2019
1885 Clouds 21 1017 88 9656 0.28 168 06:38 27.12.2019
1886 Clouds 21 1017 83 9656 0.28 168 05:38 27.12.2019
1887 Clouds 22 1016 78 8047 1.59 65 03:44 27.12.2019
1888 Clouds 22 1015 73 8047 4.32 70 02:21 27.12.2019
1889 Clouds 23 1014 73 8047 3.6 80 01:38 27.12.2019
1890 Clouds 23 1014 73 8047 3.6 80 01:19 27.12.2019
1891 Clouds 24 1013 69 8047 3.1 80 00:43 27.12.2019
1892 Clouds 24 1013 69 8047 3.1 80 00:24 27.12.2019
1893 Clouds 24 1013 69 8047 3.1 80 00:24 27.12.2019
1894 Haze 25 1013 65 8047 3.6 60 23:42 26.12.2019
1895 Haze 25 1013 65 8047 3.6 60 23:22 26.12.2019
1896 Clouds 26 1012 61 8047 3.1 100 22:48 26.12.2019
1897 Clouds 25 1012 61 8047 3.1 100 22:23 26.12.2019
1898 Clouds 26 1012 65 8047 1.5 110 21:59 26.12.2019
1899 Clouds 26 1012 65 8047 1.5 110 21:39 26.12.2019
1900 Clouds 26 1012 65 8047 1.5 110 21:20 26.12.2019
1901 Haze 26 1013 57 8047 1 130 20:46 26.12.2019
1902 Haze 25 1013 57 8047 1 130 20:23 26.12.2019
1903 Clouds 26 1014 61 6437 1.5 90 19:59 26.12.2019
1904 Clouds 25 1014 61 6437 1.5 90 19:40 26.12.2019
1905 Clouds 25 1014 61 6437 1.5 90 19:22 26.12.2019
1906 Clouds 25 1015 69 8047 2.73 109 18:58 26.12.2019
1907 Clouds 25 1015 69 8047 2.73 109 18:40 26.12.2019
1908 Clouds 25 1015 69 8047 2.73 109 18:19 26.12.2019
1909 Mist 22 1016 83 6437 2.73 109 17:57 26.12.2019
1910 Mist 22 1016 83 6437 2.73 109 17:38 26.12.2019
1911 Mist 22 1016 83 6437 2.73 109 17:38 26.12.2019
1912 Mist 22 1016 83 6437 2.73 109 17:38 26.12.2019
1913 Mist 22 1016 83 6437 1.99 190 17:18 26.12.2019
1914 Clouds 20 1016 94 6437 1.99 190 16:43 26.12.2019
1915 Clouds 20 1016 94 6437 1.99 190 16:23 26.12.2019
1916 Clouds 19 1015 93 6437 1.99 190 15:56 26.12.2019
1917 Clouds 19 1015 93 6437 1.99 190 15:56 26.12.2019
1918 Clouds 19 1015 93 6437 1.99 190 15:38 26.12.2019
1919 Clouds 19 1015 93 6437 1.99 190 15:18 26.12.2019
1920 Mist 19 1014 93 4828 1.99 190 14:40 26.12.2019
1921 Mist 19 1014 93 4828 1.83 231 14:22 26.12.2019
1922 Clouds 19 1014 93 8047 1.83 231 13:44 26.12.2019
1923 Clouds 19 1014 93 8047 2.03 227 13:22 26.12.2019
1924 Clear 18 1015 92 0 2.03 227 12:58 26.12.2019
1925 Clear 18 1015 92 0 2.03 227 12:39 26.12.2019
1926 Clear 18 1015 92 0 2.03 227 12:39 26.12.2019
1927 Clear 18 1015 92 0 2.03 227 12:20 26.12.2019
1928 Clear 18 1015 92 0 2.03 227 11:57 26.12.2019
1929 Clear 18 1015 92 0 2.03 227 11:39 26.12.2019
1930 Clear 18 1014 94 0 2.34 240 11:20 26.12.2019
1931 Clear 18 1014 94 0 2.34 240 10:49 26.12.2019
1932 Clear 18 1014 94 0 2.34 240 10:19 26.12.2019
1933 Clear 18 1014 94 0 2.34 240 10:19 26.12.2019
1934 Clear 18 1014 94 0 2.34 240 10:19 26.12.2019
1935 Clear 18 1014 94 0 2.34 240 09:50 26.12.2019
1936 Clear 18 1014 94 0 2.34 240 09:32 26.12.2019
1937 Clear 18 1014 94 0 2.34 240 08:55 26.12.2019
1938 Clear 18 1014 94 0 2.34 240 08:36 26.12.2019
1939 Clear 20 1014 88 0 1.91 164 08:18 26.12.2019
1940 Clear 20 1015 87 0 1.9 161 07:30 26.12.2019
1941 Clear 20 1015 87 0 1.9 161 07:30 26.12.2019
1942 Clouds 19 1014 93 11265 1.9 161 06:54 26.12.2019
1943 Clouds 19 1014 93 11265 1.9 161 06:32 26.12.2019
1944 Clouds 19 1014 93 11265 1.9 161 05:46 26.12.2019
1945 Clear 21 1013 88 11265 4.16 106 04:59 26.12.2019
1946 Clear 21 1013 88 11265 4.16 106 04:30 26.12.2019
1947 Clear 22 1013 83 11265 1.5 110 03:18 26.12.2019
1948 Clear 22 1012 78 11265 2.6 90 02:38 26.12.2019
1949 Clear 22 1012 78 11265 2.6 90 02:19 26.12.2019
1950 Clear 22 1011 83 9656 2.1 110 01:41 26.12.2019
1951 Clear 22 1011 83 9656 2.1 110 01:22 26.12.2019
1952 Clear 24 1011 69 11265 4.1 100 00:41 26.12.2019
1953 Clear 24 1011 69 11265 4.1 100 00:22 26.12.2019
1954 Clear 24 1010 69 11265 4.1 80 23:42 25.12.2019
1955 Clear 24 1010 69 11265 4.1 80 23:21 25.12.2019
1956 Clear 25 1010 61 9656 4.6 90 22:59 25.12.2019
1957 Clear 25 1010 61 9656 4.6 90 22:40 25.12.2019
1958 Clear 25 1010 61 9656 4.6 90 22:22 25.12.2019
1959 Clear 25 1011 65 9656 4.1 80 21:59 25.12.2019
1960 Clear 25 1011 65 9656 4.1 80 21:40 25.12.2019
1961 Clear 25 1011 65 9656 4.1 80 21:20 25.12.2019
1962 Clouds 26 1012 61 11265 1 140 20:56 25.12.2019
1963 Clouds 26 1012 61 11265 1 140 20:38 25.12.2019
1964 Clouds 26 1012 61 11265 1 140 20:18 25.12.2019
1965 Clouds 25 1013 61 11265 3.6 180 19:43 25.12.2019
1966 Clouds 25 1013 61 11265 3.6 180 19:25 25.12.2019
1967 Clouds 23 1014 73 9656 1.5 160 18:58 25.12.2019
1968 Clouds 23 1014 73 9656 1.5 160 18:37 25.12.2019
1969 Clouds 23 1014 73 9656 1.5 160 18:19 25.12.2019
1970 Clear 22 1015 73 9656 5.7 170 17:42 25.12.2019
1971 Clear 22 1015 73 9656 5.7 170 17:20 25.12.2019
1972 Clear 20 1015 88 8047 2.35 209 16:58 25.12.2019
1973 Clear 20 1015 88 8047 2.35 209 16:37 25.12.2019
1974 Clear 20 1015 88 8047 2.35 209 16:18 25.12.2019
1975 Clear 16 1014 100 8047 2.35 209 15:57 25.12.2019
1976 Clear 16 1014 100 8047 2.35 209 15:39 25.12.2019
1977 Clear 16 1014 100 8047 2.35 209 15:20 25.12.2019
1978 Clear 16 1014 93 8047 2.35 209 14:57 25.12.2019
1979 Clear 16 1014 93 8047 2.35 209 14:39 25.12.2019
1980 Clear 16 1014 93 8047 2.35 209 14:39 25.12.2019
1981 Clear 16 1014 93 8047 2.42 212 14:20 25.12.2019
1982 Clear 16 1014 93 9656 2.42 212 13:44 25.12.2019
1983 Clear 16 1014 93 9656 2.42 212 13:21 25.12.2019
1984 Clear 18 1014 88 0 2.5 206 12:57 25.12.2019
1985 Clear 18 1014 88 0 2.5 206 12:38 25.12.2019
1986 Clear 18 1014 88 0 2.5 206 12:38 25.12.2019
1987 Clear 18 1014 88 0 2.5 206 12:19 25.12.2019
1988 Clear 18 1014 88 0 2.5 206 11:43 25.12.2019
1989 Clear 18 1014 88 0 2.58 194 11:22 25.12.2019
1990 Clear 18 1014 88 0 2.58 194 10:59 25.12.2019
1991 Clear 18 1014 88 0 2.58 194 10:36 25.12.2019
1992 Clear 18 1014 88 0 2.58 194 10:18 25.12.2019
1993 Clear 18 1014 88 0 2.58 194 09:43 25.12.2019
1994 Clear 18 1014 88 0 2.58 194 09:25 25.12.2019
1995 Clear 18 1014 88 0 2.58 194 08:46 25.12.2019
1996 Clear 18 1014 88 0 2.46 192 08:25 25.12.2019
1997 Clear 20 1016 79 0 1.71 195 07:45 25.12.2019
1998 Clear 20 1016 79 0 1.71 195 07:23 25.12.2019
1999 Clear 18 1016 93 11265 1.71 195 06:47 25.12.2019
2000 Clear 18 1016 93 11265 1.71 195 06:22 25.12.2019
2001 Clear 19 1016 88 11265 2.38 126 04:49 25.12.2019
2002 Clear 19 1016 88 11265 2.38 126 04:25 25.12.2019
2003 Clear 20 1016 82 11265 2.38 126 03:58 25.12.2019
2004 Clear 20 1016 82 11265 2.38 126 03:39 25.12.2019
2005 Clear 22 1015 73 11265 1.5 100 02:39 25.12.2019
2006 Clouds 22 1015 73 11265 1.5 100 01:58 25.12.2019
2007 Clouds 22 1015 73 11265 1.5 100 01:25 25.12.2019
2008 Clear 23 1015 69 11265 3.1 90 00:48 25.12.2019
2009 Clear 23 1015 69 11265 3.1 90 00:28 25.12.2019
2010 Clear 24 1015 60 11265 1 120 23:55 24.12.2019
2011 Clear 24 1015 60 11265 1 120 23:37 24.12.2019
2012 Clear 24 1015 60 11265 1 120 23:19 24.12.2019
2013 Clear 24 1015 60 11265 3.1 90 22:39 24.12.2019
2014 Clear 24 1015 60 11265 3.1 90 22:20 24.12.2019
2015 Clouds 25 1015 61 11265 5.1 90 21:42 24.12.2019
2016 Clouds 25 1015 61 11265 5.1 90 21:22 24.12.2019
2017 Clouds 25 1015 61 11265 5.1 90 21:22 24.12.2019
2018 Clouds 24 1017 60 11265 3.67 73 20:45 24.12.2019
2019 Clouds 24 1017 60 11265 3.67 73 20:24 24.12.2019
2020 Clouds 25 1018 57 11265 1 140 19:57 24.12.2019
2021 Clouds 25 1018 57 11265 1 140 19:39 24.12.2019
2022 Clouds 25 1018 57 11265 1 140 19:18 24.12.2019
2023 Clouds 24 1019 60 9656 1.68 84 18:42 24.12.2019
2024 Clouds 24 1019 60 9656 1.68 84 18:20 24.12.2019
2025 Clear 23 1019 64 9656 1.68 84 17:50 24.12.2019
2026 Clear 23 1019 64 9656 1.68 84 17:24 24.12.2019
2027 Clear 19 1019 77 9656 2.19 275 16:59 24.12.2019
2028 Clear 19 1019 77 9656 2.19 275 16:41 24.12.2019
2029 Clear 19 1019 77 9656 2.19 275 16:23 24.12.2019
2030 Clear 19 1019 77 9656 2.19 275 16:22 24.12.2019
2031 Clear 16 1018 82 9656 2.19 275 15:58 24.12.2019
2032 Clear 16 1018 82 9656 2.19 275 15:39 24.12.2019
2033 Clear 16 1018 82 9656 2.19 275 15:20 24.12.2019
2034 Clear 14 1018 93 9656 2.19 275 14:59 24.12.2019
2035 Clear 14 1018 93 9656 2.19 275 14:59 24.12.2019
2036 Clear 14 1018 93 9656 2.19 275 14:41 24.12.2019
2037 Clear 14 1018 93 9656 2.87 286 14:22 24.12.2019
2038 Clear 15 1018 93 9656 2.87 286 13:57 24.12.2019
2039 Clear 15 1018 93 9656 2.87 286 13:39 24.12.2019
2040 Clear 15 1018 93 9656 2.87 286 13:20 24.12.2019
2041 Clouds 18 1018 81 0 2.76 287 12:58 24.12.2019
2042 Clouds 18 1018 81 0 2.76 287 12:58 24.12.2019
2043 Clouds 18 1018 81 0 2.76 287 12:38 24.12.2019
2044 Clouds 18 1018 81 0 2.76 287 12:19 24.12.2019
2045 Clouds 18 1018 81 0 2.76 287 11:58 24.12.2019
2046 Clouds 18 1018 81 0 2.76 287 11:38 24.12.2019
2047 Clear 18 1017 79 0 2.35 310 11:20 24.12.2019
2048 Clear 18 1017 79 0 2.35 310 10:57 24.12.2019
2049 Clear 18 1017 79 0 2.35 310 10:38 24.12.2019
2050 Clear 18 1017 79 0 2.35 310 10:20 24.12.2019
2051 Clear 18 1017 79 0 2.35 310 09:59 24.12.2019
2052 Clear 18 1017 79 0 2.35 310 09:41 24.12.2019
2053 Clear 18 1017 79 0 2.35 310 09:22 24.12.2019
2054 Clear 18 1017 79 0 2.35 310 08:56 24.12.2019
2055 Clear 18 1017 79 0 2.35 310 08:37 24.12.2019
2056 Clouds 19 1020 73 0 1.9 284 08:18 24.12.2019
2057 Clouds 19 1020 73 0 1.9 284 07:43 24.12.2019
2058 Clouds 18 1020 88 11265 1 300 07:21 24.12.2019
2059 Clouds 18 1020 88 11265 1 300 06:40 24.12.2019
2060 Clouds 18 1020 88 11265 1 300 06:22 24.12.2019
2061 Clouds 18 1020 88 11265 1.9 284 05:54 24.12.2019
2062 Clouds 18 1020 88 11265 2.15 15 05:19 24.12.2019
2063 Clouds 18 1020 88 11265 2.15 15 04:21 24.12.2019
2064 Clouds 20 1020 77 11265 2.15 15 03:48 24.12.2019
2065 Clouds 20 1019 77 11265 2.1 50 02:29 24.12.2019
2066 Clouds 21 1019 73 11265 2.6 50 01:55 24.12.2019
2067 Clouds 21 1019 73 11265 2.6 50 01:26 24.12.2019
2068 Clouds 22 1019 64 11265 3.1 40 00:58 24.12.2019
2069 Clouds 22 1019 64 11265 3.1 40 00:39 24.12.2019
2070 Clouds 22 1019 64 11265 3.1 40 00:20 24.12.2019
2071 Clouds 23 1019 56 11265 3.6 30 23:43 23.12.2019
2072 Clouds 23 1019 56 11265 3.6 30 23:24 23.12.2019
2073 Clouds 23 1019 56 11265 3.6 30 23:24 23.12.2019
2074 Clouds 24 1019 50 11265 5.1 50 22:57 23.12.2019
2075 Clouds 24 1019 50 11265 5.1 50 22:38 23.12.2019
2076 Clouds 24 1019 50 11265 5.1 50 22:20 23.12.2019
2077 Clouds 25 1020 38 11265 4.1 40 21:56 23.12.2019
2078 Clouds 25 1020 38 11265 4.1 40 21:37 23.12.2019
2079 Clouds 25 1020 38 11265 4.1 40 21:19 23.12.2019
2080 Clouds 25 1021 41 11265 4.6 10 20:58 23.12.2019
2081 Clouds 25 1021 41 11265 4.6 10 20:58 23.12.2019
2082 Clouds 25 1021 41 11265 4.6 10 20:40 23.12.2019
2083 Clouds 25 1021 41 11265 4.6 10 20:19 23.12.2019
2084 Clouds 25 1021 41 11265 4.6 10 20:19 23.12.2019
2085 Clouds 25 1021 41 11265 4.6 10 20:19 23.12.2019
2086 Clouds 24 1022 38 11265 3.69 11 19:58 23.12.2019
2087 Clouds 24 1022 38 11265 3.69 11 19:39 23.12.2019
2088 Clouds 24 1022 38 11265 3.69 11 19:20 23.12.2019
2089 Clouds 23 1023 49 11265 1 350 18:58 23.12.2019
2090 Clouds 23 1023 49 11265 1 350 18:58 23.12.2019
2091 Clouds 23 1023 49 11265 1 350 18:58 23.12.2019
2092 Clouds 23 1023 49 11265 1 350 18:39 23.12.2019
2093 Clouds 23 1023 49 11265 1 350 18:20 23.12.2019
2094 Clouds 22 1023 64 11265 3.69 11 17:58 23.12.2019
2095 Clouds 22 1023 64 11265 3.69 11 17:39 23.12.2019
2096 Clouds 22 1023 64 11265 4.07 348 17:19 23.12.2019
2097 Clouds 20 1023 77 11265 4.07 348 16:57 23.12.2019
2098 Clouds 20 1023 77 11265 4.07 348 16:39 23.12.2019
2099 Clouds 20 1023 77 11265 4.07 348 16:18 23.12.2019
2100 Clouds 18 1022 88 9656 4.07 348 15:56 23.12.2019
2101 Clouds 18 1022 88 9656 4.07 348 15:36 23.12.2019
2102 Clouds 18 1022 88 9656 4.07 348 15:18 23.12.2019
2103 Clouds 18 1022 88 9656 4.07 348 14:56 23.12.2019
2104 Clouds 18 1022 88 9656 4.07 348 14:37 23.12.2019
2105 Clouds 18 1022 88 9656 4.1 349 14:18 23.12.2019
2106 Clouds 18 1022 82 9656 4.1 349 13:55 23.12.2019
2107 Clouds 18 1022 82 9656 4.1 349 13:37 23.12.2019
2108 Clouds 18 1022 82 9656 4.74 351 13:19 23.12.2019
2109 Clouds 20 1022 66 0 4.74 351 12:41 23.12.2019
2110 Clouds 20 1022 66 0 4.74 351 12:21 23.12.2019
2111 Clouds 20 1022 66 0 4.74 351 11:59 23.12.2019
2112 Clouds 20 1022 66 0 4.74 351 11:41 23.12.2019
2113 Clouds 21 1021 66 0 5.88 348 11:22 23.12.2019
2114 Clouds 21 1021 66 0 5.88 348 10:55 23.12.2019
2115 Clouds 21 1021 66 0 5.88 348 10:37 23.12.2019
2116 Clouds 21 1021 66 0 5.88 348 10:37 23.12.2019
2117 Clouds 21 1021 66 0 5.88 348 10:18 23.12.2019
2118 Clouds 21 1021 66 0 5.88 348 09:54 23.12.2019
2119 Clouds 21 1021 66 0 5.88 348 09:36 23.12.2019
2120 Clouds 21 1021 66 0 5.88 348 09:18 23.12.2019
2121 Clouds 21 1021 66 0 5.88 348 08:41 23.12.2019
2122 Clouds 21 1023 70 0 7.91 350 08:22 23.12.2019
2123 Clouds 20 1022 68 11265 7.7 360 07:56 23.12.2019
2124 Clouds 20 1022 68 11265 7.7 360 07:37 23.12.2019
2125 Clouds 20 1022 68 11265 7.7 360 07:18 23.12.2019
2126 Clouds 20 1023 68 11265 7.7 360 06:39 23.12.2019
2127 Clouds 20 1023 68 11265 7.7 360 06:21 23.12.2019
2128 Clouds 20 1023 64 11265 8.2 10 05:44 23.12.2019
2129 Clouds 20 1022 64 11265 7.7 10 04:40 23.12.2019
2130 Clouds 20 1022 72 11265 7.7 340 03:58 23.12.2019
2131 Clouds 20 1021 72 11265 3.6 10 02:46 23.12.2019
2132 Clouds 20 1021 72 11265 3.6 10 02:19 23.12.2019
2133 Clouds 20 1021 72 11265 8.7 360 01:46 23.12.2019
2134 Clouds 20 1021 72 11265 8.7 360 01:27 23.12.2019
2135 Clouds 21 1020 73 11265 7.7 20 00:46 23.12.2019
2136 Clouds 21 1020 73 11265 7.7 20 00:25 23.12.2019
2137 Clouds 21 1020 68 11265 9.3 10 23:56 22.12.2019
2138 Clouds 21 1020 68 11265 9.3 10 23:37 22.12.2019
2139 Clouds 21 1020 68 11265 9.3 10 23:19 22.12.2019
2140 Clouds 21 1021 73 11265 7.7 10 22:41 22.12.2019
2141 Clouds 21 1021 73 11265 7.7 10 22:23 22.12.2019
2142 Clouds 22 1021 68 9656 6.7 340 21:59 22.12.2019
2143 Clouds 22 1021 68 9656 6.7 340 21:41 22.12.2019
2144 Clouds 22 1021 68 9656 6.7 340 21:22 22.12.2019
2145 Clouds 23 1022 64 11265 5.7 30 20:59 22.12.2019
2146 Clouds 23 1022 64 11265 5.7 30 20:40 22.12.2019
2147 Clouds 23 1022 64 11265 5.7 30 20:19 22.12.2019
2148 Clouds 23 1023 60 11265 3.6 360 19:57 22.12.2019
2149 Clouds 23 1023 60 11265 3.6 360 19:39 22.12.2019
2150 Clouds 23 1023 60 11265 3.6 360 19:20 22.12.2019
2151 Clouds 23 1024 60 11265 3.1 340 18:43 22.12.2019
2152 Clouds 23 1024 60 11265 3.1 340 18:25 22.12.2019
2153 Clouds 21 1024 64 9656 7.2 330 17:57 22.12.2019
2154 Clouds 21 1024 64 9656 7.2 330 17:57 22.12.2019
2155 Clouds 21 1024 64 9656 7.2 330 17:39 22.12.2019
2156 Clouds 21 1024 64 9656 7.2 330 17:19 22.12.2019
2157 Clouds 21 1024 64 9656 7.2 330 17:19 22.12.2019
2158 Clouds 20 1023 72 9656 4.6 10 16:58 22.12.2019
2159 Clouds 20 1023 72 9656 4.6 10 16:40 22.12.2019
2160 Clouds 20 1023 72 9656 4.6 10 16:40 22.12.2019
2161 Clouds 20 1023 72 9656 4.6 10 16:22 22.12.2019
2162 Clouds 19 1022 82 9656 5.7 20 15:57 22.12.2019
2163 Clouds 19 1022 82 9656 5.7 20 15:38 22.12.2019
2164 Clouds 19 1022 82 9656 5.7 20 15:20 22.12.2019
2165 Clouds 18 1021 93 8047 7.1 346 14:55 22.12.2019
2166 Clouds 18 1021 93 8047 7.1 346 14:37 22.12.2019
2167 Clouds 18 1021 93 8047 7.65 337 14:18 22.12.2019
2168 Clouds 18 1021 88 9656 7.65 337 13:55 22.12.2019
2169 Clouds 18 1021 88 9656 7.65 337 13:37 22.12.2019
2170 Clouds 18 1021 88 9656 8.31 342 13:19 22.12.2019
2171 Rain 21 1022 76 0 8.31 342 12:56 22.12.2019
2172 Rain 21 1022 76 0 8.31 342 12:37 22.12.2019
2173 Rain 21 1022 76 0 8.31 342 12:19 22.12.2019
2174 Rain 21 1022 76 0 8.31 342 11:56 22.12.2019
2175 Rain 21 1022 76 0 8.31 342 11:38 22.12.2019
2176 Rain 21 1020 77 0 6.38 331 11:18 22.12.2019
2177 Rain 21 1020 77 0 6.38 331 10:55 22.12.2019
2178 Rain 21 1020 77 0 6.38 331 10:36 22.12.2019
2179 Rain 21 1020 77 0 6.38 331 10:18 22.12.2019
2180 Clouds 20 1021 77 9656 1.5 10 09:57 22.12.2019
2181 Clouds 20 1021 77 9656 1.5 10 09:38 22.12.2019
2182 Clouds 20 1021 77 9656 1.5 10 09:20 22.12.2019
2183 Clouds 20 1021 82 9656 6.38 331 08:42 22.12.2019
2184 Clouds 20 1021 82 9656 10.23 328 08:21 22.12.2019
2185 Clouds 20 1021 72 9656 1.5 340 07:42 22.12.2019
2186 Clouds 20 1021 72 9656 1.5 340 07:21 22.12.2019
2187 Clouds 21 1021 73 9656 4.6 340 06:52 22.12.2019
2188 Clouds 21 1021 73 9656 4.6 340 06:22 22.12.2019
2189 Clouds 21 1021 68 9656 4.6 360 05:29 22.12.2019
2190 Clouds 21 1021 73 9656 7.2 350 04:46 22.12.2019
2191 Clouds 21 1021 73 9656 7.2 350 04:24 22.12.2019
2192 Clouds 21 1019 73 9656 7.2 360 02:43 22.12.2019
2193 Clouds 21 1019 73 9656 7.2 360 02:43 22.12.2019
2194 Clouds 21 1019 73 9656 7.2 360 02:43 22.12.2019
2195 Clouds 21 1019 77 9656 8.7 360 01:59 22.12.2019
2196 Clouds 21 1019 77 9656 8.7 360 01:31 22.12.2019
2197 Clouds 22 1019 78 9656 3.1 360 00:48 22.12.2019
2198 Clouds 22 1019 78 9656 3.1 360 00:29 22.12.2019
2199 Clouds 23 1018 69 9656 3.1 350 23:59 21.12.2019
2200 Clouds 23 1018 69 9656 3.1 350 23:40 21.12.2019
2201 Clouds 23 1018 69 9656 3.1 350 23:20 21.12.2019
2202 Clouds 24 1019 64 9656 2.1 350 22:46 21.12.2019
2203 Clouds 24 1019 64 9656 2.1 350 22:20 21.12.2019
2204 Clouds 24 1019 64 9656 3.6 20 21:58 21.12.2019
2205 Clouds 24 1019 64 9656 3.6 20 21:39 21.12.2019
2206 Clouds 24 1019 64 9656 3.6 20 21:20 21.12.2019
2207 Clouds 24 1020 64 9656 3.1 10 20:59 21.12.2019
2208 Clouds 24 1020 64 9656 3.1 10 20:41 21.12.2019
2209 Clouds 24 1020 64 9656 3.1 10 20:22 21.12.2019
2210 Clouds 24 1021 64 9656 3.6 50 19:58 21.12.2019
2211 Clouds 24 1021 64 9656 3.6 50 19:40 21.12.2019
2212 Clouds 24 1021 64 9656 3.6 50 19:20 21.12.2019
2213 Clouds 23 1022 69 9656 3.1 360 18:56 21.12.2019
2214 Clouds 23 1022 69 9656 3.1 360 18:37 21.12.2019
2215 Clouds 23 1022 69 9656 3.1 360 18:19 21.12.2019
2216 Clouds 22 1022 78 9656 1 360 17:55 21.12.2019
2217 Clouds 22 1022 78 9656 1 360 17:55 21.12.2019
2218 Clouds 22 1022 78 9656 1 360 17:55 21.12.2019
2219 Clouds 22 1022 78 9656 1 360 17:37 21.12.2019
2220 Clouds 22 1022 78 9656 1 360 17:18 21.12.2019
2221 Clouds 22 1022 78 9656 1 360 17:18 21.12.2019
2222 Clouds 21 1022 83 8047 1.5 350 16:41 21.12.2019
2223 Clouds 21 1022 83 8047 1.5 350 16:19 21.12.2019
2224 Clouds 19 1021 88 8047 2.47 319 15:57 21.12.2019
2225 Clouds 19 1021 88 8047 2.47 319 15:39 21.12.2019
2226 Clouds 19 1021 88 8047 2.47 319 15:20 21.12.2019
2227 Clouds 19 1020 88 8047 2.47 319 14:57 21.12.2019
2228 Clouds 19 1020 88 8047 2.47 319 14:38 21.12.2019
2229 Clouds 19 1020 88 8047 2.77 320 14:19 21.12.2019
2230 Clouds 19 1020 88 9656 2.77 320 13:56 21.12.2019
2231 Clouds 19 1020 88 9656 2.77 320 13:38 21.12.2019
2232 Clouds 19 1020 88 9656 2.93 316 13:18 21.12.2019
2233 Clouds 20 1021 81 0 2.93 316 12:55 21.12.2019
2234 Clouds 20 1021 81 0 2.93 316 12:37 21.12.2019
2235 Clouds 20 1021 81 0 2.93 316 12:18 21.12.2019
2236 Clouds 20 1021 81 0 2.93 316 11:43 21.12.2019
2237 Clouds 20 1021 81 0 2.93 316 11:25 21.12.2019
2238 Clouds 20 1020 86 0 2.47 311 10:56 21.12.2019
2239 Clouds 20 1020 86 0 2.47 311 10:38 21.12.2019
2240 Clouds 20 1020 86 0 2.47 311 10:19 21.12.2019
2241 Clouds 20 1020 86 0 2.47 311 09:44 21.12.2019
2242 Clouds 20 1020 86 0 2.47 311 09:22 21.12.2019
2243 Clouds 20 1020 86 0 2.47 311 08:59 21.12.2019
2244 Clouds 20 1020 86 0 2.47 311 08:39 21.12.2019
2245 Clouds 21 1021 87 0 3.6 313 08:21 21.12.2019
2246 Clouds 21 1021 87 0 3.6 313 07:44 21.12.2019
2247 Clouds 21 1021 87 0 3.6 313 07:22 21.12.2019
2248 Clouds 20 1022 82 11265 3.6 313 06:45 21.12.2019
2249 Clouds 20 1022 82 11265 3.6 313 06:26 21.12.2019
2250 Clouds 21 1022 77 9656 1.5 360 05:51 21.12.2019
2251 Clouds 21 1022 77 9656 2.1 360 04:58 21.12.2019
2252 Clouds 21 1021 83 9656 2.6 360 03:57 21.12.2019
2253 Clouds 21 1020 83 9656 3.6 10 02:53 21.12.2019
2254 Clouds 21 1020 83 9656 4.6 360 01:59 21.12.2019
2255 Clouds 21 1020 83 9656 4.6 360 01:28 21.12.2019
2256 Clouds 21 1019 83 9656 4.6 30 00:55 21.12.2019
2257 Clouds 21 1019 83 9656 4.6 30 00:37 21.12.2019
2258 Clouds 21 1019 83 9656 4.6 30 00:18 21.12.2019
2259 Clouds 22 1019 78 8047 4.1 360 23:38 20.12.2019
2260 Clouds 22 1019 78 8047 4.1 360 23:19 20.12.2019
2261 Clouds 23 1019 69 9656 4.6 20 22:41 20.12.2019
2262 Clouds 23 1019 69 9656 4.6 20 22:21 20.12.2019
2263 Clouds 23 1019 69 9656 3.1 40 21:59 20.12.2019
2264 Clouds 23 1019 69 9656 3.1 40 21:40 20.12.2019
2265 Clouds 23 1019 69 9656 3.1 40 21:20 20.12.2019
2266 Clouds 23 1020 69 9656 4.6 20 20:41 20.12.2019
2267 Clouds 23 1020 69 9656 4.6 20 20:21 20.12.2019
2268 Clouds 22 1021 68 9656 2.6 20 19:59 20.12.2019
2269 Clouds 22 1021 68 9656 2.6 20 19:40 20.12.2019
2270 Clouds 22 1021 68 9656 2.6 20 19:20 20.12.2019
2271 Clouds 22 1022 68 9656 3.41 357 18:54 20.12.2019
2272 Clouds 22 1022 68 9656 3.41 357 18:54 20.12.2019
2273 Clouds 22 1022 68 9656 3.41 357 18:54 20.12.2019
2274 Clouds 22 1022 68 9656 3.41 357 18:36 20.12.2019
2275 Clouds 22 1022 68 9656 3.41 357 18:36 20.12.2019
2276 Clouds 22 1022 68 9656 3.41 357 18:18 20.12.2019
2277 Clouds 22 1022 73 9656 3.41 357 17:42 20.12.2019
2278 Clouds 22 1022 73 9656 3.41 357 17:42 20.12.2019
2279 Clouds 21 1022 73 9656 3 308 17:21 20.12.2019
2280 Mist 20 1022 82 11265 3 308 16:59 20.12.2019
2281 Mist 20 1022 82 11265 3 308 16:39 20.12.2019
2282 Mist 20 1022 82 11265 3 308 16:20 20.12.2019
2283 Mist 20 1022 82 11265 3 308 16:20 20.12.2019
2284 Mist 18 1022 88 11265 3 308 15:57 20.12.2019
2285 Mist 18 1022 88 11265 3 308 15:38 20.12.2019
2286 Mist 18 1022 88 11265 3 308 15:19 20.12.2019
2287 Mist 17 1021 93 11265 3 308 14:57 20.12.2019
2288 Mist 17 1021 93 11265 3 308 14:39 20.12.2019
2289 Mist 16 1021 93 11265 2.43 315 14:20 20.12.2019
2290 Clouds 17 1021 88 9656 2.43 315 13:41 20.12.2019
2291 Clouds 17 1021 88 9656 2.66 321 13:21 20.12.2019
2292 Rain 17 1020 79 0 0.45 196 12:59 20.12.2019
2293 Rain 17 1020 79 0 2.66 321 12:40 20.12.2019
2294 Rain 17 1020 79 0 2.66 321 12:19 20.12.2019
2295 Rain 18 1020 78 0 2.66 321 11:59 20.12.2019
2296 Rain 18 1019 78 0 2.66 321 11:39 20.12.2019
2297 Rain 18 1020 78 0 3.54 314 11:20 20.12.2019
2298 Rain 18 1020 78 0 3.54 314 10:58 20.12.2019
2299 Rain 18 1020 78 0 0.45 196 10:40 20.12.2019
2300 Rain 18 1020 78 0 0.89 196 10:20 20.12.2019
2301 Rain 18 1020 78 0 0.45 195 09:55 20.12.2019
2302 Rain 18 1020 78 0 0.45 196 09:37 20.12.2019
2303 Rain 18 1020 77 0 0.45 196 09:19 20.12.2019
2304 Rain 18 1021 77 0 0.45 196 08:42 20.12.2019
2305 Clouds 18 1021 76 0 3.9 331 08:22 20.12.2019
2306 Clouds 18 1023 88 11265 1.5 360 07:58 20.12.2019
2307 Clouds 18 1023 88 11265 1.5 360 07:40 20.12.2019
2308 Clouds 18 1023 88 11265 1.5 360 07:19 20.12.2019
2309 Clouds 19 1024 77 11265 2.6 10 06:50 20.12.2019
2310 Clouds 19 1024 77 11265 2.6 10 06:31 20.12.2019
2311 Clouds 19 1024 77 11265 2.6 350 05:52 20.12.2019
2312 Clouds 19 1024 77 11265 2.6 350 05:34 20.12.2019
2313 Clouds 19 1023 77 11265 3.6 360 03:57 20.12.2019
2314 Clouds 19 1023 77 11265 3.6 360 03:29 20.12.2019
2315 Clouds 19 1023 72 11265 4.1 20 02:41 20.12.2019
2316 Clouds 20 1022 68 11265 3.6 10 01:44 20.12.2019
2317 Clouds 20 1022 68 11265 3.6 10 01:44 20.12.2019
2318 Clouds 20 1022 68 11265 3.6 10 01:18 20.12.2019
2319 Clouds 20 1022 72 11265 5.1 10 00:41 20.12.2019
2320 Clouds 20 1022 72 11265 5.1 10 00:19 20.12.2019
2321 Clouds 21 1022 64 11265 6.7 10 23:42 19.12.2019
2322 Clouds 21 1022 64 11265 6.7 10 23:23 19.12.2019
2323 Clouds 21 1022 64 11265 3.6 10 22:56 19.12.2019
2324 Clouds 21 1022 64 11265 3.6 10 22:36 19.12.2019
2325 Clouds 21 1022 64 11265 3.6 10 22:18 19.12.2019
2326 Clouds 21 1023 60 11265 5.1 30 21:42 19.12.2019
2327 Clouds 21 1023 60 11265 5.1 30 21:42 19.12.2019
2328 Clouds 21 1023 60 11265 5.1 30 21:20 19.12.2019
2329 Clouds 22 1024 53 9656 3.1 70 20:59 19.12.2019
2330 Clouds 22 1024 53 9656 3.1 70 20:39 19.12.2019
2331 Clouds 22 1024 53 9656 3.1 70 20:20 19.12.2019
2332 Clouds 22 1024 53 9656 3.1 70 20:20 19.12.2019
2333 Clouds 21 1025 52 9656 4.25 337 19:59 19.12.2019
2334 Clouds 21 1025 52 9656 4.25 337 19:40 19.12.2019
2335 Clouds 21 1025 52 9656 4.25 337 19:20 19.12.2019
2336 Clouds 20 1026 60 9656 1.5 330 19:00 19.12.2019
2337 Clouds 20 1026 60 9656 1.5 330 18:40 19.12.2019
2338 Clouds 20 1026 60 9656 1.5 330 18:20 19.12.2019
2339 Clouds 20 1026 63 8047 1.5 330 17:57 19.12.2019
2340 Clouds 20 1026 63 8047 1.5 330 17:38 19.12.2019
2341 Clouds 20 1026 63 8047 1.5 330 17:38 19.12.2019
2342 Clouds 19 1026 63 8047 1.5 330 17:18 19.12.2019
2343 Clouds 19 1026 68 8047 4.26 321 16:57 19.12.2019
2344 Clouds 18 1026 68 8047 4.26 321 16:38 19.12.2019
2345 Clouds 18 1026 68 8047 4.26 321 16:20 19.12.2019
2346 Clouds 18 1026 68 8047 4.26 321 16:20 19.12.2019
2347 Clouds 17 1024 65 0 0.89 298 15:58 19.12.2019
2348 Clouds 17 1024 65 0 0.89 298 15:38 19.12.2019
2349 Clouds 17 1024 61 0 0.89 339 15:19 19.12.2019
2350 Clouds 17 1024 61 0 0.89 339 14:57 19.12.2019
2351 Clouds 17 1024 61 0 0.89 339 14:39 19.12.2019
2352 Clouds 17 1023 63 0 0.89 308 14:18 19.12.2019
2353 Clouds 16 1023 62 0 3.79 330 13:39 19.12.2019
2354 Clouds 16 1023 65 0 3.47 324 13:20 19.12.2019
2355 Clouds 16 1023 65 0 3.47 324 12:59 19.12.2019
2356 Clouds 16 1023 63 0 3.47 324 12:40 19.12.2019
2357 Clouds 16 1023 61 0 3.47 324 12:19 19.12.2019
2358 Clouds 16 1023 61 0 3.47 324 11:59 19.12.2019
2359 Clouds 16 1022 60 0 3.47 324 11:41 19.12.2019
2360 Clouds 16 1022 59 0 0.45 307 11:19 19.12.2019
2361 Clouds 16 1022 59 0 0.45 307 10:59 19.12.2019
2362 Clouds 16 1022 54 0 1.34 307 10:38 19.12.2019
2363 Clouds 16 1022 54 0 1.34 307 10:38 19.12.2019
2364 Clouds 16 1022 66 0 0.89 294 10:20 19.12.2019
2365 Clouds 16 1022 66 0 0.89 294 09:56 19.12.2019
2366 Clouds 16 1022 66 0 0.89 294 09:37 19.12.2019
2367 Clouds 16 1023 69 0 0.45 267 09:19 19.12.2019
2368 Clouds 16 1023 69 0 0.45 267 08:55 19.12.2019
2369 Clouds 16 1023 69 0 4.14 319 08:37 19.12.2019
2370 Clouds 16 1023 66 0 3.37 329 08:18 19.12.2019
2371 Clouds 16 1024 62 0 3.37 329 07:43 19.12.2019
2372 Clouds 16 1024 62 0 3.37 329 07:24 19.12.2019
2373 Clouds 15 1026 67 9656 3.37 329 06:59 19.12.2019
2374 Clouds 16 1026 67 9656 3.37 329 06:41 19.12.2019
2375 Clouds 16 1026 67 9656 3.37 329 06:21 19.12.2019
2376 Clouds 16 1026 63 9656 3.37 329 05:42 19.12.2019
2377 Clouds 17 1026 63 9656 4.71 318 05:19 19.12.2019
2378 Clouds 18 1026 59 9656 3.6 360 03:53 19.12.2019
2379 Clouds 17 1025 59 9656 3.6 360 02:28 19.12.2019
2380 Clouds 18 1025 52 9656 5.1 360 01:25 19.12.2019
2381 Clouds 18 1025 52 9656 5.1 350 00:57 19.12.2019
2382 Clouds 18 1025 52 9656 5.1 350 00:38 19.12.2019
2383 Clouds 18 1025 52 9656 5.1 350 00:19 19.12.2019
2384 Clouds 19 1024 48 9656 6.7 10 23:44 18.12.2019
2385 Clouds 19 1024 48 9656 6.7 10 23:19 18.12.2019
2386 Clouds 19 1024 48 9656 6.7 10 22:56 18.12.2019
2387 Clouds 19 1024 48 9656 6.7 10 22:56 18.12.2019
2388 Clouds 19 1024 48 9656 6.7 10 22:38 18.12.2019
2389 Clouds 19 1024 48 9656 6.7 10 22:20 18.12.2019
2390 Clouds 19 1025 93 9656 6.2 10 21:58 18.12.2019
2391 Clouds 19 1025 93 9656 6.2 10 21:39 18.12.2019
2392 Clouds 19 1025 93 9656 6.2 10 21:39 18.12.2019
2393 Clouds 19 1025 93 9656 6.2 10 21:39 18.12.2019
2394 Clouds 19 1025 93 9656 6.2 10 21:20 18.12.2019
2395 Clouds 19 1026 48 9656 5.1 360 20:56 18.12.2019
2396 Clouds 18 1026 48 9656 5.1 360 20:38 18.12.2019
2397 Clouds 18 1026 48 9656 5.1 360 20:19 18.12.2019
2398 Clouds 18 1027 52 9656 7.7 350 19:56 18.12.2019
2399 Clouds 18 1027 52 9656 7.7 350 19:37 18.12.2019
2400 Clouds 18 1027 52 9656 7.7 350 19:18 18.12.2019
2401 Clouds 18 1028 48 9656 10.3 360 18:45 18.12.2019
2402 Clouds 18 1028 48 9656 10.3 360 18:45 18.12.2019
2403 Clouds 18 1028 48 9656 10.3 360 18:26 18.12.2019
2404 Clouds 18 1028 48 9656 9.3 350 17:58 18.12.2019
2405 Clouds 18 1028 48 9656 9.3 350 17:40 18.12.2019
2406 Clouds 18 1028 48 9656 9.3 350 17:20 18.12.2019
2407 Clouds 18 1028 48 9656 9.3 350 17:20 18.12.2019
2408 Clouds 17 1027 51 9656 6.2 360 16:58 18.12.2019
2409 Clouds 17 1027 51 9656 6.2 360 16:40 18.12.2019
2410 Clouds 17 1027 51 9656 6.2 360 16:22 18.12.2019
2411 Clouds 17 1026 55 9656 7.7 350 15:57 18.12.2019
2412 Clouds 17 1026 55 9656 7.7 350 15:38 18.12.2019
2413 Clouds 17 1026 55 9656 7.7 350 15:20 18.12.2019
2414 Clouds 18 1025 52 9656 9.3 360 14:43 18.12.2019
2415 Clouds 18 1025 52 9656 9.3 360 14:22 18.12.2019
2416 Sand 18 1024 52 8047 9.3 350 13:58 18.12.2019
2417 Sand 18 1024 52 8047 9.3 350 13:40 18.12.2019
2418 Sand 18 1024 52 8047 9.3 350 13:21 18.12.2019
2419 Clouds 18 1023 45 0 8.05 346 12:59 18.12.2019
2420 Clouds 18 1022 44 0 8.05 360 12:40 18.12.2019
2421 Clouds 18 1022 43 0 9.39 325 12:21 18.12.2019
2422 Clouds 18 1022 43 0 10.73 335 11:56 18.12.2019
2423 Clouds 18 1022 44 0 9.39 350 11:38 18.12.2019
2424 Clouds 18 1021 44 0 8.05 345 11:20 18.12.2019
2425 Clouds 19 1021 44 0 8.05 347 10:57 18.12.2019
2426 Clouds 19 1021 43 0 9.39 342 10:39 18.12.2019
2427 Clouds 19 1021 44 0 7.6 355 10:20 18.12.2019
2428 Clouds 19 1021 44 0 7.6 355 09:57 18.12.2019
2429 Clouds 19 1021 41 0 8.05 360 09:19 18.12.2019
2430 Clouds 19 1021 42 0 8.94 350 08:42 18.12.2019
2431 Clouds 19 1021 41 0 10.73 5 08:24 18.12.2019
2432 Clouds 19 1021 41 0 8.49 346 07:55 18.12.2019
2433 Clouds 19 1021 40 0 11.18 334 07:37 18.12.2019
2434 Clouds 19 1021 40 0 9.39 344 07:19 18.12.2019
2435 Sand 20 1021 45 8047 7.7 360 06:50 18.12.2019
2436 Sand 20 1021 45 8047 7.7 360 06:22 18.12.2019
2437 Sand 20 1021 45 8047 10.3 360 05:27 18.12.2019
2438 Sand 20 1019 52 8047 10.3 350 03:31 18.12.2019
2439 Sand 19 1018 63 6437 12.9 360 02:41 18.12.2019
2440 Sand 20 1018 63 6437 12.9 360 02:23 18.12.2019
2441 Sand 19 1018 63 6437 12.9 360 01:42 18.12.2019
2442 Sand 19 1018 63 6437 12.9 360 01:24 18.12.2019
2443 Sand 20 1016 68 6437 12.9 360 00:42 18.12.2019
2444 Sand 20 1016 68 6437 12.9 360 00:24 18.12.2019
2445 Sand 20 1016 68 6437 12.9 360 00:24 18.12.2019
2446 Sand 21 1016 68 8047 12.9 350 23:58 17.12.2019
2447 Sand 21 1016 68 8047 12.9 350 23:39 17.12.2019
2448 Sand 21 1016 68 8047 12.9 350 23:20 17.12.2019
2449 Sand 22 1016 64 8047 12.9 350 22:56 17.12.2019
2450 Sand 23 1016 64 8047 12.9 350 22:38 17.12.2019
2451 Sand 23 1016 64 8047 12.9 350 22:19 17.12.2019
2452 Sand 23 1016 69 8047 12.9 360 21:56 17.12.2019
2453 Sand 23 1016 69 8047 12.9 360 21:56 17.12.2019
2454 Sand 23 1016 69 8047 12.9 360 21:38 17.12.2019
2455 Sand 23 1016 69 8047 12.9 360 21:19 17.12.2019
2456 Sand 24 1016 69 6437 12.3 360 20:57 17.12.2019
2457 Sand 24 1016 69 6437 12.3 360 20:38 17.12.2019
2458 Sand 24 1016 69 6437 12.3 360 20:18 17.12.2019
2459 Sand 24 1017 73 6437 12.3 350 19:56 17.12.2019
2460 Sand 24 1017 73 6437 12.3 350 19:38 17.12.2019
2461 Sand 24 1017 73 6437 10.3 20 19:18 17.12.2019
2462 Sand 25 1017 73 6437 10.3 360 18:54 17.12.2019
2463 Sand 25 1017 73 6437 10.3 360 18:36 17.12.2019
2464 Sand 25 1017 73 6437 10.3 360 18:18 17.12.2019
2465 Sand 25 1017 78 6437 10.3 340 17:42 17.12.2019
2466 Sand 25 1017 78 6437 10.3 340 17:20 17.12.2019
2467 Haze 25 1016 73 6437 10.3 10 16:56 17.12.2019
2468 Haze 25 1016 73 6437 10.3 10 16:38 17.12.2019
2469 Haze 25 1016 73 6437 10.3 10 16:19 17.12.2019
2470 Haze 24 1014 78 6437 10.3 360 15:58 17.12.2019
2471 Haze 25 1014 78 6437 10.3 360 15:37 17.12.2019
2472 Haze 25 1014 78 6437 10.3 360 15:19 17.12.2019
2473 Clouds 23 1013 88 8047 5.1 350 14:55 17.12.2019
2474 Clouds 23 1013 88 8047 5.1 350 14:37 17.12.2019
2475 Clouds 23 1013 88 8047 5.1 350 14:18 17.12.2019
2476 Clear 23 1012 73 9656 6.2 40 13:55 17.12.2019
2477 Clear 24 1012 73 9656 6.2 40 13:37 17.12.2019
2478 Rain 24 1012 73 9656 6.2 40 13:18 17.12.2019
2479 Rain 24 1010 72 0 6.26 24 12:41 17.12.2019
2480 Clear 23 1010 84 0 3.58 59 12:19 17.12.2019
2481 Clear 23 1010 84 0 1.34 46 11:59 17.12.2019
2482 Clear 22 1010 84 0 1.34 355 11:38 17.12.2019
2483 Clear 22 1010 84 0 3.13 355 11:19 17.12.2019
2484 Clear 22 1010 84 0 3.13 355 11:19 17.12.2019
2485 Clear 22 1010 84 0 0.45 344 10:59 17.12.2019
2486 Clear 22 1010 84 0 0.45 344 10:59 17.12.2019
2487 Clear 22 1010 84 0 0.89 344 10:41 17.12.2019
2488 Clear 22 1009 84 0 0.89 355 10:23 17.12.2019
2489 Mist 22 1011 100 4828 1.5 310 09:59 17.12.2019
2490 Mist 22 1011 100 4828 1.5 310 09:59 17.12.2019
2491 Mist 22 1011 100 4828 1.5 310 09:41 17.12.2019
2492 Mist 22 1011 100 4828 1.5 310 09:20 17.12.2019
2493 Mist 23 1011 100 4828 1 300 08:56 17.12.2019
2494 Mist 23 1011 100 4828 1 300 08:38 17.12.2019
2495 Mist 23 1011 100 4828 1 300 08:38 17.12.2019
2496 Mist 23 1011 100 4828 1 300 08:20 17.12.2019
2497 Mist 23 1011 100 6437 1.5 320 07:54 17.12.2019
2498 Mist 23 1011 100 6437 1.5 320 07:36 17.12.2019
2499 Mist 23 1011 100 6437 1.5 320 07:18 17.12.2019
2500 Mist 23 1012 100 6437 1.5 348 06:35 17.12.2019
2501 Mist 24 1012 94 8047 1 320 05:54 17.12.2019
2502 Mist 24 1012 94 8047 1 320 05:36 17.12.2019
2503 Clear 24 1011 94 8047 2.1 340 04:33 17.12.2019
2504 Clear 24 1009 94 8047 2.1 50 02:45 17.12.2019
2505 Clear 25 1008 88 8047 1 120 01:56 17.12.2019
2506 Clear 25 1008 88 8047 1 120 01:18 17.12.2019
2507 Clear 28 1007 74 9656 2.6 80 00:38 17.12.2019
2508 Clear 28 1007 74 9656 2.6 80 00:38 17.12.2019
2509 Clear 28 1007 74 9656 2.6 80 00:38 17.12.2019
2510 Clear 28 1007 74 9656 2.6 80 00:19 17.12.2019
2511 Clear 30 1007 58 9656 2.6 190 23:42 16.12.2019
2512 Clear 30 1007 58 9656 2.6 190 23:19 16.12.2019
2513 Clear 31 1007 58 9656 3.1 170 22:58 16.12.2019
2514 Clear 31 1007 58 9656 3.1 170 22:37 16.12.2019
2515 Clear 31 1007 58 9656 3.1 170 22:19 16.12.2019
2516 Clear 31 1007 58 9656 3.1 170 22:19 16.12.2019
2517 Clear 30 1007 58 8047 3.6 170 21:55 16.12.2019
2518 Clear 30 1007 58 8047 3.6 170 21:55 16.12.2019
2519 Clear 30 1007 58 8047 3.6 170 21:37 16.12.2019
2520 Clear 30 1007 58 8047 3.6 170 21:19 16.12.2019
2521 Haze 29 1008 66 6437 2.6 190 20:57 16.12.2019
2522 Haze 29 1008 66 6437 2.6 190 20:37 16.12.2019
2523 Haze 29 1008 66 6437 2.6 190 20:19 16.12.2019
2524 Haze 29 1010 69 6437 3.1 190 19:56 16.12.2019
2525 Haze 29 1010 69 6437 3.1 190 19:56 16.12.2019
2526 Haze 28 1010 69 6437 3.1 190 19:37 16.12.2019
2527 Haze 28 1010 69 6437 3.1 190 19:18 16.12.2019
2528 Haze 27 1011 78 4828 2.6 180 18:56 16.12.2019
2529 Haze 27 1011 78 4828 2.6 180 18:38 16.12.2019
2530 Haze 26 1011 78 4828 2.6 180 18:19 16.12.2019
2531 Mist 25 1012 88 4828 2.6 170 17:57 16.12.2019
2532 Mist 25 1012 88 4828 2.6 170 17:38 16.12.2019
2533 Mist 25 1012 88 4828 2.6 170 17:19 16.12.2019
2534 Mist 22 1012 100 1609 3.23 178 16:55 16.12.2019
2535 Mist 22 1012 100 1609 3.23 178 16:37 16.12.2019
2536 Mist 21 1012 100 1609 3.23 178 16:19 16.12.2019
2537 Mist 20 1012 100 1609 3.23 178 15:57 16.12.2019
2538 Mist 19 1012 100 1609 3.23 178 15:38 16.12.2019
2539 Mist 20 1012 100 1609 3.23 178 15:20 16.12.2019
2540 Mist 18 1011 100 1609 1 170 14:55 16.12.2019
2541 Mist 18 1011 100 1609 1 170 14:36 16.12.2019
2542 Mist 18 1011 100 1207 3.04 212 14:18 16.12.2019
2543 Fog 18 1011 100 805 3.04 212 13:55 16.12.2019
2544 Fog 19 1011 100 805 3.04 212 13:37 16.12.2019
2545 Fog 19 1011 100 0 3.16 210 13:19 16.12.2019
2546 Clear 19 1009 85 0 3.16 210 12:54 16.12.2019
2547 Clear 19 1009 85 0 3.16 210 12:54 16.12.2019
2548 Clear 19 1009 85 0 2.88 216 12:36 16.12.2019
2549 Clear 19 1008 85 0 0.45 200 12:18 16.12.2019
2550 Clear 19 1008 85 0 0.45 200 12:18 16.12.2019
2551 Clear 19 1009 84 0 0.89 200 11:55 16.12.2019
2552 Rain 20 1008 85 0 0.45 200 11:37 16.12.2019
2553 Rain 20 1008 85 0 0.89 192 11:19 16.12.2019
2554 Rain 21 1008 85 0 0.45 258 10:40 16.12.2019
2555 Clear 21 1009 84 0 0.89 257 10:21 16.12.2019
2556 Clear 21 1009 84 0 0.89 262 09:56 16.12.2019
2557 Clear 21 1009 84 0 0.89 250 09:38 16.12.2019
2558 Clear 21 1009 84 0 1.34 251 09:20 16.12.2019
2559 Fog 21 1012 100 402 2.51 234 08:39 16.12.2019
2560 Fog 21 1012 100 402 1.74 181 08:19 16.12.2019
2561 Fog 21 1012 100 402 1.74 181 07:51 16.12.2019
2562 Mist 22 1012 94 1609 1.74 181 07:31 16.12.2019
2563 Mist 22 1012 100 1207 1.74 181 06:49 16.12.2019
2564 Mist 22 1012 100 1207 1.74 181 06:27 16.12.2019
2565 Fog 22 1012 100 805 1.74 181 05:58 16.12.2019
2566 Fog 22 1012 100 805 1.74 181 05:39 16.12.2019
2567 Fog 22 1012 100 805 2.61 114 05:21 16.12.2019
2568 Clear 24 1010 94 9656 1 100 02:59 16.12.2019
2569 Clear 24 1010 88 8047 1.5 100 01:45 16.12.2019
2570 Clear 25 1009 78 9656 1 110 00:56 16.12.2019
2571 Clear 25 1009 78 9656 1 110 00:37 16.12.2019
2572 Clear 25 1009 78 9656 1 110 00:18 16.12.2019
2573 Clear 27 1009 69 8047 4.1 80 23:40 15.12.2019
2574 Clear 27 1009 69 8047 4.1 80 23:22 15.12.2019
2575 Clear 28 1009 69 8047 2.6 70 22:56 15.12.2019
2576 Clear 28 1009 69 8047 2.6 70 22:38 15.12.2019
2577 Clear 28 1009 69 8047 2.6 70 22:19 15.12.2019
2578 Clouds 29 1011 58 8047 1 120 21:57 15.12.2019
2579 Clouds 29 1011 58 8047 1 120 21:38 15.12.2019
2580 Clouds 29 1011 58 8047 1 120 21:19 15.12.2019
2581 Haze 29 1012 62 6437 3.6 200 20:57 15.12.2019
2582 Haze 29 1012 62 6437 3.6 200 20:38 15.12.2019
2583 Haze 29 1012 62 6437 3.6 200 20:38 15.12.2019
2584 Haze 29 1012 62 6437 3.6 200 20:19 15.12.2019
2585 Haze 28 1013 69 6437 5.1 180 19:57 15.12.2019
2586 Haze 27 1013 69 6437 5.1 180 19:39 15.12.2019
2587 Haze 27 1013 69 6437 5.1 180 19:19 15.12.2019
2588 Haze 27 1014 74 6437 2.1 150 18:57 15.12.2019
2589 Haze 27 1014 74 6437 2.1 150 18:38 15.12.2019
2590 Haze 27 1014 74 6437 2.1 150 18:38 15.12.2019
2591 Haze 27 1014 74 6437 2.1 150 18:18 15.12.2019
2592 Mist 26 1015 83 4828 4.1 190 17:56 15.12.2019
2593 Mist 26 1015 83 4828 4.1 190 17:37 15.12.2019
2594 Mist 25 1015 83 4828 4.1 190 17:19 15.12.2019
2595 Mist 24 1015 94 4828 3.1 180 16:57 15.12.2019
2596 Mist 24 1015 94 4828 3.1 180 16:39 15.12.2019
2597 Mist 23 1015 94 4828 3.1 180 16:20 15.12.2019
2598 Mist 21 1014 100 1609 3.3 195 15:55 15.12.2019
2599 Rain 21 1014 100 1609 3.35 197 15:37 15.12.2019
2600 Rain 21 1014 100 1609 3.3 195 15:18 15.12.2019
2601 Rain 21 1014 100 805 3.3 195 14:55 15.12.2019
2602 Fog 20 1014 100 805 3.3 195 14:36 15.12.2019
2603 Clear 20 1012 85 0 0.45 200 14:18 15.12.2019
2604 Clear 20 1012 85 0 0.45 200 14:18 15.12.2019
2605 Fog 19 1013 100 0 3.62 179 13:55 15.12.2019
2606 Fog 19 1013 100 0 3.56 183 13:36 15.12.2019
2607 Fog 19 1013 100 0 3.62 179 13:18 15.12.2019
2608 Fog 19 1013 100 0 3.62 179 12:55 15.12.2019
2609 Fog 20 1013 100 0 3.62 179 12:37 15.12.2019
2610 Fog 20 1013 100 0 3.62 179 12:37 15.12.2019
2611 Clear 20 1011 84 0 3.62 179 12:19 15.12.2019
2612 Clear 21 1011 84 0 3.62 179 11:38 15.12.2019
2613 Clear 21 1010 84 0 3.59 179 11:19 15.12.2019
2614 Clear 21 1010 84 0 3.59 179 10:58 15.12.2019
2615 Clear 21 1010 84 0 3.59 179 10:40 15.12.2019
2616 Clear 21 1010 84 0 3.59 179 10:19 15.12.2019
2617 Clear 21 1010 84 0 0.45 200 09:58 15.12.2019
2618 Clear 21 1011 84 0 0.45 219 09:37 15.12.2019
2619 Clear 21 1011 84 0 0.45 219 09:19 15.12.2019
2620 Clear 22 1011 84 0 0.45 219 08:55 15.12.2019
2621 Clear 22 1011 83 0 0.45 219 08:36 15.12.2019
2622 Clear 22 1011 83 0 0.45 219 08:18 15.12.2019
2623 Clear 22 1011 83 0 0.45 221 07:47 15.12.2019
2624 Clear 22 1011 83 0 2.04 217 07:28 15.12.2019
2625 Clouds 22 1013 100 9656 2.04 217 06:26 15.12.2019
2626 Clear 23 1013 94 11265 1.5 110 05:42 15.12.2019
2627 Clear 23 1013 94 11265 1.5 110 05:21 15.12.2019
2628 Clear 23 1013 94 11265 2.9 116 04:21 15.12.2019
2629 Clear 24 1012 83 11265 2.9 116 02:55 15.12.2019
2630 Clear 24 1012 83 11265 2.9 116 02:32 15.12.2019
2631 Clear 24 1011 83 9656 3.06 100 01:41 15.12.2019
2632 Clear 24 1011 83 9656 3.03 100 01:19 15.12.2019
2633 Clear 25 1011 74 9656 1.5 90 00:49 15.12.2019
2634 Clear 25 1011 74 9656 1.5 90 00:31 15.12.2019
2635 Clear 27 1011 74 9656 3.03 100 23:41 14.12.2019
2636 Clear 27 1011 74 9656 3.03 100 23:23 14.12.2019
2637 Clouds 28 1012 69 9656 1 130 22:59 14.12.2019
2638 Clouds 28 1012 69 9656 1 130 22:41 14.12.2019
2639 Clouds 28 1012 69 9656 1 130 22:22 14.12.2019
2640 Smoke 27 1013 69 9656 2.99 85 21:58 14.12.2019
2641 Smoke 27 1013 69 9656 2.99 85 21:39 14.12.2019
2642 Smoke 27 1013 69 9656 2.99 85 21:19 14.12.2019
2643 Smoke 26 1014 78 9656 1 120 20:59 14.12.2019
2644 Smoke 26 1014 78 9656 1 120 20:41 14.12.2019
2645 Smoke 25 1014 78 9656 1 120 20:20 14.12.2019
2646 Mist 24 1015 83 8047 1 110 19:57 14.12.2019
2647 Mist 24 1015 83 8047 1 110 19:39 14.12.2019
2648 Mist 24 1015 83 8047 1 110 19:20 14.12.2019
2649 Mist 24 1016 88 4828 1 230 18:56 14.12.2019
2650 Mist 23 1016 88 4828 1 230 18:38 14.12.2019
2651 Mist 23 1016 88 4828 1 230 18:19 14.12.2019
2652 Mist 23 1016 83 6437 3.6 170 17:44 14.12.2019
2653 Clouds 22 1016 94 6437 3.1 190 17:24 14.12.2019
2654 Mist 22 1016 100 4828 0.72 212 16:58 14.12.2019
2655 Mist 22 1016 100 4828 0.72 212 16:39 14.12.2019
2656 Mist 22 1016 100 4828 0.72 212 16:19 14.12.2019
2657 Mist 22 1016 100 4828 0.72 212 16:19 14.12.2019
2658 Mist 21 1015 100 4828 0.72 212 15:43 14.12.2019
2659 Mist 20 1015 94 6437 0.72 212 15:22 14.12.2019
2660 Mist 18 1014 100 4828 0.72 212 14:59 14.12.2019
2661 Mist 18 1014 100 4828 0.72 212 14:39 14.12.2019
2662 Mist 17 1014 100 4828 3.14 232 14:20 14.12.2019
2663 Mist 18 1014 100 8047 3.14 232 13:57 14.12.2019
2664 Mist 18 1014 100 8047 3.14 232 13:38 14.12.2019
2665 Mist 18 1014 100 8047 3.14 232 13:18 14.12.2019
2666 Clouds 18 1012 83 0 0.89 213 12:55 14.12.2019
2667 Clouds 18 1012 83 0 0.89 213 12:55 14.12.2019
2668 Clouds 18 1012 83 0 0.89 213 12:37 14.12.2019
2669 Clouds 18 1012 83 0 1.34 213 12:18 14.12.2019
2670 Clouds 18 1012 83 0 0.89 213 11:55 14.12.2019
2671 Clouds 18 1012 83 0 0.89 213 11:36 14.12.2019
2672 Clouds 18 1012 83 0 0.89 213 11:36 14.12.2019
2673 Clouds 19 1012 83 0 1.34 218 11:18 14.12.2019
2674 Clouds 19 1012 83 0 0.89 219 10:55 14.12.2019
2675 Clouds 19 1012 83 0 0.89 234 10:37 14.12.2019
2676 Clouds 19 1012 83 0 0.89 234 10:18 14.12.2019
2677 Clouds 19 1012 82 0 2.16 283 09:40 14.12.2019
2678 Clouds 19 1013 82 0 0.89 294 09:20 14.12.2019
2679 Clouds 19 1013 82 0 0.89 294 09:20 14.12.2019
2680 Clouds 19 1013 82 0 0.45 338 08:44 14.12.2019
2681 Clouds 19 1013 82 0 0.45 338 08:44 14.12.2019
2682 Clouds 20 1013 82 0 2.35 325 08:20 14.12.2019
2683 Clouds 20 1013 82 0 1.96 328 08:20 14.12.2019
2684 Clouds 21 1013 82 0 0.45 338 07:57 14.12.2019
2685 Clouds 21 1014 82 0 0.89 338 07:38 14.12.2019
2686 Clouds 21 1014 82 0 0.45 338 07:19 14.12.2019
2687 Clouds 21 1014 82 0 0.45 338 07:19 14.12.2019
2688 Clouds 21 1016 94 8047 1.5 350 06:39 14.12.2019
2689 Clouds 21 1016 94 8047 1.5 350 06:20 14.12.2019
2690 Clear 21 1015 94 8047 2.2 20 05:22 14.12.2019
2691 Clear 22 1014 88 11265 2.2 20 02:49 14.12.2019
2692 Clear 22 1014 88 11265 2.48 57 02:22 14.12.2019
2693 Clear 23 1013 83 11265 2.6 50 01:43 14.12.2019
2694 Clear 24 1013 73 11265 2.6 80 00:50 14.12.2019
2695 Clear 25 1013 73 11265 2.6 80 00:29 14.12.2019
2696 Clear 26 1013 69 11265 3.1 60 23:58 13.12.2019
2697 Clear 26 1013 69 11265 3.1 60 23:39 13.12.2019
2698 Clear 26 1013 69 11265 3.1 60 23:19 13.12.2019
2699 Clouds 26 1013 65 11265 1.5 80 22:55 13.12.2019
2700 Clouds 27 1013 65 11265 1.5 80 22:36 13.12.2019
2701 Clouds 27 1013 65 11265 1.5 80 22:36 13.12.2019
2702 Clouds 27 1013 65 11265 1.5 80 22:18 13.12.2019
2703 Clouds 27 1013 61 11265 2.6 80 21:39 13.12.2019
2704 Clouds 27 1013 61 11265 2.6 80 21:21 13.12.2019
2705 Clouds 26 1014 65 11265 2.1 150 20:54 13.12.2019
2706 Clouds 26 1014 65 11265 2.1 150 20:36 13.12.2019
2707 Clouds 26 1014 65 11265 2.1 150 20:36 13.12.2019
2708 Clouds 27 1012 57 0 2.24 92 20:18 13.12.2019
2709 Clouds 26 1016 69 11265 2.6 40 19:42 13.12.2019
2710 Clouds 25 1016 69 11265 2.6 40 19:23 13.12.2019
2711 Clouds 25 1017 65 11265 1.72 25 18:59 13.12.2019
2712 Clouds 25 1017 65 11265 1.72 25 18:41 13.12.2019
2713 Clouds 25 1017 65 11265 1.72 25 18:19 13.12.2019
2714 Clouds 24 1017 73 11265 1.5 360 17:57 13.12.2019
2715 Clouds 24 1017 73 11265 1.5 360 17:39 13.12.2019
2716 Clouds 24 1017 73 11265 1.5 360 17:18 13.12.2019
2717 Mist 24 1018 78 11265 3.1 360 16:54 13.12.2019
2718 Mist 23 1018 78 11265 3.1 360 16:36 13.12.2019
2719 Mist 23 1018 78 11265 3.1 360 16:18 13.12.2019
2720 Mist 21 1017 88 11265 1 310 15:40 13.12.2019
2721 Mist 20 1017 88 11265 1 310 15:20 13.12.2019
2722 Mist 19 1017 93 11265 2.95 332 14:55 13.12.2019
2723 Mist 18 1017 93 11265 2.95 332 14:36 13.12.2019
2724 Mist 18 1017 93 11265 2.66 305 14:18 13.12.2019
2725 Mist 18 1016 93 9656 2.66 305 13:41 13.12.2019
2726 Mist 18 1016 93 9656 2.31 302 13:21 13.12.2019
2727 Clouds 17 1015 82 0 2.31 302 12:44 13.12.2019
2728 Clouds 17 1015 82 0 2.31 302 12:44 13.12.2019
2729 Clouds 17 1015 82 0 2.31 302 12:23 13.12.2019
2730 Clouds 17 1015 81 0 2.31 302 11:58 13.12.2019
2731 Clouds 17 1014 81 0 2.31 302 11:40 13.12.2019
2732 Clouds 17 1014 81 0 0.89 240 11:22 13.12.2019
2733 Clouds 17 1014 81 0 0.89 241 10:55 13.12.2019
2734 Clouds 17 1015 81 0 1.93 289 10:37 13.12.2019
2735 Clouds 18 1015 80 0 1.93 289 10:19 13.12.2019
2736 Clouds 18 1015 80 0 0.45 241 09:39 13.12.2019
2737 Clouds 18 1015 80 0 0.89 241 09:19 13.12.2019
2738 Clouds 18 1016 80 0 0.89 241 08:42 13.12.2019
2739 Clouds 18 1016 80 0 1.93 289 08:24 13.12.2019
2740 Clouds 18 1016 80 0 0.89 242 07:46 13.12.2019
2741 Clouds 18 1016 80 0 2.94 295 07:23 13.12.2019
2742 Clouds 19 1019 88 11265 2.94 295 06:55 13.12.2019
2743 Clouds 19 1019 88 11265 2.94 295 06:55 13.12.2019
2744 Clouds 19 1019 88 11265 2.94 295 06:29 13.12.2019
2745 Clouds 20 1019 88 11265 2.1 340 05:46 13.12.2019
2746 Clouds 20 1019 88 11265 2.1 340 05:27 13.12.2019
2747 Clouds 21 1019 83 11265 2.6 360 04:35 13.12.2019
2748 Clouds 21 1019 77 11265 3.6 360 03:46 13.12.2019
2749 Clouds 21 1018 77 11265 4.1 10 02:34 13.12.2019
2750 Clouds 21 1018 77 11265 4.6 360 01:44 13.12.2019
2751 Clouds 22 1018 73 11265 6.7 360 00:56 13.12.2019
2752 Clouds 22 1018 73 11265 6.7 360 00:37 13.12.2019
2753 Clouds 23 1018 69 11265 4.6 20 23:57 12.12.2019
2754 Clouds 23 1018 69 11265 4.6 20 23:39 12.12.2019
2755 Clouds 23 1018 69 11265 4.6 20 23:20 12.12.2019
2756 Clouds 23 1018 69 11265 6.2 10 22:55 12.12.2019
2757 Clouds 24 1018 69 11265 6.2 10 22:37 12.12.2019
2758 Clouds 24 1018 69 11265 6.2 10 22:18 12.12.2019
2759 Clouds 25 1019 65 11265 5.7 10 21:54 12.12.2019
2760 Clouds 24 1019 65 11265 5.7 10 21:36 12.12.2019
2761 Clouds 25 1019 65 11265 5.7 10 21:18 12.12.2019
2762 Clouds 25 1020 61 11265 5.1 350 20:55 12.12.2019
2763 Clouds 25 1020 61 11265 5.1 350 20:55 12.12.2019
2764 Clouds 25 1020 61 11265 5.1 350 20:55 12.12.2019
2765 Clouds 25 1020 61 11265 5.1 350 20:37 12.12.2019
2766 Clouds 25 1020 61 11265 5.1 350 20:19 12.12.2019
2767 Clouds 26 1021 57 11265 2.6 360 19:42 12.12.2019
2768 Clouds 25 1021 57 11265 2.6 360 19:22 12.12.2019
2769 Clouds 25 1022 57 9656 3.1 360 18:58 12.12.2019
2770 Clouds 25 1022 57 9656 3.1 360 18:40 12.12.2019
2771 Clouds 25 1022 57 9656 3.1 360 18:20 12.12.2019
2772 Clouds 23 1023 78 9656 6.45 350 17:58 12.12.2019
2773 Clouds 23 1023 78 9656 6.45 350 17:58 12.12.2019
2774 Clouds 23 1023 78 9656 6.45 350 17:39 12.12.2019
2775 Clouds 23 1023 78 9656 6.96 340 17:21 12.12.2019
2776 Clouds 22 1023 83 8047 6.96 340 16:58 12.12.2019
2777 Clouds 21 1023 83 8047 6.96 340 16:39 12.12.2019
2778 Clouds 21 1023 83 8047 6.96 340 16:20 12.12.2019
2779 Clouds 21 1022 82 8047 6.96 340 15:56 12.12.2019
2780 Clouds 21 1022 82 8047 6.96 340 15:56 12.12.2019
2781 Clouds 21 1022 82 8047 6.96 340 15:38 12.12.2019
2782 Clouds 21 1022 82 8047 6.96 340 15:18 12.12.2019
2783 Clouds 20 1022 77 9656 6.96 340 14:38 12.12.2019
2784 Clouds 20 1022 77 9656 6.96 340 14:38 12.12.2019
2785 Clouds 20 1022 77 9656 3.97 336 14:20 12.12.2019
2786 Clouds 20 1021 72 9656 1.5 350 13:58 12.12.2019
2787 Clouds 20 1021 72 9656 1.5 350 13:40 12.12.2019
2788 Clouds 20 1021 72 9656 1.5 350 13:21 12.12.2019
2789 Clouds 20 1021 72 9656 1.5 350 12:59 12.12.2019
2790 Clouds 21 1020 64 0 2.24 346 12:40 12.12.2019
2791 Clouds 22 1019 62 0 1.79 336 12:22 12.12.2019
2792 Clouds 22 1020 64 0 1.79 325 11:57 12.12.2019
2793 Clouds 22 1020 63 0 3.13 360 11:38 12.12.2019
2794 Clouds 22 1020 63 0 2.68 350 11:19 12.12.2019
2795 Clouds 22 1020 65 0 2.68 15 10:56 12.12.2019
2796 Clouds 21 1020 70 0 3.97 307 10:38 12.12.2019
2797 Clouds 21 1020 70 0 3.97 307 10:19 12.12.2019
2798 Clouds 21 1021 70 0 0.89 325 09:42 12.12.2019
2799 Clouds 21 1021 71 0 0.89 325 09:24 12.12.2019
2800 Clouds 20 1021 71 0 0.89 325 08:59 12.12.2019
2801 Clouds 20 1021 71 0 0.89 298 08:40 12.12.2019
2802 Clouds 20 1021 71 0 0.89 329 08:22 12.12.2019
2803 Clouds 21 1023 73 9656 7.2 341 07:47 12.12.2019
2804 Clouds 21 1023 73 9656 7.2 341 07:25 12.12.2019
2805 Clouds 21 1023 73 9656 2.6 20 06:55 12.12.2019
2806 Clouds 21 1023 73 9656 2.6 20 06:34 12.12.2019
2807 Clouds 22 1024 73 9656 3.1 10 05:41 12.12.2019
2808 Clouds 22 1023 73 9656 5.7 360 04:54 12.12.2019
2809 Clouds 21 1023 73 9656 6.2 10 03:37 12.12.2019
2810 Clouds 21 1022 73 9656 7.7 360 02:39 12.12.2019
2811 Clouds 21 1022 73 9656 7.7 360 02:20 12.12.2019
2812 Clouds 21 1021 73 9656 8.7 20 01:43 12.12.2019
2813 Clouds 21 1021 73 9656 8.7 20 01:24 12.12.2019
2814 Clouds 21 1021 77 9656 7.7 20 00:47 12.12.2019
2815 Clouds 21 1021 77 9656 7.7 20 00:20 12.12.2019
2816 Clouds 22 1021 68 9656 9.3 360 23:44 11.12.2019
2817 Clouds 22 1021 68 9656 9.3 360 23:21 11.12.2019
2818 Clouds 22 1021 73 9656 9.3 10 22:58 11.12.2019
2819 Clouds 22 1021 73 9656 9.3 10 22:39 11.12.2019
2820 Clouds 22 1021 73 9656 9.3 10 22:20 11.12.2019
2821 Clouds 23 1021 64 9656 7.7 20 21:59 11.12.2019
2822 Clouds 23 1021 64 9656 7.7 20 21:39 11.12.2019
2823 Clouds 23 1021 64 9656 7.7 20 21:20 11.12.2019
2824 Clouds 23 1022 64 9656 7.7 20 20:56 11.12.2019
2825 Clouds 23 1022 64 9656 7.7 20 20:38 11.12.2019
2826 Clouds 23 1022 64 9656 7.7 20 20:19 11.12.2019
2827 Clouds 23 1023 68 9656 7.7 360 19:58 11.12.2019
2828 Clouds 23 1023 68 9656 7.7 360 19:39 11.12.2019
2829 Clouds 23 1023 68 9656 7.7 360 19:19 11.12.2019
2830 Clouds 23 1023 69 9656 4.1 350 18:42 11.12.2019
2831 Clouds 23 1023 69 9656 4.1 350 18:22 11.12.2019
2832 Clouds 23 1023 60 9656 4.1 360 17:57 11.12.2019
2833 Clouds 24 1023 60 9656 4.1 360 17:39 11.12.2019
2834 Clouds 24 1023 60 9656 4.1 360 17:19 11.12.2019
2835 Clouds 23 1022 64 9656 5.1 360 16:58 11.12.2019
2836 Clouds 23 1022 64 9656 5.1 360 16:40 11.12.2019
2837 Clouds 23 1022 64 9656 5.1 360 16:22 11.12.2019
2838 Clouds 23 1021 64 9656 5.1 360 15:59 11.12.2019
2839 Clouds 23 1021 64 9656 5.1 360 15:59 11.12.2019
2840 Clouds 23 1021 64 9656 5.1 360 15:40 11.12.2019
2841 Clouds 23 1021 64 9656 5.1 360 15:22 11.12.2019
2842 Clouds 23 1021 64 9656 5.1 360 15:22 11.12.2019
2843 Clouds 23 1020 64 9656 6.2 10 14:56 11.12.2019
2844 Clouds 23 1020 64 9656 6.2 10 14:38 11.12.2019
2845 Clouds 23 1020 64 9656 6.2 10 14:38 11.12.2019
2846 Clouds 23 1020 64 9656 6.2 10 14:19 11.12.2019
2847 Clouds 23 1019 60 9656 7.7 10 13:55 11.12.2019
2848 Clouds 24 1019 60 9656 7.7 10 13:36 11.12.2019
2849 Clouds 24 1019 60 9656 7.7 10 13:18 11.12.2019
2850 Clouds 24 1018 57 0 6.71 21 12:55 11.12.2019
2851 Clouds 24 1018 52 0 7.15 5 12:37 11.12.2019
2852 Clouds 24 1017 55 0 7.15 20 12:18 11.12.2019
2853 Clouds 24 1017 55 0 5.81 13 11:56 11.12.2019
2854 Clouds 23 1017 58 0 5.81 355 11:37 11.12.2019
2855 Clouds 23 1017 58 0 5.81 355 11:37 11.12.2019
2856 Clear 24 1017 58 0 6.26 360 11:18 11.12.2019
2857 Clear 24 1017 57 0 5.81 15 10:44 11.12.2019
2858 Clear 24 1017 59 0 6.26 355 10:26 11.12.2019
2859 Clear 23 1017 60 0 7.15 355 09:59 11.12.2019
2860 Clear 23 1017 62 0 10.28 360 09:38 11.12.2019
2861 Clear 23 1017 62 0 10.28 360 09:38 11.12.2019
2862 Clear 23 1017 62 0 10.28 360 09:20 11.12.2019
2863 Clear 23 1017 64 0 8.94 15 08:57 11.12.2019
2864 Clear 23 1017 65 0 9.39 5 08:37 11.12.2019
2865 Clouds 23 1017 68 0 8.05 360 08:19 11.12.2019
2866 Clouds 23 1017 66 0 11.18 360 07:45 11.12.2019
2867 Clouds 23 1017 66 0 12.07 5 07:25 11.12.2019
2868 Sand 23 1019 83 8047 7.7 10 06:47 11.12.2019
2869 Sand 24 1019 83 8047 7.7 10 06:25 11.12.2019
2870 Sand 24 1018 83 8047 10.3 360 05:58 11.12.2019
2871 Sand 24 1018 83 8047 10.3 360 05:37 11.12.2019
2872 Sand 25 1016 78 6437 10.3 360 04:57 11.12.2019
2873 Sand 25 1015 88 8047 7.7 10 03:49 11.12.2019
2874 Clouds 26 1014 74 6437 7.7 40 02:40 11.12.2019
2875 Mist 25 1013 88 4828 7.2 360 01:23 11.12.2019
2876 Clear 27 1011 78 8047 3.6 10 00:46 11.12.2019
2877 Clear 27 1011 78 8047 3.6 10 00:21 11.12.2019
2878 Clear 28 1009 74 9656 3.6 50 23:46 10.12.2019
2879 Clear 28 1009 74 9656 3.6 50 23:27 10.12.2019
2880 Clear 29 1009 70 8047 3.1 60 22:57 10.12.2019
2881 Clear 29 1009 70 8047 3.1 60 22:39 10.12.2019
2882 Clear 29 1009 70 8047 3.1 60 22:21 10.12.2019
2883 Clear 30 1009 66 8047 1 110 21:54 10.12.2019
2884 Clear 30 1009 66 8047 1 110 21:54 10.12.2019
2885 Clear 30 1009 66 8047 1 110 21:36 10.12.2019
2886 Clear 30 1009 66 8047 1 110 21:18 10.12.2019
2887 Clear 29 1010 66 8047 3 102 20:56 10.12.2019
2888 Clear 29 1010 66 8047 3 102 20:56 10.12.2019
2889 Clear 29 1010 66 8047 3 102 20:37 10.12.2019
2890 Clear 29 1010 66 8047 2.53 141 20:18 10.12.2019
2891 Clear 28 1012 69 8047 2.53 141 19:44 10.12.2019
2892 Clear 28 1012 69 8047 2.53 141 19:26 10.12.2019
2893 Clear 27 1012 74 8047 2.53 141 18:59 10.12.2019
2894 Rain 27 1012 74 8047 2.53 141 18:39 10.12.2019
2895 Rain 27 1012 74 8047 2.53 141 18:20 10.12.2019
2896 Rain 26 1013 78 6437 3.6 160 17:55 10.12.2019
2897 Haze 26 1013 78 6437 3.6 160 17:37 10.12.2019
2898 Haze 26 1013 78 6437 3.6 160 17:19 10.12.2019
2899 Haze 24 1013 88 6437 3.14 196 16:42 10.12.2019
2900 Haze 24 1013 88 6437 3.14 196 16:20 10.12.2019
2901 Mist 21 1012 100 4828 3.14 196 15:54 10.12.2019
2902 Mist 21 1012 100 4828 3.14 196 15:36 10.12.2019
2903 Mist 21 1012 100 4828 3.14 196 15:18 10.12.2019
2904 Mist 20 1011 100 2414 3.14 196 14:54 10.12.2019
2905 Mist 20 1011 100 2414 3.14 196 14:36 10.12.2019
2906 Mist 20 1011 100 2414 2.19 233 14:18 10.12.2019
2907 Mist 20 1011 100 2414 2.19 233 14:18 10.12.2019
2908 Clear 20 1011 100 8047 2.19 233 13:54 10.12.2019
2909 Clear 20 1011 100 8047 2.19 233 13:36 10.12.2019
2910 Clear 20 1011 100 8047 2.19 233 13:18 10.12.2019
2911 Clear 21 1009 83 0 2.28 227 12:38 10.12.2019
2912 Clear 21 1009 83 0 0.45 277 12:20 10.12.2019
2913 Clear 22 1009 84 0 1.34 275 11:42 10.12.2019
2914 Clear 22 1009 84 0 1.34 276 11:23 10.12.2019
2915 Clear 21 1009 84 0 2.74 190 10:56 10.12.2019
2916 Clear 21 1009 84 0 2.74 190 10:56 10.12.2019
2917 Clear 21 1009 84 0 0.45 234 10:37 10.12.2019
2918 Clear 21 1009 83 0 0.45 234 10:19 10.12.2019
2919 Clear 21 1009 83 0 2.74 190 09:55 10.12.2019
2920 Clear 21 1009 83 0 2.74 190 09:37 10.12.2019
2921 Clear 21 1009 83 0 2.74 190 09:18 10.12.2019
2922 Clear 21 1009 83 0 2.74 190 08:42 10.12.2019
2923 Clear 22 1010 83 0 2.74 190 08:23 10.12.2019
2924 Clear 22 1010 83 0 2.98 179 07:58 10.12.2019
2925 Clear 22 1010 83 0 1.34 228 07:40 10.12.2019
2926 Clear 22 1010 83 0 1.34 263 07:22 10.12.2019
2927 Mist 22 1012 94 9656 2.98 179 06:46 10.12.2019
2928 Mist 22 1012 94 9656 2.98 179 06:19 10.12.2019
2929 Clear 22 1012 94 11265 2.98 179 05:53 10.12.2019
2930 Clear 23 1012 94 11265 3.08 116 04:52 10.12.2019
2931 Clear 24 1011 88 11265 3.08 116 03:37 10.12.2019
2932 Clear 24 1010 83 11265 1.5 120 02:45 10.12.2019
2933 Clear 25 1010 83 9656 1 110 01:44 10.12.2019
2934 Clear 25 1010 83 9656 1 110 01:20 10.12.2019
2935 Smoke 26 1009 69 11265 1.5 100 00:41 10.12.2019
2936 Smoke 27 1009 69 11265 1.5 100 00:21 10.12.2019
2937 Clouds 27 1009 69 11265 2.6 100 23:41 09.12.2019
2938 Clouds 27 1009 69 11265 2.6 100 23:23 09.12.2019
2939 Clouds 28 1009 65 11265 3.1 90 22:58 09.12.2019
2940 Clouds 28 1009 65 11265 3.1 90 22:40 09.12.2019
2941 Clouds 28 1009 65 11265 3.1 90 22:19 09.12.2019
2942 Clouds 29 1010 51 11265 6.2 190 21:57 09.12.2019
2943 Clouds 29 1010 51 11265 6.2 190 21:38 09.12.2019
2944 Clouds 29 1010 51 11265 6.2 190 21:19 09.12.2019
2945 Clouds 29 1012 58 9656 4.6 180 20:56 09.12.2019
2946 Clouds 29 1012 58 9656 4.6 180 20:38 09.12.2019
2947 Clouds 29 1012 58 9656 4.6 180 20:20 09.12.2019
2948 Clouds 28 1013 65 11265 3.1 156 19:55 09.12.2019
2949 Clouds 28 1013 65 11265 3.1 156 19:37 09.12.2019
2950 Clouds 28 1013 65 11265 3.1 156 19:19 09.12.2019
2951 Clear 28 1015 65 8047 2.6 170 18:56 09.12.2019
2952 Clear 28 1015 65 8047 2.6 170 18:56 09.12.2019
2953 Clear 27 1015 65 8047 2.6 170 18:37 09.12.2019
2954 Clear 27 1015 65 8047 2.6 170 18:19 09.12.2019
2955 Haze 26 1015 73 6437 3.1 156 17:57 09.12.2019
2956 Haze 26 1015 73 6437 3.1 156 17:38 09.12.2019
2957 Haze 26 1015 73 6437 2.95 180 17:20 09.12.2019
2958 Haze 24 1016 94 6437 2.95 180 16:56 09.12.2019
2959 Haze 23 1016 94 6437 2.95 180 16:37 09.12.2019
2960 Haze 23 1016 94 6437 2.95 180 16:18 09.12.2019
2961 Rain 21 1015 100 6437 1.5 240 15:55 09.12.2019
2962 Rain 20 1015 100 6437 1.5 240 15:37 09.12.2019
2963 Rain 20 1015 100 6437 1.5 240 15:19 09.12.2019
2964 Mist 19 1015 100 4828 2.95 180 14:42 09.12.2019
2965 Mist 18 1015 100 4828 2.35 219 14:19 09.12.2019
2966 Mist 18 1015 93 3219 2.35 219 13:58 09.12.2019
2967 Mist 18 1015 93 3219 2.35 219 13:38 09.12.2019
2968 Mist 17 1015 93 3219 2.33 211 13:19 09.12.2019
2969 Clear 17 1013 84 0 2.33 211 12:57 09.12.2019
2970 Clear 18 1013 84 0 0.45 205 12:38 09.12.2019
2971 Clear 17 1013 83 0 0.45 221 12:19 09.12.2019
2972 Clear 18 1013 83 0 0.45 221 11:57 09.12.2019
2973 Clear 18 1013 83 0 2.33 211 11:37 09.12.2019
2974 Clear 18 1013 83 0 2.56 184 11:18 09.12.2019
2975 Clear 18 1012 83 0 2.56 184 10:41 09.12.2019
2976 Clear 19 1013 83 0 2.56 184 10:20 09.12.2019
2977 Clear 19 1013 83 0 2.56 184 09:59 09.12.2019
2978 Clear 19 1013 83 0 2.56 184 09:41 09.12.2019
2979 Clear 19 1013 83 0 2.56 184 09:41 09.12.2019
2980 Clear 19 1013 83 0 0.45 221 09:21 09.12.2019
2981 Clear 19 1013 82 0 0.45 221 08:44 09.12.2019
2982 Clear 20 1013 82 0 0.45 221 08:26 09.12.2019
2983 Clear 20 1014 82 0 0.45 221 07:59 09.12.2019
2984 Clear 20 1014 82 0 0.45 234 07:41 09.12.2019
2985 Clear 20 1014 82 0 0.45 234 07:23 09.12.2019
2986 Clear 20 1016 100 11265 2.19 209 06:47 09.12.2019
2987 Clear 20 1016 100 11265 2.19 209 06:25 09.12.2019
2988 Clear 21 1016 94 11265 2.19 209 05:28 09.12.2019
2989 Clear 22 1016 88 11265 3.43 116 04:46 09.12.2019
2990 Clear 23 1016 88 11265 3.43 116 03:21 09.12.2019
2991 Smoke 24 1015 78 9656 1 120 02:24 09.12.2019
2992 Clear 24 1015 78 11265 1.5 120 01:42 09.12.2019
2993 Clear 25 1015 69 11265 1.5 90 00:46 09.12.2019
2994 Clear 25 1015 69 11265 1.5 90 00:27 09.12.2019
2995 Clear 27 1015 65 11265 3.1 100 23:43 08.12.2019
2996 Clear 27 1015 65 11265 3.1 100 23:24 08.12.2019
2997 Clouds 27 1015 61 11265 2.6 90 22:57 08.12.2019
2998 Clouds 28 1015 61 11265 2.6 90 22:39 08.12.2019
2999 Clouds 28 1015 61 11265 2.6 90 22:19 08.12.2019
3000 Clouds 28 1016 65 11265 1.5 120 21:58 08.12.2019
3001 Clouds 28 1016 65 11265 1.5 120 21:40 08.12.2019
3002 Clouds 28 1016 65 11265 1.5 120 21:20 08.12.2019
3003 Clouds 28 1016 65 11265 1.5 120 21:20 08.12.2019
3004 Clouds 28 1017 61 11265 4.55 93 20:57 08.12.2019
3005 Clouds 28 1017 61 11265 4.55 93 20:38 08.12.2019
3006 Clouds 28 1017 61 11265 2.17 128 20:20 08.12.2019
3007 Clouds 28 1017 61 11265 2.17 128 20:20 08.12.2019
3008 Clouds 28 1018 61 11265 2.17 128 19:58 08.12.2019
3009 Clouds 28 1018 61 11265 2.17 128 19:40 08.12.2019
3010 Clouds 28 1018 61 11265 2.17 128 19:22 08.12.2019
3011 Clear 27 1020 65 8047 2.1 200 18:55 08.12.2019
3012 Clear 27 1020 65 8047 2.1 200 18:37 08.12.2019
3013 Clear 27 1020 65 8047 2.1 200 18:37 08.12.2019
3014 Clear 27 1020 65 8047 2.1 200 18:18 08.12.2019
3015 Clear 26 1020 73 8047 2.1 210 17:56 08.12.2019
3016 Clear 26 1020 73 8047 2.1 210 17:56 08.12.2019
3017 Clear 26 1020 73 8047 2.1 210 17:38 08.12.2019
3018 Clear 26 1020 73 8047 2.1 210 17:19 08.12.2019
3019 Clear 24 1020 88 8047 1.85 240 16:56 08.12.2019
3020 Clear 24 1020 88 8047 1.85 240 16:38 08.12.2019
3021 Clear 24 1020 88 8047 1.85 240 16:20 08.12.2019
3022 Mist 21 1020 100 6437 1.85 240 15:54 08.12.2019
3023 Mist 21 1020 100 6437 1.85 240 15:36 08.12.2019
3024 Mist 21 1020 100 6437 1.85 240 15:18 08.12.2019
3025 Mist 19 1019 100 6437 1.85 240 14:40 08.12.2019
3026 Mist 19 1019 100 6437 1.85 240 14:40 08.12.2019
3027 Mist 19 1019 100 6437 2.39 276 14:22 08.12.2019
3028 Clear 19 1019 100 8047 2.39 276 13:57 08.12.2019
3029 Clear 19 1019 100 8047 2.39 276 13:38 08.12.2019
3030 Clear 19 1019 100 8047 2.32 270 13:20 08.12.2019
3031 Clear 19 1019 100 8047 2.32 270 13:20 08.12.2019
3032 Clear 19 1019 100 8047 2.32 270 12:54 08.12.2019
3033 Clouds 19 1017 83 0 1.34 234 12:36 08.12.2019
3034 Clouds 19 1017 82 0 0.89 273 12:18 08.12.2019
3035 Clouds 20 1017 82 0 0.45 273 11:39 08.12.2019
3036 Clouds 20 1017 82 0 0.45 273 11:39 08.12.2019
3037 Clouds 21 1017 82 0 2.11 285 11:20 08.12.2019
3038 Clouds 21 1017 82 0 2.11 285 10:59 08.12.2019
3039 Clouds 21 1017 83 0 1.34 273 10:38 08.12.2019
3040 Clouds 21 1018 83 0 0.89 273 10:20 08.12.2019
3041 Clouds 21 1018 83 0 2.11 285 09:57 08.12.2019
3042 Clouds 21 1018 83 0 2.11 285 09:57 08.12.2019
3043 Clouds 21 1018 83 0 0.45 273 09:38 08.12.2019
3044 Clouds 21 1018 83 0 0.45 273 09:19 08.12.2019
3045 Clouds 21 1018 83 0 0.89 273 08:58 08.12.2019
3046 Clouds 21 1019 82 0 0.45 275 08:37 08.12.2019
3047 Rain 21 1019 82 0 0.45 275 08:19 08.12.2019
3048 Rain 21 1019 82 0 0.89 275 07:43 08.12.2019
3049 Rain 22 1019 82 0 0.89 273 07:20 08.12.2019
3050 Clouds 23 1022 94 11265 1.5 340 06:50 08.12.2019
3051 Clouds 23 1022 94 11265 1.5 340 06:22 08.12.2019
3052 Clouds 23 1022 94 11265 1.5 340 05:48 08.12.2019
3053 Clouds 23 1022 94 11265 1.5 340 05:18 08.12.2019
3054 Clouds 24 1021 88 9656 3.1 360 03:50 08.12.2019
3055 Clouds 24 1021 88 9656 3.1 360 03:23 08.12.2019
3056 Clouds 24 1021 88 9656 4.1 360 02:39 08.12.2019
3057 Clouds 24 1020 88 8047 4.1 20 01:55 08.12.2019
3058 Clouds 24 1020 88 8047 4.1 20 01:23 08.12.2019
3059 Clouds 25 1020 83 8047 6.7 20 00:40 08.12.2019
3060 Clouds 25 1020 83 8047 6.7 20 00:20 08.12.2019
3061 Clouds 25 1020 83 8047 6.7 20 00:20 08.12.2019
3062 Clear 26 1020 78 9656 4.1 50 23:41 07.12.2019
3063 Clear 26 1020 78 9656 4.1 50 23:21 07.12.2019
3064 Clear 26 1020 78 9656 4.1 50 23:21 07.12.2019
3065 Clear 27 1020 69 9656 6.2 10 22:57 07.12.2019
3066 Clear 27 1020 69 9656 6.2 10 22:39 07.12.2019
3067 Clear 27 1020 69 9656 6.2 10 22:21 07.12.2019
3068 Clouds 27 1021 69 8047 5.1 20 21:56 07.12.2019
3069 Clouds 27 1021 69 8047 5.1 20 21:38 07.12.2019
3070 Clouds 27 1021 69 8047 5.1 20 21:19 07.12.2019
3071 Clouds 28 1021 61 8047 6.2 20 20:59 07.12.2019
3072 Clouds 28 1021 61 8047 6.2 20 20:36 07.12.2019
3073 Clouds 28 1021 61 8047 6.2 20 20:18 07.12.2019
3074 Clouds 28 1022 61 8047 4.6 50 19:56 07.12.2019
3075 Clouds 28 1022 61 8047 4.6 50 19:38 07.12.2019
3076 Clouds 28 1022 61 8047 4.6 50 19:20 07.12.2019
3077 Clear 28 1023 61 8047 5.7 40 18:44 07.12.2019
3078 Clear 28 1023 61 8047 5.7 40 18:19 07.12.2019
3079 Clear 27 1023 74 8047 2.6 30 17:58 07.12.2019
3080 Clear 27 1023 74 8047 2.6 30 17:40 07.12.2019
3081 Clear 27 1023 74 8047 2.6 30 17:21 07.12.2019
3082 Clouds 25 1023 88 8047 1 360 16:56 07.12.2019
3083 Clouds 25 1023 88 8047 1 360 16:38 07.12.2019
3084 Clouds 25 1023 88 8047 1 360 16:19 07.12.2019
3085 Clouds 24 1022 88 8047 1 320 15:56 07.12.2019
3086 Clouds 23 1022 88 8047 1 320 15:38 07.12.2019
3087 Clouds 23 1022 88 8047 1 320 15:18 07.12.2019
3088 Clouds 22 1022 88 8047 2.1 340 14:42 07.12.2019
3089 Clouds 22 1022 88 8047 2.1 340 14:19 07.12.2019
3090 Clouds 22 1021 88 9656 1 310 13:41 07.12.2019
3091 Clouds 22 1021 88 9656 1 310 13:21 07.12.2019
3092 Rain 22 1020 80 0 3.83 317 12:59 07.12.2019
3093 Rain 22 1020 80 0 3.83 317 12:40 07.12.2019
3094 Rain 22 1019 81 0 3.83 317 12:22 07.12.2019
3095 Rain 22 1019 81 0 3.83 317 11:58 07.12.2019
3096 Rain 22 1019 81 0 3.83 317 11:39 07.12.2019
3097 Rain 22 1019 81 0 3.39 328 11:21 07.12.2019
3098 Rain 22 1019 82 0 0.45 348 10:38 07.12.2019
3099 Rain 22 1019 82 0 0.45 348 10:19 07.12.2019
3100 Rain 22 1019 81 0 3.39 328 09:56 07.12.2019
3101 Rain 22 1019 82 0 0.45 348 09:36 07.12.2019
3102 Rain 22 1020 81 0 0.45 348 09:18 07.12.2019
3103 Rain 22 1020 82 0 0.45 348 08:40 07.12.2019
3104 Rain 23 1020 81 0 0.45 348 08:21 07.12.2019
3105 Rain 23 1020 81 0 0.45 348 07:45 07.12.2019
3106 Rain 23 1020 81 0 0.45 348 07:26 07.12.2019
3107 Clouds 23 1022 94 9656 1.5 350 06:50 07.12.2019
3108 Clouds 23 1022 94 9656 1.5 350 06:25 07.12.2019
3109 Clouds 24 1022 94 9656 2.6 340 05:30 07.12.2019
3110 Clouds 24 1021 88 9656 2.6 340 03:59 07.12.2019
3111 Clouds 24 1021 88 9656 2.6 340 03:40 07.12.2019
3112 Clouds 24 1019 88 9656 2.1 360 02:21 07.12.2019
3113 Clear 25 1018 83 9656 2.6 30 01:34 07.12.2019
3114 Clear 25 1018 83 9656 2.6 30 01:34 07.12.2019
3115 Clear 27 1017 69 9656 2.6 60 00:53 07.12.2019
3116 Clear 27 1017 69 9656 2.6 60 00:20 07.12.2019
3117 Clear 27 1017 65 9656 3.1 80 23:56 06.12.2019
3118 Clear 28 1017 65 9656 3.1 80 23:36 06.12.2019
3119 Clear 28 1017 65 9656 3.1 80 23:18 06.12.2019
3120 Clear 28 1016 61 9656 5.1 90 22:38 06.12.2019
3121 Clear 28 1016 61 9656 5.1 90 22:19 06.12.2019
3122 Clouds 29 1016 55 9656 3.6 90 21:57 06.12.2019
3123 Clouds 29 1016 55 9656 3.6 90 21:38 06.12.2019
3124 Clouds 29 1016 55 9656 3.6 90 21:19 06.12.2019
3125 Clouds 29 1017 66 8047 3.6 60 20:42 06.12.2019
3126 Clouds 29 1017 66 8047 3.6 60 20:42 06.12.2019
3127 Clouds 29 1017 66 8047 3.6 60 20:42 06.12.2019
3128 Clouds 29 1017 66 8047 3.6 60 20:23 06.12.2019
3129 Clouds 29 1018 62 8047 2.6 130 19:59 06.12.2019
3130 Clouds 29 1018 62 8047 2.6 130 19:40 06.12.2019
3131 Clouds 29 1018 62 8047 2.6 130 19:21 06.12.2019
3132 Clouds 29 1018 62 8047 2.6 130 19:21 06.12.2019
3133 Clear 28 1019 65 8047 1.5 160 18:55 06.12.2019
3134 Clear 28 1019 65 8047 1.5 160 18:37 06.12.2019
3135 Clear 28 1019 65 8047 1.5 160 18:19 06.12.2019
3136 Clear 27 1019 74 8047 2.28 65 17:55 06.12.2019
3137 Clear 27 1019 74 8047 2.28 65 17:55 06.12.2019
3138 Clear 26 1019 74 8047 2.28 65 17:37 06.12.2019
3139 Clear 26 1019 74 8047 1.67 206 17:19 06.12.2019
3140 Mist 25 1019 78 8047 1.67 206 16:42 06.12.2019
3141 Mist 25 1019 78 8047 1.67 206 16:24 06.12.2019
3142 Mist 21 1018 94 8047 1.67 206 15:57 06.12.2019
3143 Mist 21 1018 94 8047 1.67 206 15:39 06.12.2019
3144 Mist 21 1018 94 8047 1.67 206 15:18 06.12.2019
3145 Mist 20 1017 94 8047 1.67 206 14:55 06.12.2019
3146 Mist 20 1017 94 8047 1.67 206 14:37 06.12.2019
3147 Rain 20 1017 94 8047 1.98 216 14:18 06.12.2019
3148 Rain 20 1017 100 9656 1.98 216 13:42 06.12.2019
3149 Mist 20 1017 100 9656 1.98 216 13:23 06.12.2019
3150 Clear 20 1015 83 0 0.89 239 12:42 06.12.2019
3151 Clear 21 1015 83 0 0.45 240 12:22 06.12.2019
3152 Clear 21 1015 83 0 1.65 231 11:56 06.12.2019
3153 Clear 21 1015 83 0 1.65 231 11:37 06.12.2019
3154 Clear 21 1015 83 0 2.4 267 11:19 06.12.2019
3155 Clear 21 1015 83 0 0.45 267 10:42 06.12.2019
3156 Clear 21 1015 83 0 0.45 267 10:21 06.12.2019
3157 Clear 21 1015 83 0 0.45 267 09:57 06.12.2019
3158 Clear 21 1015 83 0 2.4 267 09:37 06.12.2019
3159 Clear 21 1015 83 0 2.4 267 09:37 06.12.2019
3160 Clear 21 1015 83 0 2.4 267 09:19 06.12.2019
3161 Clear 22 1016 83 0 2.4 267 08:45 06.12.2019
3162 Clear 22 1016 83 0 2.34 265 08:26 06.12.2019
3163 Clouds 22 1018 94 6437 1.2 251 07:44 06.12.2019
3164 Clouds 22 1018 94 6437 1.2 251 07:24 06.12.2019
3165 Mist 22 1018 100 4828 1.2 251 06:58 06.12.2019
3166 Mist 22 1018 100 4828 1.2 251 06:26 06.12.2019
3167 Clouds 22 1018 100 8047 1.2 251 05:52 06.12.2019
3168 Clear 23 1018 94 9656 2.41 98 04:52 06.12.2019
3169 Clear 25 1015 83 8047 1.5 100 01:49 06.12.2019
3170 Clear 25 1015 83 8047 1.5 100 01:22 06.12.2019
3171 Clear 26 1014 78 11265 2.1 100 00:39 06.12.2019
3172 Clear 26 1014 78 11265 2.1 100 00:20 06.12.2019
3173 Clear 26 1014 74 11265 2.6 110 23:38 05.12.2019
3174 Clear 26 1014 74 11265 2.6 110 23:18 05.12.2019
3175 Clouds 27 1014 65 9656 3.1 80 22:55 05.12.2019
3176 Clouds 28 1014 65 9656 3.1 80 22:37 05.12.2019
3177 Clouds 28 1014 65 9656 3.1 80 22:18 05.12.2019
3178 Clouds 28 1015 69 9656 3.6 90 21:42 05.12.2019
3179 Clouds 28 1015 69 9656 3.6 90 21:24 05.12.2019
3180 Clouds 28 1016 65 9656 1.5 90 20:59 05.12.2019
3181 Clouds 28 1016 65 9656 1.5 90 20:40 05.12.2019
3182 Clouds 28 1016 65 9656 1.5 90 20:20 05.12.2019
3183 Clouds 28 1017 65 8047 1.5 120 19:55 05.12.2019
3184 Clouds 28 1017 65 8047 1.5 120 19:36 05.12.2019
3185 Clouds 28 1017 65 8047 1.5 120 19:36 05.12.2019
3186 Clouds 28 1017 65 8047 1.5 120 19:18 05.12.2019
3187 Clouds 28 1018 65 8047 3.1 170 18:39 05.12.2019
3188 Clouds 28 1018 65 8047 3.1 170 18:39 05.12.2019
3189 Clouds 28 1018 65 8047 3.1 170 18:21 05.12.2019
3190 Clouds 28 1018 65 8047 3.1 170 18:21 05.12.2019
3191 Clouds 28 1018 65 8047 3.1 170 18:21 05.12.2019
3192 Clear 26 1019 74 8047 1.9 104 17:59 05.12.2019
3193 Clear 26 1019 74 8047 1.9 104 17:38 05.12.2019
3194 Clear 26 1019 74 8047 1.54 256 17:19 05.12.2019
3195 Haze 25 1019 83 6437 1.54 256 16:55 05.12.2019
3196 Haze 24 1019 83 6437 1.54 256 16:37 05.12.2019
3197 Haze 24 1019 83 6437 1.54 256 16:18 05.12.2019
3198 Mist 22 1018 100 4828 1.54 256 15:55 05.12.2019
3199 Mist 21 1018 100 4828 1.54 256 15:37 05.12.2019
3200 Mist 20 1018 100 4828 1.54 256 15:18 05.12.2019
3201 Mist 19 1017 93 4828 1.54 256 14:54 05.12.2019
3202 Mist 19 1017 93 4828 1.54 256 14:36 05.12.2019
3203 Mist 19 1017 93 4828 2 291 14:18 05.12.2019
3204 Clear 20 1017 100 9656 2 291 13:55 05.12.2019
3205 Clear 20 1017 100 9656 2 291 13:36 05.12.2019
3206 Clear 20 1017 100 9656 1.82 286 13:18 05.12.2019
3207 Clear 20 1015 83 0 1.82 286 12:42 05.12.2019
3208 Clear 20 1015 83 0 1.82 286 12:23 05.12.2019
3209 Clear 20 1015 83 0 1.82 286 11:56 05.12.2019
3210 Clear 20 1015 83 0 1.82 286 11:38 05.12.2019
3211 Clear 20 1015 83 0 1.72 262 11:19 05.12.2019
3212 Clear 20 1015 82 0 1.72 262 10:55 05.12.2019
3213 Clear 20 1015 82 0 1.72 262 10:55 05.12.2019
3214 Clear 21 1015 82 0 1.72 262 10:37 05.12.2019
3215 Clear 21 1015 82 0 1.72 262 10:18 05.12.2019
3216 Clear 21 1015 82 0 1.72 262 10:18 05.12.2019
3217 Clear 21 1015 82 0 0.45 286 09:43 05.12.2019
3218 Clear 21 1015 82 0 0.89 286 09:21 05.12.2019
3219 Clear 21 1015 82 0 0.89 286 08:58 05.12.2019
3220 Clear 21 1016 82 0 0.89 286 08:37 05.12.2019
3221 Clouds 22 1016 82 0 0.45 286 08:19 05.12.2019
3222 Clouds 22 1016 82 0 0.45 286 08:19 05.12.2019
3223 Clouds 22 1016 81 0 0.45 293 07:49 05.12.2019
3224 Clouds 22 1016 81 0 0.45 293 07:49 05.12.2019
3225 Clouds 22 1016 81 0 0.45 293 07:31 05.12.2019
3226 Mist 21 1018 100 4828 1.24 36 06:57 05.12.2019
3227 Mist 21 1018 100 4828 1.24 36 06:38 05.12.2019
3228 Mist 21 1018 100 4828 1.24 36 06:18 05.12.2019
3229 Clouds 22 1018 94 11265 1.24 36 05:47 05.12.2019
3230 Clouds 22 1018 94 11265 3.72 51 05:21 05.12.2019
3231 Clear 23 1017 88 11265 1.5 30 03:52 05.12.2019
3232 Clouds 24 1016 78 11265 3.6 40 02:43 05.12.2019
3233 Clouds 24 1016 78 11265 3.6 40 02:23 05.12.2019
3234 Clouds 25 1015 73 9656 3.6 50 01:52 05.12.2019
3235 Clouds 25 1015 73 9656 3.6 50 01:24 05.12.2019
3236 Clouds 26 1015 69 11265 4.1 40 00:50 05.12.2019
3237 Clouds 26 1015 69 11265 4.1 40 00:24 05.12.2019
3238 Clear 27 1014 69 11265 3.6 80 23:57 04.12.2019
3239 Clear 27 1014 69 11265 3.6 80 23:38 04.12.2019
3240 Clear 27 1014 69 11265 3.6 80 23:19 04.12.2019
3241 Clear 27 1014 69 11265 1.5 80 22:39 04.12.2019
3242 Clear 27 1014 69 11265 1.5 80 22:20 04.12.2019
3243 Clouds 27 1014 69 11265 1.5 100 21:58 04.12.2019
3244 Clouds 27 1014 69 11265 1.5 100 21:39 04.12.2019
3245 Clouds 27 1014 69 11265 1.5 100 21:21 04.12.2019
3246 Clouds 27 1015 69 11265 1.5 80 20:59 04.12.2019
3247 Clouds 27 1015 69 11265 1.5 80 20:40 04.12.2019
3248 Clouds 27 1015 69 11265 1.5 80 20:22 04.12.2019
3249 Clouds 27 1017 74 11265 1.87 41 19:59 04.12.2019
3250 Clouds 27 1017 74 11265 1.87 41 19:38 04.12.2019
3251 Clouds 27 1017 74 11265 1.87 41 19:20 04.12.2019
3252 Clouds 26 1018 74 9656 1.87 41 18:57 04.12.2019
3253 Clouds 26 1018 74 9656 1.87 41 18:39 04.12.2019
3254 Clouds 26 1018 74 9656 1.87 41 18:20 04.12.2019
3255 Clouds 25 1018 83 8047 1 340 17:40 04.12.2019
3256 Clouds 25 1018 83 8047 1 340 17:21 04.12.2019
3257 Clouds 24 1018 83 9656 2.1 330 16:59 04.12.2019
3258 Clouds 24 1018 83 9656 2.1 330 16:40 04.12.2019
3259 Clouds 24 1018 83 9656 2.1 330 16:20 04.12.2019
3260 Clouds 23 1017 94 8047 1.38 272 15:55 04.12.2019
3261 Clouds 22 1017 94 8047 1.38 272 15:37 04.12.2019
3262 Clouds 22 1017 94 8047 1.38 272 15:19 04.12.2019
3263 Clouds 21 1016 100 9656 1.38 272 14:44 04.12.2019
3264 Clouds 22 1016 100 9656 1.38 272 14:23 04.12.2019
3265 Clouds 22 1015 94 9656 1.77 290 13:58 04.12.2019
3266 Clouds 22 1015 94 9656 1.77 290 13:38 04.12.2019
3267 Clouds 22 1015 94 9656 1.77 290 13:38 04.12.2019
3268 Clouds 22 1015 94 9656 1.43 275 13:20 04.12.2019
3269 Clear 22 1014 81 0 1.43 275 12:45 04.12.2019
3270 Clear 22 1013 81 0 0.45 338 12:25 04.12.2019
3271 Clear 22 1013 82 0 0.45 338 11:56 04.12.2019
3272 Clear 22 1013 82 0 1.43 275 11:38 04.12.2019
3273 Clear 22 1013 82 0 0.89 338 11:20 04.12.2019
3274 Clear 22 1013 82 0 0.89 338 10:44 04.12.2019
3275 Clear 22 1013 82 0 1.14 292 10:23 04.12.2019
3276 Clear 22 1013 82 0 1.14 292 09:57 04.12.2019
3277 Clear 22 1013 82 0 1.14 292 09:38 04.12.2019
3278 Clear 22 1013 82 0 0.45 338 09:19 04.12.2019
3279 Clear 21 1013 83 0 1.14 292 08:40 04.12.2019
3280 Clear 21 1013 82 0 0.45 338 08:22 04.12.2019
3281 Clear 21 1013 82 0 1.1 266 07:48 04.12.2019
3282 Clear 21 1014 82 0 1.1 266 07:30 04.12.2019
3283 Clear 21 1016 100 11265 1.1 266 06:43 04.12.2019
3284 Clear 21 1016 100 11265 1.1 266 06:24 04.12.2019
3285 Clouds 21 1016 100 11265 1.1 266 05:42 04.12.2019
3286 Clouds 22 1015 94 11265 0.73 201 04:30 04.12.2019
3287 Clouds 23 1014 88 9656 2.6 360 02:55 04.12.2019
3288 Clouds 25 1014 78 11265 2.6 80 00:53 04.12.2019
3289 Clouds 25 1014 78 11265 2.6 80 00:28 04.12.2019
3290 Clouds 26 1013 74 11265 4.1 70 23:59 03.12.2019
3291 Clouds 26 1013 74 11265 4.1 70 23:41 03.12.2019
3292 Clouds 26 1013 74 11265 4.1 70 23:19 03.12.2019
3293 Clouds 27 1013 65 11265 2.1 90 22:41 03.12.2019
3294 Clouds 27 1013 65 11265 2.1 90 22:19 03.12.2019
3295 Clouds 27 1014 65 11265 3.6 60 21:59 03.12.2019
3296 Clouds 27 1014 65 11265 3.6 60 21:39 03.12.2019
3297 Clouds 27 1014 65 11265 3.6 60 21:19 03.12.2019
3298 Clouds 27 1015 61 11265 1 160 20:58 03.12.2019
3299 Clouds 27 1015 61 11265 1 160 20:39 03.12.2019
3300 Clouds 28 1015 61 11265 1 160 20:19 03.12.2019
3301 Clouds 27 1017 65 11265 2.25 12 19:55 03.12.2019
3302 Clouds 27 1017 65 11265 2.25 12 19:55 03.12.2019
3303 Clouds 27 1017 65 11265 2.25 12 19:55 03.12.2019
3304 Clouds 27 1017 65 11265 2.25 12 19:37 03.12.2019
3305 Clouds 27 1017 65 11265 2.25 12 19:18 03.12.2019
3306 Clouds 27 1017 65 11265 2.25 12 19:18 03.12.2019
3307 Clouds 26 1018 69 11265 2.25 12 18:56 03.12.2019
3308 -273 0 0 0 0 0 18:38 03.12.2019
3309 Clouds 26 1018 69 11265 2.25 12 18:19 03.12.2019
3310 Clouds 25 1019 69 9656 2.25 12 17:56 03.12.2019
3311 Clouds 25 1019 69 9656 2.25 12 17:36 03.12.2019
3312 Clouds 25 1019 69 9656 2.65 326 17:18 03.12.2019
3313 -273 0 0 0 0 0 16:56 03.12.2019
3314 Clouds 24 1019 78 8047 2.65 326 16:37 03.12.2019
3315 Clouds 24 1019 78 8047 2.65 326 16:19 03.12.2019
3316 Mist 21 1019 94 6437 2.65 326 15:41 03.12.2019
3317 Mist 21 1019 94 6437 2.65 326 15:20 03.12.2019
3318 Clouds 20 1019 94 9656 2.65 326 14:59 03.12.2019
3319 Clouds 20 1019 94 9656 2.65 326 14:41 03.12.2019
3320 Clouds 20 1019 94 9656 3.64 332 14:19 03.12.2019
3321 Clouds 20 1018 94 11265 3.64 332 13:39 03.12.2019
3322 Clouds 20 1018 94 11265 3.46 342 13:21 03.12.2019
3323 Rain 21 1017 81 0 3.46 342 12:59 03.12.2019
3324 Rain 21 1017 81 0 3.46 342 12:59 03.12.2019
3325 Rain 21 1017 80 0 0.45 319 12:38 03.12.2019
3326 Rain 20 1017 80 0 0.89 319 12:18 03.12.2019
3327 Rain 20 1017 80 0 0.89 319 11:58 03.12.2019
3328 Rain 20 1017 80 0 0.45 319 11:38 03.12.2019
3329 Rain 21 1017 80 0 0.45 319 11:20 03.12.2019
3330 Rain 21 1017 80 0 0.45 319 11:20 03.12.2019
3331 Rain 21 1017 80 0 0.45 319 10:56 03.12.2019
3332 Rain 21 1017 80 0 4.68 341 10:38 03.12.2019
3333 Rain 21 1017 79 0 4.68 341 10:19 03.12.2019
3334 Rain 21 1017 78 0 4.68 341 09:45 03.12.2019
3335 Rain 21 1017 75 0 0.45 319 09:25 03.12.2019
3336 Rain 22 1018 74 0 0.45 319 08:58 03.12.2019
3337 Rain 22 1018 73 0 4.68 341 08:39 03.12.2019
3338 Clouds 22 1018 73 0 6.14 349 08:21 03.12.2019
3339 Clouds 23 1021 78 9656 2.6 340 07:51 03.12.2019
3340 Clouds 23 1021 78 9656 2.6 340 07:28 03.12.2019
3341 Clouds 23 1021 78 9656 4.6 20 06:45 03.12.2019
3342 Clouds 23 1021 78 9656 4.6 20 06:45 03.12.2019
3343 Clouds 23 1021 78 9656 4.6 20 06:20 03.12.2019
3344 Clouds 23 1021 78 9656 5.1 350 05:54 03.12.2019
3345 Drizzle 23 1021 78 9656 6.2 360 03:44 03.12.2019
3346 Drizzle 23 1021 78 9656 6.2 360 03:22 03.12.2019
3347 Drizzle 23 1020 78 9656 4.1 10 02:53 03.12.2019
3348 Drizzle 23 1020 78 9656 4.1 10 02:53 03.12.2019
3349 Drizzle 23 1020 78 9656 4.1 10 02:32 03.12.2019
3350 Clouds 24 1020 73 9656 8.7 10 01:59 03.12.2019
3351 Clouds 24 1020 73 9656 8.7 10 01:39 03.12.2019
3352 Clouds 24 1020 73 9656 8.7 10 01:19 03.12.2019
3353 Clouds 24 1019 73 11265 8.2 10 00:41 03.12.2019
3354 Clouds 24 1019 73 11265 8.2 10 00:23 03.12.2019
3355 Clouds 24 1019 73 11265 6.7 20 23:44 02.12.2019
3356 Clouds 24 1019 73 11265 6.7 20 23:22 02.12.2019
3357 Clouds 25 1019 73 11265 6.2 340 22:56 02.12.2019
3358 Clouds 25 1019 73 11265 6.2 340 22:38 02.12.2019
3359 Clouds 25 1019 73 11265 6.2 340 22:20 02.12.2019
3360 Clouds 26 1019 69 11265 7.2 350 21:39 02.12.2019
3361 Clouds 26 1019 69 11265 7.2 350 21:20 02.12.2019
3362 Clouds 27 1020 65 9656 10.3 10 20:58 02.12.2019
3363 Clouds 27 1020 65 9656 10.3 10 20:39 02.12.2019
3364 Clouds 27 1020 65 9656 10.3 10 20:20 02.12.2019
3365 Clouds 27 1021 61 9656 7.7 20 19:57 02.12.2019
3366 Clouds 27 1021 61 9656 7.7 20 19:39 02.12.2019
3367 Clouds 27 1021 61 9656 7.7 20 19:20 02.12.2019
3368 Clouds 27 1022 69 9656 7.7 330 18:48 02.12.2019
3369 Clouds 27 1022 69 9656 7.7 330 18:24 02.12.2019
3370 Clouds 26 1022 73 9656 6.2 350 17:59 02.12.2019
3371 Clouds 26 1022 73 9656 6.2 350 17:59 02.12.2019
3372 Clouds 26 1022 73 9656 6.2 350 17:59 02.12.2019
3373 Clouds 26 1022 73 9656 6.2 350 17:41 02.12.2019
3374 Clouds 25 1022 73 9656 6.2 350 17:20 02.12.2019
3375 Clouds 25 1022 73 9656 6.2 350 17:20 02.12.2019
3376 Clouds 24 1021 78 9656 5.1 340 16:57 02.12.2019
3377 Clouds 24 1021 78 9656 5.1 340 16:39 02.12.2019
3378 Clouds 24 1021 78 9656 5.1 340 16:18 02.12.2019
3379 Clouds 24 1021 78 9656 5.1 20 15:56 02.12.2019
3380 Clouds 24 1021 78 9656 5.1 20 15:38 02.12.2019
3381 Clouds 24 1021 78 9656 5.1 20 15:20 02.12.2019
3382 Clouds 23 1020 88 9656 4.1 360 14:41 02.12.2019
3383 Rain 23 1020 88 9656 4.1 360 14:20 02.12.2019
3384 Rain 23 1020 94 8047 5.1 350 13:59 02.12.2019
3385 Rain 23 1020 94 8047 5.1 350 13:41 02.12.2019
3386 Clouds 23 1020 94 8047 5.1 350 13:20 02.12.2019
3387 Rain 23 1018 79 0 5.81 355 12:59 02.12.2019
3388 Rain 23 1018 79 0 6.71 5 12:41 02.12.2019
3389 Rain 23 1018 80 0 5.81 328 12:20 02.12.2019
3390 Rain 23 1018 81 0 4.92 12 11:56 02.12.2019
3391 Rain 23 1018 82 0 6.26 350 11:37 02.12.2019
3392 Rain 23 1017 82 0 4.92 355 11:18 02.12.2019
3393 Rain 23 1017 82 0 5.36 360 10:56 02.12.2019
3394 Rain 23 1017 82 0 6.26 355 10:37 02.12.2019
3395 Rain 23 1017 82 0 4.92 348 10:19 02.12.2019
3396 Rain 24 1017 81 0 6.71 355 09:41 02.12.2019
3397 Rain 24 1017 82 0 3.58 355 09:19 02.12.2019
3398 Rain 24 1017 82 0 1.34 360 08:57 02.12.2019
3399 Rain 24 1017 82 0 1.34 360 08:57 02.12.2019
3400 Rain 24 1017 81 0 3.58 31 08:39 02.12.2019
3401 Rain 24 1017 81 0 2.68 57 08:21 02.12.2019
3402 Rain 24 1017 79 0 2.68 333 07:44 02.12.2019
3403 Rain 24 1017 78 0 3.13 47 07:21 02.12.2019
3404 Rain 24 1017 78 0 3.13 47 07:21 02.12.2019
3405 Clouds 25 1019 88 9656 2.1 350 06:56 02.12.2019
3406 Clouds 25 1019 88 9656 2.1 350 06:38 02.12.2019
3407 Clouds 24 1019 94 9656 3.1 340 05:35 02.12.2019
3408 Clear 25 1018 88 9656 4.1 20 04:27 02.12.2019
3409 Clear 26 1016 78 9656 4.1 10 02:54 02.12.2019
3410 Clear 26 1016 78 9656 4.1 10 02:31 02.12.2019
3411 Clouds 25 1015 88 8047 2.6 360 01:26 02.12.2019
3412 Clouds 26 1014 78 11265 4.1 30 00:58 02.12.2019
3413 Clouds 27 1014 78 11265 4.1 30 00:25 02.12.2019
3414 Clouds 27 1014 74 11265 4.6 20 23:56 01.12.2019
3415 Clouds 28 1014 74 11265 4.6 20 23:37 01.12.2019
3416 Clouds 28 1014 74 11265 4.6 20 23:19 01.12.2019
3417 Clouds 28 1013 65 11265 4.1 70 22:55 01.12.2019
3418 Clouds 28 1013 65 11265 4.1 70 22:37 01.12.2019
3419 Clouds 28 1013 65 11265 4.1 70 22:18 01.12.2019
3420 Clouds 29 1013 62 9656 2.6 60 21:54 01.12.2019
3421 Clouds 29 1013 62 9656 2.6 60 21:36 01.12.2019
3422 Clouds 29 1013 62 9656 2.6 60 21:18 01.12.2019
3423 Clouds 29 1013 66 9656 4.1 40 20:55 01.12.2019
3424 Clouds 29 1013 66 9656 4.1 40 20:37 01.12.2019
3425 Clouds 29 1013 66 9656 4.1 40 20:19 01.12.2019
3426 Clouds 29 1014 70 9656 3.1 70 19:54 01.12.2019
3427 Clouds 29 1014 70 9656 3.1 70 19:36 01.12.2019
3428 Clouds 29 1014 70 9656 3.1 70 19:18 01.12.2019
3429 Clouds 28 1014 69 9656 1.53 76 18:54 01.12.2019
3430 Clouds 28 1014 69 9656 1.53 76 18:36 01.12.2019
3431 Clouds 28 1014 69 9656 1.53 76 18:18 01.12.2019
3432 Clear 27 1014 78 8047 1.53 76 17:41 01.12.2019
3433 Clear 27 1014 78 8047 1.53 76 17:23 01.12.2019
3434 Mist 25 1014 88 4828 1 320 16:59 01.12.2019
3435 Mist 25 1014 88 4828 1 320 16:41 01.12.2019
3436 Mist 25 1014 88 4828 1 320 16:22 01.12.2019
3437 Mist 23 1013 100 1609 2.12 193 15:51 01.12.2019
3438 Mist 23 1013 100 1609 2.12 193 15:32 01.12.2019
3439 Mist 23 1013 100 1609 2.12 193 15:32 01.12.2019
3440 Rain 22 1012 100 0 2.12 193 14:44 01.12.2019
3441 Rain 22 1012 100 0 2.12 193 14:44 01.12.2019
3442 Rain 21 1012 100 0 2.36 197 14:20 01.12.2019
3443 Rain 22 1010 85 0 2.36 197 13:59 01.12.2019
3444 Clear 22 1010 85 0 2.36 197 13:39 01.12.2019
3445 Clear 22 1010 84 0 1.84 200 13:20 01.12.2019
3446 Clear 22 1010 84 0 1.84 200 12:44 01.12.2019
3447 Clear 22 1009 84 0 1.84 200 11:59 01.12.2019
3448 Clear 22 1009 84 0 1.84 200 11:40 01.12.2019
3449 Clear 23 1009 84 0 2.52 193 11:21 01.12.2019
3450 Clear 23 1009 84 0 2.52 193 10:44 01.12.2019
3451 Clear 23 1009 84 0 2.52 193 10:22 01.12.2019
3452 Clear 23 1009 84 0 2.52 193 09:58 01.12.2019
3453 Clear 23 1009 83 0 0.45 268 09:39 01.12.2019
3454 Clear 23 1009 84 0 2.52 193 09:20 01.12.2019
3455 Clear 23 1009 83 0 0.45 269 08:47 01.12.2019
3456 Clouds 23 1010 83 0 0.45 180 08:20 01.12.2019
3457 Clouds 23 1010 83 0 2.64 185 07:51 01.12.2019
3458 Clouds 23 1010 83 0 0.45 180 07:31 01.12.2019
3459 Clear 23 1012 94 9656 2.64 185 06:57 01.12.2019
3460 Clear 23 1012 94 9656 2.64 185 06:34 01.12.2019
3461 Clear 23 1012 94 9656 2.64 185 05:48 01.12.2019
3462 Clear 24 1011 88 9656 3.78 117 04:50 01.12.2019
3463 Clear 26 1010 88 9656 3.78 117 02:54 01.12.2019
3464 Clear 26 1010 88 9656 3.78 117 02:36 01.12.2019
3465 Clear 26 1010 88 9656 3.75 108 02:18 01.12.2019
3466 Clear 26 1010 83 9656 3.75 108 01:50 01.12.2019
3467 Clear 26 1010 83 9656 3.95 108 01:24 01.12.2019
3468 Clouds 27 1010 74 11265 1.5 110 00:41 01.12.2019
3469 Clouds 27 1010 74 11265 1.5 110 00:23 01.12.2019
3470 Clouds 28 1009 74 11265 3.1 90 23:42 30.11.2019
3471 Clouds 28 1009 74 11265 3.1 90 23:23 30.11.2019
3472 Clouds 29 1010 70 11265 3.6 90 22:50 30.11.2019
3473 Clouds 29 1010 70 11265 3.6 90 22:30 30.11.2019
3474 Clouds 29 1011 70 11265 2.6 100 21:59 30.11.2019
3475 Clouds 29 1011 70 11265 2.6 100 21:41 30.11.2019
3476 Clouds 29 1011 70 11265 2.6 100 21:23 30.11.2019
3477 Clouds 30 1012 58 9656 2.1 150 20:55 30.11.2019
3478 Clouds 30 1012 58 9656 2.1 150 20:37 30.11.2019
3479 Clouds 30 1012 58 9656 2.1 150 20:19 30.11.2019
3480 Clouds 29 1013 70 9656 2.6 190 19:55 30.11.2019
3481 Clouds 30 1013 70 9656 2.6 190 19:37 30.11.2019
3482 Clouds 29 1013 70 9656 2.6 190 19:18 30.11.2019
3483 Clouds 29 1015 74 8047 1 210 18:56 30.11.2019
3484 Clouds 29 1015 74 8047 1 210 18:37 30.11.2019
3485 Clouds 29 1015 74 8047 1 210 18:18 30.11.2019
3486 Clouds 27 1015 83 8047 5.7 170 17:56 30.11.2019
3487 Clouds 27 1015 83 8047 5.7 170 17:37 30.11.2019
3488 Clouds 27 1015 83 8047 5.7 170 17:19 30.11.2019
3489 Mist 26 1015 94 6437 2.19 193 16:55 30.11.2019
3490 Mist 26 1015 94 6437 2.19 193 16:37 30.11.2019
3491 Mist 25 1015 94 6437 2.19 193 16:18 30.11.2019
3492 Mist 24 1014 94 6437 2.1 180 15:41 30.11.2019
3493 Mist 24 1014 94 6437 2.1 180 15:19 30.11.2019
3494 Mist 24 1014 94 3219 2.19 193 14:56 30.11.2019
3495 Mist 24 1014 94 3219 2.19 193 14:38 30.11.2019
3496 Mist 24 1014 94 3219 2.99 160 14:18 30.11.2019
3497 Clouds 24 1014 94 8047 2.99 160 13:56 30.11.2019
3498 Clouds 24 1014 94 8047 2.99 160 13:36 30.11.2019
3499 Clouds 24 1014 94 8047 2.67 149 13:18 30.11.2019
3500 Clouds 24 1012 84 0 2.67 149 12:43 30.11.2019
3501 Clouds 24 1012 84 0 2.67 149 12:25 30.11.2019
3502 Clouds 24 1011 83 0 0.45 298 11:45 30.11.2019
3503 Clouds 24 1011 84 0 0.89 298 11:20 30.11.2019
3504 Clouds 24 1011 84 0 0.89 298 10:57 30.11.2019
3505 Clouds 24 1011 84 0 0.89 298 10:57 30.11.2019
3506 Clouds 24 1012 84 0 0.45 298 10:39 30.11.2019
3507 Clouds 24 1012 83 0 0.45 298 10:20 30.11.2019
3508 Clouds 24 1012 83 0 3.49 113 09:46 30.11.2019
3509 Clouds 24 1012 83 0 3.49 113 09:28 30.11.2019
3510 Clouds 24 1013 83 0 3.49 113 08:44 30.11.2019
3511 Clouds 24 1013 83 0 3.49 113 08:44 30.11.2019
3512 Clear 24 1013 83 0 1.34 296 08:23 30.11.2019
3513 Clouds 24 1013 83 0 0.89 95 07:59 30.11.2019
3514 Clouds 24 1013 83 0 0.89 95 07:40 30.11.2019
3515 Clouds 25 1013 82 0 2.58 79 07:20 30.11.2019
3516 Clouds 25 1016 100 8047 2.58 79 06:30 30.11.2019
3517 Clouds 25 1016 78 8047 1.5 10 05:55 30.11.2019
3518 Clear 25 1015 94 9656 1.5 70 03:54 30.11.2019
3519 Clear 25 1015 94 9656 1.5 90 02:53 30.11.2019
3520 Clear 25 1015 94 9656 1.5 90 02:22 30.11.2019
3521 Clouds 26 1015 88 9656 2.75 90 01:46 30.11.2019
3522 Clouds 26 1015 88 9656 2.81 83 01:24 30.11.2019
3523 Clouds 27 1015 78 9656 1.5 80 00:38 30.11.2019
3524 Clouds 28 1015 78 9656 1.5 80 00:18 30.11.2019
3525 Clouds 28 1014 74 11265 2.1 110 23:43 29.11.2019
3526 Clouds 29 1014 74 11265 2.1 110 23:23 29.11.2019
3527 Clouds 29 1015 74 9656 1.5 120 22:47 29.11.2019
3528 Clouds 29 1015 74 9656 1.5 120 22:26 29.11.2019
3529 Clouds 29 1016 70 9656 1.5 120 21:45 29.11.2019
3530 Clouds 29 1016 70 9656 1.5 120 21:26 29.11.2019
3531 Clouds 29 1016 79 8047 1.5 110 20:59 29.11.2019
3532 Clouds 29 1016 79 8047 1.5 110 20:40 29.11.2019
3533 Clouds 29 1016 79 8047 1.5 110 20:22 29.11.2019
3534 Clouds 29 1018 83 8047 3.51 0 19:59 29.11.2019
3535 Clouds 28 1018 83 8047 3.51 0 19:41 29.11.2019
3536 Clouds 28 1018 83 8047 3.51 0 19:21 29.11.2019
3537 Mist 27 1019 94 9656 3.51 0 18:58 29.11.2019
3538 Mist 27 1019 94 9656 3.51 0 18:40 29.11.2019
3539 Mist 27 1019 94 9656 3.51 0 18:22 29.11.2019
3540 Mist 26 1019 94 9656 3.51 0 17:47 29.11.2019
3541 Mist 26 1019 94 9656 3.51 0 17:28 29.11.2019
3542 Rain 25 1019 100 4828 1.5 340 16:59 29.11.2019
3543 Rain 25 1019 100 4828 1.5 340 16:59 29.11.2019
3544 Rain 25 1019 100 4828 1.5 340 16:41 29.11.2019
3545 Rain 25 1019 100 4828 1.5 340 16:20 29.11.2019
3546 Mist 24 1019 100 4828 2.1 10 15:43 29.11.2019
3547 Mist 24 1019 100 4828 2.1 10 15:24 29.11.2019
3548 Thunderstorm 24 1018 100 3219 2.1 10 14:58 29.11.2019
3549 Thunderstorm 24 1018 100 3219 2.1 10 14:40 29.11.2019
3550 Rain 24 1018 100 3219 2.44 323 14:21 29.11.2019
3551 Mist 24 1018 100 9656 2.44 323 13:55 29.11.2019
3552 Mist 24 1018 100 9656 2.44 323 13:37 29.11.2019
3553 Mist 24 1018 100 9656 2.43 309 13:19 29.11.2019
3554 Rain 24 1019 90 0 2.43 309 12:41 29.11.2019
3555 Rain 24 1019 90 0 2.43 309 12:23 29.11.2019
3556 Rain 24 1019 90 0 2.43 309 11:55 29.11.2019
3557 Rain 24 1019 90 0 2.43 309 11:55 29.11.2019
3558 Rain 24 1019 90 0 2.43 309 11:36 29.11.2019
3559 Rain 24 1019 90 0 2.71 319 11:18 29.11.2019
3560 Rain 24 1019 90 0 2.71 319 10:56 29.11.2019
3561 Rain 24 1019 90 0 2.71 319 10:38 29.11.2019
3562 Rain 24 1019 90 0 2.71 319 10:19 29.11.2019
3563 Rain 24 1019 90 0 2.71 319 09:56 29.11.2019
3564 Rain 24 1019 90 0 2.71 319 09:37 29.11.2019
3565 Rain 24 1019 90 0 2.71 319 09:37 29.11.2019
3566 Rain 24 1019 90 0 2.71 319 09:19 29.11.2019
3567 Rain 24 1019 90 0 2.71 319 08:40 29.11.2019
3568 Rain 25 1019 89 0 2.06 324 08:22 29.11.2019
3569 Clouds 24 1019 100 8047 2.06 324 07:58 29.11.2019
3570 Clouds 24 1019 100 8047 2.06 324 07:40 29.11.2019
3571 Clouds 24 1019 100 8047 2.06 324 07:22 29.11.2019
3572 Clouds 24 1019 100 8047 2.1 360 06:43 29.11.2019
3573 Clear 24 1019 100 8047 1.5 10 05:48 29.11.2019
3574 Clear 24 1019 100 8047 1.5 10 05:25 29.11.2019
3575 Clear 24 1018 100 8047 3.48 338 04:35 29.11.2019
3576 Clouds 25 1018 94 8047 3.48 338 03:22 29.11.2019
3577 Rain 25 1020 92 0 3.48 338 02:32 29.11.2019
3578 Clouds 25 1017 94 9656 1.5 360 01:57 29.11.2019
3579 Clouds 25 1017 94 9656 1.5 360 01:26 29.11.2019
3580 Mist 26 1016 88 9656 4.1 10 00:45 29.11.2019
3581 Mist 26 1016 88 9656 4.1 10 00:21 29.11.2019
3582 Mist 26 1016 88 9656 4.1 360 23:57 28.11.2019
3583 Mist 26 1016 88 9656 4.1 360 23:38 28.11.2019
3584 Mist 26 1016 88 9656 4.1 360 23:20 28.11.2019
3585 Clear 27 1016 78 0 5.34 8 22:40 28.11.2019
3586 Clouds 28 1016 78 9656 2.1 30 22:21 28.11.2019
3587 Clouds 28 1016 78 9656 2.1 30 21:59 28.11.2019
3588 Clouds 28 1016 78 9656 2.1 30 21:41 28.11.2019
3589 Clouds 28 1016 78 9656 2.1 30 21:20 28.11.2019
3590 Clouds 27 1017 83 9656 2.6 10 20:57 28.11.2019
3591 Clouds 27 1017 83 9656 2.6 10 20:39 28.11.2019
3592 Clouds 27 1017 83 9656 2.6 10 20:20 28.11.2019
3593 Clouds 26 1018 88 9656 2.6 360 19:56 28.11.2019
3594 Clouds 26 1018 88 9656 2.6 360 19:36 28.11.2019
3595 Clouds 26 1018 88 9656 2.6 360 19:18 28.11.2019
3596 Clouds 25 1019 94 8047 2.6 20 18:56 28.11.2019
3597 Clouds 25 1019 94 8047 2.6 20 18:38 28.11.2019
3598 Clouds 25 1019 94 8047 2.6 20 18:18 28.11.2019
3599 Thunderstorm 25 1020 100 2414 5.14 355 17:42 28.11.2019
3600 Thunderstorm 25 1020 100 2414 5.14 355 17:24 28.11.2019
3601 Thunderstorm 25 1020 100 2414 5.14 355 17:23 28.11.2019
3602 Thunderstorm 24 1020 94 805 1.5 320 16:58 28.11.2019
3603 Thunderstorm 24 1020 94 805 1.5 320 16:38 28.11.2019
3604 Thunderstorm 24 1020 100 2414 1.5 70 16:19 28.11.2019
3605 Rain 24 1019 94 3219 3.6 350 15:55 28.11.2019
3606 Rain 24 1019 94 3219 3.6 350 15:37 28.11.2019
3607 Rain 24 1019 94 3219 3.6 350 15:19 28.11.2019
3608 Rain 24 1019 94 3219 3.6 340 14:41 28.11.2019
3609 Thunderstorm 24 1018 88 8047 1.5 330 14:22 28.11.2019
3610 Clouds 24 1017 88 9656 3.73 319 13:59 28.11.2019
3611 Clouds 24 1017 88 9656 3.73 319 13:59 28.11.2019
3612 Clouds 24 1017 88 9656 3.73 319 13:41 28.11.2019
3613 Clouds 24 1017 88 9656 3.87 323 13:22 28.11.2019
3614 Clouds 24 1017 88 9656 3.87 323 13:22 28.11.2019
3615 Rain 24 1019 90 0 3.87 323 12:49 28.11.2019
3616 Rain 24 1019 90 0 3.87 323 12:29 28.11.2019
3617 Rain 24 1019 90 0 3.87 323 11:59 28.11.2019
3618 Rain 24 1019 90 0 3.87 323 11:59 28.11.2019
3619 Rain 24 1019 90 0 3.87 323 11:41 28.11.2019
3620 Rain 24 1017 93 0 3.61 321 11:21 28.11.2019
3621 Rain 24 1017 93 0 3.61 321 10:59 28.11.2019
3622 Rain 24 1017 93 0 3.61 321 10:40 28.11.2019
3623 Rain 24 1017 93 0 3.61 321 10:20 28.11.2019
3624 Rain 24 1017 93 0 3.61 321 09:41 28.11.2019
3625 Rain 24 1017 93 0 3.61 321 09:23 28.11.2019
3626 Rain 24 1017 93 0 3.61 321 08:59 28.11.2019
3627 Rain 24 1017 93 0 3.61 321 08:39 28.11.2019
3628 Clouds 25 1018 92 0 3.2 353 08:21 28.11.2019
3629 Clouds 25 1018 92 0 3.2 353 07:42 28.11.2019
3630 Clouds 25 1018 92 0 3.2 353 07:24 28.11.2019
3631 Clouds 26 1017 88 8047 3.6 50 06:51 28.11.2019
3632 Clouds 26 1017 88 8047 3.6 50 06:31 28.11.2019
3633 Clouds 26 1017 88 8047 3.6 30 05:51 28.11.2019
3634 Clouds 26 1017 88 8047 3.6 30 05:18 28.11.2019
3635 Clouds 26 1013 88 8047 3.1 50 02:50 28.11.2019
3636 Mist 26 1012 88 4828 1.5 60 01:50 28.11.2019
3637 Clear 28 1011 78 6437 1.5 80 00:48 28.11.2019
3638 Clear 28 1011 78 6437 1.5 80 00:24 28.11.2019
3639 Clear 29 1011 74 8047 1 110 23:55 27.11.2019
3640 Clear 29 1011 74 8047 1 110 23:37 27.11.2019
3641 Clear 29 1011 74 8047 1 110 23:37 27.11.2019
3642 Clear 29 1011 74 8047 1 110 23:19 27.11.2019
3643 Clear 30 1011 66 8047 2.6 90 22:39 27.11.2019
3644 Clear 30 1011 66 8047 2.6 90 22:20 27.11.2019
3645 Clear 31 1011 66 8047 4.1 90 21:56 27.11.2019
3646 Clear 31 1011 66 8047 4.1 90 21:38 27.11.2019
3647 Clear 31 1011 66 8047 4.1 90 21:19 27.11.2019
3648 Clear 31 1012 66 11265 1.5 120 20:59 27.11.2019
3649 Clear 31 1012 66 11265 1.5 120 20:39 27.11.2019
3650 Clear 31 1012 66 11265 1.5 120 20:21 27.11.2019
3651 Clear 30 1013 70 6437 2.05 98 19:58 27.11.2019
3652 Clear 30 1013 70 6437 2.05 98 19:39 27.11.2019
3653 Clear 30 1013 70 6437 2.05 98 19:21 27.11.2019
3654 Haze 29 1014 70 4828 1 160 18:59 27.11.2019
3655 Haze 29 1014 70 4828 1 160 18:37 27.11.2019
3656 Haze 29 1014 70 4828 1 160 18:19 27.11.2019
3657 Haze 28 1014 78 4828 2.05 98 17:57 27.11.2019
3658 Haze 28 1014 78 4828 2.05 98 17:38 27.11.2019
3659 Haze 28 1014 78 4828 2.49 172 17:20 27.11.2019
3660 Haze 26 1014 83 2414 2.49 172 16:56 27.11.2019
3661 Haze 26 1014 83 2414 2.49 172 16:38 27.11.2019
3662 Mist 24 1014 94 1609 2.49 172 16:19 27.11.2019
3663 Mist 23 1014 100 1609 2.49 172 15:57 27.11.2019
3664 Mist 23 1014 100 1609 2.49 172 15:38 27.11.2019
3665 Mist 23 1014 100 1609 2.49 172 15:38 27.11.2019
3666 Fog 23 1013 100 805 2.49 172 15:20 27.11.2019
3667 Fog 23 1013 100 0 2.49 172 14:57 27.11.2019
3668 Fog 23 1013 100 0 2.49 172 14:38 27.11.2019
3669 Fog 22 1012 100 805 2.68 220 14:20 27.11.2019
3670 Fog 22 1012 100 805 2.68 220 13:56 27.11.2019
3671 Fog 22 1012 100 805 2.68 220 13:38 27.11.2019
3672 Fog 22 1012 100 805 2.76 214 13:19 27.11.2019
3673 Clear 23 1012 91 0 2.76 214 12:42 27.11.2019
3674 Clear 23 1012 91 0 2.76 214 12:22 27.11.2019
3675 Clear 23 1012 91 0 2.76 214 11:57 27.11.2019
3676 Clear 23 1012 91 0 2.76 214 11:37 27.11.2019
3677 Clear 24 1012 94 0 1.71 247 11:18 27.11.2019
3678 Clear 24 1012 94 0 1.71 247 10:46 27.11.2019
3679 Clear 24 1012 94 0 1.71 247 10:24 27.11.2019
3680 Clear 24 1012 94 0 1.71 247 09:58 27.11.2019
3681 Clear 24 1012 94 0 1.71 247 09:40 27.11.2019
3682 Clear 24 1012 94 0 1.71 247 09:22 27.11.2019
3683 Clear 24 1012 94 0 1.71 247 08:42 27.11.2019
3684 Clear 24 1011 94 0 1.93 249 08:23 27.11.2019
3685 Clear 25 1012 93 0 2.28 99 07:51 27.11.2019
3686 Clear 25 1012 93 0 2.28 99 07:31 27.11.2019
3687 Mist 24 1011 94 4828 2.28 99 06:58 27.11.2019
3688 Mist 24 1011 94 4828 2.28 99 06:39 27.11.2019
3689 Clear 24 1011 94 9656 2.28 99 05:55 27.11.2019
3690 Clear 24 1011 94 9656 2.28 99 05:26 27.11.2019
3691 Clear 25 1010 94 9656 3.14 65 04:49 27.11.2019
3692 Clear 25 1010 94 9656 3.14 65 04:31 27.11.2019
3693 Clear 25 1009 88 9656 2.1 80 03:45 27.11.2019
3694 Clear 25 1009 88 9656 2.1 80 03:20 27.11.2019
3695 Clear 25 1008 94 6437 1.5 110 02:34 27.11.2019
3696 Clouds 30 1005 66 8047 3.6 170 00:55 27.11.2019
3697 Clouds 30 1005 66 8047 3.6 170 00:37 27.11.2019
3698 Clouds 30 1005 66 8047 3.6 170 00:19 27.11.2019
3699 Clear 31 1005 58 8047 2.1 150 23:42 26.11.2019
3700 Clear 31 1005 58 8047 2.1 150 23:23 26.11.2019
3701 Clear 31 1005 58 8047 2.6 180 22:40 26.11.2019
3702 Clear 31 1005 58 8047 2.6 180 22:20 26.11.2019
3703 Clouds 30 1006 62 8047 3.54 108 21:59 26.11.2019
3704 Clouds 30 1006 62 8047 3.54 108 21:39 26.11.2019
3705 Clouds 30 1006 62 8047 3.54 108 21:21 26.11.2019
3706 Clouds 30 1007 62 6437 1 150 20:57 26.11.2019
3707 Clouds 30 1007 62 6437 1 150 20:38 26.11.2019
3708 Clouds 30 1007 62 6437 1 150 20:37 26.11.2019
3709 Clouds 30 1007 62 6437 1 150 20:19 26.11.2019
3710 Clouds 30 1007 62 6437 1 150 20:19 26.11.2019
3711 Clouds 29 1008 70 6437 1.5 160 19:56 26.11.2019
3712 Clouds 29 1008 70 6437 1.5 160 19:56 26.11.2019
3713 Clouds 29 1008 70 6437 1.5 160 19:38 26.11.2019
3714 Clouds 29 1008 70 6437 1.5 160 19:19 26.11.2019
3715 Clouds 28 1010 74 6437 3.6 180 18:57 26.11.2019
3716 Clouds 28 1010 74 6437 3.6 180 18:39 26.11.2019
3717 Clouds 28 1010 74 6437 3.6 180 18:21 26.11.2019
3718 Clear 27 1011 78 6437 1 180 17:58 26.11.2019
3719 Clear 27 1011 78 6437 1 180 17:40 26.11.2019
3720 Clear 27 1011 78 6437 1 180 17:21 26.11.2019
3721 Haze 24 1010 94 4828 2.94 188 16:57 26.11.2019
3722 Haze 24 1010 94 4828 2.94 188 16:37 26.11.2019
3723 Haze 24 1010 94 4828 2.94 188 16:18 26.11.2019
3724 Mist 22 1010 100 3219 2.94 188 15:58 26.11.2019
3725 Mist 22 1010 100 3219 2.94 188 15:37 26.11.2019
3726 Mist 22 1010 100 3219 2.94 188 15:37 26.11.2019
3727 Mist 22 1010 100 3219 2.94 188 15:37 26.11.2019
3728 Mist 22 1010 100 3219 2.94 188 15:19 26.11.2019
3729 Mist 20 1009 100 1609 2.94 188 14:47 26.11.2019
3730 Fog 20 1009 100 805 2.94 188 14:26 26.11.2019
3731 Fog 20 1009 100 805 2.94 188 14:26 26.11.2019
3732 Fog 21 1009 100 402 2.85 201 13:57 26.11.2019
3733 Fog 21 1009 100 402 2.85 201 13:38 26.11.2019
3734 Mist 21 1009 100 3219 2.96 189 13:19 26.11.2019
3735 Clouds 22 1007 83 0 0.45 219 12:38 26.11.2019
3736 Clouds 22 1007 83 0 0.45 219 12:38 26.11.2019
3737 Clouds 22 1007 83 0 0.45 219 12:20 26.11.2019
3738 Clouds 22 1007 83 0 0.45 219 11:58 26.11.2019
3739 Clouds 22 1007 83 0 0.45 219 11:39 26.11.2019
3740 Clouds 22 1007 83 0 0.45 219 11:39 26.11.2019
3741 Clouds 22 1007 83 0 3.27 168 11:20 26.11.2019
3742 Clouds 22 1007 83 0 3.27 168 10:58 26.11.2019
3743 Clouds 23 1007 83 0 3.27 168 10:39 26.11.2019
3744 Clouds 23 1007 84 0 1.34 261 10:20 26.11.2019
3745 Clouds 23 1007 84 0 1.34 261 09:55 26.11.2019
3746 Clouds 23 1007 84 0 3.27 168 09:37 26.11.2019
3747 Clouds 23 1007 84 0 0.45 216 09:18 26.11.2019
3748 Clouds 23 1007 84 0 0.89 216 08:43 26.11.2019
3749 Clear 22 1008 83 0 0.89 216 08:22 26.11.2019
3750 Clouds 22 1010 100 9656 1 250 07:44 26.11.2019
3751 Clouds 22 1010 100 9656 1 250 07:25 26.11.2019
3752 Clouds 23 1011 94 9656 2.64 150 06:55 26.11.2019
3753 Clouds 23 1011 94 9656 2.64 150 06:23 26.11.2019
3754 Clouds 23 1011 94 9656 2.64 150 05:39 26.11.2019
3755 Clouds 24 1010 88 9656 2.68 96 03:59 26.11.2019
3756 Clear 24 1009 88 9656 1 110 02:24 26.11.2019
3757 Clear 24 1008 83 8047 1 100 01:32 26.11.2019
3758 Clouds 26 1008 78 11265 3.1 100 00:50 26.11.2019
3759 Clouds 26 1008 78 11265 3.1 100 00:25 26.11.2019
3760 Clouds 27 1008 74 9656 1.5 120 23:40 25.11.2019
3761 Clouds 27 1008 74 9656 1.5 120 23:20 25.11.2019
3762 Clouds 27 1008 69 9656 3.77 103 22:58 25.11.2019
3763 Clouds 28 1008 69 9656 3.77 103 22:37 25.11.2019
3764 Clouds 28 1008 69 9656 3.77 103 22:18 25.11.2019
3765 Clouds 28 1009 61 9656 3.1 190 21:58 25.11.2019
3766 Clouds 28 1009 61 9656 3.1 190 21:39 25.11.2019
3767 Clouds 28 1009 61 9656 3.1 190 21:19 25.11.2019
3768 Clouds 28 1010 61 8047 2.6 160 20:55 25.11.2019
3769 Clouds 28 1010 61 8047 2.6 160 20:36 25.11.2019
3770 Clouds 28 1010 61 8047 2.6 160 20:18 25.11.2019
3771 Clouds 28 1010 61 8047 2.6 160 20:18 25.11.2019
3772 Clouds 27 1012 69 8047 3.6 170 19:54 25.11.2019
3773 Clouds 27 1012 69 8047 3.6 170 19:54 25.11.2019
3774 Clouds 27 1012 69 8047 3.6 170 19:36 25.11.2019
3775 Clouds 27 1012 69 8047 3.6 170 19:18 25.11.2019
3776 Clouds 26 1013 74 8047 2.1 160 18:55 25.11.2019
3777 Clouds 26 1013 74 8047 2.1 160 18:36 25.11.2019
3778 Clouds 26 1013 74 8047 2.1 160 18:18 25.11.2019
3779 Clouds 26 1014 74 6437 2.6 170 17:55 25.11.2019
3780 Clouds 26 1014 74 6437 2.6 170 17:55 25.11.2019
3781 Clouds 26 1014 74 6437 2.6 170 17:36 25.11.2019
3782 Clouds 26 1014 74 6437 2.6 170 17:36 25.11.2019
3783 Clouds 26 1014 74 6437 2.6 170 17:18 25.11.2019
3784 Haze 25 1014 88 4828 1.22 257 16:41 25.11.2019
3785 Haze 25 1014 88 4828 1.22 257 16:41 25.11.2019
3786 Haze 24 1014 88 4828 1.22 257 16:23 25.11.2019
3787 Mist 23 1013 100 3219 1.22 257 15:57 25.11.2019
3788 Mist 22 1013 100 3219 1.22 257 15:38 25.11.2019
3789 Mist 22 1013 100 3219 1.22 257 15:19 25.11.2019
3790 Mist 21 1012 94 3219 1.22 257 14:56 25.11.2019
3791 Mist 21 1012 94 3219 1.22 257 14:56 25.11.2019
3792 Mist 20 1012 94 3219 1.22 257 14:37 25.11.2019
3793 Mist 20 1012 94 3219 1.66 224 14:19 25.11.2019
3794 Clear 20 1012 94 11265 1.66 224 13:39 25.11.2019
3795 Clear 20 1012 94 11265 1.78 215 13:20 25.11.2019
3796 Clouds 19 1010 84 0 1.78 215 12:59 25.11.2019
3797 Clouds 19 1010 84 0 1.78 215 12:40 25.11.2019
3798 Clouds 19 1010 84 0 0.45 219 12:20 25.11.2019
3799 Clouds 19 1010 84 0 0.45 219 11:55 25.11.2019
3800 Clouds 19 1010 84 0 0.45 219 11:55 25.11.2019
3801 Clouds 19 1010 84 0 1.78 215 11:37 25.11.2019
3802 Clouds 19 1010 84 0 1.34 268 11:18 25.11.2019
3803 Clouds 19 1010 84 0 0.89 219 10:41 25.11.2019
3804 Clouds 19 1010 84 0 1.34 268 10:22 25.11.2019
3805 Clouds 19 1011 83 0 0.45 219 09:45 25.11.2019
3806 Clouds 19 1011 84 0 0.45 219 09:26 25.11.2019
3807 Clouds 19 1011 83 0 1.34 268 08:59 25.11.2019
3808 Clouds 20 1012 83 0 0.89 219 08:39 25.11.2019
3809 Clouds 20 1012 83 0 0.89 219 08:20 25.11.2019
3810 Clear 20 1015 100 9656 1.91 325 07:41 25.11.2019
3811 Clear 20 1015 100 9656 1.91 325 07:20 25.11.2019
3812 Clear 21 1015 94 9656 1.91 325 06:45 25.11.2019
3813 Clear 22 1015 94 9656 1.91 325 06:21 25.11.2019
3814 Clear 22 1016 94 9656 1 340 05:38 25.11.2019
3815 Clear 23 1016 88 9656 2.6 10 04:50 25.11.2019
3816 Clear 23 1015 88 9656 3.1 360 02:48 25.11.2019
3817 Clear 23 1015 88 9656 3.1 360 02:18 25.11.2019
3818 Clear 24 1015 83 8047 4.1 360 01:38 25.11.2019
3819 Clear 24 1015 83 8047 4.1 360 01:19 25.11.2019
3820 Clouds 25 1015 78 9656 5.7 360 00:22 25.11.2019
3821 Clouds 26 1015 74 9656 4.6 360 23:57 24.11.2019
3822 Clouds 26 1015 74 9656 4.6 360 23:37 24.11.2019
3823 Clouds 26 1015 74 9656 4.6 360 23:18 24.11.2019
3824 Clouds 27 1015 69 9656 5.7 20 22:42 24.11.2019
3825 Clouds 27 1015 69 9656 5.7 20 22:21 24.11.2019
3826 Clouds 27 1015 69 9656 5.7 20 22:21 24.11.2019
3827 Clouds 26 1015 78 9656 4.1 20 21:59 24.11.2019
3828 Clouds 26 1015 78 9656 4.1 20 21:41 24.11.2019
3829 Clouds 26 1015 78 9656 4.1 20 21:21 24.11.2019
3830 Clouds 27 1016 74 9656 6.2 20 20:59 24.11.2019
3831 Clouds 27 1016 74 9656 6.2 20 20:39 24.11.2019
3832 Clouds 27 1016 74 9656 6.2 20 20:19 24.11.2019
3833 Clouds 26 1017 78 9656 5.7 360 19:57 24.11.2019
3834 Clouds 27 1017 78 9656 5.7 360 19:38 24.11.2019
3835 Clouds 26 1017 78 9656 5.7 360 19:20 24.11.2019
3836 Clouds 26 1018 78 8047 5.1 360 18:59 24.11.2019
3837 Clouds 26 1018 78 8047 5.1 360 18:38 24.11.2019
3838 Clouds 26 1018 78 8047 5.1 360 18:38 24.11.2019
3839 Clouds 26 1018 78 8047 5.1 360 18:19 24.11.2019
3840 Haze 26 1018 78 6437 4.1 20 17:56 24.11.2019
3841 Haze 27 1018 78 6437 4.1 20 17:38 24.11.2019
3842 Haze 27 1018 78 6437 4.1 20 17:20 24.11.2019
3843 Haze 26 1018 83 4828 3.6 360 16:57 24.11.2019
3844 Haze 26 1018 83 4828 3.6 360 16:39 24.11.2019
3845 Haze 25 1018 83 4828 3.6 360 16:20 24.11.2019
3846 Mist 24 1017 94 3219 2.6 350 15:45 24.11.2019
3847 Mist 24 1017 94 3219 2.6 350 15:26 24.11.2019
3848 Mist 23 1017 94 3219 2.6 330 14:58 24.11.2019
3849 Mist 22 1017 94 3219 2.6 330 14:38 24.11.2019
3850 Mist 22 1017 94 3219 2.6 330 14:19 24.11.2019
3851 Clouds 23 1016 94 11265 2.6 360 13:54 24.11.2019
3852 Clouds 23 1016 94 11265 2.6 360 13:54 24.11.2019
3853 Clouds 23 1016 94 11265 2.6 360 13:36 24.11.2019
3854 Clouds 23 1016 94 11265 2.6 360 13:18 24.11.2019
3855 Rain 22 1015 82 0 0.89 9 12:42 24.11.2019
3856 Rain 22 1014 81 0 0.45 9 12:19 24.11.2019
3857 Rain 22 1014 81 0 0.45 9 11:58 24.11.2019
3858 Rain 23 1014 80 0 0.45 9 11:37 24.11.2019
3859 Rain 23 1014 80 0 3.5 6 11:18 24.11.2019
3860 Rain 23 1014 79 0 0.45 9 10:47 24.11.2019
3861 Rain 23 1014 79 0 0.89 9 10:29 24.11.2019
3862 Rain 24 1014 78 0 1.34 9 09:58 24.11.2019
3863 Rain 24 1015 77 0 2.68 11 09:37 24.11.2019
3864 Rain 24 1015 78 0 2.68 11 09:19 24.11.2019
3865 Rain 24 1015 78 0 1.79 5 08:45 24.11.2019
3866 Rain 24 1015 78 0 1.79 33 08:22 24.11.2019
3867 Rain 24 1015 78 0 1.34 20 07:58 24.11.2019
3868 Rain 24 1015 78 0 1.79 360 07:38 24.11.2019
3869 Rain 24 1015 78 0 2.68 23 07:20 24.11.2019
3870 Clouds 25 1018 88 9656 3.6 20 06:20 24.11.2019
3871 Clouds 25 1018 88 9656 3.6 20 06:20 24.11.2019
3872 Clouds 25 1018 88 9656 3.6 20 06:20 24.11.2019
3873 Clouds 25 1018 88 9656 3.6 20 06:20 24.11.2019
3874 Clouds 25 1017 88 9656 4.1 10 04:49 24.11.2019
3875 Clouds 25 1016 88 8047 4.1 360 03:38 24.11.2019
3876 Clouds 25 1015 88 8047 2.6 10 02:31 24.11.2019
3877 Haze 25 1015 88 4828 2.1 360 01:41 24.11.2019
3878 Haze 25 1015 88 4828 2.1 360 01:22 24.11.2019
3879 Clear 27 1014 74 11265 4.6 10 00:47 24.11.2019
3880 Clear 27 1014 74 11265 4.6 10 00:24 24.11.2019
3881 Haze 28 1013 62 8047 3.6 10 23:46 23.11.2019
3882 Haze 28 1013 62 8047 3.6 10 23:24 23.11.2019
3883 Haze 29 1013 62 8047 4.1 30 22:59 23.11.2019
3884 Haze 29 1013 62 8047 4.1 30 22:40 23.11.2019
3885 Haze 29 1013 62 8047 4.1 30 22:22 23.11.2019
3886 Haze 29 1014 62 8047 4.1 70 21:59 23.11.2019
3887 Haze 29 1014 62 8047 4.1 70 21:41 23.11.2019
3888 Haze 29 1014 62 8047 4.1 70 21:22 23.11.2019
3889 Haze 29 1014 62 8047 4.1 70 21:22 23.11.2019
3890 Haze 29 1015 62 8047 3.1 70 20:58 23.11.2019
3891 Haze 29 1015 62 8047 3.1 70 20:37 23.11.2019
3892 Haze 29 1015 62 8047 3.1 70 20:37 23.11.2019
3893 Rain 29 1015 62 8047 3.1 70 20:18 23.11.2019
3894 Rain 29 1016 62 8047 1.5 350 19:55 23.11.2019
3895 Rain 29 1016 62 8047 1.5 350 19:36 23.11.2019
3896 Rain 29 1016 62 8047 1.5 350 19:36 23.11.2019
3897 Haze 28 1016 62 8047 1.5 350 19:18 23.11.2019
3898 Clouds 28 1016 65 6437 1 10 18:40 23.11.2019
3899 Clouds 28 1016 65 6437 1 10 18:21 23.11.2019
3900 Clouds 27 1017 69 6437 2.51 8 17:55 23.11.2019
3901 Clouds 27 1017 69 6437 2.51 8 17:37 23.11.2019
3902 Clouds 27 1017 69 6437 1.53 3 17:19 23.11.2019
3903 Mist 25 1017 94 4828 1.53 3 16:55 23.11.2019
3904 Mist 24 1017 94 4828 1.53 3 16:36 23.11.2019
3905 Mist 24 1017 94 4828 1.53 3 16:36 23.11.2019
3906 Mist 24 1017 94 4828 1.53 3 16:18 23.11.2019
3907 Mist 23 1016 100 4023 1.53 3 15:56 23.11.2019
3908 Mist 22 1016 100 4023 1.53 3 15:37 23.11.2019
3909 Mist 22 1016 100 4023 1.53 3 15:18 23.11.2019
3910 Mist 21 1015 94 4023 1.53 3 14:42 23.11.2019
3911 Mist 21 1015 94 3219 1.85 45 14:21 23.11.2019
3912 Mist 20 1014 100 4828 1.85 45 13:57 23.11.2019
3913 Mist 21 1014 100 4828 1.85 45 13:39 23.11.2019
3914 Mist 20 1014 100 4828 2.33 61 13:18 23.11.2019
3915 Mist 20 1014 100 4828 2.33 61 12:44 23.11.2019
3916 Rain 21 1012 83 0 2.33 61 12:24 23.11.2019
3917 Rain 21 1012 82 0 2.33 61 11:45 23.11.2019
3918 Rain 21 1012 82 0 2.33 61 11:24 23.11.2019
3919 Rain 22 1012 82 0 2.38 60 10:57 23.11.2019
3920 Rain 22 1012 82 0 2.38 60 10:39 23.11.2019
3921 Rain 22 1012 82 0 2.38 60 10:18 23.11.2019
3922 Rain 22 1012 82 0 2.38 60 09:41 23.11.2019
3923 Rain 22 1012 82 0 2.38 60 09:18 23.11.2019
3924 Rain 22 1012 82 0 2.38 60 08:41 23.11.2019
3925 Rain 22 1012 82 0 2.38 60 08:41 23.11.2019
3926 Rain 22 1012 82 0 2.38 60 08:41 23.11.2019
3927 Clouds 22 1013 83 0 1.98 33 08:19 23.11.2019
3928 Clouds 22 1013 83 0 1.98 33 07:42 23.11.2019
3929 Clouds 21 1013 82 0 1.98 33 07:21 23.11.2019
3930 Clouds 22 1015 94 9656 1.98 33 06:42 23.11.2019
3931 Clouds 22 1015 94 9656 1.98 33 06:19 23.11.2019
3932 Clouds 22 1014 94 11265 1.98 33 05:45 23.11.2019
3933 Clouds 22 1014 94 11265 1.98 33 05:26 23.11.2019
3934 Clouds 23 1014 88 11265 2.58 61 04:39 23.11.2019
3935 Clouds 23 1014 88 11265 2.58 61 04:21 23.11.2019
3936 Clear 24 1012 83 9656 2.58 61 02:39 23.11.2019
3937 Clouds 24 1011 78 9656 2.04 87 01:42 23.11.2019
3938 Clouds 25 1011 74 9656 1.87 95 00:50 23.11.2019
3939 Clouds 26 1011 74 9656 1.87 95 00:24 23.11.2019
3940 Clouds 26 1011 74 9656 1.87 95 00:23 23.11.2019
3941 Clouds 26 1011 74 9656 1.87 95 00:22 23.11.2019
3942 Clouds 26 1011 74 9656 1.87 95 00:22 23.11.2019
3943 Clouds 27 1011 65 9656 1 110 23:59 22.11.2019
3944 Clouds 27 1011 65 9656 1 110 23:37 22.11.2019
3945 Clouds 27 1011 65 9656 1 110 23:19 22.11.2019
3946 Clouds 27 1011 61 8047 1 90 22:57 22.11.2019
3947 Clouds 28 1011 61 8047 1 90 22:37 22.11.2019
3948 Clouds 28 1011 61 8047 1 90 22:18 22.11.2019
3949 Clouds 28 1012 65 8047 3.1 50 21:55 22.11.2019
3950 Clouds 28 1012 65 8047 3.1 50 21:36 22.11.2019
3951 Clouds 28 1012 65 8047 3.1 50 21:18 22.11.2019
3952 Clouds 28 1013 61 6437 2.6 160 20:40 22.11.2019
3953 Clouds 28 1013 61 6437 2.6 160 20:22 22.11.2019
3954 Clouds 27 1014 65 8047 1.5 160 19:54 22.11.2019
3955 Clouds 27 1014 65 8047 1.5 160 19:36 22.11.2019
3956 Clouds 27 1014 65 8047 1.5 160 19:18 22.11.2019
3957 Clouds 28 1015 65 8047 2.6 170 18:38 22.11.2019
3958 Clouds 28 1015 65 8047 2.6 170 18:20 22.11.2019
3959 Clear 26 1016 78 8047 2.48 117 17:42 22.11.2019
3960 Clear 26 1016 78 8047 2.27 208 17:23 22.11.2019
3961 Mist 25 1015 88 8047 2.27 208 16:56 22.11.2019
3962 Mist 25 1015 88 8047 2.27 208 16:37 22.11.2019
3963 Mist 24 1015 88 8047 2.27 208 16:19 22.11.2019
3964 Mist 21 1015 100 6437 2.27 208 15:39 22.11.2019
3965 Mist 21 1015 100 6437 2.27 208 15:20 22.11.2019
3966 Mist 20 1014 93 4828 2.27 208 14:55 22.11.2019
3967 Mist 20 1014 93 4828 2.27 208 14:55 22.11.2019
3968 Mist 19 1014 93 4828 2.27 208 14:37 22.11.2019
3969 Mist 19 1014 93 4828 2.1 214 14:18 22.11.2019
3970 Mist 19 1013 100 9656 2.1 214 13:39 22.11.2019
3971 Mist 19 1013 100 9656 2.13 208 13:20 22.11.2019
3972 Mist 19 1013 100 9656 2.13 208 13:20 22.11.2019
3973 Clouds 19 1012 84 0 2.13 208 12:58 22.11.2019
3974 Clouds 19 1012 84 0 2.13 208 12:40 22.11.2019
3975 Clouds 19 1011 83 0 2.13 208 12:20 22.11.2019
3976 Clouds 19 1011 83 0 2.13 208 11:58 22.11.2019
3977 Clouds 19 1011 83 0 2.13 208 11:58 22.11.2019
3978 Clouds 19 1011 83 0 2.13 208 11:37 22.11.2019
3979 Clear 19 1011 83 0 1.8 194 11:19 22.11.2019
3980 Clear 19 1011 83 0 1.8 194 10:55 22.11.2019
3981 Clear 19 1011 83 0 0.45 242 10:37 22.11.2019
3982 Clear 19 1011 83 0 0.45 242 10:19 22.11.2019
3983 Clear 19 1011 83 0 1.8 194 09:41 22.11.2019
3984 Clear 20 1012 83 0 1.8 194 09:22 22.11.2019
3985 Clear 20 1012 83 0 1.8 194 08:59 22.11.2019
3986 Clear 20 1012 83 0 1.8 194 08:39 22.11.2019
3987 Clear 20 1012 83 0 2.66 127 08:21 22.11.2019
3988 Clear 20 1013 83 0 2.27 136 07:43 22.11.2019
3989 Clear 20 1013 83 0 2.27 136 07:43 22.11.2019
3990 Clear 21 1013 83 0 2.27 136 07:21 22.11.2019
3991 Clear 21 1015 94 11265 2.27 136 06:48 22.11.2019
3992 Clear 20 1015 94 11265 2.27 136 06:27 22.11.2019
3993 Clear 20 1016 94 11265 2.27 136 05:37 22.11.2019
3994 Clear 22 1015 88 11265 2.1 119 03:34 22.11.2019
3995 Clear 23 1014 83 11265 2.1 119 02:46 22.11.2019
3996 Clear 24 1014 83 11265 2.1 119 02:26 22.11.2019
3997 Clouds 24 1014 83 11265 2.35 81 01:43 22.11.2019
3998 Clouds 24 1014 83 11265 2.34 89 01:18 22.11.2019
3999 Clouds 25 1013 69 11265 2.34 89 00:45 22.11.2019
4000 Clouds 25 1013 69 11265 2.34 89 00:22 22.11.2019
4001 Clouds 27 1013 61 11265 2.34 89 23:44 21.11.2019
4002 Clouds 27 1013 61 11265 2.34 89 23:25 21.11.2019
4003 Clouds 27 1013 58 9656 1 120 22:57 21.11.2019
4004 Clouds 28 1013 58 9656 1 120 22:38 21.11.2019
4005 Clouds 28 1013 58 9656 1 120 22:20 21.11.2019
4006 Clouds 27 1014 61 9656 1 140 21:55 21.11.2019
4007 Clouds 27 1014 61 9656 1 140 21:36 21.11.2019
4008 Clouds 27 1014 61 9656 1 140 21:18 21.11.2019
4009 Haze 28 1014 61 6437 1.5 140 20:57 21.11.2019
4010 Haze 28 1014 61 6437 1.5 140 20:37 21.11.2019
4011 Haze 28 1014 61 6437 1.5 140 20:18 21.11.2019
4012 Haze 27 1015 69 6437 1.95 116 19:56 21.11.2019
4013 Haze 27 1015 69 6437 1.95 116 19:37 21.11.2019
4014 Haze 27 1015 69 6437 1.95 116 19:19 21.11.2019
4015 Haze 26 1016 69 6437 1.5 130 18:42 21.11.2019
4016 Haze 26 1016 69 6437 1.5 130 18:42 21.11.2019
4017 Haze 26 1016 69 6437 1.5 130 18:21 21.11.2019
4018 Haze 26 1016 73 4828 1.5 200 17:58 21.11.2019
4019 Haze 26 1016 73 4828 1.5 200 17:39 21.11.2019
4020 Haze 25 1016 73 4828 1.5 200 17:21 21.11.2019
4021 Mist 23 1016 88 4828 2.61 196 16:57 21.11.2019
4022 Mist 23 1016 88 4828 2.61 196 16:39 21.11.2019
4023 Mist 23 1016 88 4828 2.61 196 16:20 21.11.2019
4024 Mist 20 1016 100 3219 2.61 196 15:44 21.11.2019
4025 Mist 20 1016 100 3219 2.61 196 15:22 21.11.2019
4026 Mist 19 1016 93 3219 2.61 196 14:59 21.11.2019
4027 Mist 19 1016 93 3219 2.61 196 14:38 21.11.2019
4028 Mist 19 1016 93 3219 2.47 204 14:20 21.11.2019
4029 Clear 18 1015 93 8047 2.47 204 13:57 21.11.2019
4030 Clear 18 1015 93 8047 2.47 204 13:37 21.11.2019
4031 Clear 18 1015 93 8047 2.52 199 13:19 21.11.2019
4032 Clear 19 1013 82 0 2.52 199 12:41 21.11.2019
4033 Clear 19 1013 82 0 2.52 199 12:23 21.11.2019
4034 Clear 19 1013 82 0 0.45 244 11:56 21.11.2019
4035 Clear 19 1013 81 0 0.45 244 11:37 21.11.2019
4036 Clear 19 1013 81 0 0.45 244 11:37 21.11.2019
4037 Clear 19 1013 81 0 0.45 244 11:37 21.11.2019
4038 Clear 19 1013 81 0 0.45 244 11:19 21.11.2019
4039 Clear 19 1013 80 0 2.47 186 10:43 21.11.2019
4040 Clear 19 1013 81 0 0.45 244 10:24 21.11.2019
4041 Clear 20 1013 81 0 2.47 186 09:59 21.11.2019
4042 Clear 20 1013 81 0 2.47 186 09:59 21.11.2019
4043 Clear 19 1013 81 0 2.47 186 09:40 21.11.2019
4044 Clear 19 1013 81 0 2.47 186 09:22 21.11.2019
4045 Clear 20 1014 80 0 2.47 186 08:44 21.11.2019
4046 Clear 21 1014 80 0 2.47 186 08:24 21.11.2019
4047 Clouds 20 1014 79 0 2.49 117 07:46 21.11.2019
4048 Clouds 21 1014 79 0 2.49 117 07:20 21.11.2019
4049 Clouds 21 1016 83 11265 2.49 117 06:58 21.11.2019
4050 Clouds 22 1016 83 11265 2.49 117 06:37 21.11.2019
4051 Clouds 21 1016 83 11265 2.49 117 06:19 21.11.2019
4052 Clear 23 1016 78 11265 3.82 97 03:42 21.11.2019
4053 Clear 23 1015 78 11265 3.82 97 02:42 21.11.2019
4054 Clear 23 1015 78 11265 3.82 97 02:24 21.11.2019
4055 Clouds 24 1014 73 9656 3.35 105 01:49 21.11.2019
4056 Clouds 24 1014 73 9656 3.35 105 01:49 21.11.2019
4057 Clouds 24 1014 73 9656 3.37 107 01:20 21.11.2019
4058 Clouds 25 1014 69 9656 2.1 110 00:38 21.11.2019
4059 Clouds 25 1014 69 9656 2.1 110 00:20 21.11.2019
4060 Clouds 26 1014 65 9656 1.5 110 23:46 20.11.2019
4061 Clouds 26 1014 65 9656 1.5 110 23:21 20.11.2019
4062 Clouds 27 1014 61 11265 3.6 100 22:58 20.11.2019
4063 Clouds 27 1014 61 11265 3.6 100 22:38 20.11.2019
4064 Clouds 27 1014 61 11265 3.6 100 22:19 20.11.2019
4065 Clouds 27 1014 61 11265 2.6 100 21:58 20.11.2019
4066 Clouds 27 1014 61 11265 2.6 100 21:39 20.11.2019
4067 Clouds 27 1014 61 11265 2.6 100 21:20 20.11.2019
4068 Clouds 27 1015 65 11265 2.88 92 20:57 20.11.2019
4069 Clouds 26 1015 65 11265 2.88 92 20:38 20.11.2019
4070 Clouds 26 1015 65 11265 1.99 150 20:20 20.11.2019
4071 Clouds 26 1015 65 11265 1.99 150 20:20 20.11.2019
4072 Clouds 26 1016 69 9656 1.5 160 19:56 20.11.2019
4073 Clouds 26 1016 69 9656 1.5 160 19:37 20.11.2019
4074 Clouds 26 1016 69 9656 1.5 160 19:37 20.11.2019
4075 Clouds 26 1016 69 9656 1.5 160 19:18 20.11.2019
4076 Clouds 26 1016 69 9656 1.5 160 19:18 20.11.2019
4077 Clouds 25 1017 73 9656 1 200 18:58 20.11.2019
4078 Clouds 25 1017 73 9656 1 200 18:38 20.11.2019
4079 Clouds 25 1017 73 9656 1 200 18:20 20.11.2019
4080 Clouds 24 1018 78 8047 2.1 180 17:55 20.11.2019
4081 Clouds 24 1018 78 8047 2.1 180 17:37 20.11.2019
4082 Clouds 24 1018 78 8047 2.1 180 17:19 20.11.2019
4083 Clouds 23 1017 83 8047 1.5 180 16:43 20.11.2019
4084 Clouds 23 1017 83 8047 1.5 180 16:21 20.11.2019
4085 Clouds 22 1017 94 8047 3.1 198 15:58 20.11.2019
4086 Clouds 22 1017 94 8047 3.1 198 15:40 20.11.2019
4087 Clouds 21 1017 94 8047 3.1 198 15:20 20.11.2019
4088 Clouds 21 1016 100 8047 3.1 198 14:58 20.11.2019
4089 Clouds 21 1016 100 8047 3.1 198 14:39 20.11.2019
4090 Clouds 21 1016 100 8047 3.1 198 14:39 20.11.2019
4091 Clouds 21 1016 100 8047 2.22 199 14:21 20.11.2019
4092 Clouds 21 1016 100 8047 2.22 199 13:57 20.11.2019
4093 Clouds 20 1016 100 8047 2.22 199 13:38 20.11.2019
4094 Clouds 20 1016 100 8047 2.21 185 13:19 20.11.2019
4095 Clouds 21 1014 82 0 2.21 185 12:42 20.11.2019
4096 Clouds 21 1014 82 0 2.21 185 12:24 20.11.2019
4097 Clouds 21 1013 81 0 0.45 198 11:57 20.11.2019
4098 Clouds 21 1013 81 0 0.45 198 11:38 20.11.2019
4099 Clouds 21 1013 81 0 2.68 186 11:20 20.11.2019
4100 Clouds 21 1013 81 0 0.45 198 10:55 20.11.2019
4101 Clouds 21 1014 81 0 0.45 238 10:36 20.11.2019
4102 Clouds 21 1014 81 0 0.45 238 10:18 20.11.2019
4103 Clouds 21 1013 80 0 0.45 238 09:42 20.11.2019
4104 Clouds 21 1013 80 0 1.34 259 09:21 20.11.2019
4105 Clouds 21 1014 80 0 0.89 244 08:54 20.11.2019
4106 Clouds 22 1014 78 0 0.89 244 08:36 20.11.2019
4107 Clouds 22 1014 78 0 2.69 160 08:18 20.11.2019
4108 Clouds 22 1014 79 0 2.69 160 07:40 20.11.2019
4109 Clouds 22 1014 78 0 2.69 160 07:21 20.11.2019
4110 Clouds 22 1017 88 11265 2.69 160 06:45 20.11.2019
4111 Clouds 23 1017 88 11265 2.69 160 06:19 20.11.2019
4112 Clouds 23 1017 88 11265 4.59 103 04:51 20.11.2019
4113 Clouds 24 1016 78 11265 4.59 103 02:47 20.11.2019
4114 Clouds 24 1015 78 11265 1.5 90 01:52 20.11.2019
4115 Clouds 24 1015 78 11265 1.5 90 01:20 20.11.2019
4116 Clear 25 1014 69 11265 3.1 90 00:35 20.11.2019
4117 Clouds 26 1014 61 11265 3.1 90 23:43 19.11.2019
4118 Clouds 27 1014 61 11265 3.1 90 23:24 19.11.2019
4119 Clouds 28 1014 61 11265 3.6 80 22:56 19.11.2019
4120 Clouds 28 1014 61 11265 3.6 80 22:38 19.11.2019
4121 Clouds 28 1014 61 11265 3.6 80 22:18 19.11.2019
4122 Clouds 28 1014 58 11265 4.23 96 21:55 19.11.2019
4123 Clouds 28 1014 58 11265 4.23 96 21:37 19.11.2019
4124 Clouds 28 1014 58 11265 4.23 96 21:19 19.11.2019
4125 Clouds 28 1015 61 11265 4.6 180 20:55 19.11.2019
4126 Clouds 28 1015 61 11265 4.6 180 20:36 19.11.2019
4127 Clouds 28 1015 61 11265 4.6 180 20:36 19.11.2019
4128 Clouds 28 1015 61 11265 4.6 180 20:36 19.11.2019
4129 Clouds 28 1015 61 11265 4.6 180 20:36 19.11.2019
4130 Clouds 28 1015 61 11265 4.6 180 20:18 19.11.2019
4131 Clouds 27 1016 61 11265 4.6 180 19:54 19.11.2019
4132 Clouds 27 1016 61 11265 4.6 180 19:36 19.11.2019
4133 Clouds 27 1016 61 11265 4.6 180 19:18 19.11.2019
4134 Clouds 26 1017 69 9656 4.1 170 18:41 19.11.2019
4135 Clouds 26 1017 69 9656 4.1 170 18:21 19.11.2019
4136 Clouds 26 1017 69 9656 4.1 170 18:21 19.11.2019
4137 Clouds 25 1017 78 9656 3.1 180 17:58 19.11.2019
4138 Clouds 25 1017 78 9656 3.1 180 17:58 19.11.2019
4139 Clouds 25 1017 78 9656 3.1 180 17:40 19.11.2019
4140 Clouds 25 1017 78 9656 3.1 180 17:20 19.11.2019
4141 Clouds 25 1017 78 9656 3.1 180 17:20 19.11.2019
4142 Clouds 23 1017 94 9656 3.18 196 16:59 19.11.2019
4143 Clouds 23 1017 94 9656 3.18 196 16:40 19.11.2019
4144 Clouds 23 1017 94 9656 3.18 196 16:20 19.11.2019
4145 Clouds 22 1016 94 9656 3.18 196 15:47 19.11.2019
4146 Clouds 21 1016 94 9656 3.18 196 15:27 19.11.2019
4147 Clouds 21 1015 100 11265 3.18 196 14:58 19.11.2019
4148 Clouds 21 1015 100 11265 3.18 196 14:39 19.11.2019
4149 Clouds 20 1015 100 11265 3.18 208 14:21 19.11.2019
4150 Clouds 20 1015 100 11265 3.18 208 13:42 19.11.2019
4151 Clouds 20 1015 100 11265 3.18 208 13:42 19.11.2019
4152 Clouds 20 1015 100 11265 3.18 208 13:42 19.11.2019
4153 Clouds 20 1015 100 11265 3.05 211 13:22 19.11.2019
4154 Clouds 21 1013 82 0 1.34 208 12:58 19.11.2019
4155 Clouds 21 1013 82 0 0.89 184 12:39 19.11.2019
4156 Clouds 21 1013 82 0 0.89 184 12:21 19.11.2019
4157 Clouds 21 1013 82 0 0.45 181 11:56 19.11.2019
4158 Clouds 21 1013 82 0 0.45 181 11:56 19.11.2019
4159 Clouds 21 1013 82 0 0.45 181 11:37 19.11.2019
4160 Clouds 21 1013 81 0 0.45 181 11:18 19.11.2019
4161 Clouds 21 1014 94 9656 2.08 165 10:44 19.11.2019
4162 Clouds 21 1014 94 9656 2.08 165 10:21 19.11.2019
4163 Clouds 21 1015 94 9656 2.08 165 09:43 19.11.2019
4164 Clouds 21 1015 94 9656 2.08 165 09:21 19.11.2019
4165 Clouds 22 1015 88 9656 2.08 165 08:58 19.11.2019
4166 Clouds 22 1015 88 9656 2.08 165 08:39 19.11.2019
4167 Clouds 22 1015 88 9656 1.35 137 08:21 19.11.2019
4168 Clouds 21 1015 94 9656 1.48 138 07:55 19.11.2019
4169 Clouds 21 1015 94 9656 1.48 138 07:36 19.11.2019
4170 Clouds 21 1015 94 9656 1.48 138 07:18 19.11.2019
4171 Clouds 21 1015 94 9656 1.48 138 06:42 19.11.2019
4172 Clouds 21 1015 94 9656 1.48 138 06:18 19.11.2019
4173 Clear 22 1015 88 9656 2.63 100 05:18 19.11.2019
4174 Clear 22 1015 88 9656 2.63 100 03:39 19.11.2019
4175 Clear 22 1015 88 9656 2.63 100 03:19 19.11.2019
4176 Clear 22 1014 83 9656 2.63 100 02:45 19.11.2019
4177 Clear 23 1014 78 11265 1.5 90 01:48 19.11.2019
4178 Clear 24 1013 73 11265 3.1 80 00:46 19.11.2019
4179 Clear 25 1013 73 11265 3.1 80 00:19 19.11.2019
4180 Clouds 26 1013 69 11265 4.1 50 23:39 18.11.2019
4181 Clouds 26 1013 69 11265 4.1 50 23:19 18.11.2019
4182 Clouds 27 1013 65 11265 3.6 70 22:46 18.11.2019
4183 Clouds 27 1013 65 11265 3.6 70 22:24 18.11.2019
4184 Clouds 27 1014 65 11265 3.6 40 21:57 18.11.2019
4185 Clouds 27 1014 65 11265 3.6 40 21:39 18.11.2019
4186 Clouds 27 1014 65 11265 3.6 40 21:20 18.11.2019
4187 Clouds 28 1014 58 11265 2.6 30 20:57 18.11.2019
4188 Clouds 28 1014 58 11265 2.6 30 20:57 18.11.2019
4189 Clouds 28 1014 58 11265 2.6 30 20:39 18.11.2019
4190 Clouds 27 1014 58 11265 2.6 30 20:18 18.11.2019
4191 Clouds 26 1015 69 9656 1 10 19:56 18.11.2019
4192 Clouds 27 1015 69 9656 1 10 19:37 18.11.2019
4193 Clouds 27 1015 69 9656 1 10 19:19 18.11.2019
4194 Clouds 27 1015 69 9656 1 10 19:19 18.11.2019
4195 Clouds 26 1017 73 9656 2.21 115 18:55 18.11.2019
4196 Clouds 26 1017 73 9656 2.21 115 18:37 18.11.2019
4197 Clouds 26 1017 73 9656 2.21 115 18:19 18.11.2019
4198 -273 0 0 0 0 0 17:54 18.11.2019
4199 Clouds 25 1017 73 11265 2.1 320 17:36 18.11.2019
4200 Clouds 25 1017 73 11265 2.1 320 17:18 18.11.2019
4201 Clouds 24 1017 83 9656 2.6 320 16:42 18.11.2019
4202 Clouds 24 1017 83 9656 2.6 320 16:23 18.11.2019
4203 Clouds 23 1017 94 9656 1.52 95 15:56 18.11.2019
4204 Clouds 22 1017 94 9656 1.52 95 15:37 18.11.2019
4205 Clouds 22 1017 94 9656 1.52 95 15:19 18.11.2019
4206 Clouds 20 1016 100 11265 1.52 95 14:43 18.11.2019
4207 Clouds 20 1016 100 11265 1.52 95 14:24 18.11.2019
4208 Clouds 20 1016 94 9656 1.48 55 13:56 18.11.2019
4209 Clouds 20 1016 94 9656 1.48 55 13:37 18.11.2019
4210 Clouds 20 1016 94 9656 1.48 55 13:37 18.11.2019
4211 Clouds 20 1016 94 9656 1.48 55 13:37 18.11.2019
4212 Clouds 20 1016 94 9656 0.97 50 13:19 18.11.2019
4213 Clouds 20 1016 94 9656 0.97 50 13:19 18.11.2019
4214 Rain 20 1014 84 0 0.45 105 12:39 18.11.2019
4215 Rain 19 1014 83 0 0.89 105 12:19 18.11.2019
4216 Rain 19 1013 83 0 0.45 105 11:45 18.11.2019
4217 Rain 20 1013 83 0 0.97 50 11:27 18.11.2019
4218 Rain 20 1013 83 0 0.97 50 11:27 18.11.2019
4219 Clouds 20 1013 83 0 0.85 97 10:59 18.11.2019
4220 Clouds 20 1013 83 0 0.85 97 10:40 18.11.2019
4221 Clouds 20 1013 83 0 0.45 105 10:22 18.11.2019
4222 Clouds 20 1013 83 0 0.45 105 09:56 18.11.2019
4223 Clouds 20 1013 83 0 0.85 97 09:37 18.11.2019
4224 Clouds 20 1013 83 0 0.85 97 09:18 18.11.2019
4225 Clouds 20 1013 83 0 0.85 97 09:18 18.11.2019
4226 Clouds 20 1013 83 0 0.85 97 08:44 18.11.2019
4227 Clouds 20 1013 82 0 0.48 77 08:21 18.11.2019
4228 Clouds 21 1014 82 0 0.48 77 07:48 18.11.2019
4229 Clouds 21 1014 82 0 0.48 77 07:29 18.11.2019
4230 Clouds 21 1016 94 9656 0.48 77 06:56 18.11.2019
4231 Clouds 21 1016 94 9656 0.48 77 06:37 18.11.2019
4232 Clouds 21 1016 94 9656 0.48 77 06:18 18.11.2019
4233 Clear 21 1016 94 9656 2.42 83 04:58 18.11.2019
4234 Clouds 22 1015 83 11265 2.42 83 02:59 18.11.2019
4235 Clouds 23 1014 83 11265 2.48 63 01:31 18.11.2019
4236 Clouds 24 1014 78 11265 1 60 00:35 18.11.2019
4237 Clouds 24 1014 78 11265 2.1 80 23:45 17.11.2019
4238 Clouds 24 1014 78 11265 2.1 80 23:25 17.11.2019
4239 Clouds 25 1014 69 11265 2.1 70 22:59 17.11.2019
4240 Clouds 25 1014 69 11265 2.1 70 22:40 17.11.2019
4241 Clouds 25 1014 69 11265 2.1 70 22:22 17.11.2019
4242 Clouds 25 1014 69 11265 3.1 40 21:59 17.11.2019
4243 Clouds 25 1014 69 11265 3.1 40 21:40 17.11.2019
4244 Clouds 25 1014 69 11265 3.1 40 21:19 17.11.2019
4245 Clouds 25 1015 69 11265 1.5 110 20:57 17.11.2019
4246 Clouds 25 1015 69 11265 1.5 110 20:38 17.11.2019
4247 Clouds 25 1015 69 11265 1.5 110 20:19 17.11.2019
4248 Clouds 26 1016 61 11265 3.6 110 19:56 17.11.2019
4249 Clouds 26 1016 61 11265 3.6 110 19:56 17.11.2019
4250 Clouds 26 1016 61 11265 3.6 110 19:37 17.11.2019
4251 Clouds 26 1016 61 11265 3.6 110 19:19 17.11.2019
4252 Clouds 26 1017 65 11265 1.04 352 18:55 17.11.2019
4253 Clouds 26 1017 65 11265 1.04 352 18:37 17.11.2019
4254 Clouds 26 1017 65 11265 1.04 352 18:18 17.11.2019
4255 Clouds 24 1018 69 9656 1.04 352 17:57 17.11.2019
4256 Clouds 24 1018 69 9656 1.04 352 17:57 17.11.2019
4257 Clouds 24 1018 69 9656 1.04 352 17:39 17.11.2019
4258 Clouds 24 1018 69 9656 2.27 296 17:20 17.11.2019
4259 Clouds 23 1018 78 9656 2.27 296 16:57 17.11.2019
4260 Clouds 23 1018 78 9656 2.27 296 16:39 17.11.2019
4261 Clouds 22 1018 78 9656 2.27 296 16:21 17.11.2019
4262 Clouds 21 1017 88 9656 2.27 296 15:55 17.11.2019
4263 Clouds 21 1017 88 9656 2.27 296 15:36 17.11.2019
4264 Clouds 21 1017 88 9656 2.27 296 15:18 17.11.2019
4265 Clouds 20 1017 93 9656 2.27 296 14:55 17.11.2019
4266 Clouds 20 1017 93 9656 2.27 296 14:37 17.11.2019
4267 Clouds 20 1017 93 9656 2.6 307 14:18 17.11.2019
4268 Clouds 19 1017 93 8047 2.6 307 13:41 17.11.2019
4269 Clouds 19 1017 93 8047 2.21 297 13:22 17.11.2019
4270 Rain 19 1015 79 0 0.45 216 13:00 17.11.2019
4271 Rain 19 1015 79 0 0.45 216 12:38 17.11.2019
4272 Rain 19 1015 79 0 0.89 216 12:19 17.11.2019
4273 Rain 19 1015 79 0 0.89 215 11:56 17.11.2019
4274 Rain 19 1015 78 0 2.21 297 11:38 17.11.2019
4275 Rain 19 1015 79 0 0.45 215 11:19 17.11.2019
4276 Rain 19 1015 79 0 0.89 215 10:41 17.11.2019
4277 Rain 19 1015 79 0 0.89 215 10:23 17.11.2019
4278 Rain 19 1016 78 0 0.89 213 09:43 17.11.2019
4279 Rain 20 1016 77 0 1.34 218 09:25 17.11.2019
4280 Rain 20 1016 75 0 0.89 241 08:58 17.11.2019
4281 Rain 20 1016 75 0 1.34 259 08:37 17.11.2019
4282 Rain 21 1017 74 0 0.89 261 08:19 17.11.2019
4283 Rain 21 1017 73 0 0.89 261 07:45 17.11.2019
4284 Rain 21 1017 73 0 0.89 261 07:22 17.11.2019
4285 Clouds 21 1020 77 11265 2.43 347 06:56 17.11.2019
4286 Clouds 21 1020 77 11265 2.43 347 06:30 17.11.2019
4287 Clouds 21 1020 77 11265 1.5 360 05:39 17.11.2019
4288 Clouds 21 1020 77 11265 2.1 350 04:20 17.11.2019
4289 Clouds 21 1019 73 11265 2.1 350 03:40 17.11.2019
4290 Clouds 21 1019 73 11265 2.1 350 03:22 17.11.2019
4291 Clouds 22 1019 68 11265 3.1 10 02:19 17.11.2019
4292 Clouds 22 1019 68 11265 5.1 20 01:22 17.11.2019
4293 Clouds 23 1018 60 11265 6.2 360 00:43 17.11.2019
4294 Clouds 23 1018 60 11265 6.2 360 00:21 17.11.2019
4295 Clouds 23 1018 69 11265 3.6 360 23:42 16.11.2019
4296 Clouds 23 1018 69 11265 3.6 360 23:19 16.11.2019
4297 Clouds 24 1018 64 11265 5.7 20 22:56 16.11.2019
4298 Clouds 24 1018 64 11265 5.7 20 22:38 16.11.2019
4299 Clouds 24 1018 64 11265 5.7 20 22:18 16.11.2019
4300 Clouds 23 1019 69 11265 5.1 30 21:41 16.11.2019
4301 Clouds 24 1019 69 11265 5.1 30 21:23 16.11.2019
4302 Clouds 24 1020 60 11265 6.2 10 20:58 16.11.2019
4303 Clouds 24 1020 60 11265 6.2 10 20:39 16.11.2019
4304 Clouds 24 1020 60 11265 6.2 10 20:19 16.11.2019
4305 Clouds 24 1021 57 11265 6.7 10 19:56 16.11.2019
4306 Clouds 24 1021 57 11265 6.7 10 19:37 16.11.2019
4307 Clouds 24 1021 57 11265 6.7 10 19:19 16.11.2019
4308 Clouds 24 1022 60 11265 3.1 360 18:43 16.11.2019
4309 Clouds 24 1022 60 11265 3.1 360 18:25 16.11.2019
4310 Clouds 23 1022 69 11265 2.1 340 17:56 16.11.2019
4311 Clouds 23 1022 69 11265 2.1 340 17:56 16.11.2019
4312 Clouds 23 1022 69 11265 2.1 340 17:37 16.11.2019
4313 Clouds 23 1022 69 11265 2.1 340 17:18 16.11.2019
4314 Clouds 22 1022 68 11265 1.5 340 16:45 16.11.2019
4315 Clouds 22 1022 68 11265 1.5 340 16:27 16.11.2019
4316 Clouds 21 1022 68 11265 1.5 330 15:56 16.11.2019
4317 Clouds 21 1022 68 11265 1.5 330 15:37 16.11.2019
4318 Clouds 21 1022 68 11265 1.5 330 15:19 16.11.2019
4319 Clouds 20 1021 72 9656 1 340 14:41 16.11.2019
4320 Clouds 20 1021 72 9656 1 340 14:22 16.11.2019
4321 Clouds 20 1021 72 9656 1 340 14:22 16.11.2019
4322 Clouds 20 1021 68 11265 3.6 360 13:57 16.11.2019
4323 Clouds 20 1021 68 11265 3.6 360 13:39 16.11.2019
4324 Clouds 20 1021 68 11265 3.6 360 13:39 16.11.2019
4325 Clouds 20 1021 68 11265 3.6 360 13:19 16.11.2019
4326 Clouds 21 1019 61 0 2.68 331 12:59 16.11.2019
4327 Clouds 21 1019 57 0 4.47 355 12:40 16.11.2019
4328 Clouds 21 1019 59 0 3.58 351 12:20 16.11.2019
4329 Clouds 21 1019 60 0 3.13 351 11:45 16.11.2019
4330 Clouds 21 1019 61 0 4.02 13 11:27 16.11.2019
4331 Clouds 21 1019 65 0 2.68 10 10:57 16.11.2019
4332 Clouds 19 1019 72 0 2.7 308 10:39 16.11.2019
4333 Clouds 19 1019 74 0 2.7 308 10:21 16.11.2019
4334 Clouds 19 1019 76 0 2.7 308 09:44 16.11.2019
4335 Clouds 19 1019 75 0 2.7 308 09:21 16.11.2019
4336 Clouds 19 1019 76 0 2.7 308 08:59 16.11.2019
4337 Clouds 19 1020 76 0 2.7 308 08:39 16.11.2019
4338 Clouds 19 1020 76 0 0.45 350 08:19 16.11.2019
4339 Clouds 19 1020 75 0 1.34 350 07:43 16.11.2019
4340 Clouds 19 1020 75 0 1.34 350 07:43 16.11.2019
4341 Clouds 19 1020 74 0 1.34 340 07:21 16.11.2019
4342 Clouds 20 1023 72 11265 2.1 330 06:54 16.11.2019
4343 Clouds 20 1023 72 11265 2.1 330 06:33 16.11.2019
4344 Clouds 20 1023 72 11265 2.1 340 05:40 16.11.2019
4345 Clouds 21 1023 68 11265 5.1 350 03:49 16.11.2019
4346 Clouds 21 1023 68 11265 5.1 350 03:25 16.11.2019
4347 Clouds 21 1023 68 11265 5.1 350 03:25 16.11.2019
4348 Clouds 22 1021 68 9656 7.2 360 01:52 16.11.2019
4349 Clouds 22 1021 68 9656 7.2 360 01:20 16.11.2019
4350 Clouds 22 1021 68 9656 5.1 360 00:44 16.11.2019
4351 Clouds 22 1021 68 9656 5.1 360 00:25 16.11.2019
4352 Clouds 22 1020 64 9656 7.7 350 23:40 15.11.2019
4353 Clouds 22 1020 64 9656 7.7 350 23:21 15.11.2019
4354 Clouds 22 1020 64 9656 10.3 360 22:55 15.11.2019
4355 Clouds 22 1020 64 9656 10.3 360 22:37 15.11.2019
4356 Clouds 22 1020 64 9656 10.3 360 22:18 15.11.2019
4357 Clouds 23 1021 60 9656 10.3 360 21:42 15.11.2019
4358 Clouds 23 1021 60 9656 10.3 360 21:21 15.11.2019
4359 Sand 23 1021 60 9656 11.3 360 20:59 15.11.2019
4360 Sand 23 1021 60 9656 11.3 360 20:40 15.11.2019
4361 Sand 23 1021 60 9656 11.3 360 20:22 15.11.2019
4362 Sand 23 1021 60 9656 11.3 360 20:22 15.11.2019
4363 Sand 23 1022 64 9656 10.3 350 19:59 15.11.2019
4364 Sand 23 1022 64 9656 10.3 350 19:41 15.11.2019
4365 Sand 23 1022 64 9656 10.3 350 19:21 15.11.2019
4366 Sand 23 1023 60 9656 9.8 360 18:58 15.11.2019
4367 Sand 23 1023 60 9656 9.8 360 18:40 15.11.2019
4368 Sand 23 1023 60 9656 9.8 360 18:21 15.11.2019
4369 Sand 22 1022 64 11265 11.8 350 17:43 15.11.2019
4370 Sand 22 1022 64 11265 11.8 350 17:25 15.11.2019
4371 Smoke 23 1022 68 9656 13.4 360 16:58 15.11.2019
4372 Smoke 23 1022 68 9656 13.4 360 16:58 15.11.2019
4373 Smoke 22 1022 68 9656 13.4 360 16:39 15.11.2019
4374 Smoke 22 1022 68 9656 13.4 360 16:20 15.11.2019
4375 Sand 22 1021 64 11265 12.9 350 15:39 15.11.2019
4376 Sand 22 1021 64 11265 12.9 350 15:39 15.11.2019
4377 Sand 22 1021 64 11265 12.9 350 15:21 15.11.2019
4378 Clouds 22 1021 73 11265 12.9 350 14:58 15.11.2019
4379 Clouds 22 1021 73 11265 12.9 350 14:40 15.11.2019
4380 Clouds 22 1021 73 11265 12.9 350 14:21 15.11.2019
4381 Clouds 22 1020 73 9656 9.3 360 13:59 15.11.2019
4382 Clouds 22 1020 73 9656 9.3 360 13:59 15.11.2019
4383 Clouds 22 1020 73 9656 9.3 360 13:40 15.11.2019
4384 Clouds 22 1020 73 9656 9.3 360 13:21 15.11.2019
4385 Clouds 22 1020 73 9656 9.3 360 13:21 15.11.2019
4386 Rain 22 1019 67 0 9.83 360 12:59 15.11.2019
4387 Rain 22 1019 69 0 8.94 18 12:40 15.11.2019
4388 Rain 22 1018 71 0 11.62 327 12:20 15.11.2019
4389 Rain 22 1018 72 0 10.28 355 11:58 15.11.2019
4390 Rain 22 1018 73 0 8.49 347 11:39 15.11.2019
4391 Clouds 22 1018 72 0 10.73 360 11:20 15.11.2019
4392 Clouds 23 1018 71 0 8.49 355 10:56 15.11.2019
4393 Clouds 23 1018 71 0 8.49 355 10:56 15.11.2019
4394 Clouds 23 1018 73 0 5.81 337 10:38 15.11.2019
4395 Clouds 22 1018 76 0 5.36 344 10:18 15.11.2019
4396 Clouds 21 1018 78 0 0.45 18 09:41 15.11.2019
4397 Clouds 21 1018 78 0 8.05 325 09:20 15.11.2019
4398 Clouds 21 1018 78 0 0.45 281 08:44 15.11.2019
4399 Clouds 21 1018 78 0 0.45 281 08:44 15.11.2019
4400 Clouds 22 1018 76 0 0.45 281 08:23 15.11.2019
4401 Clouds 22 1018 75 0 0.45 281 07:49 15.11.2019
4402 Clouds 22 1018 75 0 0.45 281 07:49 15.11.2019
4403 Clouds 22 1018 75 0 0.45 281 07:28 15.11.2019
4404 Clouds 22 1020 88 11265 2.1 300 06:50 15.11.2019
4405 Clouds 22 1020 88 11265 2.1 300 06:31 15.11.2019
4406 Clouds 23 1020 83 11265 4.6 10 05:48 15.11.2019
4407 Clouds 23 1020 83 11265 4.6 10 05:26 15.11.2019
4408 Clouds 23 1019 83 11265 5.1 10 03:56 15.11.2019
4409 Clouds 23 1019 83 11265 5.1 10 03:24 15.11.2019
4410 Clouds 22 1018 83 11265 6.2 10 02:20 15.11.2019
4411 Clouds 22 1017 83 11265 6.2 20 01:33 15.11.2019
4412 Clouds 23 1016 78 9656 6.2 360 00:54 15.11.2019
4413 Clouds 23 1016 78 9656 6.2 360 00:33 15.11.2019
4414 Clouds 24 1016 73 9656 5.1 30 23:55 14.11.2019
4415 Clouds 24 1016 73 9656 5.1 30 23:29 14.11.2019
4416 Clouds 25 1016 69 9656 4.1 10 22:59 14.11.2019
4417 Clouds 25 1016 69 9656 4.1 10 22:39 14.11.2019
4418 Clouds 25 1016 69 9656 4.1 10 22:21 14.11.2019
4419 Clouds 25 1016 69 9656 2.6 60 21:55 14.11.2019
4420 Clouds 25 1016 69 9656 2.6 60 21:37 14.11.2019
4421 Clouds 25 1016 69 9656 2.6 60 21:19 14.11.2019
4422 Clouds 25 1017 65 9656 3.6 40 20:42 14.11.2019
4423 Clouds 25 1017 65 9656 3.6 40 20:23 14.11.2019
4424 Clouds 25 1017 65 9656 1.5 100 19:59 14.11.2019
4425 Clouds 25 1017 65 9656 1.5 100 19:40 14.11.2019
4426 Clouds 25 1017 65 9656 1.5 100 19:18 14.11.2019
4427 Clouds 25 1017 65 9656 1.5 100 19:18 14.11.2019
4428 Clouds 25 1017 65 9656 1.5 100 19:18 14.11.2019
4429 Clouds 25 1018 65 9656 4.22 351 18:55 14.11.2019
4430 Clouds 25 1016 60 0 1.79 104 18:37 14.11.2019
4431 Clouds 25 1016 60 0 2.24 114 18:18 14.11.2019
4432 Clouds 23 1019 78 9656 2.1 360 17:39 14.11.2019
4433 Clouds 22 1019 78 9656 2.1 360 17:20 14.11.2019
4434 Clouds 22 1019 78 9656 1.5 360 16:58 14.11.2019
4435 Clouds 22 1019 78 9656 1.5 360 16:39 14.11.2019
4436 Clouds 22 1019 78 9656 1.5 360 16:21 14.11.2019
4437 Clouds 20 1018 88 9656 4.74 339 15:59 14.11.2019
4438 Clouds 20 1018 88 9656 4.74 339 15:59 14.11.2019
4439 Clouds 20 1018 88 9656 4.74 339 15:41 14.11.2019
4440 Clouds 20 1018 88 9656 4.74 339 15:22 14.11.2019
4441 Clouds 19 1018 93 9656 4.74 339 14:58 14.11.2019
4442 Clouds 19 1018 93 9656 4.74 339 14:58 14.11.2019
4443 Clouds 19 1018 93 9656 4.74 339 14:40 14.11.2019
4444 Clouds 19 1018 93 9656 4.18 336 14:22 14.11.2019
4445 Clouds 19 1017 93 9656 4.18 336 13:55 14.11.2019
4446 Clouds 19 1017 93 9656 4.18 336 13:36 14.11.2019
4447 Clouds 19 1017 93 9656 3.35 320 13:18 14.11.2019
4448 Clouds 20 1017 87 0 3.35 320 12:45 14.11.2019
4449 Clouds 20 1017 87 0 3.35 320 12:25 14.11.2019
4450 Clouds 20 1017 87 0 3.35 320 11:56 14.11.2019
4451 Clouds 20 1017 87 0 3.35 320 11:38 14.11.2019
4452 Clouds 19 1017 85 0 2.41 300 11:19 14.11.2019
4453 Clouds 19 1017 85 0 2.41 300 10:57 14.11.2019
4454 Clouds 19 1017 85 0 2.41 300 10:37 14.11.2019
4455 Clouds 19 1017 85 0 2.41 300 10:19 14.11.2019
4456 Clouds 19 1017 85 0 2.41 300 09:54 14.11.2019
4457 Clouds 19 1017 85 0 2.41 300 09:54 14.11.2019
4458 Clouds 19 1017 85 0 2.41 300 09:36 14.11.2019
4459 Clouds 19 1017 85 0 2.41 300 09:18 14.11.2019
4460 Clouds 19 1017 85 0 2.41 300 08:41 14.11.2019
4461 Clouds 20 1018 83 0 4.05 313 08:23 14.11.2019
4462 Clouds 20 1018 83 0 4.05 313 07:42 14.11.2019
4463 Clouds 20 1018 83 0 4.05 313 07:24 14.11.2019
4464 Clouds 20 1018 82 11265 4.05 313 06:46 14.11.2019
4465 Clouds 20 1018 82 11265 4.05 313 06:21 14.11.2019
4466 Clouds 20 1019 77 11265 2.6 10 05:40 14.11.2019
4467 Clouds 20 1019 82 11265 3.6 360 04:38 14.11.2019
4468 Clouds 20 1019 82 11265 4.1 360 03:28 14.11.2019
4469 Clouds 20 1018 82 11265 4.6 10 02:38 14.11.2019
4470 Clouds 21 1018 77 11265 5.1 360 01:41 14.11.2019
4471 Clouds 21 1018 77 11265 3.1 360 00:57 14.11.2019
4472 Clouds 21 1018 77 11265 3.1 360 00:38 14.11.2019
4473 Clouds 21 1018 77 11265 3.1 360 00:19 14.11.2019
4474 Clouds 22 1018 73 11265 2.6 360 23:38 13.11.2019
4475 Clouds 22 1018 73 11265 2.6 360 23:20 13.11.2019
4476 Clouds 22 1018 68 11265 6.2 30 22:55 13.11.2019
4477 Clouds 22 1018 68 11265 6.2 30 22:37 13.11.2019
4478 Clouds 22 1018 68 11265 6.2 30 22:19 13.11.2019
4479 Clouds 21 1019 68 9656 3.6 20 21:55 13.11.2019
4480 Clouds 21 1019 68 9656 3.6 20 21:36 13.11.2019
4481 Clouds 21 1019 68 9656 3.6 20 21:18 13.11.2019
4482 Clouds 22 1020 64 9656 3.6 350 20:55 13.11.2019
4483 Clouds 22 1020 64 9656 3.6 350 20:36 13.11.2019
4484 Clouds 22 1020 64 9656 3.6 350 20:18 13.11.2019
4485 Clouds 22 1020 64 9656 3.6 350 20:18 13.11.2019
4486 Clouds 20 1020 77 0 5.76 334 19:42 13.11.2019
4487 Clouds 20 1020 77 0 5.76 334 19:19 13.11.2019
4488 Clouds 22 1022 68 9656 4.1 10 18:56 13.11.2019
4489 Clouds 22 1022 68 9656 4.1 10 18:56 13.11.2019
4490 Clouds 22 1022 68 9656 4.1 10 18:38 13.11.2019
4491 Clouds 22 1022 68 9656 4.1 10 18:19 13.11.2019
4492 Clouds 21 1022 73 11265 5.7 360 17:57 13.11.2019
4493 Clouds 21 1022 73 11265 5.7 360 17:38 13.11.2019
4494 Clouds 21 1022 73 11265 5.7 360 17:19 13.11.2019
4495 Clouds 19 1022 82 11265 3.6 320 16:57 13.11.2019
4496 Clouds 19 1022 82 11265 3.6 320 16:39 13.11.2019
4497 Clouds 19 1022 82 11265 3.6 320 16:21 13.11.2019
4498 Clouds 18 1022 88 11265 1.5 290 15:57 13.11.2019
4499 Clouds 18 1022 88 11265 1.5 290 15:38 13.11.2019
4500 Clouds 18 1022 88 11265 1.5 290 15:19 13.11.2019
4501 Clouds 17 1022 93 11265 7.84 340 14:42 13.11.2019
4502 Clouds 17 1022 93 11265 9.11 352 14:21 13.11.2019
4503 Clouds 17 1021 93 11265 8.03 349 13:56 13.11.2019
4504 Clouds 17 1021 93 11265 8.03 349 13:36 13.11.2019
4505 Clouds 17 1021 93 11265 8.03 349 13:36 13.11.2019
4506 Clouds 17 1021 93 11265 8.03 349 13:18 13.11.2019
4507 Rain 19 1022 83 0 8.03 349 12:42 13.11.2019
4508 Rain 19 1022 83 0 8.03 349 12:24 13.11.2019
4509 Rain 19 1022 83 0 8.03 349 11:58 13.11.2019
4510 Rain 19 1022 83 0 8.03 349 11:38 13.11.2019
4511 Clouds 19 1022 81 0 8.7 349 11:19 13.11.2019
4512 Clouds 19 1022 81 0 8.7 349 10:56 13.11.2019
4513 Clouds 19 1022 81 0 8.7 349 10:38 13.11.2019
4514 Clouds 19 1022 81 0 8.7 349 10:19 13.11.2019
4515 Clouds 19 1022 81 0 8.7 349 09:43 13.11.2019
4516 Clouds 19 1022 81 0 8.7 349 09:21 13.11.2019
4517 Clouds 19 1022 81 0 8.7 349 09:21 13.11.2019
4518 Clouds 19 1022 81 0 8.7 349 09:21 13.11.2019
4519 Clouds 19 1022 81 0 8.7 349 09:21 13.11.2019
4520 Clouds 19 1022 81 0 8.7 349 08:44 13.11.2019
4521 Clouds 20 1022 79 0 8.41 346 08:26 13.11.2019
4522 Clouds 20 1023 75 0 9.69 346 07:59 13.11.2019
4523 Clouds 20 1023 75 0 9.69 346 07:40 13.11.2019
4524 Clouds 20 1023 75 0 9.69 346 07:19 13.11.2019
4525 Clouds 18 1023 82 9656 5.1 360 06:42 13.11.2019
4526 Clouds 18 1023 82 9656 5.1 360 06:19 13.11.2019
4527 Clouds 18 1023 82 9656 5.1 360 06:19 13.11.2019
4528 Clouds 18 1023 82 9656 5.1 360 06:19 13.11.2019
4529 Sand 19 1023 77 9656 7.7 360 05:48 13.11.2019
4530 Sand 19 1023 77 9656 7.7 360 05:22 13.11.2019
4531 Sand 19 1021 68 8047 12.9 10 03:57 13.11.2019
4532 Sand 19 1020 68 8047 10.3 360 01:52 13.11.2019
4533 Sand 19 1020 68 8047 10.3 360 01:27 13.11.2019
4534 Sand 19 1020 68 8047 10.3 360 01:27 13.11.2019
4535 Sand 19 1020 68 8047 10.3 360 01:27 13.11.2019
4536 Sand 21 1019 60 8047 10.3 360 00:43 13.11.2019
4537 Sand 22 1018 60 8047 15.4 10 23:57 12.11.2019
4538 Sand 22 1018 60 8047 15.4 10 23:39 12.11.2019
4539 Sand 22 1018 60 8047 15.4 10 23:19 12.11.2019
4540 Sand 23 1018 56 8047 12.9 360 22:43 12.11.2019
4541 Sand 23 1018 56 8047 12.9 360 22:19 12.11.2019
4542 Clouds 23 1019 60 11265 12.9 360 21:57 12.11.2019
4543 Clouds 23 1019 60 11265 12.9 360 21:38 12.11.2019
4544 Clouds 23 1019 60 11265 12.9 360 21:20 12.11.2019
4545 Rain 21 1020 74 0 16.67 352 20:55 12.11.2019
4546 Clouds 23 1020 73 8047 10.3 360 20:37 12.11.2019
4547 Clouds 23 1020 73 8047 10.3 360 20:37 12.11.2019
4548 Clouds 23 1020 73 8047 10.3 360 20:18 12.11.2019
4549 Clouds 23 1020 73 8047 10.3 360 20:18 12.11.2019
4550 Clouds 23 1020 73 8047 10.3 360 19:55 12.11.2019
4551 Clouds 23 1020 73 8047 10.3 360 19:37 12.11.2019
4552 Mist 22 1020 94 4828 10.3 360 19:18 12.11.2019
4553 Rain 23 1020 94 3219 10.3 350 18:55 12.11.2019
4554 Rain 23 1020 94 3219 10.3 350 18:36 12.11.2019
4555 Rain 23 1020 94 3219 10.3 350 18:18 12.11.2019
4556 Clouds 28 1019 74 11265 7.7 360 17:55 12.11.2019
4557 Clouds 28 1019 74 11265 7.7 360 17:36 12.11.2019
4558 Clouds 28 1019 74 11265 7.7 360 17:36 12.11.2019
4559 Clouds 28 1019 74 11265 7.7 360 17:36 12.11.2019
4560 Clouds 28 1019 74 11265 7.7 360 17:36 12.11.2019
4561 Clouds 28 1019 74 11265 7.7 360 17:36 12.11.2019
4562 Clouds 28 1019 74 11265 7.7 360 17:18 12.11.2019
4563 Clouds 26 1019 88 11265 4.1 360 16:43 12.11.2019
4564 Clouds 26 1019 88 11265 4.1 360 16:24 12.11.2019
4565 Clouds 25 1018 94 11265 1.5 360 15:57 12.11.2019
4566 Clouds 25 1018 94 11265 1.5 360 15:37 12.11.2019
4567 Clouds 25 1018 94 11265 1.5 360 15:18 12.11.2019
4568 Clouds 23 1017 100 11265 7.2 7 14:42 12.11.2019
4569 Clouds 23 1017 100 11265 3.84 14 14:20 12.11.2019
4570 Clouds 23 1016 100 11265 1.5 320 13:58 12.11.2019
4571 Clouds 23 1016 100 11265 1.5 320 13:58 12.11.2019
4572 Clouds 23 1016 100 11265 1.5 320 13:39 12.11.2019
4573 Clouds 23 1016 100 11265 1.5 320 13:19 12.11.2019
4574 Rain 24 1018 87 0 3.78 12 12:58 12.11.2019
4575 Rain 24 1018 87 0 3.78 12 12:39 12.11.2019
4576 Rain 24 1018 87 0 3.78 12 12:18 12.11.2019
4577 Rain 24 1018 87 0 3.78 12 11:43 12.11.2019
4578 Clear 24 1016 87 0 2.72 9 11:22 12.11.2019
4579 Clear 24 1016 87 0 2.96 15 10:57 12.11.2019
4580 Clear 24 1016 87 0 2.72 9 10:39 12.11.2019
4581 Clear 24 1016 87 0 2.96 15 10:21 12.11.2019
4582 Clear 24 1016 87 0 2.96 15 09:57 12.11.2019
4583 Clear 24 1016 87 0 2.96 15 09:38 12.11.2019
4584 Clear 24 1016 87 0 2.96 15 09:18 12.11.2019
4585 Clear 24 1016 87 0 2.96 15 08:46 12.11.2019
4586 Clear 24 1016 87 0 2.72 9 08:27 12.11.2019
4587 Clear 24 1016 87 0 1.67 55 07:42 12.11.2019
4588 Clear 24 1016 87 0 1.67 55 07:23 12.11.2019
4589 Clouds 25 1015 88 11265 1 50 06:48 12.11.2019
4590 Clouds 25 1015 88 11265 1 50 06:23 12.11.2019
4591 Clouds 25 1015 88 11265 1 50 06:23 12.11.2019
4592 Clouds 24 1015 94 11265 1.67 55 05:49 12.11.2019
4593 Clear 25 1015 88 11265 1 100 04:50 12.11.2019
4594 Clouds 25 1014 88 11265 2.1 100 03:53 12.11.2019
4595 Clouds 26 1012 83 11265 1.5 90 01:50 12.11.2019
4596 Clouds 26 1012 83 11265 1.5 90 01:23 12.11.2019
4597 Clouds 26 1012 78 11265 2.6 90 00:52 12.11.2019
4598 Clouds 26 1012 78 11265 2.6 90 00:32 12.11.2019
4599 Clouds 27 1011 78 11265 3.6 90 23:48 11.11.2019
4600 Clouds 27 1011 78 11265 3.6 90 23:25 11.11.2019
4601 Clouds 28 1011 69 11265 2.1 80 22:58 11.11.2019
4602 Clouds 28 1011 69 11265 2.1 80 22:38 11.11.2019
4603 Clouds 28 1011 69 11265 2.1 80 22:19 11.11.2019
4604 Clouds 28 1012 69 11265 2.1 90 21:57 11.11.2019
4605 Clouds 28 1012 69 11265 2.1 90 21:38 11.11.2019
4606 Clouds 28 1012 69 11265 2.1 90 21:20 11.11.2019
4607 Clouds 29 1013 70 11265 2.75 82 20:55 11.11.2019
4608 Clouds 29 1013 70 11265 2.75 82 20:36 11.11.2019
4609 Clouds 29 1013 70 11265 1.84 92 20:18 11.11.2019
4610 Clouds 29 1013 70 11265 1.84 92 20:18 11.11.2019
4611 Clouds 29 1014 70 11265 1.5 110 19:41 11.11.2019
4612 Clouds 29 1014 70 11265 1.5 110 19:41 11.11.2019
4613 Clouds 29 1014 70 11265 1.5 110 19:19 11.11.2019
4614 Clouds 28 1015 69 9656 3.1 180 18:57 11.11.2019
4615 Clouds 28 1015 69 9656 3.1 180 18:38 11.11.2019
4616 Clouds 28 1015 69 9656 3.1 180 18:19 11.11.2019
4617 Clouds 27 1016 74 9656 2.1 160 17:43 11.11.2019
4618 Clouds 27 1016 74 9656 2.1 160 17:24 11.11.2019
4619 Clear 26 1016 83 9656 0.33 143 16:45 11.11.2019
4620 Clear 26 1016 83 9656 0.33 143 16:24 11.11.2019
4621 Clouds 23 1015 94 8047 0.33 143 15:59 11.11.2019
4622 Clouds 23 1015 94 8047 0.33 143 15:41 11.11.2019
4623 Clouds 23 1015 94 8047 0.33 143 15:20 11.11.2019
4624 Mist 21 1015 100 6437 0.33 143 14:54 11.11.2019
4625 Mist 21 1015 100 6437 0.33 143 14:36 11.11.2019
4626 Mist 21 1015 100 6437 1.76 264 14:18 11.11.2019
4627 Clear 20 1015 100 11265 1.76 264 13:39 11.11.2019
4628 Clear 20 1015 100 11265 1.76 264 13:21 11.11.2019
4629 Clouds 22 1015 94 0 2.15 276 12:58 11.11.2019
4630 Clouds 22 1015 94 0 2.15 276 12:40 11.11.2019
4631 Clouds 22 1015 94 0 2.15 276 12:22 11.11.2019
4632 Clouds 22 1015 94 0 2.15 276 11:55 11.11.2019
4633 Clouds 22 1015 94 0 2.15 276 11:37 11.11.2019
4634 Clouds 23 1016 89 0 1.67 288 11:19 11.11.2019
4635 Clouds 23 1016 89 0 1.67 288 10:42 11.11.2019
4636 -273 0 0 0 0 0 10:18 11.11.2019
4637 Clouds 23 1016 89 0 1.67 288 10:18 11.11.2019
4638 Clouds 23 1016 89 0 1.67 288 09:56 11.11.2019
4639 Clouds 23 1016 89 0 1.67 288 09:37 11.11.2019
4640 Clouds 23 1016 89 0 1.67 288 09:18 11.11.2019
4641 Clouds 23 1016 89 0 1.67 288 08:40 11.11.2019
4642 Clouds 24 1017 84 0 1.14 26 08:21 11.11.2019
4643 Clouds 24 1017 84 0 1.14 26 07:56 11.11.2019
4644 Clouds 24 1017 84 0 1.14 26 07:37 11.11.2019
4645 Clouds 24 1017 84 0 1.14 26 07:37 11.11.2019
4646 Clouds 24 1017 84 0 1.14 26 07:18 11.11.2019
4647 Clouds 23 1017 100 11265 1.14 26 06:46 11.11.2019
4648 Clouds 23 1017 100 11265 1.14 26 06:22 11.11.2019
4649 Drizzle 23 1018 94 11265 1.5 340 05:50 11.11.2019
4650 Drizzle 23 1018 100 9656 1 330 04:29 11.11.2019
4651 Rain 24 1017 94 9656 2.58 30 03:23 11.11.2019
4652 Rain 24 1016 87 0 4.16 12 02:22 11.11.2019
4653 Clouds 25 1016 83 11265 2.1 360 01:55 11.11.2019
4654 Clouds 25 1016 83 11265 2.1 360 01:34 11.11.2019
4655 Clouds 25 1016 83 11265 3.6 10 00:47 11.11.2019
4656 Clouds 25 1016 83 11265 3.6 10 00:20 11.11.2019
4657 Clouds 26 1016 78 11265 4.6 10 23:39 10.11.2019
4658 Clouds 26 1016 78 11265 4.6 10 23:20 10.11.2019
4659 Clouds 27 1016 69 11265 6.7 20 22:57 10.11.2019
4660 Clouds 27 1016 69 11265 6.7 20 22:38 10.11.2019
4661 Clouds 27 1016 69 11265 6.7 20 22:20 10.11.2019
4662 Clouds 27 1016 69 11265 6.7 20 22:20 10.11.2019
4663 Clouds 26 1017 74 11265 4.6 360 21:58 10.11.2019
4664 Clouds 26 1017 74 11265 4.6 360 21:58 10.11.2019
4665 Clouds 26 1017 74 11265 4.6 360 21:39 10.11.2019
4666 Clouds 26 1017 74 11265 4.6 360 21:39 10.11.2019
4667 Clouds 26 1017 74 11265 4.6 360 21:21 10.11.2019
4668 Clouds 27 1018 74 11265 4.1 20 20:56 10.11.2019
4669 Clouds 27 1018 74 11265 4.1 20 20:37 10.11.2019
4670 Clouds 27 1018 74 11265 4.1 20 20:19 10.11.2019
4671 Clouds 28 1018 69 11265 6.2 350 19:54 10.11.2019
4672 Clouds 28 1018 69 11265 6.2 350 19:36 10.11.2019
4673 Clouds 28 1018 69 11265 6.2 350 19:18 10.11.2019
4674 Clouds 28 1018 69 11265 6.2 350 19:18 10.11.2019
4675 Clouds 26 1020 78 9656 5.1 350 18:54 10.11.2019
4676 Clouds 26 1020 78 9656 5.1 350 18:36 10.11.2019
4677 Clouds 26 1020 78 9656 5.1 350 18:18 10.11.2019
4678 Clouds 25 1020 78 9656 5.1 360 17:54 10.11.2019
4679 Clouds 25 1020 78 9656 5.1 360 17:36 10.11.2019
4680 Clouds 25 1020 78 9656 5.1 360 17:18 10.11.2019
4681 Clouds 25 1020 78 9656 5.1 360 17:18 10.11.2019
4682 Clouds 24 1020 94 8047 2.1 360 16:43 10.11.2019
4683 Clouds 24 1020 94 8047 2.1 360 16:25 10.11.2019
4684 Clouds 23 1020 94 6437 2.1 330 15:56 10.11.2019
4685 Clouds 23 1020 94 6437 2.1 330 15:37 10.11.2019
4686 Rain 22 1020 100 3219 5.03 332 15:18 10.11.2019
4687 Rain 22 1020 94 3219 5.03 332 14:56 10.11.2019
4688 Rain 22 1020 94 3219 5.03 332 14:38 10.11.2019
4689 Clouds 22 1019 94 8047 4.83 328 14:19 10.11.2019
4690 Clouds 22 1019 94 8047 2.6 340 13:44 10.11.2019
4691 Clouds 22 1019 94 8047 2.6 340 13:22 10.11.2019
4692 Rain 23 1020 87 0 4.17 327 12:59 10.11.2019
4693 Rain 23 1020 87 0 4.17 327 12:40 10.11.2019
4694 Rain 23 1020 87 0 4.17 327 12:19 10.11.2019
4695 Rain 23 1020 87 0 4.17 327 11:55 10.11.2019
4696 Rain 23 1020 87 0 4.17 327 11:37 10.11.2019
4697 Rain 22 1019 88 0 3.71 318 11:18 10.11.2019
4698 Rain 22 1019 88 0 3.71 318 11:18 10.11.2019
4699 Rain 22 1019 88 0 3.71 318 10:42 10.11.2019
4700 Rain 22 1019 88 0 3.71 318 10:42 10.11.2019
4701 Rain 22 1019 88 0 3.71 318 10:21 10.11.2019
4702 Rain 22 1019 88 0 3.71 318 09:55 10.11.2019
4703 Rain 22 1019 88 0 3.71 318 09:37 10.11.2019
4704 Rain 22 1019 88 0 3.71 318 09:18 10.11.2019
4705 Rain 22 1019 88 0 3.71 318 08:39 10.11.2019
4706 Rain 22 1019 88 0 3.71 318 08:39 10.11.2019
4707 Rain 23 1020 87 0 6.43 333 08:20 10.11.2019
4708 Rain 23 1020 87 0 6.43 333 07:44 10.11.2019
4709 Rain 23 1020 87 0 6.43 333 07:25 10.11.2019
4710 Rain 22 1020 94 9656 6.43 333 06:38 10.11.2019
4711 Rain 22 1020 88 9656 3.1 350 05:44 10.11.2019
4712 Clouds 25 1019 73 11265 6.2 360 03:26 10.11.2019
4713 Clouds 25 1018 73 11265 5.1 350 02:20 10.11.2019
4714 Clouds 25 1017 69 9656 5.1 340 01:19 10.11.2019
4715 Clouds 26 1017 65 11265 5.1 360 00:42 10.11.2019
4716 Clouds 26 1017 65 11265 5.7 360 23:59 09.11.2019
4717 Clouds 26 1017 65 11265 5.7 360 23:38 09.11.2019
4718 Clouds 26 1017 65 11265 5.7 360 23:19 09.11.2019
4719 Clouds 26 1017 65 9656 7.7 360 22:42 09.11.2019
4720 Clouds 26 1017 65 9656 7.7 360 22:21 09.11.2019
4721 Clouds 26 1018 69 8047 5.7 20 21:58 09.11.2019
4722 Clouds 26 1018 69 8047 5.7 20 21:38 09.11.2019
4723 Clouds 26 1018 69 8047 5.7 20 21:20 09.11.2019
4724 Clouds 25 1019 73 9656 5.1 360 20:44 09.11.2019
4725 Clouds 25 1019 73 9656 5.1 360 20:23 09.11.2019
4726 Clouds 25 1020 69 9656 5.1 20 19:58 09.11.2019
4727 Clouds 25 1020 69 9656 5.1 20 19:40 09.11.2019
4728 Clouds 25 1020 69 9656 5.1 20 19:22 09.11.2019
4729 Clouds 24 1020 73 11265 6.2 360 18:57 09.11.2019
4730 Clouds 24 1020 73 11265 6.2 360 18:38 09.11.2019
4731 Clouds 24 1020 73 11265 6.2 360 18:38 09.11.2019
4732 Clouds 24 1020 73 11265 6.2 360 18:18 09.11.2019
4733 Clouds 24 1021 78 11265 5.1 350 17:41 09.11.2019
4734 Clouds 24 1021 78 11265 5.1 350 17:22 09.11.2019
4735 Clouds 24 1021 78 11265 5.1 350 17:22 09.11.2019
4736 Clouds 24 1020 73 11265 5.1 10 16:56 09.11.2019
4737 Clouds 24 1020 73 11265 5.1 10 16:37 09.11.2019
4738 Clouds 24 1020 73 11265 5.1 10 16:37 09.11.2019
4739 Clouds 24 1020 73 11265 5.1 10 16:18 09.11.2019
4740 Clouds 22 1020 83 11265 5.7 360 15:41 09.11.2019
4741 Clouds 22 1020 83 11265 5.7 360 15:23 09.11.2019
4742 Clouds 22 1019 83 9656 5.1 350 14:46 09.11.2019
4743 Clouds 22 1019 83 9656 5.1 350 14:23 09.11.2019
4744 Clouds 22 1019 88 9656 5.1 330 13:58 09.11.2019
4745 Clouds 22 1019 88 9656 5.1 330 13:40 09.11.2019
4746 Clouds 22 1019 88 9656 5.1 330 13:21 09.11.2019
4747 Clouds 24 1020 76 0 10.78 345 12:57 09.11.2019
4748 Clouds 24 1020 76 0 10.78 345 12:39 09.11.2019
4749 Clouds 24 1020 76 0 10.78 345 12:20 09.11.2019
4750 Clouds 24 1020 76 0 10.78 345 11:48 09.11.2019
4751 Clouds 24 1019 79 0 12.14 352 11:22 09.11.2019
4752 Clouds 24 1019 79 0 12.14 352 10:57 09.11.2019
4753 Clouds 24 1019 79 0 12.14 352 10:39 09.11.2019
4754 Clouds 24 1019 79 0 12.14 352 10:18 09.11.2019
4755 Clouds 24 1019 79 0 12.14 352 09:44 09.11.2019
4756 Clouds 24 1019 79 0 12.14 352 09:21 09.11.2019
4757 Clouds 23 1019 83 11265 5.1 10 08:56 09.11.2019
4758 Clouds 23 1019 83 11265 5.1 10 08:37 09.11.2019
4759 Clouds 23 1019 83 11265 5.1 10 08:18 09.11.2019
4760 Clouds 23 1020 83 11265 6.2 360 07:42 09.11.2019
4761 Clouds 23 1020 83 11265 6.2 360 07:22 09.11.2019
4762 Clouds 23 1020 88 11265 5.1 350 06:47 09.11.2019
4763 Clouds 23 1020 88 11265 5.1 350 06:28 09.11.2019
4764 Clouds 23 1020 94 11265 5.1 360 05:42 09.11.2019
4765 Rain 23 1020 94 11265 6.2 10 04:48 09.11.2019
4766 Rain 23 1019 94 8047 5.1 10 02:57 09.11.2019
4767 Rain 23 1019 94 8047 5.1 10 02:38 09.11.2019
4768 Drizzle 23 1017 94 9656 6.2 360 01:40 09.11.2019
4769 Drizzle 22 1017 100 8047 5.1 360 00:46 09.11.2019
4770 Drizzle 22 1017 100 8047 5.1 360 00:27 09.11.2019
4771 Drizzle 23 1016 94 8047 7.7 350 23:42 08.11.2019
4772 Clouds 25 1015 83 11265 7.7 340 23:23 08.11.2019
4773 Clouds 26 1016 78 9656 10.3 360 22:59 08.11.2019
4774 Clouds 26 1016 78 9656 10.3 360 22:40 08.11.2019
4775 Clouds 26 1016 78 9656 10.3 360 22:21 08.11.2019
4776 Sand 27 1015 78 8047 10.3 340 21:43 08.11.2019
4777 Sand 27 1015 78 8047 10.3 340 21:24 08.11.2019
4778 Clouds 28 1016 74 8047 9.8 360 20:59 08.11.2019
4779 Clouds 28 1016 74 8047 9.8 360 20:40 08.11.2019
4780 Clouds 28 1016 74 8047 9.8 360 20:20 08.11.2019
4781 Clouds 30 1017 62 9656 8.7 20 19:55 08.11.2019
4782 Clouds 30 1017 62 9656 8.7 20 19:37 08.11.2019
4783 Clouds 30 1017 62 9656 8.7 20 19:37 08.11.2019
4784 Clouds 30 1017 62 9656 8.7 20 19:18 08.11.2019
4785 Clouds 29 1018 66 11265 4.6 360 18:55 08.11.2019
4786 Clouds 29 1018 66 11265 4.6 360 18:36 08.11.2019
4787 Clouds 29 1018 66 11265 4.6 360 18:18 08.11.2019
4788 Clouds 28 1018 74 11265 3.6 10 17:54 08.11.2019
4789 Clouds 28 1018 74 11265 3.6 10 17:36 08.11.2019
4790 Clouds 28 1018 74 11265 3.6 10 17:18 08.11.2019
4791 Clouds 27 1018 78 11265 1.5 20 16:57 08.11.2019
4792 Clouds 27 1018 78 11265 1.5 20 16:38 08.11.2019
4793 Clouds 27 1018 78 11265 1.5 20 16:18 08.11.2019
4794 Mist 24 1018 94 11265 3.91 317 15:42 08.11.2019
4795 Mist 24 1018 94 11265 3.91 317 15:23 08.11.2019
4796 Mist 21 1017 100 11265 3.91 317 14:58 08.11.2019
4797 Mist 21 1017 100 11265 3.91 317 14:58 08.11.2019
4798 Mist 21 1017 100 11265 3.91 317 14:39 08.11.2019
4799 Mist 21 1017 100 11265 3.91 317 14:39 08.11.2019
4800 Mist 21 1017 100 11265 3.52 322 14:20 08.11.2019
4801 Mist 21 1017 100 11265 3.52 322 14:20 08.11.2019
4802 Clear 21 1016 100 9656 3.52 322 13:59 08.11.2019
4803 Clear 21 1016 100 9656 3.52 322 13:41 08.11.2019
4804 Clear 21 1016 100 9656 4.2 334 13:22 08.11.2019
4805 Rain 24 1018 88 0 4.2 334 12:49 08.11.2019
4806 Rain 24 1018 88 0 4.2 334 12:29 08.11.2019
4807 Rain 24 1018 88 0 4.2 334 11:59 08.11.2019
4808 Rain 24 1018 88 0 4.2 334 11:59 08.11.2019
4809 Rain 24 1018 88 0 4.2 334 11:41 08.11.2019
4810 Rain 24 1017 89 0 3.51 322 11:21 08.11.2019
4811 Rain 24 1017 89 0 3.51 322 10:59 08.11.2019
4812 Rain 24 1017 89 0 3.51 322 10:41 08.11.2019
4813 Rain 24 1017 89 0 3.51 322 10:21 08.11.2019
4814 Rain 24 1017 89 0 3.51 322 09:58 08.11.2019
4815 Rain 24 1017 89 0 3.51 322 09:38 08.11.2019
4816 Rain 24 1017 89 0 3.51 322 09:19 08.11.2019
4817 Rain 24 1017 89 0 3.51 322 08:45 08.11.2019
4818 Rain 24 1018 92 0 2.78 312 08:21 08.11.2019
4819 Rain 24 1018 92 0 2.78 312 07:45 08.11.2019
4820 Rain 24 1018 92 0 2.78 312 07:23 08.11.2019
4821 Clear 24 1017 94 11265 2.78 312 06:56 08.11.2019
4822 Clear 24 1017 94 11265 2.78 312 06:56 08.11.2019
4823 Clear 24 1017 94 11265 2.78 312 06:37 08.11.2019
4824 Clear 24 1017 94 11265 2.78 312 06:19 08.11.2019
4825 Clouds 25 1017 88 11265 1.5 10 05:26 08.11.2019
4826 Clouds 25 1017 88 11265 2.6 10 04:28 08.11.2019
4827 Clouds 25 1016 88 11265 2.1 360 03:42 08.11.2019
4828 Clouds 25 1016 88 11265 2.1 360 03:42 08.11.2019
4829 Clouds 25 1016 88 11265 2.1 360 03:42 08.11.2019
4830 Clouds 25 1016 88 11265 2.6 360 02:55 08.11.2019
4831 Clouds 26 1015 83 11265 2.6 360 01:53 08.11.2019
4832 Clouds 26 1015 83 11265 2.6 360 01:33 08.11.2019
4833 Clouds 28 1015 74 11265 2.6 40 00:45 08.11.2019
4834 Clouds 28 1015 74 11265 2.6 40 00:21 08.11.2019
4835 Clouds 29 1015 69 11265 2.6 30 23:48 07.11.2019
4836 Clouds 29 1015 69 11265 2.6 30 23:27 07.11.2019
4837 Clouds 29 1015 66 11265 3.1 30 22:57 07.11.2019
4838 Clouds 29 1015 66 11265 3.1 30 22:38 07.11.2019
4839 Clouds 29 1015 66 11265 3.1 30 22:20 07.11.2019
4840 Clouds 29 1015 70 11265 3.6 50 21:39 07.11.2019
4841 Clouds 29 1015 70 11265 3.6 50 21:21 07.11.2019
4842 Clouds 29 1016 70 11265 3.1 10 20:59 07.11.2019
4843 Clouds 29 1016 70 11265 3.1 10 20:40 07.11.2019
4844 Clouds 29 1016 70 11265 3.1 10 20:21 07.11.2019
4845 Clouds 28 1017 74 11265 2.1 360 19:58 07.11.2019
4846 Clouds 28 1017 74 11265 2.1 360 19:39 07.11.2019
4847 Clouds 28 1017 74 11265 2.1 360 19:20 07.11.2019
4848 Clouds 28 1017 74 11265 2.1 360 19:20 07.11.2019
4849 Clouds 28 1018 74 11265 2.6 340 18:57 07.11.2019
4850 Clouds 28 1018 74 11265 2.6 340 18:38 07.11.2019
4851 Clouds 28 1018 74 11265 2.6 340 18:19 07.11.2019
4852 Clouds 27 1018 83 8047 2.1 340 17:55 07.11.2019
4853 Clouds 27 1018 83 8047 2.1 340 17:37 07.11.2019
4854 Clouds 26 1018 83 8047 2.1 340 17:19 07.11.2019
4855 Mist 26 1018 88 4828 2.81 321 16:54 07.11.2019
4856 Mist 25 1018 88 4828 2.81 321 16:36 07.11.2019
4857 Mist 25 1018 88 4828 2.81 321 16:18 07.11.2019
4858 Mist 24 1018 94 3219 2.1 330 15:40 07.11.2019
4859 Mist 24 1018 94 3219 2.1 330 15:20 07.11.2019
4860 Mist 24 1018 94 3219 2.1 330 15:20 07.11.2019
4861 Mist 23 1017 100 3219 2.81 321 14:57 07.11.2019
4862 Mist 23 1017 100 3219 2.81 321 14:37 07.11.2019
4863 Mist 23 1017 100 3219 2.22 296 14:19 07.11.2019
4864 Clear 23 1016 94 9656 1.5 330 13:55 07.11.2019
4865 Clear 23 1016 94 9656 1.5 330 13:36 07.11.2019
4866 Clear 23 1016 94 9656 1.5 330 13:18 07.11.2019
4867 Clear 23 1016 94 9656 1.5 330 12:55 07.11.2019
4868 Clouds 23 1014 84 0 0.45 273 12:36 07.11.2019
4869 Clouds 23 1014 84 0 0.45 273 12:36 07.11.2019
4870 Clouds 23 1014 84 0 2.3 294 12:18 07.11.2019
4871 Clouds 23 1014 84 0 2.3 294 12:18 07.11.2019
4872 Clouds 23 1014 84 0 2.3 294 12:18 07.11.2019
4873 Clouds 23 1014 84 0 0.45 273 11:41 07.11.2019
4874 Rain 23 1014 84 0 0.89 273 11:22 07.11.2019
4875 Rain 24 1014 84 0 2.45 318 10:42 07.11.2019
4876 Rain 24 1014 84 0 0.45 348 10:19 07.11.2019
4877 Rain 24 1014 83 0 0.45 348 09:45 07.11.2019
4878 Rain 24 1015 83 0 0.45 349 09:26 07.11.2019
4879 -273 0 0 0 0 0 09:25 07.11.2019
4880 Rain 24 1015 83 0 0.45 349 09:24 07.11.2019
4881 Rain 24 1015 83 0 0.45 349 08:59 07.11.2019
4882 Rain 24 1015 83 0 0.45 331 08:40 07.11.2019
4883 Rain 24 1015 83 0 0.45 331 08:22 07.11.2019
4884 Rain 24 1015 83 0 3.01 307 07:56 07.11.2019
4885 Rain 24 1015 82 0 3.01 307 07:37 07.11.2019
4886 Rain 24 1015 82 0 3.01 307 07:19 07.11.2019
4887 Rain 24 1015 82 0 3.01 307 07:19 07.11.2019
4888 Clouds 25 1018 94 11265 2.1 350 06:42 07.11.2019
4889 Clouds 25 1018 94 11265 2.1 350 06:22 07.11.2019
4890 Clouds 26 1018 88 11265 2.1 350 05:48 07.11.2019
4891 Clouds 26 1018 88 11265 2.1 350 05:29 07.11.2019
4892 Clouds 26 1018 88 11265 2.1 350 05:29 07.11.2019
4893 -273 0 0 0 0 0 04:42 07.11.2019
4894 Clouds 26 1017 88 11265 2.1 330 03:32 07.11.2019
4895 Clouds 27 1016 78 11265 3.1 20 00:58 07.11.2019
4896 Clouds 27 1016 78 11265 3.1 20 00:22 07.11.2019
4897 Clouds 27 1016 78 11265 3.1 20 00:22 07.11.2019
4898 Clouds 27 1016 78 11265 6.2 10 23:48 06.11.2019
4899 Clouds 27 1016 78 11265 6.2 10 23:22 06.11.2019
4900 Clouds 28 1016 74 11265 4.1 30 22:57 06.11.2019
4901 Clouds 28 1016 74 11265 4.1 30 22:38 06.11.2019
4902 Clouds 28 1016 74 11265 4.1 30 22:19 06.11.2019
4903 Clouds 28 1016 74 11265 4.1 50 21:56 06.11.2019
4904 Clouds 28 1016 74 11265 4.1 50 21:38 06.11.2019
4905 Clouds 28 1016 74 11265 4.1 50 21:18 06.11.2019
4906 Clouds 28 1017 74 11265 6.2 10 20:41 06.11.2019
4907 Clouds 28 1017 74 11265 6.2 10 20:23 06.11.2019
4908 Clouds 29 1018 66 11265 4.1 10 19:59 06.11.2019
4909 Clouds 29 1018 66 11265 4.1 10 19:40 06.11.2019
4910 Clouds 30 1018 66 11265 4.1 10 19:21 06.11.2019
4911 Clouds 30 1018 66 11265 4.1 10 19:21 06.11.2019
4912 Clouds 30 1018 66 11265 4.1 10 19:21 06.11.2019
4913 Clouds 30 1019 70 11265 4.6 10 18:59 06.11.2019
4914 Clouds 30 1019 70 11265 4.6 10 18:39 06.11.2019
4915 Clouds 30 1019 70 11265 4.6 10 18:19 06.11.2019
4916 Clouds 29 1019 78 11265 4.1 10 17:58 06.11.2019
4917 Clouds 29 1019 78 11265 4.1 10 17:40 06.11.2019
4918 Clouds 29 1019 78 11265 4.1 10 17:21 06.11.2019
4919 Clouds 27 1019 78 11265 2.6 360 16:55 06.11.2019
4920 Clouds 28 1019 78 11265 2.6 360 16:55 06.11.2019
4921 Clouds 27 1019 78 11265 2.6 360 16:37 06.11.2019
4922 Clouds 27 1019 78 11265 2.6 360 16:18 06.11.2019
4923 Clouds 26 1019 88 9656 4.08 327 15:55 06.11.2019
4924 Clouds 25 1019 88 9656 4.08 327 15:36 06.11.2019
4925 Clouds 25 1019 88 9656 4.08 327 15:18 06.11.2019
4926 Clouds 24 1018 94 11265 2.6 310 14:55 06.11.2019
4927 Clouds 24 1018 94 11265 2.6 310 14:55 06.11.2019
4928 Clouds 23 1018 94 11265 2.6 310 14:37 06.11.2019
4929 Clouds 23 1018 94 11265 2.6 310 14:37 06.11.2019
4930 Clouds 23 1018 94 11265 2.6 310 14:19 06.11.2019
4931 Clouds 22 1018 94 11265 1.5 320 13:40 06.11.2019
4932 Clouds 22 1018 94 11265 1.5 320 13:40 06.11.2019
4933 Clouds 22 1018 94 11265 1.5 320 13:22 06.11.2019
4934 Rain 22 1016 82 0 4.15 315 12:58 06.11.2019
4935 Rain 22 1016 82 0 4.15 315 12:39 06.11.2019
4936 Rain 22 1016 82 0 4.15 315 12:39 06.11.2019
4937 Rain 22 1015 82 0 4.15 315 12:21 06.11.2019
4938 Rain 22 1015 82 0 4.15 315 11:58 06.11.2019
4939 Rain 23 1015 82 0 4.15 315 11:37 06.11.2019
4940 Rain 23 1015 82 0 4.11 311 11:18 06.11.2019
4941 Rain 23 1015 82 0 4.11 311 11:18 06.11.2019
4942 Rain 23 1015 82 0 4.11 311 10:56 06.11.2019
4943 Rain 23 1015 80 0 0.45 330 10:38 06.11.2019
4944 Rain 23 1018 91 0 4.11 311 10:19 06.11.2019
4945 Rain 23 1015 81 0 0.45 330 09:44 06.11.2019
4946 Rain 23 1016 80 0 0.45 339 09:23 06.11.2019
4947 Rain 24 1016 79 0 0.89 339 08:59 06.11.2019
4948 Rain 24 1016 80 0 1.34 323 08:38 06.11.2019
4949 Rain 24 1016 80 0 1.34 323 08:20 06.11.2019
4950 Clear 24 1018 94 11265 1.5 320 07:57 06.11.2019
4951 Clear 24 1018 94 11265 1.5 320 07:39 06.11.2019
4952 Clear 24 1018 94 11265 1.5 320 07:19 06.11.2019
4953 Clouds 25 1019 88 11265 2.6 340 06:44 06.11.2019
4954 Clouds 25 1019 88 11265 2.6 340 06:23 06.11.2019
4955 Clouds 26 1018 88 11265 3.1 340 04:18 06.11.2019
4956 Clouds 26 1017 88 11265 3.1 360 02:20 06.11.2019
4957 Clouds 26 1016 88 11265 3.1 10 01:31 06.11.2019
4958 Clouds 27 1015 83 11265 6.7 30 00:35 06.11.2019
4959 Clouds 28 1015 78 11265 4.6 10 23:57 05.11.2019
4960 Clouds 28 1015 78 11265 4.6 10 23:38 05.11.2019
4961 Clouds 28 1015 78 11265 4.6 10 23:19 05.11.2019
4962 Clouds 28 1015 74 11265 5.7 40 22:43 05.11.2019
4963 Clouds 28 1015 74 11265 5.7 40 22:19 05.11.2019
4964 Clouds 28 1016 66 11265 4.6 50 21:58 05.11.2019
4965 Clouds 29 1016 66 11265 4.6 50 21:40 05.11.2019
4966 Clouds 29 1016 66 11265 4.6 50 21:20 05.11.2019
4967 Clouds 29 1016 70 11265 4.6 30 20:57 05.11.2019
4968 Clouds 29 1016 70 11265 4.6 30 20:38 05.11.2019
4969 Clouds 29 1016 70 11265 4.6 30 20:20 05.11.2019
4970 Clouds 29 1017 66 11265 4.1 10 19:55 05.11.2019
4971 Clouds 29 1017 66 11265 4.1 10 19:37 05.11.2019
4972 Clouds 29 1017 66 11265 4.1 10 19:19 05.11.2019
4973 Clouds 29 1018 74 9656 4.6 360 18:56 05.11.2019
4974 Clouds 28 1018 74 9656 4.6 360 18:38 05.11.2019
4975 Clouds 28 1018 74 9656 4.6 360 18:19 05.11.2019
4976 Clouds 28 1018 74 9656 4.6 360 18:19 05.11.2019
4977 Clouds 27 1019 83 9656 2.6 350 17:55 05.11.2019
4978 Clouds 27 1019 83 9656 2.6 350 17:37 05.11.2019
4979 Clouds 27 1019 83 9656 2.6 350 17:18 05.11.2019
4980 Clouds 26 1018 88 9656 2.6 330 16:41 05.11.2019
4981 Clouds 25 1018 88 9656 2.6 330 16:20 05.11.2019
4982 Clouds 25 1018 88 9656 3.51 317 15:57 05.11.2019
4983 Clouds 24 1018 88 9656 3.51 317 15:36 05.11.2019
4984 Clouds 24 1018 88 9656 3.51 317 15:18 05.11.2019
4985 Clouds 23 1017 94 11265 3.51 317 14:54 05.11.2019
4986 Clouds 22 1017 94 11265 3.51 317 14:36 05.11.2019
4987 Clouds 22 1017 94 11265 2.69 303 14:18 05.11.2019
4988 Clear 22 1016 94 11265 2.69 303 13:42 05.11.2019
4989 Clear 22 1016 94 11265 2.69 303 13:24 05.11.2019
4990 Rain 22 1014 81 0 2.73 313 12:41 05.11.2019
4991 Rain 22 1013 81 0 2.73 313 12:22 05.11.2019
4992 Rain 22 1013 81 0 2.73 313 11:58 05.11.2019
4993 Rain 23 1013 80 0 0.45 282 11:39 05.11.2019
4994 Rain 23 1013 80 0 0.45 282 11:20 05.11.2019
4995 Rain 23 1013 80 0 0.45 282 10:55 05.11.2019
4996 Rain 23 1013 79 0 0.89 282 10:37 05.11.2019
4997 Rain 23 1013 79 0 0.89 282 10:18 05.11.2019
4998 Rain 23 1013 79 0 0.89 282 09:54 05.11.2019
4999 Rain 23 1014 80 0 1.79 295 09:36 05.11.2019
5000 Rain 23 1014 80 0 1.79 295 09:18 05.11.2019
5001 Rain 23 1014 80 0 0.89 297 08:38 05.11.2019
5002 Rain 23 1014 80 0 0.89 297 08:19 05.11.2019
5003 Rain 23 1014 80 0 0.89 301 07:55 05.11.2019
5004 Rain 23 1014 81 0 0.89 298 07:36 05.11.2019
5005 Rain 23 1014 81 0 0.89 298 07:18 05.11.2019
5006 Smoke 23 1016 94 9656 1 320 06:40 05.11.2019
5007 Smoke 23 1016 94 9656 1 310 05:51 05.11.2019
5008 Smoke 23 1016 94 9656 1 310 05:21 05.11.2019
5009 Smoke 24 1016 88 9656 2.26 16 04:23 05.11.2019
5010 Clouds 24 1016 88 11265 2.26 16 03:32 05.11.2019
5011 Clouds 25 1015 88 11265 2.26 16 02:43 05.11.2019
5012 Clouds 25 1014 83 11265 1 60 01:57 05.11.2019
5013 Clouds 26 1014 78 11265 3.1 50 00:48 05.11.2019
5014 Clouds 26 1014 78 11265 3.1 50 00:27 05.11.2019
5015 Clouds 27 1014 74 11265 4.1 20 23:43 04.11.2019
5016 Clouds 27 1014 74 11265 4.1 20 23:19 04.11.2019
5017 Clouds 28 1014 69 11265 3.6 20 22:58 04.11.2019
5018 Clouds 28 1014 69 11265 3.6 20 22:40 04.11.2019
5019 Clouds 28 1014 69 11265 3.6 20 22:20 04.11.2019
5020 Clouds 28 1014 69 11265 4.6 60 21:55 04.11.2019
5021 Clouds 28 1014 69 11265 4.6 60 21:37 04.11.2019
5022 Clouds 28 1014 69 11265 4.6 60 21:18 04.11.2019
5023 Clouds 28 1015 69 11265 3.1 60 20:56 04.11.2019
5024 Clouds 28 1015 69 11265 3.1 60 20:37 04.11.2019
5025 Clouds 28 1015 69 11265 3.1 60 20:19 04.11.2019
5026 Clouds 27 1016 69 11265 2.56 352 19:56 04.11.2019
5027 Clouds 28 1016 69 11265 2.56 352 19:38 04.11.2019
5028 Clouds 28 1016 69 11265 2.56 352 19:20 04.11.2019
5029 Clouds 28 1017 65 11265 1.5 80 18:42 04.11.2019
5030 Clouds 27 1017 65 11265 1.5 80 18:23 04.11.2019
5031 Clouds 28 1018 69 11265 2.1 30 17:59 04.11.2019
5032 Clouds 28 1018 69 11265 2.1 30 17:38 04.11.2019
5033 Clouds 28 1018 69 11265 2.1 30 17:19 04.11.2019
5034 Clouds 26 1017 78 9656 2.1 330 16:55 04.11.2019
5035 Clouds 26 1017 78 9656 2.1 330 16:36 04.11.2019
5036 Clouds 26 1017 78 9656 2.1 330 16:18 04.11.2019
5037 Clouds 25 1017 83 9656 3.68 314 15:41 04.11.2019
5038 Clouds 24 1017 83 9656 3.68 314 15:21 04.11.2019
5039 Clouds 23 1017 88 11265 3.68 314 14:58 04.11.2019
5040 Clouds 23 1017 88 11265 3.68 314 14:58 04.11.2019
5041 Clouds 23 1017 88 11265 3.68 314 14:40 04.11.2019
5042 Clouds 22 1017 88 11265 3.44 311 14:20 04.11.2019
5043 Clouds 22 1017 88 11265 3.44 311 14:20 04.11.2019
5044 Clouds 22 1016 88 11265 3.44 311 13:58 04.11.2019
5045 Clouds 22 1016 88 11265 3.44 311 13:40 04.11.2019
5046 Clouds 22 1016 88 11265 3.3 312 13:21 04.11.2019
5047 Rain 22 1015 79 0 3.3 312 12:56 04.11.2019
5048 Rain 22 1014 79 0 3.3 312 12:38 04.11.2019
5049 Rain 22 1014 79 0 3.3 312 12:18 04.11.2019
5050 Rain 22 1014 78 0 3.3 312 11:42 04.11.2019
5051 Rain 22 1014 77 0 3.47 312 11:23 04.11.2019
5052 Rain 22 1014 76 0 3.47 312 10:58 04.11.2019
5053 Rain 22 1014 76 0 3.47 312 10:58 04.11.2019
5054 Rain 22 1014 75 0 3.47 312 10:39 04.11.2019
5055 Rain 22 1014 75 0 0.45 291 10:20 04.11.2019
5056 Rain 22 1014 75 0 0.45 291 09:45 04.11.2019
5057 Rain 22 1014 75 0 0.45 291 09:45 04.11.2019
5058 Rain 22 1014 75 0 0.45 291 09:27 04.11.2019
5059 Rain 23 1015 74 0 0.89 319 08:56 04.11.2019
5060 Rain 23 1015 74 0 0.89 319 08:37 04.11.2019
5061 Rain 23 1015 74 0 0.89 321 08:18 04.11.2019
5062 Rain 23 1015 74 0 0.89 329 07:42 04.11.2019
5063 Rain 23 1015 74 0 0.89 329 07:20 04.11.2019
5064 Clouds 23 1018 83 11265 2.1 350 06:49 04.11.2019
5065 Clouds 23 1018 83 11265 2.1 350 06:49 04.11.2019
5066 Clouds 23 1018 83 11265 2.1 350 06:49 04.11.2019
5067 Clouds 23 1018 83 11265 2.1 350 06:18 04.11.2019
5068 Clouds 23 1018 83 11265 1.5 360 05:38 04.11.2019
5069 Clouds 23 1018 83 11265 3.1 10 04:41 04.11.2019
5070 Clouds 24 1018 78 11265 3.6 360 03:48 04.11.2019
5071 Clouds 24 1017 78 11265 4.1 360 01:45 04.11.2019
5072 Clouds 24 1017 78 11265 4.1 360 01:19 04.11.2019
5073 Clouds 25 1016 69 11265 9.3 360 00:39 04.11.2019
5074 Clouds 25 1016 69 11265 9.3 360 00:19 04.11.2019
5075 Clouds 25 1017 73 11265 8.7 350 23:40 03.11.2019
5076 Clouds 25 1017 73 11265 8.7 350 23:21 03.11.2019
5077 Clouds 25 1017 73 9656 4.1 360 22:57 03.11.2019
5078 Clouds 25 1017 73 9656 4.1 360 22:39 03.11.2019
5079 Clouds 25 1017 73 9656 4.1 360 22:19 03.11.2019
5080 Drizzle 25 1018 83 9656 5.7 340 21:43 03.11.2019
5081 Drizzle 25 1018 83 9656 5.7 340 21:22 03.11.2019
5082 Clouds 24 1019 78 9656 5.7 360 20:59 03.11.2019
5083 Clouds 24 1019 78 9656 5.7 360 20:38 03.11.2019
5084 Clouds 25 1019 78 9656 5.7 360 20:19 03.11.2019
5085 Clouds 25 1019 73 9656 5.7 10 19:57 03.11.2019
5086 Clouds 25 1019 73 9656 5.7 10 19:39 03.11.2019
5087 Clouds 25 1019 73 9656 5.7 10 19:20 03.11.2019
5088 Clouds 26 1020 69 11265 4.6 360 18:58 03.11.2019
5089 Clouds 26 1020 69 11265 4.6 360 18:37 03.11.2019
5090 Clouds 26 1020 69 11265 4.6 360 18:18 03.11.2019
5091 Clouds 26 1020 73 11265 4.1 10 17:43 03.11.2019
5092 Clouds 26 1020 73 11265 4.1 10 17:23 03.11.2019
5093 Clouds 26 1020 73 11265 4.1 10 17:23 03.11.2019
5094 Clouds 25 1020 73 11265 4.6 20 17:00 03.11.2019
5095 Clouds 26 1020 73 11265 4.6 20 16:41 03.11.2019
5096 Clouds 25 1020 73 11265 4.6 20 16:22 03.11.2019
5097 Clouds 25 1019 78 11265 3.6 350 15:58 03.11.2019
5098 Clouds 25 1019 78 11265 3.6 350 15:40 03.11.2019
5099 Clouds 24 1019 78 11265 3.6 350 15:22 03.11.2019
5100 Clouds 24 1019 78 11265 3.6 340 14:56 03.11.2019
5101 Clouds 23 1019 78 11265 3.6 340 14:37 03.11.2019
5102 Clouds 23 1019 78 11265 3.6 340 14:18 03.11.2019
5103 Clouds 23 1019 83 11265 3.6 360 13:42 03.11.2019
5104 Clouds 23 1019 83 11265 3.6 360 13:20 03.11.2019
5105 Rain 23 1017 70 0 4.02 346 12:57 03.11.2019
5106 Rain 24 1017 69 0 3.58 15 12:37 03.11.2019
5107 Rain 24 1017 68 0 4.47 5 12:18 03.11.2019
5108 Rain 24 1017 67 0 4.47 5 11:42 03.11.2019
5109 Clouds 24 1017 68 0 4.47 5 11:22 03.11.2019
5110 Clouds 24 1017 67 0 5.36 360 10:56 03.11.2019
5111 Clouds 24 1017 66 0 5.36 5 10:37 03.11.2019
5112 Clouds 24 1017 67 0 4.92 5 10:19 03.11.2019
5113 Clouds 24 1017 67 0 5.81 360 09:43 03.11.2019
5114 Clouds 24 1017 67 0 5.81 360 09:43 03.11.2019
5115 Clouds 24 1017 68 0 5.81 360 09:25 03.11.2019
5116 Clouds 24 1017 67 0 5.81 349 08:56 03.11.2019
5117 Clouds 24 1018 67 0 5.81 360 08:37 03.11.2019
5118 Clouds 24 1018 67 0 6.26 5 08:19 03.11.2019
5119 Clouds 24 1018 68 0 5.81 5 07:45 03.11.2019
5120 Clouds 24 1018 69 0 5.81 360 07:22 03.11.2019
5121 Rain 24 1020 78 11265 6.2 10 06:39 03.11.2019
5122 Clouds 24 1020 94 11265 5.1 350 05:55 03.11.2019
5123 Clouds 24 1020 94 11265 5.1 350 05:37 03.11.2019
5124 Clouds 23 1020 78 11265 7.7 360 04:55 03.11.2019
5125 Clouds 23 1020 78 11265 7.7 360 04:26 03.11.2019
5126 Clouds 23 1020 78 11265 7.2 10 03:23 03.11.2019
5127 Clouds 24 1019 73 11265 7.2 360 02:29 03.11.2019
5128 Rain 23 1018 78 9656 9.3 340 01:55 03.11.2019
5129 Rain 23 1018 78 9656 9.3 340 01:36 03.11.2019
5130 Rain 23 1018 78 9656 9.3 340 01:18 03.11.2019
5131 Rain 23 1018 83 8047 7.7 360 00:38 03.11.2019
5132 Rain 23 1018 83 8047 7.7 360 00:20 03.11.2019
5133 Rain 24 1018 78 11265 7.2 350 23:56 02.11.2019
5134 Clouds 24 1018 78 11265 7.2 350 23:36 02.11.2019
5135 Clouds 24 1018 78 11265 7.2 350 23:18 02.11.2019
5136 Clouds 24 1018 78 9656 4.1 10 22:54 02.11.2019
5137 Clouds 24 1018 78 9656 4.1 10 22:36 02.11.2019
5138 Clouds 24 1018 78 9656 4.1 10 22:18 02.11.2019
5139 Mist 24 1019 83 8047 4.6 350 21:55 02.11.2019
5140 Mist 24 1019 83 8047 4.6 350 21:36 02.11.2019
5141 Mist 24 1019 83 8047 4.6 350 21:18 02.11.2019
5142 Rain 23 1019 94 4828 5.1 360 20:42 02.11.2019
5143 Rain 23 1019 94 4828 5.1 360 20:22 02.11.2019
5144 Rain 23 1020 88 4828 2.6 350 19:59 02.11.2019
5145 Rain 23 1020 88 4828 2.6 350 19:38 02.11.2019
5146 Rain 23 1020 88 4828 2.6 350 19:19 02.11.2019
5147 Mist 23 1021 94 8047 3.1 340 18:54 02.11.2019
5148 Mist 22 1021 94 8047 3.1 340 18:36 02.11.2019
5149 Mist 22 1021 94 8047 3.1 340 18:18 02.11.2019
5150 Rain 22 1021 94 6437 2.1 340 17:55 02.11.2019
5151 Rain 22 1021 94 6437 2.1 340 17:36 02.11.2019
5152 Rain 22 1021 94 6437 2.1 340 17:18 02.11.2019
5153 Rain 22 1021 94 6437 3.1 340 16:40 02.11.2019
5154 Rain 22 1021 94 6437 3.1 340 16:20 02.11.2019
5155 Rain 21 1020 100 8047 3.6 330 15:44 02.11.2019
5156 Rain 21 1020 100 8047 3.6 330 15:22 02.11.2019
5157 Rain 21 1020 100 8047 3.1 350 14:58 02.11.2019
5158 Rain 21 1020 100 8047 3.1 350 14:40 02.11.2019
5159 Rain 21 1020 100 8047 3.1 350 14:21 02.11.2019
5160 Rain 21 1020 94 4828 5.33 328 13:54 02.11.2019
5161 Rain 21 1020 94 4828 5.33 328 13:36 02.11.2019
5162 Rain 21 1019 94 8047 4.51 324 13:18 02.11.2019
5163 Rain 22 1017 77 0 1.79 318 12:40 02.11.2019
5164 Clouds 22 1017 72 0 2.24 325 12:22 02.11.2019
5165 Clouds 22 1017 71 0 2.24 324 11:55 02.11.2019
5166 Clouds 23 1017 71 0 3.13 321 11:37 02.11.2019
5167 Clouds 23 1017 71 0 3.13 321 11:37 02.11.2019
5168 Rain 23 1017 71 0 3.58 325 11:19 02.11.2019
5169 Rain 23 1017 71 0 3.58 347 10:43 02.11.2019
5170 Rain 23 1017 72 0 4.92 339 10:24 02.11.2019
5171 Rain 22 1017 79 0 0.89 278 09:43 02.11.2019
5172 Rain 22 1018 78 0 4.98 331 09:22 02.11.2019
5173 Rain 21 1018 79 0 4.98 331 08:57 02.11.2019
5174 Rain 21 1018 79 0 4.98 331 08:57 02.11.2019
5175 Rain 21 1018 79 0 0.45 290 08:37 02.11.2019
5176 Clouds 21 1018 79 0 0.45 290 08:18 02.11.2019
5177 Clouds 21 1018 79 0 0.45 290 07:44 02.11.2019
5178 Clouds 22 1019 78 0 4.95 321 07:25 02.11.2019
5179 Clouds 21 1021 88 11265 4.95 321 06:52 02.11.2019
5180 Clouds 21 1021 88 11265 4.95 321 06:25 02.11.2019
5181 Clouds 21 1022 83 9656 4.95 321 05:50 02.11.2019
5182 Clouds 22 1022 73 9656 5.1 360 04:26 02.11.2019
5183 Clouds 22 1021 78 9656 3.1 350 03:52 02.11.2019
5184 Clouds 22 1021 78 9656 3.1 350 03:31 02.11.2019
5185 Clouds 22 1021 78 9656 3.1 350 03:31 02.11.2019
5186 Clouds 22 1021 78 9656 4.6 20 02:31 02.11.2019
5187 Clouds 23 1020 78 9656 5.1 360 01:36 02.11.2019
5188 Clouds 22 1020 78 9656 5.1 360 01:18 02.11.2019
5189 Clouds 22 1020 73 9656 6.2 360 00:42 02.11.2019
5190 Clouds 22 1020 73 9656 6.2 360 00:21 02.11.2019
5191 Drizzle 23 1020 64 11265 6.2 360 23:42 01.11.2019
5192 Drizzle 23 1020 64 11265 6.2 360 23:42 01.11.2019
5193 Drizzle 23 1020 64 11265 6.2 360 23:20 01.11.2019
5194 Clouds 24 1020 64 11265 4.6 350 22:42 01.11.2019
5195 Clouds 24 1020 64 11265 4.6 350 22:21 01.11.2019
5196 Clouds 24 1021 64 11265 1.5 340 21:55 01.11.2019
5197 Clouds 25 1021 64 11265 1.5 340 21:36 01.11.2019
5198 Clouds 24 1021 64 11265 1.5 340 21:18 01.11.2019
5199 Clouds 24 1021 64 11265 3.6 360 20:42 01.11.2019
5200 Clouds 24 1021 64 11265 3.6 360 20:23 01.11.2019
5201 Clouds 24 1022 69 11265 1 300 19:59 01.11.2019
5202 Clouds 24 1022 69 11265 1 300 19:41 01.11.2019
5203 Clouds 24 1022 69 11265 1 300 19:21 01.11.2019
5204 Clouds 23 1023 78 11265 1.5 290 18:41 01.11.2019
5205 Clouds 22 1023 78 11265 1.5 290 18:21 01.11.2019
5206 Clouds 21 1024 88 11265 3.58 289 17:59 01.11.2019
5207 Clouds 21 1024 88 11265 3.58 289 17:41 01.11.2019
5208 Clouds 21 1024 88 11265 7.31 336 17:23 01.11.2019
5209 Rain 20 1024 93 9656 7.31 336 16:41 01.11.2019
5210 Rain 20 1024 93 9656 7.31 336 16:21 01.11.2019
5211 Drizzle 18 1024 93 8047 7.31 336 15:58 01.11.2019
5212 Drizzle 18 1024 93 8047 7.31 336 15:40 01.11.2019
5213 Drizzle 18 1024 93 8047 7.31 336 15:22 01.11.2019
5214 Clouds 18 1023 93 6437 7.31 336 14:44 01.11.2019
5215 Clouds 18 1023 93 6437 7.31 336 14:25 01.11.2019
5216 Clouds 18 1023 93 9656 5.58 334 13:59 01.11.2019
5217 Clouds 18 1023 93 9656 5.58 334 13:40 01.11.2019
5218 Clouds 18 1023 93 9656 5.78 328 13:21 01.11.2019
5219 Clouds 18 1023 93 9656 5.78 328 13:21 01.11.2019
5220 Clouds 18 1021 81 0 5.78 328 12:55 01.11.2019
5221 Clouds 18 1021 81 0 5.78 328 12:55 01.11.2019
5222 Clouds 18 1021 81 0 5.78 328 12:37 01.11.2019
5223 Clouds 18 1021 80 0 0.89 259 12:19 01.11.2019
5224 Clouds 18 1021 80 0 0.45 259 11:41 01.11.2019
5225 Clouds 18 1021 79 0 0.89 259 11:23 01.11.2019
5226 Clouds 20 1023 80 0 6.73 331 10:44 01.11.2019
5227 Rain 18 1020 78 0 0.89 251 10:25 01.11.2019
5228 Clouds 18 1020 77 0 0.89 259 09:59 01.11.2019
5229 Clouds 18 1020 77 0 0.89 255 09:41 01.11.2019
5230 Clouds 18 1020 76 0 1.34 250 09:21 01.11.2019
5231 Clouds 18 1021 75 0 1.34 242 08:46 01.11.2019
5232 Clouds 18 1021 76 0 6.11 325 08:23 01.11.2019
5233 Clouds 18 1021 74 0 1.34 5 07:58 01.11.2019
5234 Clouds 19 1021 72 0 0.89 5 07:40 01.11.2019
5235 Clouds 19 1021 70 0 0.45 5 07:21 01.11.2019
5236 Clouds 19 1023 77 11265 3.6 350 06:49 01.11.2019
5237 Clouds 19 1023 77 11265 3.6 350 06:22 01.11.2019
5238 Clouds 19 1023 77 11265 7.2 350 05:44 01.11.2019
5239 Sand 20 1022 77 11265 7.2 360 04:39 01.11.2019
5240 Clouds 19 1022 77 11265 6.7 360 03:26 01.11.2019
5241 Sand 19 1020 72 9656 7.2 340 01:43 01.11.2019
5242 Sand 19 1018 68 8047 15.9 360 00:43 01.11.2019
5243 Sand 20 1018 68 8047 15.9 360 00:19 01.11.2019
5244 Sand 21 1018 68 8047 9.3 360 23:44 31.10.2019
5245 Sand 21 1018 68 8047 9.3 360 23:44 31.10.2019
5246 Sand 21 1018 68 8047 9.3 360 23:23 31.10.2019
5247 Sand 21 1018 60 8047 13.9 330 22:57 31.10.2019
5248 Sand 22 1018 60 8047 13.9 330 22:39 31.10.2019
5249 Sand 22 1018 60 8047 13.9 330 22:21 31.10.2019
5250 Sand 23 1017 60 8047 10.3 20 21:44 31.10.2019
5251 Sand 23 1017 60 8047 10.3 20 21:21 31.10.2019
5252 Clouds 24 1017 60 8047 12.9 360 20:57 31.10.2019
5253 Clouds 24 1017 60 8047 12.9 360 20:39 31.10.2019
5254 Clouds 24 1017 60 8047 12.9 360 20:21 31.10.2019
5255 Rain 24 1018 73 8047 12.9 360 19:42 31.10.2019
5256 Rain 23 1018 73 8047 12.9 360 19:22 31.10.2019
5257 Rain 23 1018 78 9656 10.3 350 18:58 31.10.2019
5258 Rain 23 1018 78 9656 10.3 350 18:39 31.10.2019
5259 Rain 23 1018 78 9656 10.3 350 18:20 31.10.2019
5260 Clouds 24 1018 83 9656 10.3 350 17:42 31.10.2019
5261 Clouds 24 1018 83 9656 10.3 350 17:22 31.10.2019
5262 Rain 24 1017 94 3219 10.3 20 16:59 31.10.2019
5263 Rain 24 1017 94 3219 10.3 20 16:40 31.10.2019
5264 Rain 24 1017 94 3219 10.3 20 16:20 31.10.2019
5265 Rain 25 1017 100 4828 2.6 10 15:56 31.10.2019
5266 Rain 26 1017 100 4828 2.6 10 15:38 31.10.2019
5267 Rain 26 1016 94 4828 2.6 320 15:19 31.10.2019
5268 Rain 26 1016 94 4828 12.12 355 14:56 31.10.2019
5269 Rain 26 1016 94 4828 12.12 355 14:37 31.10.2019
5270 Rain 25 1014 100 4828 4.3 3 14:19 31.10.2019
5271 Mist 25 1013 100 4828 2.1 330 13:54 31.10.2019
5272 Mist 25 1013 100 4828 2.1 330 13:36 31.10.2019
5273 Mist 25 1013 100 4828 2.1 330 13:18 31.10.2019
5274 Rain 25 1011 83 0 0.89 331 12:43 31.10.2019
5275 Rain 25 1011 83 0 0.89 331 12:23 31.10.2019
5276 Rain 25 1011 83 0 0.45 87 11:55 31.10.2019
5277 Rain 25 1011 83 0 4.38 357 11:36 31.10.2019
5278 Rain 25 1011 83 0 1.46 2 11:18 31.10.2019
5279 Rain 26 1010 83 0 1.46 2 10:40 31.10.2019
5280 Rain 26 1010 83 0 1.46 2 10:22 31.10.2019
5281 Rain 26 1010 83 0 1.46 2 09:59 31.10.2019
5282 Rain 26 1011 82 0 1.46 2 09:41 31.10.2019
5283 Haze 25 1012 94 4828 1.46 2 09:18 31.10.2019
5284 Haze 25 1012 94 4828 1.46 2 08:49 31.10.2019
5285 Haze 25 1012 94 4828 1.66 42 08:30 31.10.2019
5286 Clear 26 1012 94 6437 1.54 58 07:55 31.10.2019
5287 Clear 26 1012 94 6437 1.54 58 07:36 31.10.2019
5288 Clear 26 1012 94 6437 1.54 58 07:18 31.10.2019
5289 Clouds 26 1013 94 8047 1.54 58 06:38 31.10.2019
5290 Clouds 26 1013 94 8047 1.54 58 06:18 31.10.2019
5291 Clouds 26 1013 94 8047 1.54 58 06:18 31.10.2019
5292 Clear 27 1011 88 11265 3.06 84 03:30 31.10.2019
5293 Clear 27 1010 88 11265 1.5 90 02:41 31.10.2019
5294 Clouds 28 1009 83 9656 1.5 70 01:52 31.10.2019
5295 Clouds 29 1008 79 9656 2.1 100 00:37 31.10.2019
5296 Clouds 29 1008 79 9656 2.1 100 00:18 31.10.2019
5297 Clouds 30 1008 74 9656 2.6 90 23:30 30.10.2019
5298 Clouds 31 1008 66 9656 3.1 90 22:43 30.10.2019
5299 Clouds 31 1008 66 9656 3.1 90 22:23 30.10.2019
5300 Clouds 31 1008 66 9656 3.1 90 22:23 30.10.2019
5301 Clouds 31 1008 66 9656 1.5 90 21:56 30.10.2019
5302 Clouds 31 1008 66 9656 1.5 90 21:38 30.10.2019
5303 Clouds 31 1008 66 9656 1.5 90 21:19 30.10.2019
5304 Clouds 32 1010 59 9656 1 140 20:59 30.10.2019
5305 Clouds 32 1010 59 9656 1 140 20:41 30.10.2019
5306 Clouds 32 1010 59 9656 1 140 20:41 30.10.2019
5307 Clouds 32 1010 59 9656 1 140 20:22 30.10.2019
5308 Clouds 32 1011 59 8047 2.77 85 19:58 30.10.2019
5309 Clouds 32 1011 59 8047 2.77 85 19:38 30.10.2019
5310 Clouds 32 1011 59 8047 2.77 85 19:20 30.10.2019
5311 Clouds 30 1012 74 8047 1 150 18:57 30.10.2019
5312 Clouds 31 1012 74 8047 1 150 18:37 30.10.2019
5313 Clouds 31 1012 74 8047 1 150 18:18 30.10.2019
5314 Clouds 30 1012 74 8047 1 230 17:41 30.10.2019
5315 Clouds 30 1012 74 8047 1 230 17:41 30.10.2019
5316 Clouds 30 1012 74 8047 1 230 17:19 30.10.2019
5317 Haze 29 1012 83 6437 1.84 255 16:56 30.10.2019
5318 Haze 28 1012 83 6437 1.84 255 16:37 30.10.2019
5319 Haze 28 1012 83 6437 1.84 255 16:19 30.10.2019
5320 Clouds 26 1011 94 8047 1.84 255 15:56 30.10.2019
5321 Clouds 26 1011 94 8047 1.84 255 15:37 30.10.2019
5322 Clouds 26 1011 94 8047 1.84 255 15:19 30.10.2019
5323 Clouds 25 1011 100 8047 1.84 255 14:42 30.10.2019
5324 Clouds 25 1011 100 8047 2.28 237 14:22 30.10.2019
5325 Clouds 24 1011 100 9656 2.28 237 13:59 30.10.2019
5326 Clouds 24 1011 100 9656 2.28 237 13:40 30.10.2019
5327 Clouds 24 1011 100 9656 2.18 258 13:20 30.10.2019
5328 Clouds 24 1009 83 0 0.45 250 12:57 30.10.2019
5329 Clouds 24 1009 83 0 2.18 258 12:39 30.10.2019
5330 Clouds 25 1009 83 0 0.89 252 12:21 30.10.2019
5331 Clouds 24 1009 83 0 1.34 259 11:42 30.10.2019
5332 Clouds 24 1009 83 0 0.45 259 11:24 30.10.2019
5333 Clouds 24 1009 82 0 0.89 259 10:46 30.10.2019
5334 Clouds 24 1009 82 0 0.89 259 10:27 30.10.2019
5335 Clouds 24 1009 82 0 1.2 287 09:59 30.10.2019
5336 Clouds 24 1009 82 0 1.2 287 09:40 30.10.2019
5337 Clouds 24 1009 82 0 1.2 287 09:22 30.10.2019
5338 Clouds 24 1009 82 0 1.2 287 08:42 30.10.2019
5339 Rain 25 1009 81 0 0.44 57 08:23 30.10.2019
5340 Rain 25 1009 81 0 0.44 57 07:59 30.10.2019
5341 Rain 25 1009 81 0 0.44 57 07:59 30.10.2019
5342 Rain 25 1010 81 0 0.45 193 07:39 30.10.2019
5343 Clouds 26 1012 94 11265 0.44 57 06:48 30.10.2019
5344 Clouds 26 1012 94 11265 0.44 57 06:29 30.10.2019
5345 Clouds 27 1012 88 11265 0.44 57 05:55 30.10.2019
5346 Clouds 27 1012 88 11265 0.44 57 05:37 30.10.2019
5347 Clear 27 1010 88 11265 1.5 100 03:50 30.10.2019
5348 Clear 27 1010 88 11265 1.5 100 03:21 30.10.2019
5349 Clear 27 1009 83 11265 2.77 86 02:48 30.10.2019
5350 Clouds 27 1008 83 11265 3.04 81 01:42 30.10.2019
5351 Clouds 28 1008 74 11265 1 110 00:36 30.10.2019
5352 Clouds 28 1008 74 11265 1 110 00:18 30.10.2019
5353 Clouds 30 1008 66 11265 1 100 23:38 29.10.2019
5354 Clouds 30 1008 66 11265 1 100 23:18 29.10.2019
5355 Clouds 30 1008 66 11265 3.6 80 22:41 29.10.2019
5356 Clouds 30 1008 66 11265 3.6 80 22:41 29.10.2019
5357 Clouds 30 1008 66 11265 3.6 80 22:19 29.10.2019
5358 Clouds 30 1009 70 11265 1.5 130 21:55 29.10.2019
5359 Clouds 30 1009 70 11265 1.5 130 21:36 29.10.2019
5360 Clouds 30 1009 70 11265 1.5 130 21:18 29.10.2019
5361 Clouds 31 1010 66 11265 1 170 20:42 29.10.2019
5362 Clouds 30 1010 66 11265 1 170 20:22 29.10.2019
5363 Clouds 31 1011 62 11265 2.47 89 19:58 29.10.2019
5364 Clouds 31 1011 62 11265 2.47 89 19:58 29.10.2019
5365 Clouds 31 1011 62 11265 2.47 89 19:39 29.10.2019
5366 Clouds 31 1011 62 11265 2.47 89 19:20 29.10.2019
5367 Clouds 30 1012 74 11265 2.47 89 18:58 29.10.2019
5368 Clouds 30 1012 74 11265 2.47 89 18:58 29.10.2019
5369 Clouds 30 1012 74 11265 2.47 89 18:38 29.10.2019
5370 Clouds 30 1012 74 11265 2.47 89 18:20 29.10.2019
5371 Clouds 29 1013 70 9656 2.6 180 17:56 29.10.2019
5372 Clouds 29 1013 70 9656 2.6 180 17:37 29.10.2019
5373 Clouds 29 1013 70 9656 2.6 180 17:19 29.10.2019
5374 Clouds 28 1013 74 11265 1.74 220 16:41 29.10.2019
5375 Clouds 28 1013 74 11265 1.74 220 16:22 29.10.2019
5376 Clouds 27 1012 83 11265 1.74 220 15:59 29.10.2019
5377 Clouds 27 1012 83 11265 1.74 220 15:41 29.10.2019
5378 Clouds 26 1012 83 11265 1.74 220 15:20 29.10.2019
5379 Clouds 24 1011 94 9656 1.74 220 14:56 29.10.2019
5380 Clouds 24 1011 94 9656 1.74 220 14:38 29.10.2019
5381 Clouds 24 1011 94 9656 2.09 239 14:19 29.10.2019
5382 Clouds 23 1011 94 8047 2.09 239 13:40 29.10.2019
5383 Clouds 23 1011 94 8047 2.09 239 13:40 29.10.2019
5384 Clouds 23 1011 94 8047 1.77 242 13:22 29.10.2019
5385 Clear 23 1009 81 0 1.77 242 12:56 29.10.2019
5386 Clear 23 1009 81 0 1.77 242 12:37 29.10.2019
5387 Clear 23 1009 81 0 1.77 242 12:19 29.10.2019
5388 Clear 23 1009 80 0 0.45 273 11:42 29.10.2019
5389 Clear 23 1010 81 0 0.45 273 11:22 29.10.2019
5390 Clear 23 1010 81 0 0.45 273 10:58 29.10.2019
5391 Clear 23 1010 80 0 2.03 260 10:39 29.10.2019
5392 Clear 24 1010 80 0 2.03 260 10:20 29.10.2019
5393 Clear 24 1010 80 0 0.89 273 09:58 29.10.2019
5394 Clear 24 1010 80 0 0.89 273 09:40 29.10.2019
5395 Clear 24 1010 79 0 0.89 275 09:21 29.10.2019
5396 Clear 24 1010 79 0 1.34 273 08:45 29.10.2019
5397 Clear 24 1010 79 0 2.46 267 08:25 29.10.2019
5398 Clouds 24 1013 94 11265 2.34 274 07:55 29.10.2019
5399 Clouds 24 1013 94 11265 2.34 274 07:37 29.10.2019
5400 Clouds 24 1013 94 11265 2.34 274 07:18 29.10.2019
5401 Clouds 25 1013 83 11265 2.34 274 06:45 29.10.2019
5402 Clouds 25 1013 83 11265 2.34 274 06:25 29.10.2019
5403 Clouds 26 1013 78 11265 2.34 274 05:50 29.10.2019
5404 Clouds 26 1013 78 11265 2.34 274 05:26 29.10.2019
5405 Clouds 26 1013 83 11265 1.5 60 04:31 29.10.2019
5406 Clouds 26 1010 78 11265 2.6 60 02:33 29.10.2019
5407 Clouds 26 1009 78 11265 1.5 70 01:47 29.10.2019
5408 Clouds 27 1009 78 11265 1.5 70 01:18 29.10.2019
5409 Clouds 28 1009 69 11265 3.1 60 00:43 29.10.2019
5410 Clouds 29 1009 66 11265 3.1 70 23:43 28.10.2019
5411 Clouds 29 1009 66 11265 3.1 70 23:21 28.10.2019
5412 Clouds 29 1009 66 11265 3.1 70 22:58 28.10.2019
5413 Clouds 29 1009 66 11265 3.1 70 22:37 28.10.2019
5414 Clouds 29 1009 66 11265 3.1 70 22:18 28.10.2019
5415 Clouds 29 1010 66 11265 2.1 90 21:56 28.10.2019
5416 Clouds 29 1010 66 11265 2.1 90 21:38 28.10.2019
5417 Clouds 29 1010 66 11265 2.1 90 21:19 28.10.2019
5418 Clouds 29 1011 66 11265 1.5 110 20:45 28.10.2019
5419 Clouds 29 1011 66 11265 1.5 110 20:24 28.10.2019
5420 Clouds 29 1012 66 11265 4.1 80 19:59 28.10.2019
5421 Clouds 29 1012 66 11265 4.1 80 19:39 28.10.2019
5422 Clouds 29 1012 66 11265 4.1 80 19:21 28.10.2019
5423 Clouds 29 1013 66 11265 2.07 71 18:59 28.10.2019
5424 Clouds 29 1013 66 11265 2.07 71 18:39 28.10.2019
5425 Clouds 29 1013 66 11265 2.07 71 18:21 28.10.2019
5426 Clouds 28 1014 69 11265 1.5 160 17:56 28.10.2019
5427 Clouds 28 1014 69 11265 1.5 160 17:38 28.10.2019
5428 Clouds 27 1014 69 11265 1.5 160 17:19 28.10.2019
5429 Clouds 26 1013 78 11265 1.59 255 16:57 28.10.2019
5430 Clouds 26 1013 78 11265 1.59 255 16:39 28.10.2019
5431 Clouds 25 1013 78 11265 1.59 255 16:20 28.10.2019
5432 Clouds 24 1013 94 11265 1.59 255 15:56 28.10.2019
5433 Clouds 24 1013 94 11265 1.59 255 15:38 28.10.2019
5434 Clouds 24 1013 94 11265 1.59 255 15:20 28.10.2019
5435 Clouds 22 1013 94 11265 1.59 255 14:56 28.10.2019
5436 Clouds 22 1013 94 11265 1.59 255 14:37 28.10.2019
5437 Clouds 21 1013 94 11265 1.5 268 14:18 28.10.2019
5438 Clouds 21 1012 94 11265 1.5 268 13:54 28.10.2019
5439 Clouds 21 1012 94 11265 1.5 268 13:36 28.10.2019
5440 Clouds 21 1012 94 11265 1.5 268 13:36 28.10.2019
5441 Clouds 21 1012 94 11265 1.44 261 13:18 28.10.2019
5442 Clouds 21 1010 80 0 1.44 261 12:40 28.10.2019
5443 Clouds 21 1010 79 0 1.44 261 12:20 28.10.2019
5444 Clouds 21 1010 79 0 1.44 261 12:20 28.10.2019
5445 Clouds 21 1010 79 0 1.44 261 11:40 28.10.2019
5446 Clouds 21 1010 80 0 2.23 282 11:21 28.10.2019
5447 Clouds 21 1010 80 0 2.23 282 10:56 28.10.2019
5448 Clouds 21 1010 80 0 2.23 282 10:56 28.10.2019
5449 Clouds 21 1010 79 0 2.23 282 10:38 28.10.2019
5450 Clouds 21 1010 79 0 2.23 282 10:19 28.10.2019
5451 Clouds 21 1011 79 0 2.23 282 09:54 28.10.2019
5452 Clouds 21 1011 80 0 2.23 282 09:36 28.10.2019
5453 Clouds 21 1011 79 0 2.23 282 09:18 28.10.2019
5454 Clear 21 1014 94 9656 2.23 282 08:56 28.10.2019
5455 Clear 21 1014 94 9656 2.23 282 08:37 28.10.2019
5456 Clear 21 1014 94 9656 2.88 275 08:18 28.10.2019
5457 Clear 22 1014 88 9656 2.88 275 07:43 28.10.2019
5458 Clear 22 1014 88 9656 2.88 275 07:21 28.10.2019
5459 Clear 22 1015 88 9656 2.88 275 06:56 28.10.2019
5460 Clear 22 1015 88 9656 2.88 275 06:34 28.10.2019
5461 Clear 23 1015 83 11265 2.11 73 05:19 28.10.2019
5462 Clear 24 1013 78 11265 2.11 73 03:44 28.10.2019
5463 Clouds 24 1012 78 11265 2.11 73 02:45 28.10.2019
5464 Clouds 26 1012 69 11265 2.79 58 01:36 28.10.2019
5465 Clouds 26 1011 65 11265 2.79 58 00:47 28.10.2019
5466 Clouds 27 1011 65 11265 2.79 58 00:24 28.10.2019
5467 Clouds 27 1011 65 11265 1.5 80 23:44 27.10.2019
5468 Clouds 27 1011 65 11265 1.5 80 23:21 27.10.2019
5469 Clouds 27 1011 65 11265 5.1 80 22:56 27.10.2019
5470 Clouds 27 1011 65 11265 5.1 80 22:37 27.10.2019
5471 Clouds 27 1011 65 11265 5.1 80 22:19 27.10.2019
5472 Clouds 28 1012 61 11265 2.6 100 21:40 27.10.2019
5473 Clouds 28 1012 61 11265 2.6 100 21:22 27.10.2019
5474 Clouds 28 1013 54 11265 3.19 54 20:59 27.10.2019
5475 Clouds 29 1013 54 11265 3.19 54 20:41 27.10.2019
5476 Clouds 29 1013 54 11265 0.41 28 20:23 27.10.2019
5477 Clouds 28 1014 54 11265 2.1 190 19:58 27.10.2019
5478 Clouds 28 1014 54 11265 2.1 190 19:37 27.10.2019
5479 Clouds 28 1014 54 11265 2.1 190 19:19 27.10.2019
5480 Clouds 27 1015 57 11265 0.41 28 18:56 27.10.2019
5481 Clouds 27 1015 57 11265 0.41 28 18:38 27.10.2019
5482 Clouds 27 1015 57 11265 0.41 28 18:20 27.10.2019
5483 Clear 26 1015 65 11265 0.41 28 17:55 27.10.2019
5484 Clear 26 1015 65 11265 0.41 28 17:36 27.10.2019
5485 Clear 26 1015 65 11265 2.87 251 17:18 27.10.2019
5486 Clouds 26 1016 69 11265 2.87 251 16:55 27.10.2019
5487 Clouds 26 1016 69 11265 2.87 251 16:55 27.10.2019
5488 Clouds 25 1016 69 11265 2.87 251 16:37 27.10.2019
5489 Clouds 25 1016 69 11265 2.87 251 16:18 27.10.2019
5490 Clouds 23 1015 78 11265 2.87 251 15:54 27.10.2019
5491 Clouds 23 1015 78 11265 2.87 251 15:36 27.10.2019
5492 Clouds 23 1015 78 11265 2.87 251 15:18 27.10.2019
5493 Clouds 20 1015 88 11265 2.87 251 14:41 27.10.2019
5494 Clouds 20 1015 88 11265 2.09 280 14:19 27.10.2019
5495 Clear 19 1014 88 11265 2.09 280 13:55 27.10.2019
5496 Clear 19 1014 88 11265 2 274 13:36 27.10.2019
5497 Clear 19 1014 88 11265 2 274 13:18 27.10.2019
5498 Clouds 19 1012 75 0 0.89 281 12:42 27.10.2019
5499 Clouds 19 1012 75 0 0.89 281 12:23 27.10.2019
5500 Clouds 19 1012 74 0 0.89 281 11:43 27.10.2019
5501 Clouds 19 1012 73 0 1.34 273 11:25 27.10.2019
5502 Clouds 19 1012 73 0 1.34 273 11:25 27.10.2019
5503 Clouds 19 1012 74 0 0.89 275 10:59 27.10.2019
5504 Clouds 19 1012 74 0 0.89 275 10:59 27.10.2019
5505 Clouds 19 1012 74 0 0.89 275 10:41 27.10.2019
5506 Clouds 19 1012 73 0 0.45 275 10:22 27.10.2019
5507 Clouds 19 1012 73 0 0.45 275 09:43 27.10.2019
5508 Clouds 20 1012 71 0 0.89 275 09:19 27.10.2019
5509 Clouds 20 1012 69 0 0.45 275 08:57 27.10.2019
5510 Clouds 21 1012 68 0 0.89 275 08:38 27.10.2019
5511 Clouds 21 1012 68 0 0.89 275 08:19 27.10.2019
5512 Clouds 22 1013 64 0 0.89 275 07:47 27.10.2019
5513 Clouds 22 1013 64 0 0.89 275 07:28 27.10.2019
5514 Clouds 22 1016 73 11265 1.34 296 06:55 27.10.2019
5515 Clouds 22 1016 73 11265 1.34 296 06:29 27.10.2019
5516 Clouds 23 1017 64 11265 1.34 296 05:57 27.10.2019
5517 Clouds 23 1017 64 11265 1.34 296 05:57 27.10.2019
5518 Clouds 23 1017 64 11265 1.34 296 05:35 27.10.2019
5519 Clouds 23 1016 64 11265 2.6 360 03:35 27.10.2019
5520 Clouds 23 1014 64 11265 4.6 10 02:29 27.10.2019
5521 Clouds 24 1013 60 11265 5.1 350 01:27 27.10.2019
5522 Clouds 25 1013 57 11265 5.1 360 00:53 27.10.2019
5523 Clouds 25 1013 57 11265 5.1 360 00:35 27.10.2019
5524 Clouds 25 1014 57 11265 4.6 10 23:58 26.10.2019
5525 Clouds 26 1014 57 11265 4.6 10 23:40 26.10.2019
5526 Clouds 25 1014 57 11265 4.6 10 23:21 26.10.2019
5527 Clouds 25 1015 57 11265 1.5 340 22:57 26.10.2019
5528 Clouds 26 1015 57 11265 1.5 340 22:38 26.10.2019
5529 Clouds 26 1015 57 11265 1.5 340 22:19 26.10.2019
5530 Clouds 24 1016 64 11265 2.1 320 21:55 26.10.2019
5531 Clouds 24 1016 64 11265 2.1 320 21:36 26.10.2019
5532 Clouds 24 1016 64 11265 2.1 320 21:18 26.10.2019
5533 Clouds 24 1018 64 11265 2.1 320 20:42 26.10.2019
5534 Clouds 24 1018 64 11265 2.1 320 20:19 26.10.2019
5535 Smoke 24 1018 64 11265 1.5 320 19:43 26.10.2019
5536 Smoke 25 1018 64 11265 1.5 320 19:21 26.10.2019
5537 Clouds 23 1018 69 11265 2.6 320 18:58 26.10.2019
5538 Clouds 23 1018 69 11265 2.6 320 18:40 26.10.2019
5539 Clouds 24 1018 69 11265 2.6 320 18:20 26.10.2019
5540 Clouds 23 1018 56 9656 7.7 360 17:58 26.10.2019
5541 Clouds 23 1018 56 9656 7.7 360 17:39 26.10.2019
5542 Clouds 24 1018 56 9656 7.7 360 17:20 26.10.2019
5543 Clouds 24 1017 53 9656 5.1 360 16:46 26.10.2019
5544 Clouds 24 1017 53 9656 5.1 360 16:25 26.10.2019
5545 Clouds 24 1016 57 9656 5.1 10 15:59 26.10.2019
5546 Clouds 24 1016 57 9656 5.1 10 15:40 26.10.2019
5547 Clouds 24 1016 57 9656 5.1 10 15:18 26.10.2019
5548 Clouds 24 1015 57 9656 5.1 360 14:40 26.10.2019
5549 Clouds 24 1015 57 9656 5.1 360 14:20 26.10.2019
5550 Clouds 24 1015 57 9656 5.1 360 13:58 26.10.2019
5551 Clouds 23 1017 66 0 9.38 336 13:37 26.10.2019
5552 Clouds 24 1015 57 9656 5.1 360 13:19 26.10.2019
5553 Clouds 23 1017 66 0 9.38 336 12:43 26.10.2019
5554 Clouds 24 1013 50 0 7.6 355 12:43 26.10.2019
5555 Clouds 24 1013 49 0 8.05 349 12:21 26.10.2019
5556 Clouds 24 1013 48 0 7.6 355 11:48 26.10.2019
5557 Clouds 24 1013 48 0 7.6 355 11:25 26.10.2019
5558 Clouds 23 1015 70 0 10.53 349 10:47 26.10.2019
5559 Clouds 23 1015 70 0 10.53 349 10:27 26.10.2019
5560 Clouds 23 1016 69 0 8.84 347 09:50 26.10.2019
5561 Clouds 23 1016 69 0 8.84 347 09:30 26.10.2019
5562 Clouds 23 1017 70 0 13.05 343 08:57 26.10.2019
5563 Clouds 23 1017 70 0 13.05 343 08:39 26.10.2019
5564 Clouds 24 1015 69 11265 10.3 360 08:20 26.10.2019
5565 Clouds 24 1015 69 11265 10.3 360 07:43 26.10.2019
5566 Clouds 24 1015 69 11265 10.3 360 07:23 26.10.2019
5567 Clouds 24 1015 69 11265 7.7 20 06:40 26.10.2019
5568 Clouds 24 1014 69 11265 10.3 360 05:57 26.10.2019
5569 Clouds 24 1014 69 11265 10.3 360 05:19 26.10.2019
5570 Clouds 25 1012 65 9656 6.2 360 03:53 26.10.2019
5571 Clouds 25 1011 69 9656 6.2 360 02:33 26.10.2019
5572 Clouds 25 1011 73 9656 8.2 360 01:47 26.10.2019
5573 Clouds 25 1011 78 8047 8.2 20 00:52 26.10.2019
5574 Clouds 25 1011 88 8047 7.7 10 23:56 25.10.2019
5575 Clouds 25 1011 88 8047 7.7 10 23:37 25.10.2019
5576 Clouds 25 1011 88 8047 7.7 10 23:18 25.10.2019
5577 Clouds 27 1011 78 8047 9.3 360 22:39 25.10.2019
5578 Clouds 27 1011 78 8047 9.3 360 22:21 25.10.2019
5579 Clouds 29 1011 66 11265 3.1 30 21:56 25.10.2019
5580 Clouds 30 1011 66 11265 3.1 30 21:37 25.10.2019
5581 Clouds 30 1011 66 11265 3.1 30 21:19 25.10.2019
5582 Clouds 30 1012 66 11265 5.48 4 20:43 25.10.2019
5583 Clouds 30 1012 66 11265 5.48 4 20:19 25.10.2019
5584 Clouds 29 1013 70 11265 5.48 4 19:47 25.10.2019
5585 Clouds 29 1013 70 11265 5.48 4 19:47 25.10.2019
5586 Clouds 30 1013 70 11265 5.48 4 19:29 25.10.2019
5587 Clouds 29 1013 83 9656 5.48 4 18:56 25.10.2019
5588 Clouds 28 1013 83 9656 5.48 4 18:37 25.10.2019
5589 Clouds 28 1013 83 9656 1.14 244 18:19 25.10.2019
5590 Clouds 27 1013 94 9656 1.14 244 17:39 25.10.2019
5591 Clouds 27 1013 94 9656 1.14 244 17:20 25.10.2019
5592 Mist 26 1012 94 8047 1.14 244 16:46 25.10.2019
5593 Mist 26 1012 94 8047 1.14 244 16:23 25.10.2019
5594 Mist 25 1011 94 8047 1.14 244 15:57 25.10.2019
5595 Mist 25 1011 94 8047 1.14 244 15:38 25.10.2019
5596 Mist 24 1011 94 8047 2 216 15:20 25.10.2019
5597 Mist 24 1011 94 8047 2 216 15:20 25.10.2019
5598 Mist 24 1011 94 8047 2 216 15:20 25.10.2019
5599 Clouds 23 1011 100 9656 2 216 14:42 25.10.2019
5600 Clouds 24 1011 100 9656 2.26 234 14:23 25.10.2019
5601 Clouds 24 1010 94 9656 2.26 234 13:59 25.10.2019
5602 Clouds 24 1010 94 9656 2.26 234 13:39 25.10.2019
5603 Clouds 24 1010 94 9656 2.26 234 13:21 25.10.2019
5604 Clouds 24 1008 83 0 2.26 234 12:43 25.10.2019
5605 Clouds 23 1008 83 0 0.45 162 12:22 25.10.2019
5606 Clouds 24 1008 83 0 2.42 227 11:58 25.10.2019
5607 Clouds 24 1008 82 0 2.42 227 11:38 25.10.2019
5608 Clouds 24 1008 82 0 0.45 162 11:19 25.10.2019
5609 Clouds 24 1008 83 0 2.42 227 10:41 25.10.2019
5610 Clouds 24 1008 83 0 0.45 162 10:23 25.10.2019
5611 Clouds 24 1008 83 0 2.42 227 09:58 25.10.2019
5612 Clouds 24 1008 82 0 0.45 162 09:38 25.10.2019
5613 Clouds 24 1008 82 0 0.89 162 09:19 25.10.2019
5614 Clear 24 1011 94 9656 2.09 238 08:50 25.10.2019
5615 Clear 24 1011 94 9656 2.09 238 08:32 25.10.2019
5616 Clear 24 1011 94 9656 2.09 238 07:56 25.10.2019
5617 Clear 24 1011 94 9656 2.09 238 07:34 25.10.2019
5618 Clear 24 1011 94 9656 2.09 238 06:42 25.10.2019
5619 Clouds 25 1011 94 11265 1.54 12 05:59 25.10.2019
5620 Clouds 25 1011 94 11265 1.54 12 05:37 25.10.2019
5621 Clouds 26 1010 83 9656 1.54 12 04:53 25.10.2019
5622 Clouds 27 1009 83 9656 1.54 12 03:39 25.10.2019
5623 Clouds 28 1008 74 9656 1.5 80 01:54 25.10.2019
5624 Clouds 28 1008 74 9656 1.5 80 01:27 25.10.2019
5625 Clouds 29 1007 70 11265 2.1 90 00:21 25.10.2019
5626 Clouds 29 1007 70 11265 1.5 90 23:41 24.10.2019
5627 Clouds 29 1007 70 11265 1.5 90 23:22 24.10.2019
5628 Clouds 30 1008 70 11265 3.1 80 22:56 24.10.2019
5629 Clouds 29 1008 70 11265 3.1 80 22:37 24.10.2019
5630 Rain 30 1008 70 11265 3.1 80 22:18 24.10.2019
5631 Rain 30 1009 70 11265 5.31 350 21:56 24.10.2019
5632 Rain 30 1009 70 11265 5.31 350 21:37 24.10.2019
5633 Clouds 29 1009 70 11265 1.24 11 21:19 24.10.2019
5634 Clouds 29 1010 70 11265 1.24 11 20:56 24.10.2019
5635 Clouds 30 1010 70 11265 1.24 11 20:38 24.10.2019
5636 Clouds 30 1010 70 11265 1.24 11 20:19 24.10.2019
5637 Clouds 29 1011 74 11265 1.24 11 19:44 24.10.2019
5638 Clouds 29 1011 74 11265 1.24 11 19:23 24.10.2019
5639 Clouds 28 1011 78 11265 2.1 190 18:59 24.10.2019
5640 Clouds 28 1011 78 11265 2.1 190 18:40 24.10.2019
5641 Clouds 28 1011 78 11265 2.1 190 18:40 24.10.2019
5642 Clouds 28 1011 78 11265 2.1 190 18:21 24.10.2019
5643 Clouds 27 1011 83 9656 4.1 180 17:59 24.10.2019
5644 Clouds 27 1011 83 9656 4.1 180 17:39 24.10.2019
5645 Clouds 27 1011 83 9656 4.1 180 17:19 24.10.2019
5646 Clouds 26 1011 83 11265 2.28 254 16:54 24.10.2019
5647 Clouds 26 1011 83 11265 2.28 254 16:36 24.10.2019
5648 Clouds 26 1009 79 0 2.24 208 16:18 24.10.2019
5649 Clouds 24 1010 88 11265 2.28 254 15:54 24.10.2019
5650 Clouds 24 1010 88 11265 2.28 254 15:36 24.10.2019
5651 Clouds 24 1010 88 11265 2.13 269 15:18 24.10.2019
5652 Clouds 24 1010 94 11265 2.19 292 14:42 24.10.2019
5653 Clouds 24 1010 94 11265 2.19 292 14:23 24.10.2019
5654 Clouds 24 1010 94 9656 2.19 292 13:58 24.10.2019
5655 Clouds 24 1010 94 9656 2.19 292 13:37 24.10.2019
5656 Clouds 24 1010 94 9656 2.19 292 13:18 24.10.2019
5657 Rain 24 1008 82 0 0.45 325 12:55 24.10.2019
5658 Rain 24 1008 82 0 2.19 292 12:37 24.10.2019
5659 Rain 24 1008 82 0 3.06 271 12:18 24.10.2019
5660 Rain 24 1008 82 0 3.06 271 11:54 24.10.2019
5661 Rain 24 1008 82 0 0.45 325 11:36 24.10.2019
5662 Rain 24 1008 82 0 0.45 325 11:36 24.10.2019
5663 Rain 24 1008 82 0 0.45 325 11:18 24.10.2019
5664 Rain 24 1008 82 0 0.89 325 10:41 24.10.2019
5665 Rain 24 1008 82 0 0.89 325 10:23 24.10.2019
5666 Rain 24 1008 82 0 0.89 325 10:23 24.10.2019
5667 Rain 24 1009 82 0 0.45 305 09:39 24.10.2019
5668 Rain 24 1009 82 0 0.89 305 09:19 24.10.2019
5669 Rain 24 1009 82 0 0.89 305 08:58 24.10.2019
5670 Rain 24 1010 82 0 0.45 279 08:38 24.10.2019
5671 Rain 24 1010 81 0 0.89 299 08:19 24.10.2019
5672 Rain 24 1010 81 0 0.89 299 08:19 24.10.2019
5673 Clouds 25 1012 94 11265 2.74 273 07:46 24.10.2019
5674 Clouds 25 1012 94 11265 2.74 273 07:23 24.10.2019
5675 Rain 26 1013 88 9656 3.1 10 06:50 24.10.2019
5676 Rain 26 1013 88 9656 3.1 10 06:32 24.10.2019
5677 Rain 26 1013 88 9656 3.1 10 06:32 24.10.2019
5678 Clouds 26 1013 88 11265 5.1 10 05:53 24.10.2019
5679 Clouds 26 1013 88 11265 5.1 10 05:30 24.10.2019
5680 Clouds 26 1011 83 9656 5.1 350 03:51 24.10.2019
5681 Clouds 26 1011 83 9656 5.1 350 03:26 24.10.2019
5682 Rain 26 1011 83 9656 9.3 10 02:29 24.10.2019
5683 Rain 26 1011 83 9656 9.3 360 01:57 24.10.2019
5684 Clouds 27 1010 78 9656 7.7 30 01:30 24.10.2019
5685 Clouds 27 1010 74 9656 7.7 10 00:51 24.10.2019
5686 Clouds 27 1010 74 9656 7.7 10 00:23 24.10.2019
5687 Clouds 27 1011 78 11265 5.1 20 23:44 23.10.2019
5688 Clouds 27 1011 78 11265 5.1 20 23:24 23.10.2019
5689 Clouds 27 1011 78 11265 6.2 360 22:58 23.10.2019
5690 Clouds 27 1011 78 11265 6.2 360 22:39 23.10.2019
5691 Clouds 27 1011 78 11265 6.2 360 22:19 23.10.2019
5692 Clouds 28 1012 74 11265 5.7 10 21:58 23.10.2019
5693 Clouds 28 1012 74 11265 5.7 10 21:40 23.10.2019
5694 Clouds 28 1012 74 11265 5.7 10 21:21 23.10.2019
5695 Clouds 29 1013 62 11265 7.2 350 20:59 23.10.2019
5696 Clouds 29 1013 62 11265 7.2 350 20:39 23.10.2019
5697 Clouds 30 1013 62 11265 7.2 350 20:21 23.10.2019
5698 Clouds 29 1014 66 11265 3.6 10 19:58 23.10.2019
5699 Clouds 30 1014 66 11265 3.6 10 19:40 23.10.2019
5700 Clouds 30 1014 66 11265 3.6 10 19:19 23.10.2019
5701 Clouds 29 1014 69 11265 2.6 350 18:56 23.10.2019
5702 Clouds 29 1014 69 11265 2.6 350 18:38 23.10.2019
5703 Clouds 29 1014 69 11265 2.6 350 18:18 23.10.2019
5704 Clouds 29 1014 69 11265 2.6 350 18:18 23.10.2019
5705 Clouds 28 1014 74 11265 4.6 10 17:45 23.10.2019
5706 Clouds 28 1014 74 11265 4.6 10 17:20 23.10.2019
5707 Clouds 27 1014 83 11265 4.93 326 16:58 23.10.2019
5708 Clouds 27 1014 83 11265 4.93 326 16:40 23.10.2019
5709 Clouds 27 1014 83 11265 4.93 326 16:20 23.10.2019
5710 Clouds 24 1014 88 9656 4.93 326 15:42 23.10.2019
5711 Clouds 24 1014 88 9656 4.93 326 15:42 23.10.2019
5712 Clouds 25 1014 88 9656 5.01 334 15:23 23.10.2019
5713 Clouds 23 1013 94 11265 5.01 334 14:58 23.10.2019
5714 Clouds 23 1013 94 11265 4.1 338 14:39 23.10.2019
5715 Clouds 23 1013 94 11265 4.1 338 14:20 23.10.2019
5716 Clouds 23 1013 94 9656 4.1 338 13:59 23.10.2019
5717 Clouds 23 1013 94 9656 4.1 338 13:40 23.10.2019
5718 Clouds 23 1013 94 9656 4.1 338 13:22 23.10.2019
5719 Rain 23 1011 81 0 4.1 338 12:56 23.10.2019
5720 Rain 23 1011 81 0 4.1 338 12:37 23.10.2019
5721 Rain 23 1011 81 0 5.29 338 12:18 23.10.2019
5722 Rain 23 1012 80 0 0.45 80 11:56 23.10.2019
5723 Rain 23 1012 79 0 0.45 277 11:37 23.10.2019
5724 Rain 23 1012 79 0 0.45 277 11:19 23.10.2019
5725 Rain 23 1012 78 0 0.45 275 10:45 23.10.2019
5726 Rain 23 1012 78 0 0.45 267 10:25 23.10.2019
5727 Rain 24 1013 76 0 0.45 267 09:55 23.10.2019
5728 Rain 25 1012 73 0 0.45 309 09:36 23.10.2019
5729 Rain 25 1012 73 0 0.45 309 09:18 23.10.2019
5730 Rain 26 1013 69 0 2.68 13 08:41 23.10.2019
5731 Rain 26 1013 67 0 2.68 355 08:23 23.10.2019
5732 Rain 26 1013 66 0 3.58 355 07:46 23.10.2019
5733 Rain 26 1013 67 0 4.92 19 07:22 23.10.2019
5734 Clouds 26 1015 78 11265 7.7 360 06:47 23.10.2019
5735 Clouds 26 1015 78 11265 7.7 360 06:22 23.10.2019
5736 Clouds 27 1015 74 11265 5.1 360 05:45 23.10.2019
5737 Clouds 28 1014 69 11265 5.1 360 04:41 23.10.2019
5738 Clouds 28 1013 69 11265 7.7 360 03:35 23.10.2019
5739 Clouds 28 1013 65 11265 5.1 360 02:40 23.10.2019
5740 Clouds 28 1012 65 11265 6.2 10 01:32 23.10.2019
5741 Clouds 29 1012 66 11265 5.1 360 00:56 23.10.2019
5742 Clouds 29 1012 66 11265 5.1 360 00:28 23.10.2019
5743 Clouds 29 1012 70 11265 7.2 360 23:40 22.10.2019
5744 Clouds 29 1012 70 11265 7.2 360 23:18 22.10.2019
5745 Clouds 29 1012 70 11265 6.2 360 22:56 22.10.2019
5746 Clouds 29 1012 70 11265 6.2 360 22:38 22.10.2019
5747 Clouds 29 1012 70 11265 6.2 360 22:19 22.10.2019
5748 Clouds 30 1013 66 11265 5.7 360 21:56 22.10.2019
5749 Clouds 30 1013 66 11265 5.7 360 21:36 22.10.2019
5750 Clouds 30 1013 66 11265 5.7 360 21:18 22.10.2019
5751 Clouds 30 1013 66 11265 5.7 360 21:18 22.10.2019
5752 Clouds 30 1014 66 11265 6.7 10 20:55 22.10.2019
5753 Clouds 31 1014 66 11265 6.7 10 20:37 22.10.2019
5754 Clouds 31 1014 66 11265 6.7 10 20:37 22.10.2019
5755 Clouds 31 1014 66 11265 6.7 10 20:18 22.10.2019
5756 Clouds 31 1014 74 9656 5.1 10 19:43 22.10.2019
5757 Clouds 30 1014 74 9656 5.1 10 19:24 22.10.2019
5758 Clouds 30 1015 79 9656 4.6 20 18:57 22.10.2019
5759 Clouds 30 1015 79 9656 4.6 20 18:39 22.10.2019
5760 Clouds 30 1015 79 9656 4.6 20 18:21 22.10.2019
5761 Rain 29 1014 79 9656 3.1 30 17:56 22.10.2019
5762 Rain 29 1014 79 9656 3.1 30 17:56 22.10.2019
5763 Rain 29 1014 79 9656 3.1 30 17:38 22.10.2019
5764 Rain 29 1014 79 9656 3.1 30 17:19 22.10.2019
5765 Clouds 29 1014 88 9656 1.5 350 16:57 22.10.2019
5766 Clouds 28 1014 88 9656 1.5 350 16:37 22.10.2019
5767 Clouds 28 1014 88 9656 1.5 350 16:18 22.10.2019
5768 Clouds 27 1013 94 9656 1.5 60 15:43 22.10.2019
5769 Clouds 27 1013 94 9656 1.5 60 15:21 22.10.2019
5770 Clouds 26 1013 94 11265 1.5 30 14:57 22.10.2019
5771 Rain 25 1013 94 11265 1.5 30 14:39 22.10.2019
5772 Thunderstorm 25 1012 94 9656 2.9 230 14:18 22.10.2019
5773 Rain 25 1012 94 6437 2.1 340 13:41 22.10.2019
5774 Rain 26 1012 94 8047 3.1 320 13:20 22.10.2019
5775 Rain 26 1010 78 0 3.58 355 12:57 22.10.2019
5776 Rain 26 1009 79 0 0.45 265 12:38 22.10.2019
5777 Clear 26 1009 78 0 0.89 136 12:20 22.10.2019
5778 Clear 26 1009 78 0 0.89 136 11:41 22.10.2019
5779 Clear 26 1009 77 0 0.89 133 11:22 22.10.2019
5780 Clear 26 1009 76 0 0.45 111 10:59 22.10.2019
5781 Clear 26 1010 77 0 0.45 111 10:38 22.10.2019
5782 Clear 26 1010 77 0 0.45 111 10:19 22.10.2019
5783 Clear 26 1010 79 0 0.45 111 09:59 22.10.2019
5784 Clear 26 1010 79 0 0.45 111 09:41 22.10.2019
5785 Clouds 26 1010 79 0 2.85 134 09:21 22.10.2019
5786 Clouds 26 1009 79 0 0.45 111 08:57 22.10.2019
5787 Clouds 27 1009 79 0 2.85 134 08:39 22.10.2019
5788 Clouds 27 1009 79 0 0.45 111 08:18 22.10.2019
5789 Clouds 27 1009 80 0 2.85 134 07:44 22.10.2019
5790 Clouds 27 1009 79 0 0.45 111 07:24 22.10.2019
5791 Clouds 28 1010 88 11265 2.85 134 06:44 22.10.2019
5792 Clouds 28 1010 88 11265 2.85 134 06:25 22.10.2019
5793 Clouds 29 1009 89 11265 3.51 91 05:40 22.10.2019
5794 Clear 29 1008 83 11265 1 110 04:22 22.10.2019
5795 Clear 30 1007 84 11265 3.91 92 02:31 22.10.2019
5796 Clouds 33 1007 70 11265 2.6 170 01:38 22.10.2019
5797 Clouds 33 1007 70 11265 2.6 170 01:18 22.10.2019
5798 Clouds 33 1006 70 11265 3.91 92 00:42 22.10.2019
5799 Clouds 33 1006 70 11265 3.91 92 00:24 22.10.2019
5800 Clouds 33 1007 70 11265 4.1 90 23:59 21.10.2019
5801 Clouds 33 1007 70 11265 4.1 90 23:38 21.10.2019
5802 Clouds 33 1007 70 11265 4.1 90 23:19 21.10.2019
5803 Clouds 33 1007 63 11265 1.66 93 22:58 21.10.2019
5804 Clouds 33 1007 63 11265 1.66 93 22:39 21.10.2019
5805 Clouds 33 1007 63 11265 1.66 93 22:20 21.10.2019
5806 Clouds 32 1008 70 11265 1.66 93 21:57 21.10.2019
5807 Clouds 32 1008 70 11265 2.1 99 21:38 21.10.2019
5808 Clouds 32 1008 70 11265 2.64 139 21:19 21.10.2019
5809 Clouds 32 1009 70 11265 2.64 139 20:57 21.10.2019
5810 Clouds 32 1009 70 11265 2.64 139 20:38 21.10.2019
5811 Clouds 32 1009 70 11265 2.64 139 20:20 21.10.2019
5812 Clouds 31 1010 79 11265 2.6 170 19:55 21.10.2019
5813 Clouds 31 1010 79 11265 2.6 170 19:55 21.10.2019
5814 Clouds 30 1010 79 11265 2.6 170 19:36 21.10.2019
5815 Clouds 30 1010 79 11265 2.6 170 19:18 21.10.2019
5816 Clouds 29 1010 79 11265 2.64 139 18:55 21.10.2019
5817 Clouds 29 1010 79 11265 2.64 139 18:36 21.10.2019
5818 Clouds 29 1010 79 11265 2.64 139 18:36 21.10.2019
5819 Clouds 29 1010 79 11265 3.58 172 18:18 21.10.2019
5820 Clouds 28 1010 83 11265 3.58 172 17:39 21.10.2019
5821 Clouds 28 1010 83 11265 3.58 172 17:19 21.10.2019
5822 Clear 27 1009 83 11265 1.5 160 16:58 21.10.2019
5823 Clear 27 1009 83 11265 1.5 160 16:40 21.10.2019
5824 Clear 27 1009 83 11265 1.5 160 16:21 21.10.2019
5825 Clear 25 1008 100 11265 3.58 172 15:57 21.10.2019
5826 Clear 25 1008 100 11265 3.58 172 15:38 21.10.2019
5827 Clear 25 1008 100 11265 4.11 164 15:18 21.10.2019
5828 Clear 24 1008 100 11265 3.79 166 14:40 21.10.2019
5829 Clear 24 1008 100 11265 3.79 166 14:21 21.10.2019
5830 Clear 24 1008 100 11265 3.79 166 13:59 21.10.2019
5831 Clear 24 1008 100 11265 3.79 166 13:40 21.10.2019
5832 Clear 24 1008 100 11265 3.79 166 13:20 21.10.2019
5833 Clouds 24 1006 82 0 0.45 234 12:58 21.10.2019
5834 Clouds 24 1006 82 0 3.79 166 12:40 21.10.2019
5835 Clouds 24 1006 81 0 0.45 212 12:20 21.10.2019
5836 Clouds 24 1006 81 0 0.45 212 12:20 21.10.2019
5837 Clouds 25 1006 81 0 0.44 279.249 11:42 21.10.2019
5838 Clouds 25 1006 80 0 0.89 192 11:23 21.10.2019
5839 Clouds 25 1006 80 0 0.45 192 10:59 21.10.2019
5840 Clouds 26 1006 79 0 0.44 279.249 10:40 21.10.2019
5841 Clouds 26 1007 78 0 0.45 190 10:20 21.10.2019
5842 Clouds 26 1007 77 0 0.45 196 09:58 21.10.2019
5843 Clouds 27 1007 76 0 0.89 188 09:39 21.10.2019
5844 Clouds 27 1007 75 0 1.34 184 09:21 21.10.2019
5845 Clouds 27 1007 76 0 0.89 165 08:41 21.10.2019
5846 Clouds 27 1007 77 0 1.34 134 08:23 21.10.2019
5847 Clouds 27 1009 94 11265 0.57 98.946 07:45 21.10.2019
5848 Clouds 27 1009 94 11265 0.57 98.946 07:23 21.10.2019
5849 Clouds 28 1009 88 11265 0.57 98.946 06:59 21.10.2019
5850 Clouds 28 1009 88 11265 0.57 98.946 06:41 21.10.2019
5851 Clouds 28 1009 88 11265 1.02 214.78 06:18 21.10.2019
5852 Clouds 28 1009 88 11265 1.02 214.78 05:22 21.10.2019
5853 Clouds 29 1007 89 11265 1.02 214.78 03:40 21.10.2019
5854 Clouds 29 1006 83 11265 1 150 02:39 21.10.2019
5855 Clouds 29 1006 83 11265 1 150 02:20 21.10.2019
5856 Clouds 30 1006 79 11265 1.5 170 01:44 21.10.2019
5857 Clouds 31 1006 74 11265 2.03 146.302 00:54 21.10.2019
5858 Clouds 31 1006 74 11265 2.03 146.302 00:28 21.10.2019
5859 Clouds 32 1006 70 11265 2.6 160 23:58 20.10.2019
5860 Clouds 32 1006 70 11265 2.6 160 23:39 20.10.2019
5861 Clouds 32 1006 70 11265 2.6 160 23:21 20.10.2019
5862 Clouds 32 1007 75 11265 1 100 22:42 20.10.2019
5863 Clouds 31 1007 75 11265 1 100 22:24 20.10.2019
5864 Clouds 31 1008 74 11265 1 120 21:59 20.10.2019
5865 Clouds 31 1008 74 11265 1 120 21:40 20.10.2019
5866 Clouds 31 1008 74 11265 1 120 21:21 20.10.2019
5867 Clouds 31 1009 74 11265 1 180 20:55 20.10.2019
5868 Clouds 31 1009 74 11265 1 180 20:37 20.10.2019
5869 Clouds 31 1009 74 11265 1 180 20:18 20.10.2019
5870 Clouds 30 1010 79 11265 2.1 210 19:55 20.10.2019
5871 Clouds 30 1010 79 11265 2.1 210 19:36 20.10.2019
5872 Clouds 30 1010 79 11265 2.1 210 19:18 20.10.2019
5873 Clouds 29 1010 83 9656 1.21 92.362 18:40 20.10.2019
5874 Clouds 29 1010 83 9656 0.87 13.019 18:20 20.10.2019
5875 Clouds 28 1010 88 9656 3.1 190 17:57 20.10.2019
5876 Clouds 28 1010 88 9656 3.1 190 17:38 20.10.2019
5877 Clouds 28 1010 88 9656 3.1 190 17:20 20.10.2019
5878 Clouds 27 1009 94 8047 0.87 13.019 16:43 20.10.2019
5879 Clouds 27 1009 94 8047 0.87 13.019 16:24 20.10.2019
5880 Clouds 25 1009 94 9656 0.87 13.019 15:59 20.10.2019
5881 Clouds 25 1009 94 9656 0.87 13.019 15:40 20.10.2019
5882 Clouds 25 1009 94 9656 1.1 286.769 15:20 20.10.2019
5883 Clouds 25 1009 94 9656 1.1 286.769 14:58 20.10.2019
5884 Clouds 25 1009 94 9656 1.1 286.769 14:38 20.10.2019
5885 Clouds 25 1009 94 9656 1.1 286.769 14:38 20.10.2019
5886 Clouds 25 1009 94 9656 1.1 286.769 14:19 20.10.2019
5887 Clouds 25 1008 100 9656 1.1 286.769 13:56 20.10.2019
5888 Clouds 25 1008 100 9656 1.1 286.769 13:37 20.10.2019
5889 Clouds 25 1008 100 9656 1.12 313.949 13:18 20.10.2019
5890 Clouds 26 1007 82 0 0.45 196 12:56 20.10.2019
5891 Clouds 26 1006 82 0 0.89 196 12:38 20.10.2019
5892 Clouds 26 1006 82 0 0.45 197 12:20 20.10.2019
5893 Clouds 23 1010 97 0 1.19 355.698 11:57 20.10.2019
5894 Clouds 23 1010 97 0 1.19 355.698 11:38 20.10.2019
5895 Clouds 26 1006 82 0 0.89 169 11:20 20.10.2019
5896 Clouds 26 1006 82 0 1.19 355.698 10:41 20.10.2019
5897 Clouds 26 1006 82 0 1.19 355.698 10:41 20.10.2019
5898 Clouds 26 1006 82 0 0.45 190 10:22 20.10.2019
5899 Clouds 26 1006 82 0 0.89 190 09:59 20.10.2019
5900 Clouds 27 1006 82 0 0.89 185 09:41 20.10.2019
5901 Rain 27 1007 81 0 1.79 209 09:21 20.10.2019
5902 Rain 27 1007 81 0 0.89 13 08:49 20.10.2019
5903 Rain 27 1007 81 0 1.33 346.614 08:27 20.10.2019
5904 Rain 27 1007 80 0 0.45 13 07:51 20.10.2019
5905 Rain 27 1007 80 0 1.33 346.614 07:31 20.10.2019
5906 Clouds 27 1009 88 9656 1.33 346.614 06:59 20.10.2019
5907 Clouds 28 1009 88 9656 0.42 295.05 06:21 20.10.2019
5908 Clouds 28 1008 83 9656 0.42 295.05 04:28 20.10.2019
5909 Clouds 29 1007 83 9656 1.5 90 03:47 20.10.2019
5910 Clouds 29 1007 83 9656 1.5 90 03:20 20.10.2019
5911 Clouds 29 1006 83 11265 2.1 70 02:43 20.10.2019
5912 Clouds 30 1006 70 11265 2.6 80 01:58 20.10.2019
5913 Clouds 31 1006 70 11265 2.6 80 01:24 20.10.2019
5914 Clouds 31 1005 74 11265 1.5 90 00:57 20.10.2019
5915 Clouds 31 1005 74 11265 1.5 90 00:39 20.10.2019
5916 Clouds 31 1005 74 11265 1.5 90 00:19 20.10.2019
5917 Clouds 32 1005 75 11265 2.22 127.975 23:42 19.10.2019
5918 Clouds 32 1005 75 11265 2.22 127.975 23:22 19.10.2019
5919 Clouds 31 1006 74 11265 1 130 22:56 19.10.2019
5920 Clouds 31 1006 74 11265 1 130 22:38 19.10.2019
5921 Clouds 31 1006 74 11265 1 130 22:20 19.10.2019
5922 Clouds 31 1007 74 11265 2.22 127.975 21:46 19.10.2019
5923 Clouds 31 1007 74 11265 2.06 141.362 21:23 19.10.2019
5924 Clouds 31 1008 74 11265 2.02 153.156 20:46 19.10.2019
5925 Clouds 31 1008 74 11265 2.02 153.156 20:23 19.10.2019
5926 Clouds 31 1008 74 11265 2.02 153.156 20:23 19.10.2019
5927 Clouds 30 1008 79 11265 1.5 180 19:59 19.10.2019
5928 Clouds 30 1008 79 11265 1.5 180 19:40 19.10.2019
5929 Clouds 30 1008 79 11265 1.5 180 19:22 19.10.2019
5930 Clouds 29 1009 79 11265 3.1 180 18:43 19.10.2019
5931 Clouds 29 1009 79 11265 3.1 180 18:24 19.10.2019
5932 Clouds 29 1009 79 11265 3.1 180 18:24 19.10.2019
5933 Clouds 28 1009 83 11265 2.6 210 17:57 19.10.2019
5934 Clouds 28 1009 83 11265 2.6 210 17:37 19.10.2019
5935 Clouds 28 1009 83 11265 2.6 210 17:19 19.10.2019
5936 Clouds 26 1008 94 9656 1 160 16:39 19.10.2019
5937 Clouds 26 1008 94 9656 1 160 16:20 19.10.2019
5938 Clouds 26 1008 94 9656 1 160 16:20 19.10.2019
5939 Clouds 26 1008 94 9656 1 190 15:45 19.10.2019
5940 Clouds 26 1008 94 9656 1 190 15:26 19.10.2019
5941 Clouds 25 1007 94 9656 0.35 92.821 14:56 19.10.2019
5942 Clouds 25 1007 94 9656 0.35 92.821 14:38 19.10.2019
5943 Clouds 25 1007 94 9656 0.35 92.821 14:20 19.10.2019
5944 Clouds 25 1007 94 9656 0.35 92.821 13:55 19.10.2019
5945 Clouds 25 1007 94 9656 0.35 92.821 13:36 19.10.2019
5946 Clouds 25 1007 94 9656 0.23 4.494 13:18 19.10.2019
5947 Clouds 25 1007 94 9656 0.23 4.494 13:18 19.10.2019
5948 Clouds 26 1006 82 0 0.45 149 12:39 19.10.2019
5949 Clouds 26 1006 82 0 0.45 149 12:21 19.10.2019
5950 Clouds 26 1006 82 0 0.45 185 11:57 19.10.2019
5951 Clouds 26 1006 81 0 0.89 156 11:39 19.10.2019
5952 Clouds 26 1006 81 0 0.89 156 11:21 19.10.2019
5953 Clouds 26 1006 81 0 0.93 320.028 10:41 19.10.2019
5954 Clouds 26 1006 81 0 0.93 320.028 10:23 19.10.2019
5955 Clouds 25 1008 94 9656 0.93 320.028 09:59 19.10.2019
5956 Clouds 26 1008 94 9656 0.93 320.028 09:40 19.10.2019
5957 Clouds 25 1008 94 9656 1.08 293.129 09:22 19.10.2019
5958 Clouds 25 1009 94 11265 1.13 297.066 08:41 19.10.2019
5959 Clouds 26 1009 94 11265 1.13 297.066 08:23 19.10.2019
5960 Clouds 26 1009 88 11265 1.13 297.066 07:59 19.10.2019
5961 Clouds 26 1009 88 11265 1.13 297.066 07:41 19.10.2019
5962 Clouds 25 1009 88 11265 1.13 297.066 07:23 19.10.2019
5963 Clouds 26 1009 88 11265 1.13 297.066 06:35 19.10.2019
5964 Clouds 26 1009 83 11265 0.77 324.996 05:51 19.10.2019
5965 Clouds 27 1007 77 0 0.45 96 04:26 19.10.2019
5966 Clouds 27 1007 77 0 0.45 96 04:26 19.10.2019
5967 Clouds 27 1008 83 9656 1.5 100 03:18 19.10.2019
5968 Clouds 28 1007 78 11265 1 120 02:20 19.10.2019
5969 Clouds 28 1007 74 11265 1.5 100 01:48 19.10.2019
5970 Clouds 30 1007 74 11265 2.1 100 00:52 19.10.2019
5971 Clouds 30 1007 74 11265 2.1 100 00:29 19.10.2019
5972 Clouds 30 1007 74 11265 1.81 76.593 23:59 18.10.2019
5973 Clouds 30 1007 74 11265 1.81 76.593 23:38 18.10.2019
5974 Clouds 30 1007 74 11265 1.81 76.593 23:20 18.10.2019
5975 Clouds 30 1008 74 11265 1 120 22:54 18.10.2019
5976 Clouds 30 1008 74 11265 1 120 22:36 18.10.2019
5977 Clouds 30 1008 74 11265 1 120 22:18 18.10.2019
5978 Clouds 30 1008 74 11265 1 120 22:18 18.10.2019
5979 Clouds 29 1009 79 11265 1.81 76.593 21:55 18.10.2019
5980 Clouds 29 1009 79 11265 2.05 98.51 21:36 18.10.2019
5981 Clouds 29 1009 79 11265 2.05 98.51 21:36 18.10.2019
5982 Clouds 29 1009 79 11265 1.8 120.259 21:18 18.10.2019
5983 Clouds 29 1010 74 11265 1.8 120.259 20:42 18.10.2019
5984 Clouds 29 1010 74 11265 1.8 120.259 20:42 18.10.2019
5985 Clouds 29 1010 74 11265 1.8 120.259 20:22 18.10.2019
5986 Clouds 29 1010 74 11265 1.8 120.259 20:22 18.10.2019
5987 Clouds 28 1012 83 11265 1 240 19:58 18.10.2019
5988 Clouds 28 1012 83 11265 1 240 19:40 18.10.2019
5989 Clouds 28 1012 83 11265 1 240 19:22 18.10.2019
5990 Clouds 28 1012 78 11265 1.8 120.259 18:58 18.10.2019
5991 Clouds 28 1012 78 11265 1.8 120.259 18:40 18.10.2019
5992 Clouds 28 1012 78 11265 1.33 174.023 18:22 18.10.2019
5993 Clouds 27 1012 94 11265 1.33 174.023 17:55 18.10.2019
5994 Clouds 27 1012 94 11265 1.33 174.023 17:36 18.10.2019
5995 Clouds 26 1012 94 11265 1.33 174.023 17:18 18.10.2019
5996 Mist 25 1011 100 9656 1.33 174.023 16:38 18.10.2019
5997 Mist 25 1011 100 9656 1.33 174.023 16:20 18.10.2019
5998 Rain 25 1010 83 0 0.45 308 15:57 18.10.2019
5999 Rain 24 1009 84 0 0.45 308 15:37 18.10.2019
6000 Rain 24 1009 84 0 0.45 308 15:37 18.10.2019
6001 Mist 24 1010 100 8047 1.45 221.683 15:19 18.10.2019
6002 Mist 24 1010 100 8047 1.45 221.683 14:56 18.10.2019
6003 Mist 24 1010 100 8047 1.45 221.683 14:38 18.10.2019
6004 Mist 24 1010 100 8047 1.45 221.683 14:18 18.10.2019
6005 Clouds 24 1010 100 9656 1.45 221.683 13:45 18.10.2019
6006 Clouds 24 1010 100 9656 1.64 217.724 13:27 18.10.2019
6007 Clouds 24 1009 84 0 1.64 217.724 12:59 18.10.2019
6008 Clouds 24 1009 84 0 1.64 217.724 12:40 18.10.2019
6009 Clouds 24 1009 83 0 1.84 211.587 12:22 18.10.2019
6010 Clouds 24 1009 84 0 1.84 211.587 11:59 18.10.2019
6011 Clouds 24 1008 84 0 1.84 211.587 11:41 18.10.2019
6012 Clouds 24 1008 84 0 1.84 211.587 11:20 18.10.2019
6013 Clouds 24 1008 84 0 1.84 211.587 10:57 18.10.2019
6014 Clouds 24 1009 84 0 0.45 308 10:38 18.10.2019
6015 Clouds 24 1009 84 0 0.45 308 10:19 18.10.2019
6016 Clouds 24 1009 84 0 1.84 211.587 09:55 18.10.2019
6017 -273 0 0 0 0 0 09:55 18.10.2019
6018 -273 0 0 0 0 0 09:54 18.10.2019
6019 Clouds 24 1009 84 0 1.84 211.587 09:54 18.10.2019
6020 Clouds 24 1009 83 0 0.45 308 09:36 18.10.2019
6021 Rain 24 1009 83 0 0.45 308 09:18 18.10.2019
6022 Rain 24 1009 83 0 0.45 308 08:42 18.10.2019
6023 Clouds 24 1012 100 11265 1.38 214.944 08:21 18.10.2019
6024 Clouds 24 1012 100 11265 1.38 214.944 08:21 18.10.2019
6025 Clouds 24 1012 100 11265 1.38 214.944 07:42 18.10.2019
6026 Clouds 24 1012 100 11265 1.38 214.944 07:24 18.10.2019
6027 Rain 24 1012 100 9656 1.38 214.944 06:39 18.10.2019
6028 Rain 24 1012 100 9656 2.16 202.912 06:21 18.10.2019
6029 Rain 24 1010 83 0 2.16 202.912 05:56 18.10.2019
6030 Rain 25 1011 94 9656 2.16 202.912 05:23 18.10.2019
6031 Rain 25 1011 94 9656 2.16 202.912 04:25 18.10.2019
6032 Rain 25 1011 94 9656 2.16 202.912 03:29 18.10.2019
6033 Clouds 26 1009 88 11265 2.25 198.467 02:33 18.10.2019
6034 Clouds 27 1009 78 11265 2.25 198.467 01:44 18.10.2019
6035 Clouds 27 1009 78 11265 1.53 219.334 01:26 18.10.2019
6036 Clouds 28 1009 74 11265 1 120 00:45 18.10.2019
6037 Clouds 28 1009 74 11265 1 120 00:21 18.10.2019
6038 Clouds 28 1009 74 11265 1 130 23:55 17.10.2019
6039 Clouds 28 1009 74 11265 1 130 23:36 17.10.2019
6040 Clouds 28 1009 74 11265 1 130 23:18 17.10.2019
6041 Clouds 28 1010 83 11265 2.21 89.275 22:54 17.10.2019
6042 Clouds 27 1010 83 11265 2.21 89.275 22:36 17.10.2019
6043 Clouds 27 1010 83 11265 2.21 89.275 22:18 17.10.2019
6044 Clouds 27 1010 83 11265 2.21 89.275 22:18 17.10.2019
6045 Clouds 28 1011 78 11265 4.1 80 21:54 17.10.2019
6046 Clouds 28 1011 78 11265 4.1 80 21:36 17.10.2019
6047 Clouds 28 1011 78 11265 4.1 80 21:36 17.10.2019
6048 Clouds 28 1011 78 11265 4.1 80 21:18 17.10.2019
6049 Clouds 28 1012 78 11265 2.6 50 20:54 17.10.2019
6050 Clouds 28 1012 78 11265 2.6 50 20:36 17.10.2019
6051 Clouds 28 1012 78 11265 2.6 50 20:18 17.10.2019
6052 Clouds 28 1012 78 11265 1.5 360 19:41 17.10.2019
6053 Clouds 28 1012 78 11265 1.5 360 19:20 17.10.2019
6054 Clouds 28 1012 78 11265 1.5 360 19:20 17.10.2019
6055 Clouds 27 1013 83 11265 1.01 67.62 18:58 17.10.2019
6056 Clouds 27 1013 83 11265 1.01 67.62 18:38 17.10.2019
6057 Clouds 27 1013 83 11265 0.67 179.573 18:20 17.10.2019
6058 Clouds 27 1013 83 11265 0.67 179.573 18:20 17.10.2019
6059 Clouds 26 1013 88 11265 1.802 188 17:43 17.10.2019
6060 Clouds 26 1013 88 11265 1.802 188 17:24 17.10.2019
6061 Clouds 26 1012 100 8047 1.802 188 16:58 17.10.2019
6062 Clouds 25 1012 100 8047 1.802 188 16:39 17.10.2019
6063 Clouds 25 1012 100 8047 1.802 188 16:18 17.10.2019
6064 Clouds 24 1011 100 9656 1.802 188 15:56 17.10.2019
6065 Clouds 25 1011 100 9656 1.802 188 15:38 17.10.2019
6066 Rain 24 1011 100 9656 1.776 213 15:20 17.10.2019
6067 Rain 24 1011 100 11265 1.776 213 14:55 17.10.2019
6068 Rain 24 1011 100 11265 1.927 176 14:37 17.10.2019
6069 Clouds 24 1011 100 11265 1.927 176 14:18 17.10.2019
6070 Clouds 24 1011 100 11265 1.927 176 13:39 17.10.2019
6071 Clouds 24 1011 100 11265 1.927 176 13:20 17.10.2019
6072 Rain 24 1009 84 0 0.45 186 12:55 17.10.2019
6073 Rain 24 1009 83 0 0.45 207 12:37 17.10.2019
6074 Rain 24 1008 83 0 0.45 223 12:18 17.10.2019
6075 Rain 24 1008 83 0 0.45 223 12:18 17.10.2019
6076 Rain 24 1008 83 0 0.45 223 11:41 17.10.2019
6077 Rain 24 1008 83 0 0.45 223 11:41 17.10.2019
6078 Rain 24 1008 83 0 3.109 213 11:22 17.10.2019
6079 Rain 24 1008 83 0 3.109 213 10:59 17.10.2019
6080 Rain 24 1008 83 0 3.109 213 10:41 17.10.2019
6081 Rain 24 1008 83 0 3.109 213 10:19 17.10.2019
6082 Rain 24 1008 83 0 0.45 223 09:55 17.10.2019
6083 Rain 24 1008 83 0 0.45 223 09:55 17.10.2019
6084 Rain 24 1009 83 0 0.45 223 09:37 17.10.2019
6085 Rain 24 1009 83 0 0.45 223 09:19 17.10.2019
6086 Rain 24 1009 83 0 0.89 221 08:46 17.10.2019
6087 Rain 24 1010 83 0 0.89 216 08:26 17.10.2019
6088 Rain 24 1010 82 0 1.34 215 07:56 17.10.2019
6089 Rain 24 1010 82 0 1.34 190 07:38 17.10.2019
6090 Rain 24 1010 82 0 1.34 190 07:19 17.10.2019
6091 Clouds 25 1012 94 11265 1.5 180 06:40 17.10.2019
6092 Clouds 25 1012 94 11265 1.5 180 06:21 17.10.2019
6093 Clouds 25 1012 94 11265 1 190 05:58 17.10.2019
6094 Clouds 25 1012 94 11265 1 190 05:34 17.10.2019
6095 Clouds 25 1012 94 11265 2.689 287 04:57 17.10.2019
6096 Clouds 25 1011 94 11265 1 180 03:55 17.10.2019
6097 Rain 26 1010 88 9656 2.973 321 02:53 17.10.2019
6098 Clouds 27 1010 83 11265 4.151 345 01:55 17.10.2019
6099 Clouds 27 1009 78 11265 4.151 345 00:41 17.10.2019
6100 Clouds 27 1009 78 11265 1.818 275 00:20 17.10.2019
6101 Clouds 27 1009 78 11265 1.818 275 00:20 17.10.2019
6102 Clouds 27 1010 83 11265 1.818 275 23:42 16.10.2019
6103 Clouds 27 1010 83 11265 1.818 275 23:21 16.10.2019
6104 Clouds 27 1010 78 11265 1.818 275 22:56 16.10.2019
6105 Clouds 27 1010 78 11265 1.818 275 22:38 16.10.2019
6106 Clouds 27 1010 78 11265 1.818 275 22:19 16.10.2019
6107 Clouds 27 1011 83 11265 1.818 275 21:58 16.10.2019
6108 Clouds 27 1011 83 11265 1.818 275 21:38 16.10.2019
6109 Clouds 27 1011 83 11265 2.813 306 21:19 16.10.2019
6110 Clouds 26 1012 94 11265 2.813 306 20:58 16.10.2019
6111 Clouds 26 1012 94 11265 2.813 306 20:58 16.10.2019
6112 Clouds 26 1012 94 11265 2.813 306 20:39 16.10.2019
6113 Rain 26 1012 94 11265 2.813 306 20:21 16.10.2019
6114 Rain 25 1012 94 11265 2.813 306 19:59 16.10.2019
6115 Rain 25 1012 94 11265 2.813 306 19:39 16.10.2019
6116 Rain 25 1012 94 11265 2.813 306 19:39 16.10.2019
6117 Clouds 25 1012 94 11265 2.813 306 19:20 16.10.2019
6118 Rain 24 1012 94 8047 2.813 306 18:54 16.10.2019
6119 Rain 24 1012 94 8047 2.813 306 18:54 16.10.2019
6120 Rain 24 1012 94 8047 2.813 306 18:36 16.10.2019
6121 Rain 24 1012 94 8047 5.217 324 18:18 16.10.2019
6122 Rain 23 1012 100 8047 3.1 320 17:54 16.10.2019
6123 -273 0 0 0 0 0 17:36 16.10.2019
6124 Rain 23 1012 100 8047 3.1 320 17:18 16.10.2019
6125 Rain 23 1011 100 6437 1.5 330 16:41 16.10.2019
6126 Rain 23 1011 100 6437 1.5 330 16:21 16.10.2019
6127 Rain 23 1011 100 4828 2.6 320 15:57 16.10.2019
6128 Rain 23 1011 100 4828 2.6 320 15:38 16.10.2019
6129 Rain 23 1011 94 4828 2.1 350 15:18 16.10.2019
6130 Rain 22 1011 94 4828 2.1 350 14:58 16.10.2019
6131 Rain 22 1011 94 4828 2.1 350 14:38 16.10.2019
6132 Rain 22 1010 100 8047 2.893 297 14:18 16.10.2019
6133 Rain 24 1010 94 8047 2.1 340 13:56 16.10.2019
6134 Rain 24 1010 94 8047 2.1 340 13:56 16.10.2019
6135 Rain 24 1010 94 8047 2.1 340 13:56 16.10.2019
6136 Rain 24 1010 94 8047 2.1 340 13:37 16.10.2019
6137 Rain 25 1010 94 8047 2.1 340 13:19 16.10.2019
6138 Rain 25 1008 81 0 0.45 317 12:41 16.10.2019
6139 Rain 26 1008 81 0 0.45 317 12:19 16.10.2019
6140 Rain 25 1008 81 0 0.89 317 11:43 16.10.2019
6141 Rain 25 1008 81 0 1.34 298 11:18 16.10.2019
6142 Rain 25 1008 82 0 1.34 298 10:41 16.10.2019
6143 Rain 25 1008 81 0 0.89 284 10:22 16.10.2019
6144 Rain 25 1008 81 0 0.89 284 09:58 16.10.2019
6145 Rain 26 1009 82 0 1.34 302 09:38 16.10.2019
6146 Rain 26 1009 82 0 1.34 302 09:20 16.10.2019
6147 Rain 26 1009 82 0 1.34 302 08:43 16.10.2019
6148 Rain 26 1009 81 0 2.24 283 08:25 16.10.2019
6149 Clouds 26 1011 94 11265 3.49 292 07:56 16.10.2019
6150 Clouds 26 1011 94 11265 3.49 292 07:56 16.10.2019
6151 Rain 26 1011 94 11265 3.49 292 07:38 16.10.2019
6152 Rain 26 1011 94 11265 3.49 292 07:19 16.10.2019
6153 Rain 26 1012 94 11265 3.49 292 06:40 16.10.2019
6154 Rain 26 1012 94 11265 3.145 338 05:55 16.10.2019
6155 Rain 27 1011 88 8047 2.1 360 03:27 16.10.2019
6156 Clouds 28 1010 83 9656 4.1 30 02:49 16.10.2019
6157 Clouds 29 1009 74 11265 4.1 30 01:20 16.10.2019
6158 Clouds 30 1009 74 11265 3.6 360 00:52 16.10.2019
6159 Clouds 30 1009 74 11265 3.6 360 00:32 16.10.2019
6160 Clouds 30 1009 70 11265 3.1 50 23:41 15.10.2019
6161 Clouds 30 1009 70 11265 3.1 50 23:41 15.10.2019
6162 Clouds 30 1009 70 11265 3.1 50 23:22 15.10.2019
6163 Clouds 29 1011 74 11265 3.1 80 22:56 15.10.2019
6164 Clouds 30 1011 74 11265 3.1 80 22:38 15.10.2019
6165 Clouds 29 1011 74 11265 3.1 80 22:20 15.10.2019
6166 -273 0 0 0 0 0 21:56 15.10.2019
6167 Clouds 30 1012 66 11265 4.6 40 21:56 15.10.2019
6168 Clouds 30 1012 66 11265 4.6 40 21:56 15.10.2019
6169 -273 0 0 0 0 0 21:56 15.10.2019
6170 Clouds 30 1012 66 11265 4.6 40 21:38 15.10.2019
6171 Clouds 30 1012 66 11265 4.6 40 21:20 15.10.2019
6172 Clouds 31 1013 62 11265 2.6 50 20:57 15.10.2019
6173 Clouds 31 1013 62 11265 2.6 50 20:39 15.10.2019
6174 Clouds 31 1013 62 11265 2.6 50 20:20 15.10.2019
6175 Clouds 30 1014 70 11265 1 20 19:58 15.10.2019
6176 Clouds 31 1014 70 11265 1 20 19:40 15.10.2019
6177 Clouds 30 1014 70 11265 1 20 19:20 15.10.2019
6178 Clouds 29 1014 74 9656 1.5 340 18:47 15.10.2019
6179 Clouds 29 1014 74 9656 1.5 340 18:29 15.10.2019
6180 Clouds 29 1014 74 9656 1 280 17:59 15.10.2019
6181 Clouds 28 1014 74 9656 1 280 17:40 15.10.2019
6182 Clouds 28 1014 74 9656 1 280 17:40 15.10.2019
6183 Clouds 28 1014 74 9656 1 280 17:20 15.10.2019
6184 Clouds 26 1014 88 9656 2.1 320 16:56 15.10.2019
6185 Clouds 26 1014 88 9656 2.1 320 16:37 15.10.2019
6186 Clouds 26 1014 88 9656 2.1 320 16:19 15.10.2019
6187 Clouds 24 1014 94 9656 2.1 320 15:43 15.10.2019
6188 Clouds 24 1014 94 9656 2.1 320 15:21 15.10.2019
6189 Clouds 23 1013 94 9656 1 300 14:58 15.10.2019
6190 Clouds 23 1013 94 9656 1 300 14:38 15.10.2019
6191 Clouds 23 1013 94 9656 1 300 14:38 15.10.2019
6192 Clouds 23 1013 94 9656 1 300 14:38 15.10.2019
6193 Clouds 23 1013 94 9656 1 300 14:38 15.10.2019
6194 Clouds 24 1013 94 9656 1 300 14:20 15.10.2019
6195 Clouds 24 1013 88 11265 2.544 296 13:56 15.10.2019
6196 Clouds 24 1013 88 11265 2.544 296 13:37 15.10.2019
6197 Clouds 24 1013 88 11265 2.544 296 13:19 15.10.2019
6198 Rain 24 1011 81 0 0.45 318 12:42 15.10.2019
6199 Rain 24 1011 81 0 2.552 296 12:21 15.10.2019
6200 Rain 24 1011 81 0 2.552 296 11:56 15.10.2019
6201 Rain 24 1011 81 0 2.552 296 11:56 15.10.2019
6202 Rain 24 1011 81 0 2.552 296 11:37 15.10.2019
6203 Rain 24 1011 81 0 2.552 296 11:18 15.10.2019
6204 Rain 24 1011 81 0 0.45 318 10:43 15.10.2019
6205 Clouds 24 1011 81 0 1.34 319 10:19 15.10.2019
6206 Clouds 24 1011 81 0 1.34 319 09:57 15.10.2019
6207 Clouds 24 1012 81 0 0.45 327 09:37 15.10.2019
6208 Clouds 24 1012 81 0 0.45 327 09:37 15.10.2019
6209 Rain 24 1012 81 0 0.89 328 09:19 15.10.2019
6210 Rain 25 1012 82 0 0.89 327 08:43 15.10.2019
6211 Rain 25 1013 82 0 0.45 328 08:22 15.10.2019
6212 Clouds 25 1015 94 9656 1.4 282.502 07:58 15.10.2019
6213 Clouds 25 1015 94 9656 1.4 282.502 07:39 15.10.2019
6214 Clouds 25 1015 94 9656 1.4 282.502 07:19 15.10.2019
6215 Clouds 26 1015 94 11265 1 330 06:44 15.10.2019
6216 Clouds 26 1015 94 11265 1 330 06:26 15.10.2019
6217 Clouds 26 1015 88 11265 1.5 340 05:41 15.10.2019
6218 Clouds 26 1015 88 11265 1.5 340 05:23 15.10.2019
6219 Clouds 26 1014 88 11265 3.1 360 04:25 15.10.2019
6220 Clouds 27 1013 88 11265 3.1 360 03:37 15.10.2019
6221 Clouds 28 1012 74 11265 3.1 10 02:24 15.10.2019
6222 Clouds 29 1012 79 11265 3.1 20 01:48 15.10.2019
6223 Clouds 29 1012 79 11265 3.1 20 01:19 15.10.2019
6224 Clouds 29 1012 74 11265 4.6 60 00:49 15.10.2019
6225 Clouds 29 1012 74 11265 4.6 60 00:21 15.10.2019
6226 Clouds 29 1012 74 11265 4.6 60 00:21 15.10.2019
6227 Clouds 30 1012 70 11265 2.6 60 23:44 14.10.2019
6228 Clouds 30 1012 70 11265 2.6 60 23:20 14.10.2019
6229 Clouds 30 1013 70 11265 2.1 50 22:55 14.10.2019
6230 Clouds 30 1013 70 11265 2.1 50 22:37 14.10.2019
6231 Clouds 30 1013 70 11265 2.1 50 22:18 14.10.2019
6232 Clouds 31 1014 62 11265 1.5 80 21:41 14.10.2019
6233 Clouds 30 1014 62 11265 1.5 80 21:22 14.10.2019
6234 Clouds 30 1015 70 11265 4.1 60 20:59 14.10.2019
6235 Clouds 31 1015 70 11265 4.1 60 20:40 14.10.2019
6236 Clouds 31 1015 70 11265 4.1 60 20:22 14.10.2019
6237 Clouds 30 1015 66 11265 3.6 360 19:59 14.10.2019
6238 Clouds 30 1015 66 11265 3.6 360 19:40 14.10.2019
6239 Clouds 30 1015 66 11265 3.6 360 19:22 14.10.2019
6240 Clear 29 1015 70 11265 1.79 52.484 18:58 14.10.2019
6241 Clear 29 1015 70 11265 1.79 52.484 18:58 14.10.2019
6242 Clear 29 1015 70 11265 1.79 52.484 18:58 14.10.2019
6243 Clear 30 1015 70 11265 1.79 52.484 18:38 14.10.2019
6244 Clear 30 1015 70 11265 0.94 4.678 18:19 14.10.2019
6245 Clouds 28 1015 69 11265 1.5 340 17:44 14.10.2019
6246 Clouds 28 1015 69 11265 1.5 340 17:26 14.10.2019
6247 Clouds 26 1015 94 11265 0.94 4.678 16:59 14.10.2019
6248 Clouds 26 1015 94 11265 0.94 4.678 16:40 14.10.2019
6249 Clouds 25 1015 94 11265 0.94 4.678 16:21 14.10.2019
6250 Clouds 23 1014 94 11265 0.94 4.678 15:42 14.10.2019
6251 Clouds 23 1014 94 11265 1.26 277.911 15:22 14.10.2019
6252 Clouds 23 1014 100 11265 1.26 277.911 14:56 14.10.2019
6253 Clouds 23 1014 100 11265 1.26 277.911 14:56 14.10.2019
6254 Clouds 22 1014 100 11265 1.26 277.911 14:38 14.10.2019
6255 Clouds 22 1014 100 11265 1.26 277.911 14:19 14.10.2019
6256 Clear 23 1014 94 11265 1.26 277.911 13:43 14.10.2019
6257 Clear 23 1014 94 11265 1.4 282.933 13:21 14.10.2019
6258 Clear 23 1012 80 0 2.24 278 12:55 14.10.2019
6259 Clear 23 1012 80 0 0.89 289 12:55 14.10.2019
6260 Clear 23 1012 80 0 1.34 305 12:36 14.10.2019
6261 Clear 23 1012 80 0 0.89 280 12:18 14.10.2019
6262 Clear 23 1012 80 0 0.89 305 11:44 14.10.2019
6263 Clear 23 1012 80 0 0.89 313 11:24 14.10.2019
6264 Clear 23 1012 80 0 0.45 315 10:55 14.10.2019
6265 Clear 23 1012 80 0 0.45 315 10:37 14.10.2019
6266 Clear 23 1011 80 0 0.89 315 10:18 14.10.2019
6267 Clear 24 1012 79 0 1.42 272.547 09:42 14.10.2019
6268 -273 0 0 0 0 0 09:41 14.10.2019
6269 Clouds 24 1012 78 0 1.12 276.934 09:21 14.10.2019
6270 Clouds 24 1013 78 0 0.45 313 08:50 14.10.2019
6271 Clouds 24 1013 78 0 0.45 313 08:23 14.10.2019
6272 Clouds 24 1013 77 0 0.89 313 07:47 14.10.2019
6273 -273 0 0 0 0 0 07:25 14.10.2019
6274 Clouds 25 1015 88 11265 2.1 360 06:59 14.10.2019
6275 Clouds 25 1015 88 11265 2.1 360 06:28 14.10.2019
6276 Clouds 25 1015 94 11265 2.1 360 05:57 14.10.2019
6277 Clouds 26 1015 94 11265 2.1 360 05:26 14.10.2019
6278 Clouds 26 1013 83 11265 4.6 20 03:50 14.10.2019
6279 Clouds 26 1013 83 11265 4.6 20 03:26 14.10.2019
6280 Clouds 26 1013 83 11265 3.1 10 02:32 14.10.2019
6281 Clouds 27 1012 78 11265 4.6 360 01:21 14.10.2019
6282 Clouds 28 1012 74 11265 4.1 30 00:42 14.10.2019
6283 Clouds 28 1012 74 11265 4.1 30 00:18 14.10.2019
6284 Clouds 28 1012 74 11265 5.1 30 23:41 13.10.2019
6285 Clouds 28 1012 74 11265 5.1 30 23:20 13.10.2019
6286 Clouds 29 1013 70 11265 3.1 30 22:57 13.10.2019
6287 Clouds 29 1013 70 11265 3.1 30 22:39 13.10.2019
6288 Clouds 29 1013 70 11265 3.1 30 22:20 13.10.2019
6289 Clouds 29 1013 70 11265 3.1 30 22:20 13.10.2019
6290 Clouds 29 1014 66 11265 2.1 350 21:57 13.10.2019
6291 Clouds 29 1014 66 11265 2.1 350 21:36 13.10.2019
6292 Clouds 29 1014 66 11265 2.1 350 21:18 13.10.2019
6293 Clouds 28 1014 69 11265 2.04 90.954 20:56 13.10.2019
6294 Clouds 28 1014 69 11265 1.81 87.532 20:37 13.10.2019
6295 Clouds 28 1014 69 11265 1.81 87.532 20:37 13.10.2019
6296 Clouds 28 1014 69 11265 1.81 87.532 20:37 13.10.2019
6297 Clouds 28 1014 69 11265 1.81 87.532 20:37 13.10.2019
6298 Clouds 28 1014 69 11265 1.81 87.532 20:18 13.10.2019
6299 Clouds 28 1015 69 11265 1.81 87.532 19:55 13.10.2019
6300 Clouds 28 1015 69 11265 1.81 87.532 19:36 13.10.2019
6301 Clouds 28 1015 69 11265 1.81 87.532 19:36 13.10.2019
6302 Clouds 28 1015 69 11265 1.81 87.532 19:18 13.10.2019
6303 Clouds 28 1016 65 11265 2.1 320 18:41 13.10.2019
6304 Clouds 28 1016 65 11265 2.1 320 18:21 13.10.2019
6305 Clouds 27 1016 74 11265 0.96 27.019 17:59 13.10.2019
6306 Clouds 26 1016 74 11265 0.96 27.019 17:41 13.10.2019
6307 Clouds 26 1016 74 11265 0.96 27.019 17:41 13.10.2019
6308 Clouds 26 1016 74 11265 0.96 27.019 17:23 13.10.2019
6309 Clouds 25 1015 83 11265 0.96 27.019 16:44 13.10.2019
6310 Clouds 25 1015 83 11265 0.96 27.019 16:20 13.10.2019
6311 Clouds 25 1015 83 11265 0.96 27.019 16:20 13.10.2019
6312 Clouds 23 1014 94 8047 0.96 27.019 15:58 13.10.2019
6313 Clouds 23 1014 94 8047 0.96 27.019 15:58 13.10.2019
6314 Clouds 22 1014 94 8047 0.96 27.019 15:39 13.10.2019
6315 Clouds 22 1014 94 8047 0.96 27.019 15:39 13.10.2019
6316 Clouds 22 1014 94 8047 0.85 345.67 15:20 13.10.2019
6317 Clouds 22 1014 94 9656 0.85 345.67 14:58 13.10.2019
6318 Clouds 21 1014 94 9656 0.85 345.67 14:39 13.10.2019
6319 Clouds 21 1014 94 9656 0.85 345.67 14:21 13.10.2019
6320 Clouds 21 1014 94 11265 0.85 345.67 13:58 13.10.2019
6321 Clouds 21 1014 94 11265 0.85 345.67 13:37 13.10.2019
6322 Clouds 21 1014 94 11265 1.01 331.507 13:19 13.10.2019
6323 Clouds 22 1012 79 0 0.89 263 12:56 13.10.2019
6324 Clouds 22 1012 78 0 0.45 290 12:37 13.10.2019
6325 Clouds 22 1012 78 0 0.45 301 12:18 13.10.2019
6326 Clouds 20 1016 97 0 0.92 275.127 11:55 13.10.2019
6327 Clouds 22 1012 74 0 1.34 309 11:37 13.10.2019
6328 Clouds 20 1016 97 0 0.92 275.127 11:18 13.10.2019
6329 Clouds 20 1016 97 0 0.92 275.127 11:18 13.10.2019
6330 Clouds 23 1012 71 0 0.89 309 10:41 13.10.2019
6331 Clouds 23 1012 71 0 0.89 309 10:41 13.10.2019
6332 Clouds 23 1012 72 0 2.24 313 10:23 13.10.2019
6333 Clouds 24 1012 71 0 1.79 325 09:41 13.10.2019
6334 Clouds 24 1012 71 0 4.02 339 09:21 13.10.2019
6335 Clouds 24 1012 71 0 4.02 339 09:21 13.10.2019
6336 Clouds 24 1013 70 0 4.02 355 08:58 13.10.2019
6337 Clouds 24 1013 70 0 4.02 355 08:58 13.10.2019
6338 Clouds 25 1013 69 0 4.47 355 08:38 13.10.2019
6339 Clouds 25 1013 69 0 4.47 5 08:19 13.10.2019
6340 Clouds 25 1013 68 0 5.36 355 07:46 13.10.2019
6341 Clouds 25 1013 68 0 4.02 360 07:21 13.10.2019
6342 Clouds 25 1016 78 11265 5.1 360 06:41 13.10.2019
6343 Clouds 25 1015 73 11265 9.3 360 05:39 13.10.2019
6344 Clouds 25 1015 73 11265 8.2 20 04:46 13.10.2019
6345 Clouds 25 1014 69 11265 8.7 20 03:51 13.10.2019
6346 Clouds 26 1014 69 11265 7.7 360 02:41 13.10.2019
6347 Clouds 26 1013 69 11265 8.7 10 01:53 13.10.2019
6348 Clouds 26 1013 69 11265 8.7 10 01:30 13.10.2019
6349 Clouds 26 1013 74 11265 7.7 360 00:47 13.10.2019
6350 Clouds 26 1013 74 11265 7.7 360 00:47 13.10.2019
6351 Clouds 26 1013 74 11265 7.7 360 00:21 13.10.2019
6352 Clouds 27 1013 69 11265 6.7 350 23:56 12.10.2019
6353 Clouds 27 1013 69 11265 6.7 350 23:37 12.10.2019
6354 Clouds 27 1013 69 11265 6.7 350 23:19 12.10.2019
6355 Clouds 27 1013 74 11265 4.1 360 22:57 12.10.2019
6356 Clouds 28 1013 74 11265 4.1 360 22:38 12.10.2019
6357 Clouds 28 1013 74 11265 4.1 360 22:20 12.10.2019
6358 Rain 27 1014 78 8047 5.1 350 21:54 12.10.2019
6359 Rain 27 1014 78 8047 5.1 350 21:36 12.10.2019
6360 Rain 27 1014 78 8047 5.1 350 21:18 12.10.2019
6361 Clouds 26 1015 94 8047 2.6 340 20:39 12.10.2019
6362 Clouds 25 1015 94 8047 2.6 340 20:21 12.10.2019
6363 Clouds 26 1016 88 8047 3.1 360 19:37 12.10.2019
6364 Rain 25 1016 88 8047 3.1 360 19:19 12.10.2019
6365 Rain 25 1016 94 9656 5.1 350 18:56 12.10.2019
6366 Clouds 25 1016 94 9656 5.1 350 18:36 12.10.2019
6367 Clouds 25 1016 94 9656 5.1 350 18:18 12.10.2019
6368 Rain 26 1015 88 9656 5.1 360 17:42 12.10.2019
6369 Rain 26 1015 88 9656 5.1 360 17:19 12.10.2019
6370 Rain 25 1014 100 8047 3.6 350 16:42 12.10.2019
6371 Rain 25 1014 94 8047 1.5 360 16:22 12.10.2019
6372 Rain 24 1014 88 8047 2.1 80 15:59 12.10.2019
6373 Rain 24 1014 88 8047 2.1 80 15:40 12.10.2019
6374 Rain 24 1014 88 8047 2.1 80 15:21 12.10.2019
6375 Rain 24 1014 88 8047 2.1 80 15:21 12.10.2019
6376 Rain 24 1013 88 9656 2.1 330 14:41 12.10.2019
6377 Clouds 24 1013 88 9656 2.1 330 14:21 12.10.2019
6378 Clouds 24 1013 88 9656 2.1 330 14:21 12.10.2019
6379 Clouds 24 1013 83 9656 2.1 360 13:53 12.10.2019
6380 Clouds 24 1013 83 9656 2.1 360 13:53 12.10.2019
6381 Clouds 24 1013 83 9656 2.1 360 13:33 12.10.2019
6382 Rain 23 1010 80 0 1.34 284 12:59 12.10.2019
6383 Rain 23 1010 81 0 1.79 288 12:38 12.10.2019
6384 Rain 23 1010 81 0 1.34 281 12:20 12.10.2019
6385 Rain 23 1010 81 0 1.34 281 11:56 12.10.2019
6386 Rain 23 1010 81 0 1.34 292 11:38 12.10.2019
6387 Rain 23 1010 81 0 1.34 292 11:38 12.10.2019
6388 Rain 23 1010 81 0 1.79 290 11:18 12.10.2019
6389 Rain 23 1010 81 0 2.24 303 10:40 12.10.2019
6390 Rain 23 1011 81 0 3.13 278 10:22 12.10.2019
6391 Rain 24 1011 81 0 2.24 282 09:57 12.10.2019
6392 Rain 24 1011 80 0 1.34 288 09:39 12.10.2019
6393 Rain 24 1011 79 0 1.79 296 09:20 12.10.2019
6394 -273 0 0 0 0 0 08:55 12.10.2019
6395 Rain 24 1012 78 0 2.68 284 08:36 12.10.2019
6396 Rain 24 1012 78 0 4.02 292 08:18 12.10.2019
6397 Rain 24 1012 78 0 4.02 292 08:18 12.10.2019
6398 Rain 25 1012 76 0 2.24 326 07:32 12.10.2019
6399 Clouds 28 1014 88 9656 1.51 311.891 06:38 12.10.2019
6400 Clouds 28 1013 83 9656 1.75 328.924 05:44 12.10.2019
6401 Clouds 28 1013 83 9656 1.75 328.924 04:43 12.10.2019
6402 Clouds 28 1011 83 11265 1.75 328.924 03:56 12.10.2019
6403 Clouds 29 1010 79 9656 2.1 100 02:54 12.10.2019
6404 Clouds 30 1009 74 9656 2.1 100 01:35 12.10.2019
6405 Clouds 31 1009 70 9656 3.1 100 00:57 12.10.2019
6406 Clouds 31 1009 70 9656 3.1 100 00:38 12.10.2019
6407 Clear 32 1009 66 8047 3.6 100 23:55 11.10.2019
6408 Clear 32 1009 66 8047 3.6 100 23:37 11.10.2019
6409 Clear 32 1009 66 8047 3.6 100 23:18 11.10.2019
6410 Clouds 32 1010 62 11265 2.6 90 22:38 11.10.2019
6411 Clouds 32 1010 62 11265 2.6 90 22:19 11.10.2019
6412 Clouds 32 1011 70 11265 4.1 60 21:44 11.10.2019
6413 Clouds 32 1011 70 11265 4.1 60 21:22 11.10.2019
6414 Clouds 32 1011 70 8047 1.5 80 20:59 11.10.2019
6415 Clouds 31 1011 70 8047 1.5 80 20:41 11.10.2019
6416 Clouds 31 1011 70 8047 1.5 80 20:23 11.10.2019
6417 Clouds 31 1012 70 9656 2.6 170 19:55 11.10.2019
6418 Clouds 31 1012 70 9656 2.6 170 19:37 11.10.2019
6419 Clouds 31 1012 70 9656 2.6 170 19:37 11.10.2019
6420 Clouds 31 1012 70 9656 2.6 170 19:18 11.10.2019
6421 Clouds 31 1012 70 9656 2.6 170 19:18 11.10.2019
6422 Clouds 31 1012 70 9656 2.6 170 19:18 11.10.2019
6423 Clouds 31 1012 70 9656 1.5 320 18:56 11.10.2019
6424 Clouds 31 1012 70 9656 1.5 320 18:37 11.10.2019
6425 Clouds 30 1012 70 9656 1.5 320 18:18 11.10.2019
6426 Clouds 30 1012 70 9656 1.5 320 18:18 11.10.2019
6427 Clouds 29 1012 83 11265 0.43 304.763 17:55 11.10.2019
6428 Clouds 29 1012 83 11265 0.43 304.763 17:36 11.10.2019
6429 Clouds 29 1012 83 11265 0.43 304.763 17:18 11.10.2019
6430 Haze 28 1011 88 4828 0.43 304.763 16:40 11.10.2019
6431 Haze 27 1011 88 4828 0.43 304.763 16:20 11.10.2019
6432 Clear 26 1010 94 6437 0.43 304.763 15:59 11.10.2019
6433 Clear 26 1010 94 6437 0.43 304.763 15:38 11.10.2019
6434 Clear 25 1010 94 6437 1.47 271.284 15:19 11.10.2019
6435 Clear 24 1010 100 9656 1.47 271.284 14:47 11.10.2019
6436 Clear 24 1010 100 9656 1.47 271.284 14:29 11.10.2019
6437 Clear 25 1010 94 9656 1.47 271.284 13:56 11.10.2019
6438 Clear 25 1010 94 9656 1.47 271.284 13:38 11.10.2019
6439 Clear 25 1010 94 9656 1.32 276.637 13:19 11.10.2019
6440 Clear 25 1010 94 9656 1.32 276.637 12:54 11.10.2019
6441 Clear 25 1010 94 9656 1.32 276.637 12:36 11.10.2019
6442 Clouds 25 1008 82 0 0.9 265.553 12:18 11.10.2019
6443 Clouds 26 1008 82 0 0.9 265.553 11:41 11.10.2019
6444 Clouds 26 1008 81 0 0.9 265.553 11:22 11.10.2019
6445 Clouds 26 1009 81 0 0.45 277 10:56 11.10.2019
6446 Clouds 26 1009 81 0 0.45 277 10:38 11.10.2019
6447 Clouds 26 1009 81 0 0.89 277 10:20 11.10.2019
6448 Clouds 26 1009 81 0 0.89 277 10:20 11.10.2019
6449 Clouds 26 1009 81 0 0.89 277 10:20 11.10.2019
6450 Clouds 26 1009 81 0 0.89 275 09:55 11.10.2019
6451 Clouds 26 1009 81 0 0.45 275 09:37 11.10.2019
6452 Clouds 26 1009 81 0 1.34 275 09:18 11.10.2019
6453 Clouds 26 1010 81 0 0.45 89 08:40 11.10.2019
6454 Clouds 26 1010 81 0 0.45 89 08:21 11.10.2019
6455 Clouds 26 1010 81 0 0.91 293.687 07:59 11.10.2019
6456 Clouds 26 1010 81 0 0.91 293.687 07:40 11.10.2019
6457 Clouds 26 1010 81 0 0.89 89 07:20 11.10.2019
6458 Clear 26 1012 88 11265 0.91 293.687 06:44 11.10.2019
6459 Clear 26 1012 88 11265 1.36 316.909 06:21 11.10.2019
6460 Clouds 26 1012 94 11265 1.36 316.909 05:37 11.10.2019
6461 Clear 27 1010 83 11265 1.36 316.909 04:59 11.10.2019
6462 Clear 27 1010 83 11265 1.36 316.909 04:24 11.10.2019
6463 Clouds 29 1008 74 11265 2.6 70 01:58 11.10.2019
6464 Clouds 30 1008 74 11265 4.1 80 00:42 11.10.2019
6465 Clouds 30 1008 74 11265 4.1 80 00:42 11.10.2019
6466 Clouds 30 1008 74 11265 4.1 80 00:23 11.10.2019
6467 Clouds 30 1008 74 11265 4.1 80 00:23 11.10.2019
6468 Clouds 30 1009 66 11265 2.6 90 23:42 10.10.2019
6469 Clouds 30 1009 66 11265 2.6 90 23:20 10.10.2019
6470 Clouds 31 1009 66 11265 2.6 120 22:57 10.10.2019
6471 Clouds 31 1009 66 11265 2.6 120 22:38 10.10.2019
6472 Clouds 31 1009 66 11265 2.6 120 22:19 10.10.2019
6473 Clouds 31 1010 66 11265 3.1 100 21:54 10.10.2019
6474 Clouds 31 1010 66 11265 3.1 100 21:36 10.10.2019
6475 Clouds 31 1010 66 11265 3.1 100 21:18 10.10.2019
6476 Clouds 31 1011 70 11265 3.1 80 20:41 10.10.2019
6477 Clouds 31 1011 70 11265 3.1 80 20:21 10.10.2019
6478 Clouds 31 1012 66 11265 1 180 19:58 10.10.2019
6479 Clouds 31 1012 66 11265 1 180 19:39 10.10.2019
6480 Clouds 31 1012 66 11265 1 180 19:19 10.10.2019
6481 Clouds 30 1013 70 11265 1.02 108.648 18:54 10.10.2019
6482 Clouds 30 1013 70 11265 1.02 108.648 18:36 10.10.2019
6483 Clouds 30 1013 70 11265 0.62 297.926 18:18 10.10.2019
6484 Rain 28 1013 88 9656 0.62 297.926 17:40 10.10.2019
6485 Rain 28 1013 88 9656 0.62 297.926 17:20 10.10.2019
6486 Clouds 26 1013 100 8047 0.62 297.926 16:58 10.10.2019
6487 Clouds 25 1013 100 8047 0.62 297.926 16:39 10.10.2019
6488 Clouds 25 1013 100 8047 0.62 297.926 16:21 10.10.2019
6489 Mist 25 1012 100 4828 0.62 297.926 15:43 10.10.2019
6490 Fog 24 1012 100 805 1.54 280.595 15:23 10.10.2019
6491 Clouds 24 1012 100 9656 1.54 280.595 14:59 10.10.2019
6492 Clouds 24 1012 100 9656 1.54 280.595 14:37 10.10.2019
6493 Clouds 24 1012 100 9656 1.54 280.595 14:19 10.10.2019
6494 Clouds 24 1015 100 11265 1.54 280.595 13:58 10.10.2019
6495 Clouds 24 1015 100 11265 1.54 280.595 13:39 10.10.2019
6496 Clouds 24 1015 100 11265 1.36 281.235 13:18 10.10.2019
6497 Clouds 24 1009 83 0 1.36 281.235 12:42 10.10.2019
6498 Clouds 24 1009 83 0 0.45 229 12:21 10.10.2019
6499 Clouds 22 1013 92 0 1.46 264.61 11:58 10.10.2019
6500 Clouds 24 1009 83 0 1.46 264.61 11:40 10.10.2019
6501 Clouds 24 1009 83 0 1.46 264.61 11:19 10.10.2019
6502 Clouds 24 1009 83 0 1.46 264.61 10:57 10.10.2019
6503 Rain 24 1010 83 0 0.89 229 10:39 10.10.2019
6504 Rain 24 1010 83 0 0.89 229 10:20 10.10.2019
6505 Rain 25 1010 83 0 0.89 229 09:41 10.10.2019
6506 Rain 25 1011 82 0 1.34 182 09:23 10.10.2019
6507 Rain 25 1011 82 0 1.34 182 08:59 10.10.2019
6508 Rain 25 1011 82 0 0.45 107 08:40 10.10.2019
6509 Rain 25 1011 81 0 0.89 141 08:21 10.10.2019
6510 Clouds 26 1011 81 0 0.89 265 07:48 10.10.2019
6511 Clouds 25 1011 81 0 0.89 57 07:26 10.10.2019
6512 Clouds 25 1013 94 11265 1.35 264.37 06:56 10.10.2019
6513 Clouds 25 1013 94 11265 1.35 264.37 06:38 10.10.2019
6514 Clouds 26 1012 94 11265 1.16 257.016 05:50 10.10.2019
6515 Clouds 26 1012 94 11265 1.16 257.016 05:19 10.10.2019
6516 Clouds 27 1011 83 11265 1.16 257.016 04:35 10.10.2019
6517 Clouds 28 1010 78 11265 2.6 360 02:42 10.10.2019
6518 Clouds 29 1009 74 11265 3.6 20 01:37 10.10.2019
6519 Clouds 29 1009 74 11265 3.6 20 01:18 10.10.2019
6520 Clouds 29 1009 74 11265 3.6 20 01:18 10.10.2019
6521 Clouds 30 1010 62 11265 5.1 70 00:38 10.10.2019
6522 Clouds 31 1011 58 11265 7.7 50 23:55 09.10.2019
6523 Clouds 31 1011 58 11265 7.7 50 23:36 09.10.2019
6524 Clouds 31 1011 58 11265 7.7 50 23:18 09.10.2019
6525 Clouds 31 1011 62 11265 5.7 360 22:41 09.10.2019
6526 Clouds 31 1011 62 11265 5.7 360 22:22 09.10.2019
6527 Clouds 31 1012 66 11265 6.7 20 21:57 09.10.2019
6528 Clouds 31 1012 66 11265 6.7 20 21:38 09.10.2019
6529 Clouds 31 1012 66 11265 6.7 20 21:19 09.10.2019
6530 Clouds 31 1013 62 11265 5.1 330 20:55 09.10.2019
6531 Clouds 31 1013 62 11265 5.1 330 20:36 09.10.2019
6532 Clouds 30 1013 62 11265 5.1 330 20:18 09.10.2019
6533 Clouds 30 1013 62 11265 5.1 330 20:18 09.10.2019
6534 Clouds 30 1013 62 11265 5.1 330 20:18 09.10.2019
6535 Clouds 30 1014 66 11265 2.1 360 19:43 09.10.2019
6536 Clouds 30 1014 66 11265 2.1 360 19:23 09.10.2019
6537 Clouds 28 1014 69 11265 4.1 350 18:39 09.10.2019
6538 Clouds 28 1014 69 11265 4.1 350 18:21 09.10.2019
6539 Clouds 27 1014 83 11265 3.1 340 17:58 09.10.2019
6540 Rain 27 1014 83 11265 3.1 340 17:40 09.10.2019
6541 Rain 27 1014 83 11265 3.1 340 17:22 09.10.2019
6542 -273 0 0 0 0 0 16:57 09.10.2019
6543 Clouds 25 1014 88 9656 4.1 330 16:39 09.10.2019
6544 Clouds 25 1014 88 9656 4.1 330 16:21 09.10.2019
6545 Clouds 25 1014 88 9656 4.1 330 16:21 09.10.2019
6546 Clouds 25 1014 94 11265 3.6 330 15:57 09.10.2019
6547 Rain 24 1014 94 11265 3.6 330 15:38 09.10.2019
6548 Rain 24 1013 94 6437 5.1 350 15:19 09.10.2019
6549 Rain 25 1014 88 6437 4.1 20 14:55 09.10.2019
6550 Rain 26 1014 88 6437 4.1 20 14:36 09.10.2019
6551 Rain 26 1014 88 6437 4.1 20 14:36 09.10.2019
6552 Rain 25 1013 88 11265 4.1 10 14:18 09.10.2019
6553 Rain 25 1012 83 8047 6.2 360 13:38 09.10.2019
6554 Rain 25 1012 83 8047 6.2 360 13:19 09.10.2019
6555 Rain 26 1010 72 0 4.02 17 12:55 09.10.2019
6556 Rain 26 1010 75 0 4.92 360 12:37 09.10.2019
6557 Rain 26 1010 74 0 5.36 355 12:18 09.10.2019
6558 Rain 26 1010 75 0 4.92 360 11:40 09.10.2019
6559 Rain 25 1010 76 0 2.24 10 11:20 09.10.2019
6560 Rain 24 1010 77 0 2.68 351 10:59 09.10.2019
6561 Rain 25 1010 72 0 1.79 339 10:40 09.10.2019
6562 Clouds 26 1010 68 0 1.34 330 10:19 09.10.2019
6563 Clouds 26 1010 68 0 1.34 330 10:19 09.10.2019
6564 Clouds 26 1010 68 0 1.79 329 09:43 09.10.2019
6565 Clouds 27 1010 65 0 3.13 335 09:21 09.10.2019
6566 Clouds 28 1010 63 0 4.47 342 08:58 09.10.2019
6567 Clouds 28 1011 63 0 4.47 349 08:39 09.10.2019
6568 Clouds 28 1011 62 0 5.81 350 08:19 09.10.2019
6569 Clouds 28 1011 63 0 5.36 355 07:47 09.10.2019
6570 Clouds 27 1011 65 0 4.47 360 07:25 09.10.2019
6571 Clouds 28 1013 69 11265 7.2 360 06:58 09.10.2019
6572 Clouds 28 1013 69 11265 7.2 360 06:35 09.10.2019
6573 Clouds 28 1013 69 11265 3.6 360 05:52 09.10.2019
6574 Clouds 28 1012 74 11265 6.7 360 04:50 09.10.2019
6575 Sand 27 1012 78 9656 6.7 10 03:47 09.10.2019
6576 Sand 28 1010 78 9656 9.3 360 02:27 09.10.2019
6577 Clouds 29 1010 74 11265 9.3 360 01:39 09.10.2019
6578 Clouds 29 1010 74 11265 9.3 360 01:18 09.10.2019
6579 Clouds 30 1010 66 9656 9.3 10 00:41 09.10.2019
6580 Clouds 30 1010 66 9656 9.3 10 00:23 09.10.2019
6581 Clouds 30 1010 66 11265 6.2 360 23:58 08.10.2019
6582 Clouds 31 1010 66 11265 6.2 360 23:38 08.10.2019
6583 Clouds 31 1010 66 11265 6.2 360 23:18 08.10.2019
6584 Clouds 31 1010 66 11265 6.2 360 23:18 08.10.2019
6585 Clouds 31 1011 66 11265 6.2 360 22:41 08.10.2019
6586 Clouds 31 1011 66 11265 6.2 360 22:22 08.10.2019
6587 Clouds 31 1011 62 11265 6.2 360 21:58 08.10.2019
6588 Clouds 31 1011 62 11265 6.2 360 21:39 08.10.2019
6589 Clouds 31 1011 62 11265 6.2 360 21:20 08.10.2019
6590 Clouds 31 1012 58 11265 7.7 10 20:58 08.10.2019
6591 Clouds 32 1012 58 11265 7.7 10 20:39 08.10.2019
6592 Clouds 31 1012 58 11265 7.7 10 20:21 08.10.2019
6593 Clouds 31 1014 66 11265 7.2 360 19:59 08.10.2019
6594 Clouds 31 1014 66 11265 7.2 360 19:41 08.10.2019
6595 Clouds 30 1014 66 11265 7.2 360 19:23 08.10.2019
6596 Clouds 29 1014 74 9656 4.6 350 18:57 08.10.2019
6597 Clouds 29 1014 74 9656 4.6 350 18:39 08.10.2019
6598 Clouds 29 1014 74 9656 4.6 350 18:19 08.10.2019
6599 Clouds 28 1014 78 9656 0.55 225.595 17:55 08.10.2019
6600 Rain 28 1014 78 9656 0.55 225.595 17:36 08.10.2019
6601 Rain 27 1014 78 9656 0.55 225.595 17:18 08.10.2019
6602 Rain 25 1013 88 9656 0.55 225.595 16:40 08.10.2019
6603 Clouds 25 1013 88 9656 0.55 225.595 16:22 08.10.2019
6604 Clouds 24 1013 94 9656 0.55 225.595 15:56 08.10.2019
6605 Clouds 23 1013 94 9656 0.55 225.595 15:37 08.10.2019
6606 Clouds 23 1013 94 9656 1.09 231.299 15:19 08.10.2019
6607 Clouds 23 1012 94 9656 2.1 350 14:42 08.10.2019
6608 Clouds 23 1012 94 9656 2.1 350 14:21 08.10.2019
6609 -273 0 0 0 0 0 13:57 08.10.2019
6610 Clouds 24 1012 88 9656 3.6 330 13:39 08.10.2019
6611 Clouds 24 1012 88 9656 3.6 330 13:19 08.10.2019
6612 Clouds 24 1010 79 0 3.13 327 12:59 08.10.2019
6613 Clouds 24 1010 79 0 3.58 336 12:38 08.10.2019
6614 Rain 24 1010 80 0 3.58 313 12:18 08.10.2019
6615 Rain 24 1011 80 0 4.02 325 11:43 08.10.2019
6616 Rain 24 1010 81 0 3.58 322 11:24 08.10.2019
6617 Rain 22 1014 92 0 1.3 280.807 10:58 08.10.2019
6618 Rain 24 1011 82 0 3.13 334 10:38 08.10.2019
6619 Rain 24 1011 82 0 2.68 326 10:20 08.10.2019
6620 Rain 24 1011 82 0 1.34 306 09:56 08.10.2019
6621 Rain 24 1011 82 0 1.34 306 09:56 08.10.2019
6622 Rain 23 1011 82 0 0.89 32 09:37 08.10.2019
6623 Rain 24 1011 81 0 0.89 90 09:19 08.10.2019
6624 Rain 23 1011 81 0 1.34 98 08:42 08.10.2019
6625 Rain 24 1011 80 0 1.34 96 08:23 08.10.2019
6626 Rain 24 1011 80 0 3.58 327 07:45 08.10.2019
6627 Rain 24 1011 80 0 5.36 333 07:21 08.10.2019
6628 Drizzle 24 1014 94 9656 7.7 360 06:53 08.10.2019
6629 Drizzle 25 1014 94 9656 7.7 360 06:29 08.10.2019
6630 Clouds 25 1013 88 9656 5.1 360 05:55 08.10.2019
6631 Clouds 25 1013 88 9656 5.1 360 05:36 08.10.2019
6632 Rain 25 1012 88 9656 7.7 340 04:31 08.10.2019
6633 Rain 25 1012 88 8047 7.7 350 03:28 08.10.2019
6634 Clouds 28 1010 74 9656 6.2 350 02:37 08.10.2019
6635 Clouds 28 1009 74 9656 7.7 360 01:47 08.10.2019
6636 Clouds 28 1009 74 9656 7.7 360 01:27 08.10.2019
6637 Clouds 29 1009 74 9656 9.3 360 00:46 08.10.2019
6638 Clouds 29 1009 74 9656 9.3 360 00:21 08.10.2019
6639 Clouds 29 1009 74 9656 7.7 360 23:40 07.10.2019
6640 Clouds 29 1009 74 9656 7.7 360 23:20 07.10.2019
6641 Clouds 29 1010 79 9656 8.2 350 22:56 07.10.2019
6642 Clouds 29 1010 79 9656 8.2 350 22:38 07.10.2019
6643 Clouds 29 1010 79 9656 8.2 350 22:20 07.10.2019
6644 Clouds 30 1011 70 11265 6.2 40 21:56 07.10.2019
6645 Clouds 30 1011 70 11265 6.2 40 21:37 07.10.2019
6646 Clouds 30 1011 70 11265 6.2 40 21:19 07.10.2019
6647 Clouds 30 1011 70 11265 6.2 40 21:19 07.10.2019
6648 Clouds 31 1012 62 11265 0.85 23.163 20:57 07.10.2019
6649 Clouds 31 1012 62 11265 0.85 23.163 20:39 07.10.2019
6650 Clouds 31 1012 62 11265 0.85 23.163 20:19 07.10.2019
6651 Clouds 31 1013 55 9656 0.85 23.163 19:56 07.10.2019
6652 Clouds 31 1013 55 9656 0.85 23.163 19:38 07.10.2019
6653 Clouds 31 1013 55 9656 0.85 23.163 19:18 07.10.2019
6654 Clouds 31 1013 70 9656 0.85 23.163 18:55 07.10.2019
6655 Clouds 30 1013 70 9656 0.85 23.163 18:37 07.10.2019
6656 Clouds 30 1013 70 9656 0.56 120.806 18:18 07.10.2019
6657 Clouds 29 1013 78 9656 0.56 120.806 17:41 07.10.2019
6658 Clouds 28 1013 78 9656 0.56 120.806 17:19 07.10.2019
6659 Clouds 27 1013 83 9656 0.56 120.806 16:55 07.10.2019
6660 Clouds 27 1013 83 9656 0.56 120.806 16:55 07.10.2019
6661 Clouds 27 1013 83 9656 0.56 120.806 16:55 07.10.2019
6662 Clouds 27 1013 83 9656 0.56 120.806 16:55 07.10.2019
6663 Clouds 27 1013 83 9656 0.56 120.806 16:37 07.10.2019
6664 Clouds 27 1013 83 9656 0.56 120.806 16:18 07.10.2019
6665 Clouds 24 1012 94 9656 0.56 120.806 15:41 07.10.2019
6666 Clouds 24 1012 94 9656 0.56 120.806 15:41 07.10.2019
6667 Clouds 24 1012 94 9656 0.56 120.806 15:41 07.10.2019
6668 Clouds 24 1012 94 9656 1.04 268.345 15:22 07.10.2019
6669 Clouds 24 1011 88 11265 1.04 268.345 14:42 07.10.2019
6670 Clouds 24 1011 88 11265 1.04 268.345 14:42 07.10.2019
6671 Clouds 24 1011 88 11265 1.04 268.345 14:23 07.10.2019
6672 Clouds 24 1010 88 11265 1.04 268.345 13:59 07.10.2019
6673 Clouds 24 1010 88 11265 1.04 268.345 13:40 07.10.2019
6674 Clouds 24 1010 88 11265 1.25 276.057 13:18 07.10.2019
6675 Clouds 24 1009 80 0 1.34 261 12:54 07.10.2019
6676 Clouds 24 1009 80 0 0.45 261 12:36 07.10.2019
6677 Clouds 24 1009 80 0 0.45 261 12:36 07.10.2019
6678 Clouds 24 1009 80 0 1.05 260.817 12:18 07.10.2019
6679 Clouds 24 1009 81 0 0.89 261 11:56 07.10.2019
6680 Clouds 24 1009 81 0 0.89 261 11:36 07.10.2019
6681 Clouds 24 1009 81 0 1.34 261 11:18 07.10.2019
6682 Clouds 24 1009 79 0 0.45 225 10:40 07.10.2019
6683 Clouds 24 1009 79 0 1.05 260.817 10:20 07.10.2019
6684 Clouds 25 1009 75 0 0.89 225 09:42 07.10.2019
6685 Rain 28 1009 66 0 1.79 321 09:23 07.10.2019
6686 Rain 28 1009 67 0 4.92 9 08:55 07.10.2019
6687 Clouds 28 1009 66 0 3.58 355 08:37 07.10.2019
6688 Clouds 28 1010 66 0 4.02 5 08:18 07.10.2019
6689 Clouds 28 1012 78 11265 5.1 330 07:40 07.10.2019
6690 Clouds 28 1012 78 11265 5.1 330 07:20 07.10.2019
6691 Clouds 28 1012 83 11265 5.7 360 06:44 07.10.2019
6692 Clouds 28 1012 83 11265 5.7 360 06:22 07.10.2019
6693 Clouds 28 1012 83 11265 3.1 360 05:27 07.10.2019
6694 Clouds 28 1012 83 11265 5.1 360 04:58 07.10.2019
6695 Clouds 28 1012 83 11265 5.1 360 04:20 07.10.2019
6696 Clouds 28 1011 83 11265 6.7 350 03:39 07.10.2019
6697 Clouds 28 1011 83 11265 6.7 350 03:18 07.10.2019
6698 Clouds 29 1010 79 11265 9.3 360 02:20 07.10.2019
6699 Clouds 30 1009 74 11265 7.2 20 01:42 07.10.2019
6700 Clouds 30 1009 74 11265 7.2 20 01:18 07.10.2019
6701 Clouds 30 1009 70 11265 8.2 10 00:38 07.10.2019
6702 Clouds 30 1009 70 11265 8.2 10 00:19 07.10.2019
6703 Clouds 32 1010 62 11265 6.7 10 23:42 06.10.2019
6704 Clouds 32 1010 62 11265 6.7 10 23:21 06.10.2019
6705 Clouds 31 1010 66 11265 5.1 30 22:58 06.10.2019
6706 Clouds 31 1010 66 11265 5.1 30 22:40 06.10.2019
6707 Clouds 32 1010 66 11265 5.1 30 22:21 06.10.2019
6708 Clouds 32 1011 59 11265 6.2 20 21:57 06.10.2019
6709 Clouds 32 1011 59 11265 6.2 20 21:37 06.10.2019
6710 Clouds 32 1011 59